<?xml version="1.0" encoding="UTF-8" standalone="no" ?>
<gpx xmlns="http://www.topografix.com/GPX/1/1" xmlns:xsi="http://www.w3.org/2001/XMLSchema-instance" xsi:schemaLocation="http://www.topografix.com/GPX/1/1 http://www.topografix.com/GPX/1/1/gpx.xsd" version="1.1" creator="VisuGPX - https://www.visugpx.com">
  <metadata>
    <name>16 km Le signarau - Mont Senépi</name>
    <desc><![CDATA[16 km Le signarau - Mont Senépi]]></desc>
  </metadata>
  <trk>
    <name><![CDATA[21-JUIN-25 15:41:24]]></name>
    <trkseg>
      <trkpt lat="44.93289" lon="5.72838">
        <ele>1181.7</ele>
        <time>2025-06-21T08:10:21Z</time>
      </trkpt>
      <trkpt lat="44.93289" lon="5.72836">
        <ele>1181.4</ele>
        <time>2025-06-21T08:10:22Z</time>
      </trkpt>
      <trkpt lat="44.93286" lon="5.72837">
        <ele>1182.2</ele>
        <time>2025-06-21T08:10:32Z</time>
      </trkpt>
      <trkpt lat="44.93285" lon="5.72835">
        <ele>1182</ele>
        <time>2025-06-21T08:10:38Z</time>
      </trkpt>
      <trkpt lat="44.93286" lon="5.72831">
        <ele>1181.2</ele>
        <time>2025-06-21T08:10:40Z</time>
      </trkpt>
      <trkpt lat="44.93286" lon="5.72825">
        <ele>1180.1</ele>
        <time>2025-06-21T08:10:44Z</time>
      </trkpt>
      <trkpt lat="44.93279" lon="5.72812">
        <ele>1178.8</ele>
        <time>2025-06-21T08:10:53Z</time>
      </trkpt>
      <trkpt lat="44.93274" lon="5.72805">
        <ele>1177.9</ele>
        <time>2025-06-21T08:10:59Z</time>
      </trkpt>
      <trkpt lat="44.93265" lon="5.728">
        <ele>1177.1</ele>
        <time>2025-06-21T08:11:06Z</time>
      </trkpt>
      <trkpt lat="44.93256" lon="5.72795">
        <ele>1176.1</ele>
        <time>2025-06-21T08:11:15Z</time>
      </trkpt>
      <trkpt lat="44.9325" lon="5.72794">
        <ele>1175.9</ele>
        <time>2025-06-21T08:11:20Z</time>
      </trkpt>
      <trkpt lat="44.93247" lon="5.72794">
        <ele>1175.7</ele>
        <time>2025-06-21T08:11:23Z</time>
      </trkpt>
      <trkpt lat="44.93237" lon="5.72792">
        <ele>1174.9</ele>
        <time>2025-06-21T08:11:31Z</time>
      </trkpt>
      <trkpt lat="44.93228" lon="5.72793">
        <ele>1174.6</ele>
        <time>2025-06-21T08:11:38Z</time>
      </trkpt>
      <trkpt lat="44.93216" lon="5.72794">
        <ele>1174.3</ele>
        <time>2025-06-21T08:11:46Z</time>
      </trkpt>
      <trkpt lat="44.93211" lon="5.72794">
        <ele>1174.1</ele>
        <time>2025-06-21T08:11:49Z</time>
      </trkpt>
      <trkpt lat="44.93203" lon="5.72791">
        <ele>1173.1</ele>
        <time>2025-06-21T08:11:57Z</time>
      </trkpt>
      <trkpt lat="44.93194" lon="5.72784">
        <ele>1171.4</ele>
        <time>2025-06-21T08:12:04Z</time>
      </trkpt>
      <trkpt lat="44.93186" lon="5.72777">
        <ele>1170</ele>
        <time>2025-06-21T08:12:12Z</time>
      </trkpt>
      <trkpt lat="44.93181" lon="5.72772">
        <ele>1169.2</ele>
        <time>2025-06-21T08:12:17Z</time>
      </trkpt>
      <trkpt lat="44.93171" lon="5.72762">
        <ele>1167.4</ele>
        <time>2025-06-21T08:12:27Z</time>
      </trkpt>
      <trkpt lat="44.93165" lon="5.72754">
        <ele>1166</ele>
        <time>2025-06-21T08:12:33Z</time>
      </trkpt>
      <trkpt lat="44.93157" lon="5.72748">
        <ele>1166</ele>
        <time>2025-06-21T08:12:40Z</time>
      </trkpt>
      <trkpt lat="44.93149" lon="5.7274">
        <ele>1165.1</ele>
        <time>2025-06-21T08:12:48Z</time>
      </trkpt>
      <trkpt lat="44.93144" lon="5.72732">
        <ele>1163.9</ele>
        <time>2025-06-21T08:12:55Z</time>
      </trkpt>
      <trkpt lat="44.93141" lon="5.72728">
        <ele>1163.2</ele>
        <time>2025-06-21T08:12:59Z</time>
      </trkpt>
      <trkpt lat="44.93137" lon="5.72715">
        <ele>1160.9</ele>
        <time>2025-06-21T08:13:08Z</time>
      </trkpt>
      <trkpt lat="44.93134" lon="5.72713">
        <ele>1161</ele>
        <time>2025-06-21T08:13:11Z</time>
      </trkpt>
      <trkpt lat="44.93126" lon="5.72706">
        <ele>1161.5</ele>
        <time>2025-06-21T08:13:18Z</time>
      </trkpt>
      <trkpt lat="44.93124" lon="5.72698">
        <ele>1160.1</ele>
        <time>2025-06-21T08:13:25Z</time>
      </trkpt>
      <trkpt lat="44.93123" lon="5.72695">
        <ele>1159.5</ele>
        <time>2025-06-21T08:13:32Z</time>
      </trkpt>
      <trkpt lat="44.93122" lon="5.7269">
        <ele>1158.8</ele>
        <time>2025-06-21T08:13:35Z</time>
      </trkpt>
      <trkpt lat="44.93119" lon="5.72679">
        <ele>1156.9</ele>
        <time>2025-06-21T08:13:42Z</time>
      </trkpt>
      <trkpt lat="44.93119" lon="5.72675">
        <ele>1156.1</ele>
        <time>2025-06-21T08:13:44Z</time>
      </trkpt>
      <trkpt lat="44.93118" lon="5.72659">
        <ele>1152.5</ele>
        <time>2025-06-21T08:13:52Z</time>
      </trkpt>
      <trkpt lat="44.93114" lon="5.72651">
        <ele>1151.5</ele>
        <time>2025-06-21T08:14:00Z</time>
      </trkpt>
      <trkpt lat="44.93107" lon="5.72642">
        <ele>1150.5</ele>
        <time>2025-06-21T08:14:08Z</time>
      </trkpt>
      <trkpt lat="44.93101" lon="5.72632">
        <ele>1149.1</ele>
        <time>2025-06-21T08:14:16Z</time>
      </trkpt>
      <trkpt lat="44.93092" lon="5.72623">
        <ele>1148.5</ele>
        <time>2025-06-21T08:14:23Z</time>
      </trkpt>
      <trkpt lat="44.93086" lon="5.72616">
        <ele>1147.8</ele>
        <time>2025-06-21T08:14:29Z</time>
      </trkpt>
      <trkpt lat="44.93076" lon="5.72606">
        <ele>1146.9</ele>
        <time>2025-06-21T08:14:37Z</time>
      </trkpt>
      <trkpt lat="44.9307" lon="5.72597">
        <ele>1145.9</ele>
        <time>2025-06-21T08:14:44Z</time>
      </trkpt>
      <trkpt lat="44.93064" lon="5.72593">
        <ele>1146</ele>
        <time>2025-06-21T08:14:50Z</time>
      </trkpt>
      <trkpt lat="44.93058" lon="5.72587">
        <ele>1145.4</ele>
        <time>2025-06-21T08:14:57Z</time>
      </trkpt>
      <trkpt lat="44.93048" lon="5.72581">
        <ele>1145.6</ele>
        <time>2025-06-21T08:15:05Z</time>
      </trkpt>
      <trkpt lat="44.93044" lon="5.72577">
        <ele>1145.5</ele>
        <time>2025-06-21T08:15:09Z</time>
      </trkpt>
      <trkpt lat="44.93039" lon="5.72572">
        <ele>1145.4</ele>
        <time>2025-06-21T08:15:14Z</time>
      </trkpt>
      <trkpt lat="44.93034" lon="5.72567">
        <ele>1145.1</ele>
        <time>2025-06-21T08:15:20Z</time>
      </trkpt>
      <trkpt lat="44.93026" lon="5.72557">
        <ele>1144.2</ele>
        <time>2025-06-21T08:15:29Z</time>
      </trkpt>
      <trkpt lat="44.93023" lon="5.72552">
        <ele>1143.7</ele>
        <time>2025-06-21T08:15:35Z</time>
      </trkpt>
      <trkpt lat="44.93024" lon="5.7255">
        <ele>1143.4</ele>
        <time>2025-06-21T08:15:41Z</time>
      </trkpt>
      <trkpt lat="44.93023" lon="5.72552">
        <ele>1143.8</ele>
        <time>2025-06-21T08:15:47Z</time>
      </trkpt>
      <trkpt lat="44.93024" lon="5.72552">
        <ele>1143.6</ele>
        <time>2025-06-21T08:16:00Z</time>
      </trkpt>
      <trkpt lat="44.93023" lon="5.72551">
        <ele>1143.5</ele>
        <time>2025-06-21T08:16:01Z</time>
      </trkpt>
      <trkpt lat="44.93015" lon="5.72534">
        <ele>1141.7</ele>
        <time>2025-06-21T08:16:10Z</time>
      </trkpt>
      <trkpt lat="44.93012" lon="5.72513">
        <ele>1139.7</ele>
        <time>2025-06-21T08:16:20Z</time>
      </trkpt>
      <trkpt lat="44.93016" lon="5.725">
        <ele>1138.4</ele>
        <time>2025-06-21T08:16:27Z</time>
      </trkpt>
      <trkpt lat="44.9302" lon="5.72489">
        <ele>1137.9</ele>
        <time>2025-06-21T08:16:33Z</time>
      </trkpt>
      <trkpt lat="44.93023" lon="5.72475">
        <ele>1137.2</ele>
        <time>2025-06-21T08:16:41Z</time>
      </trkpt>
      <trkpt lat="44.9303" lon="5.7246">
        <ele>1136.1</ele>
        <time>2025-06-21T08:16:50Z</time>
      </trkpt>
      <trkpt lat="44.93032" lon="5.72448">
        <ele>1135.2</ele>
        <time>2025-06-21T08:16:56Z</time>
      </trkpt>
      <trkpt lat="44.93034" lon="5.72434">
        <ele>1132.8</ele>
        <time>2025-06-21T08:17:03Z</time>
      </trkpt>
      <trkpt lat="44.93033" lon="5.7242">
        <ele>1130.6</ele>
        <time>2025-06-21T08:17:10Z</time>
      </trkpt>
      <trkpt lat="44.93027" lon="5.72405">
        <ele>1128.5</ele>
        <time>2025-06-21T08:17:18Z</time>
      </trkpt>
      <trkpt lat="44.93018" lon="5.72397">
        <ele>1127.3</ele>
        <time>2025-06-21T08:17:26Z</time>
      </trkpt>
      <trkpt lat="44.93011" lon="5.72391">
        <ele>1126.6</ele>
        <time>2025-06-21T08:17:33Z</time>
      </trkpt>
      <trkpt lat="44.93001" lon="5.72386">
        <ele>1126.1</ele>
        <time>2025-06-21T08:17:40Z</time>
      </trkpt>
      <trkpt lat="44.92997" lon="5.72384">
        <ele>1125.5</ele>
        <time>2025-06-21T08:17:43Z</time>
      </trkpt>
      <trkpt lat="44.9299" lon="5.72386">
        <ele>1125.9</ele>
        <time>2025-06-21T08:17:50Z</time>
      </trkpt>
      <trkpt lat="44.9298" lon="5.72397">
        <ele>1127.5</ele>
        <time>2025-06-21T08:17:58Z</time>
      </trkpt>
      <trkpt lat="44.92977" lon="5.72401">
        <ele>1127.9</ele>
        <time>2025-06-21T08:18:02Z</time>
      </trkpt>
      <trkpt lat="44.9297" lon="5.72412">
        <ele>1128.9</ele>
        <time>2025-06-21T08:18:09Z</time>
      </trkpt>
      <trkpt lat="44.92966" lon="5.72422">
        <ele>1129</ele>
        <time>2025-06-21T08:18:16Z</time>
      </trkpt>
      <trkpt lat="44.92961" lon="5.72434">
        <ele>1128.7</ele>
        <time>2025-06-21T08:18:23Z</time>
      </trkpt>
      <trkpt lat="44.92958" lon="5.7244">
        <ele>1128.2</ele>
        <time>2025-06-21T08:18:28Z</time>
      </trkpt>
      <trkpt lat="44.92952" lon="5.72449">
        <ele>1127.9</ele>
        <time>2025-06-21T08:18:35Z</time>
      </trkpt>
      <trkpt lat="44.92948" lon="5.72452">
        <ele>1127.4</ele>
        <time>2025-06-21T08:18:40Z</time>
      </trkpt>
      <trkpt lat="44.92939" lon="5.7246">
        <ele>1126.6</ele>
        <time>2025-06-21T08:18:48Z</time>
      </trkpt>
      <trkpt lat="44.92929" lon="5.72466">
        <ele>1125.5</ele>
        <time>2025-06-21T08:18:56Z</time>
      </trkpt>
      <trkpt lat="44.92923" lon="5.72469">
        <ele>1124.8</ele>
        <time>2025-06-21T08:19:00Z</time>
      </trkpt>
      <trkpt lat="44.92913" lon="5.72476">
        <ele>1123.6</ele>
        <time>2025-06-21T08:19:09Z</time>
      </trkpt>
      <trkpt lat="44.92904" lon="5.72482">
        <ele>1122.3</ele>
        <time>2025-06-21T08:19:17Z</time>
      </trkpt>
      <trkpt lat="44.92903" lon="5.72482">
        <ele>1122.1</ele>
        <time>2025-06-21T08:19:18Z</time>
      </trkpt>
      <trkpt lat="44.92898" lon="5.72487">
        <ele>1121.9</ele>
        <time>2025-06-21T08:19:22Z</time>
      </trkpt>
      <trkpt lat="44.92889" lon="5.72495">
        <ele>1121.2</ele>
        <time>2025-06-21T08:19:32Z</time>
      </trkpt>
      <trkpt lat="44.9288" lon="5.72504">
        <ele>1120.9</ele>
        <time>2025-06-21T08:19:40Z</time>
      </trkpt>
      <trkpt lat="44.92874" lon="5.72508">
        <ele>1120.5</ele>
        <time>2025-06-21T08:19:47Z</time>
      </trkpt>
      <trkpt lat="44.92867" lon="5.72513">
        <ele>1120.1</ele>
        <time>2025-06-21T08:19:53Z</time>
      </trkpt>
      <trkpt lat="44.92861" lon="5.72517">
        <ele>1119.7</ele>
        <time>2025-06-21T08:20:00Z</time>
      </trkpt>
      <trkpt lat="44.92855" lon="5.72522">
        <ele>1119.8</ele>
        <time>2025-06-21T08:20:07Z</time>
      </trkpt>
      <trkpt lat="44.92847" lon="5.72526">
        <ele>1119.7</ele>
        <time>2025-06-21T08:20:15Z</time>
      </trkpt>
      <trkpt lat="44.92842" lon="5.7253">
        <ele>1119.9</ele>
        <time>2025-06-21T08:20:22Z</time>
      </trkpt>
      <trkpt lat="44.92837" lon="5.72533">
        <ele>1120</ele>
        <time>2025-06-21T08:20:28Z</time>
      </trkpt>
      <trkpt lat="44.92834" lon="5.72532">
        <ele>1119.4</ele>
        <time>2025-06-21T08:20:30Z</time>
      </trkpt>
      <trkpt lat="44.92825" lon="5.72532">
        <ele>1118.8</ele>
        <time>2025-06-21T08:20:37Z</time>
      </trkpt>
      <trkpt lat="44.92824" lon="5.72532">
        <ele>1118.7</ele>
        <time>2025-06-21T08:20:38Z</time>
      </trkpt>
      <trkpt lat="44.9282" lon="5.7253">
        <ele>1118.3</ele>
        <time>2025-06-21T08:20:40Z</time>
      </trkpt>
      <trkpt lat="44.92805" lon="5.72524">
        <ele>1116.2</ele>
        <time>2025-06-21T08:20:49Z</time>
      </trkpt>
      <trkpt lat="44.92798" lon="5.72516">
        <ele>1114.7</ele>
        <time>2025-06-21T08:20:56Z</time>
      </trkpt>
      <trkpt lat="44.92791" lon="5.7251">
        <ele>1113.5</ele>
        <time>2025-06-21T08:21:03Z</time>
      </trkpt>
      <trkpt lat="44.92788" lon="5.72501">
        <ele>1111.5</ele>
        <time>2025-06-21T08:21:11Z</time>
      </trkpt>
      <trkpt lat="44.92784" lon="5.72493">
        <ele>1110.3</ele>
        <time>2025-06-21T08:21:18Z</time>
      </trkpt>
      <trkpt lat="44.9278" lon="5.72484">
        <ele>1109</ele>
        <time>2025-06-21T08:21:23Z</time>
      </trkpt>
      <trkpt lat="44.92773" lon="5.72477">
        <ele>1108.9</ele>
        <time>2025-06-21T08:21:30Z</time>
      </trkpt>
      <trkpt lat="44.92764" lon="5.72471">
        <ele>1109.7</ele>
        <time>2025-06-21T08:21:39Z</time>
      </trkpt>
      <trkpt lat="44.92757" lon="5.72461">
        <ele>1109.7</ele>
        <time>2025-06-21T08:21:47Z</time>
      </trkpt>
      <trkpt lat="44.92753" lon="5.72446">
        <ele>1107.9</ele>
        <time>2025-06-21T08:21:56Z</time>
      </trkpt>
      <trkpt lat="44.92749" lon="5.72433">
        <ele>1106.6</ele>
        <time>2025-06-21T08:22:03Z</time>
      </trkpt>
      <trkpt lat="44.92745" lon="5.7242">
        <ele>1105.5</ele>
        <time>2025-06-21T08:22:11Z</time>
      </trkpt>
      <trkpt lat="44.92744" lon="5.72413">
        <ele>1104.6</ele>
        <time>2025-06-21T08:22:17Z</time>
      </trkpt>
      <trkpt lat="44.92741" lon="5.7241">
        <ele>1104.8</ele>
        <time>2025-06-21T08:22:21Z</time>
      </trkpt>
      <trkpt lat="44.92736" lon="5.72397">
        <ele>1103.5</ele>
        <time>2025-06-21T08:22:29Z</time>
      </trkpt>
      <trkpt lat="44.9273" lon="5.72387">
        <ele>1102.6</ele>
        <time>2025-06-21T08:22:36Z</time>
      </trkpt>
      <trkpt lat="44.92722" lon="5.72378">
        <ele>1101.7</ele>
        <time>2025-06-21T08:22:45Z</time>
      </trkpt>
      <trkpt lat="44.92713" lon="5.72368">
        <ele>1100.5</ele>
        <time>2025-06-21T08:22:55Z</time>
      </trkpt>
      <trkpt lat="44.92708" lon="5.72357">
        <ele>1098.5</ele>
        <time>2025-06-21T08:23:02Z</time>
      </trkpt>
      <trkpt lat="44.927" lon="5.72347">
        <ele>1096.3</ele>
        <time>2025-06-21T08:23:09Z</time>
      </trkpt>
      <trkpt lat="44.92695" lon="5.72337">
        <ele>1094.1</ele>
        <time>2025-06-21T08:23:16Z</time>
      </trkpt>
      <trkpt lat="44.92689" lon="5.72328">
        <ele>1091.4</ele>
        <time>2025-06-21T08:23:23Z</time>
      </trkpt>
      <trkpt lat="44.92681" lon="5.72323">
        <ele>1089.9</ele>
        <time>2025-06-21T08:23:30Z</time>
      </trkpt>
      <trkpt lat="44.92673" lon="5.72321">
        <ele>1089.6</ele>
        <time>2025-06-21T08:23:37Z</time>
      </trkpt>
      <trkpt lat="44.92668" lon="5.72323">
        <ele>1090.1</ele>
        <time>2025-06-21T08:23:40Z</time>
      </trkpt>
      <trkpt lat="44.92658" lon="5.72328">
        <ele>1089.7</ele>
        <time>2025-06-21T08:23:49Z</time>
      </trkpt>
      <trkpt lat="44.92652" lon="5.72332">
        <ele>1089.4</ele>
        <time>2025-06-21T08:23:55Z</time>
      </trkpt>
      <trkpt lat="44.9265" lon="5.72332">
        <ele>1089.2</ele>
        <time>2025-06-21T08:23:56Z</time>
      </trkpt>
      <trkpt lat="44.92644" lon="5.72339">
        <ele>1089.6</ele>
        <time>2025-06-21T08:24:02Z</time>
      </trkpt>
      <trkpt lat="44.92643" lon="5.72341">
        <ele>1089.8</ele>
        <time>2025-06-21T08:24:03Z</time>
      </trkpt>
      <trkpt lat="44.9264" lon="5.72344">
        <ele>1089.9</ele>
        <time>2025-06-21T08:24:06Z</time>
      </trkpt>
      <trkpt lat="44.92634" lon="5.72351">
        <ele>1090.6</ele>
        <time>2025-06-21T08:24:13Z</time>
      </trkpt>
      <trkpt lat="44.92629" lon="5.7236">
        <ele>1092</ele>
        <time>2025-06-21T08:24:20Z</time>
      </trkpt>
      <trkpt lat="44.92625" lon="5.72365">
        <ele>1092.7</ele>
        <time>2025-06-21T08:24:25Z</time>
      </trkpt>
      <trkpt lat="44.92623" lon="5.72373">
        <ele>1094.4</ele>
        <time>2025-06-21T08:24:30Z</time>
      </trkpt>
      <trkpt lat="44.92617" lon="5.72386">
        <ele>1096.7</ele>
        <time>2025-06-21T08:24:39Z</time>
      </trkpt>
      <trkpt lat="44.92613" lon="5.72395">
        <ele>1098.1</ele>
        <time>2025-06-21T08:24:45Z</time>
      </trkpt>
      <trkpt lat="44.9261" lon="5.72402">
        <ele>1099.3</ele>
        <time>2025-06-21T08:24:51Z</time>
      </trkpt>
      <trkpt lat="44.92609" lon="5.72402">
        <ele>1099.3</ele>
        <time>2025-06-21T08:24:52Z</time>
      </trkpt>
      <trkpt lat="44.92604" lon="5.72402">
        <ele>1099.5</ele>
        <time>2025-06-21T08:24:55Z</time>
      </trkpt>
      <trkpt lat="44.926" lon="5.72414">
        <ele>1102.1</ele>
        <time>2025-06-21T08:25:04Z</time>
      </trkpt>
      <trkpt lat="44.92597" lon="5.72416">
        <ele>1102.4</ele>
        <time>2025-06-21T08:25:06Z</time>
      </trkpt>
      <trkpt lat="44.9259" lon="5.72414">
        <ele>1101.9</ele>
        <time>2025-06-21T08:25:14Z</time>
      </trkpt>
      <trkpt lat="44.92587" lon="5.72405">
        <ele>1100.3</ele>
        <time>2025-06-21T08:25:23Z</time>
      </trkpt>
      <trkpt lat="44.92586" lon="5.72402">
        <ele>1099.9</ele>
        <time>2025-06-21T08:25:27Z</time>
      </trkpt>
      <trkpt lat="44.92584" lon="5.72395">
        <ele>1098.9</ele>
        <time>2025-06-21T08:25:32Z</time>
      </trkpt>
      <trkpt lat="44.92584" lon="5.72391">
        <ele>1098.2</ele>
        <time>2025-06-21T08:25:35Z</time>
      </trkpt>
      <trkpt lat="44.92583" lon="5.72378">
        <ele>1096.1</ele>
        <time>2025-06-21T08:25:43Z</time>
      </trkpt>
      <trkpt lat="44.92582" lon="5.72364">
        <ele>1094.2</ele>
        <time>2025-06-21T08:25:50Z</time>
      </trkpt>
      <trkpt lat="44.92582" lon="5.7236">
        <ele>1093.5</ele>
        <time>2025-06-21T08:25:52Z</time>
      </trkpt>
      <trkpt lat="44.92579" lon="5.72345">
        <ele>1092.1</ele>
        <time>2025-06-21T08:25:59Z</time>
      </trkpt>
      <trkpt lat="44.9258" lon="5.72338">
        <ele>1090.2</ele>
        <time>2025-06-21T08:26:05Z</time>
      </trkpt>
      <trkpt lat="44.92579" lon="5.72328">
        <ele>1088.8</ele>
        <time>2025-06-21T08:26:11Z</time>
      </trkpt>
      <trkpt lat="44.92581" lon="5.72318">
        <ele>1086.6</ele>
        <time>2025-06-21T08:26:18Z</time>
      </trkpt>
      <trkpt lat="44.92583" lon="5.72311">
        <ele>1085</ele>
        <time>2025-06-21T08:26:22Z</time>
      </trkpt>
      <trkpt lat="44.92581" lon="5.72302">
        <ele>1084</ele>
        <time>2025-06-21T08:26:27Z</time>
      </trkpt>
      <trkpt lat="44.92579" lon="5.7229">
        <ele>1081.7</ele>
        <time>2025-06-21T08:26:34Z</time>
      </trkpt>
      <trkpt lat="44.92578" lon="5.72283">
        <ele>1080.3</ele>
        <time>2025-06-21T08:26:38Z</time>
      </trkpt>
      <trkpt lat="44.92576" lon="5.72272">
        <ele>1078.4</ele>
        <time>2025-06-21T08:26:45Z</time>
      </trkpt>
      <trkpt lat="44.92575" lon="5.7227">
        <ele>1078.3</ele>
        <time>2025-06-21T08:26:47Z</time>
      </trkpt>
      <trkpt lat="44.92563" lon="5.72265">
        <ele>1079.3</ele>
        <time>2025-06-21T08:26:55Z</time>
      </trkpt>
      <trkpt lat="44.92562" lon="5.72264">
        <ele>1079.4</ele>
        <time>2025-06-21T08:26:56Z</time>
      </trkpt>
      <trkpt lat="44.92553" lon="5.72257">
        <ele>1079.1</ele>
        <time>2025-06-21T08:27:04Z</time>
      </trkpt>
      <trkpt lat="44.92551" lon="5.72257">
        <ele>1079.4</ele>
        <time>2025-06-21T08:27:06Z</time>
      </trkpt>
      <trkpt lat="44.92542" lon="5.72253">
        <ele>1079.5</ele>
        <time>2025-06-21T08:27:12Z</time>
      </trkpt>
      <trkpt lat="44.92535" lon="5.72251">
        <ele>1079.6</ele>
        <time>2025-06-21T08:27:18Z</time>
      </trkpt>
      <trkpt lat="44.92533" lon="5.72252">
        <ele>1080</ele>
        <time>2025-06-21T08:27:21Z</time>
      </trkpt>
      <trkpt lat="44.92522" lon="5.7225">
        <ele>1080.7</ele>
        <time>2025-06-21T08:27:28Z</time>
      </trkpt>
      <trkpt lat="44.92514" lon="5.72244">
        <ele>1080.8</ele>
        <time>2025-06-21T08:27:36Z</time>
      </trkpt>
      <trkpt lat="44.92511" lon="5.72241">
        <ele>1080.3</ele>
        <time>2025-06-21T08:27:38Z</time>
      </trkpt>
      <trkpt lat="44.92508" lon="5.72237">
        <ele>1080</ele>
        <time>2025-06-21T08:27:42Z</time>
      </trkpt>
      <trkpt lat="44.92504" lon="5.72232">
        <ele>1079.5</ele>
        <time>2025-06-21T08:27:49Z</time>
      </trkpt>
      <trkpt lat="44.92503" lon="5.7223">
        <ele>1079.3</ele>
        <time>2025-06-21T08:27:50Z</time>
      </trkpt>
      <trkpt lat="44.92502" lon="5.72226">
        <ele>1078.5</ele>
        <time>2025-06-21T08:27:53Z</time>
      </trkpt>
      <trkpt lat="44.92502" lon="5.72217">
        <ele>1077</ele>
        <time>2025-06-21T08:28:00Z</time>
      </trkpt>
      <trkpt lat="44.92504" lon="5.72208">
        <ele>1075.3</ele>
        <time>2025-06-21T08:28:06Z</time>
      </trkpt>
      <trkpt lat="44.92505" lon="5.72205">
        <ele>1074.8</ele>
        <time>2025-06-21T08:28:08Z</time>
      </trkpt>
      <trkpt lat="44.92509" lon="5.72195">
        <ele>1072.8</ele>
        <time>2025-06-21T08:28:16Z</time>
      </trkpt>
      <trkpt lat="44.92514" lon="5.7219">
        <ele>1071.4</ele>
        <time>2025-06-21T08:28:23Z</time>
      </trkpt>
      <trkpt lat="44.92517" lon="5.72188">
        <ele>1070.7</ele>
        <time>2025-06-21T08:28:26Z</time>
      </trkpt>
      <trkpt lat="44.92522" lon="5.7218">
        <ele>1068.9</ele>
        <time>2025-06-21T08:28:32Z</time>
      </trkpt>
      <trkpt lat="44.9253" lon="5.72161">
        <ele>1065</ele>
        <time>2025-06-21T08:28:41Z</time>
      </trkpt>
      <trkpt lat="44.92531" lon="5.72158">
        <ele>1064.5</ele>
        <time>2025-06-21T08:28:43Z</time>
      </trkpt>
      <trkpt lat="44.92533" lon="5.72142">
        <ele>1062.4</ele>
        <time>2025-06-21T08:28:50Z</time>
      </trkpt>
      <trkpt lat="44.92533" lon="5.7213">
        <ele>1061.9</ele>
        <time>2025-06-21T08:28:57Z</time>
      </trkpt>
      <trkpt lat="44.92531" lon="5.72117">
        <ele>1061.8</ele>
        <time>2025-06-21T08:29:06Z</time>
      </trkpt>
      <trkpt lat="44.9253" lon="5.72116">
        <ele>1061.8</ele>
        <time>2025-06-21T08:29:07Z</time>
      </trkpt>
      <trkpt lat="44.92528" lon="5.72102">
        <ele>1063</ele>
        <time>2025-06-21T08:29:14Z</time>
      </trkpt>
      <trkpt lat="44.92529" lon="5.72097">
        <ele>1063.3</ele>
        <time>2025-06-21T08:29:18Z</time>
      </trkpt>
      <trkpt lat="44.92526" lon="5.72086">
        <ele>1065.1</ele>
        <time>2025-06-21T08:29:25Z</time>
      </trkpt>
      <trkpt lat="44.92518" lon="5.72078">
        <ele>1067.4</ele>
        <time>2025-06-21T08:29:34Z</time>
      </trkpt>
      <trkpt lat="44.92517" lon="5.72074">
        <ele>1068.2</ele>
        <time>2025-06-21T08:29:41Z</time>
      </trkpt>
      <trkpt lat="44.92514" lon="5.72067">
        <ele>1069.6</ele>
        <time>2025-06-21T08:29:49Z</time>
      </trkpt>
      <trkpt lat="44.92513" lon="5.72066">
        <ele>1069.8</ele>
        <time>2025-06-21T08:29:57Z</time>
      </trkpt>
      <trkpt lat="44.92513" lon="5.72065">
        <ele>1070.1</ele>
        <time>2025-06-21T08:30:07Z</time>
      </trkpt>
      <trkpt lat="44.92512" lon="5.72063">
        <ele>1070.5</ele>
        <time>2025-06-21T08:30:17Z</time>
      </trkpt>
      <trkpt lat="44.92511" lon="5.72062">
        <ele>1070.8</ele>
        <time>2025-06-21T08:30:34Z</time>
      </trkpt>
      <trkpt lat="44.92507" lon="5.72059">
        <ele>1072.1</ele>
        <time>2025-06-21T08:30:48Z</time>
      </trkpt>
      <trkpt lat="44.92509" lon="5.72056">
        <ele>1072</ele>
        <time>2025-06-21T08:31:05Z</time>
      </trkpt>
      <trkpt lat="44.92509" lon="5.72057">
        <ele>1071.9</ele>
        <time>2025-06-21T08:31:24Z</time>
      </trkpt>
      <trkpt lat="44.92508" lon="5.72057">
        <ele>1072</ele>
        <time>2025-06-21T08:31:35Z</time>
      </trkpt>
      <trkpt lat="44.92509" lon="5.72058">
        <ele>1071.7</ele>
        <time>2025-06-21T08:31:47Z</time>
      </trkpt>
      <trkpt lat="44.92509" lon="5.72057">
        <ele>1071.8</ele>
        <time>2025-06-21T08:31:57Z</time>
      </trkpt>
      <trkpt lat="44.92509" lon="5.72054">
        <ele>1072.3</ele>
        <time>2025-06-21T08:32:09Z</time>
      </trkpt>
      <trkpt lat="44.92509" lon="5.72055">
        <ele>1072.2</ele>
        <time>2025-06-21T08:32:21Z</time>
      </trkpt>
      <trkpt lat="44.92509" lon="5.72054">
        <ele>1072.4</ele>
        <time>2025-06-21T08:32:35Z</time>
      </trkpt>
      <trkpt lat="44.92509" lon="5.72054">
        <ele>1072.4</ele>
        <time>2025-06-21T08:32:48Z</time>
      </trkpt>
      <trkpt lat="44.92508" lon="5.72054">
        <ele>1072.7</ele>
        <time>2025-06-21T08:33:03Z</time>
      </trkpt>
      <trkpt lat="44.92507" lon="5.72054">
        <ele>1072.8</ele>
        <time>2025-06-21T08:33:21Z</time>
      </trkpt>
      <trkpt lat="44.92508" lon="5.72054">
        <ele>1072.6</ele>
        <time>2025-06-21T08:33:40Z</time>
      </trkpt>
      <trkpt lat="44.92509" lon="5.72053">
        <ele>1072.7</ele>
        <time>2025-06-21T08:33:59Z</time>
      </trkpt>
      <trkpt lat="44.92509" lon="5.72054">
        <ele>1072.5</ele>
        <time>2025-06-21T08:34:19Z</time>
      </trkpt>
      <trkpt lat="44.92509" lon="5.72054">
        <ele>1072.6</ele>
        <time>2025-06-21T08:34:39Z</time>
      </trkpt>
      <trkpt lat="44.92509" lon="5.72054">
        <ele>1072.3</ele>
        <time>2025-06-21T08:34:51Z</time>
      </trkpt>
      <trkpt lat="44.9251" lon="5.72052">
        <ele>1072.6</ele>
        <time>2025-06-21T08:34:56Z</time>
      </trkpt>
      <trkpt lat="44.92512" lon="5.72049">
        <ele>1072.6</ele>
        <time>2025-06-21T08:35:02Z</time>
      </trkpt>
      <trkpt lat="44.92514" lon="5.72048">
        <ele>1072.4</ele>
        <time>2025-06-21T08:35:04Z</time>
      </trkpt>
      <trkpt lat="44.92518" lon="5.72043">
        <ele>1072.5</ele>
        <time>2025-06-21T08:35:10Z</time>
      </trkpt>
      <trkpt lat="44.92523" lon="5.7204">
        <ele>1072</ele>
        <time>2025-06-21T08:35:16Z</time>
      </trkpt>
      <trkpt lat="44.92527" lon="5.72037">
        <ele>1071.5</ele>
        <time>2025-06-21T08:35:24Z</time>
      </trkpt>
      <trkpt lat="44.92529" lon="5.72034">
        <ele>1071.6</ele>
        <time>2025-06-21T08:35:34Z</time>
      </trkpt>
      <trkpt lat="44.92533" lon="5.72032">
        <ele>1071.1</ele>
        <time>2025-06-21T08:35:41Z</time>
      </trkpt>
      <trkpt lat="44.92539" lon="5.72025">
        <ele>1071.3</ele>
        <time>2025-06-21T08:35:48Z</time>
      </trkpt>
      <trkpt lat="44.92544" lon="5.72014">
        <ele>1072.5</ele>
        <time>2025-06-21T08:35:56Z</time>
      </trkpt>
      <trkpt lat="44.92546" lon="5.72011">
        <ele>1072.8</ele>
        <time>2025-06-21T08:35:58Z</time>
      </trkpt>
      <trkpt lat="44.92552" lon="5.72002">
        <ele>1073.5</ele>
        <time>2025-06-21T08:36:07Z</time>
      </trkpt>
      <trkpt lat="44.92554" lon="5.71998">
        <ele>1073.8</ele>
        <time>2025-06-21T08:36:11Z</time>
      </trkpt>
      <trkpt lat="44.92559" lon="5.7199">
        <ele>1074.4</ele>
        <time>2025-06-21T08:36:19Z</time>
      </trkpt>
      <trkpt lat="44.92563" lon="5.71985">
        <ele>1074.2</ele>
        <time>2025-06-21T08:36:27Z</time>
      </trkpt>
      <trkpt lat="44.92572" lon="5.71976">
        <ele>1074.1</ele>
        <time>2025-06-21T08:36:35Z</time>
      </trkpt>
      <trkpt lat="44.92581" lon="5.71967">
        <ele>1073.7</ele>
        <time>2025-06-21T08:36:44Z</time>
      </trkpt>
      <trkpt lat="44.92586" lon="5.71965">
        <ele>1072.8</ele>
        <time>2025-06-21T08:36:50Z</time>
      </trkpt>
      <trkpt lat="44.92593" lon="5.71958">
        <ele>1072.4</ele>
        <time>2025-06-21T08:36:58Z</time>
      </trkpt>
      <trkpt lat="44.92598" lon="5.71952">
        <ele>1072.4</ele>
        <time>2025-06-21T08:37:05Z</time>
      </trkpt>
      <trkpt lat="44.92606" lon="5.71946">
        <ele>1071.9</ele>
        <time>2025-06-21T08:37:13Z</time>
      </trkpt>
      <trkpt lat="44.92616" lon="5.71943">
        <ele>1070.4</ele>
        <time>2025-06-21T08:37:20Z</time>
      </trkpt>
      <trkpt lat="44.92618" lon="5.71941">
        <ele>1070.2</ele>
        <time>2025-06-21T08:37:22Z</time>
      </trkpt>
      <trkpt lat="44.92622" lon="5.7194">
        <ele>1069.8</ele>
        <time>2025-06-21T08:37:25Z</time>
      </trkpt>
      <trkpt lat="44.92628" lon="5.71937">
        <ele>1069.3</ele>
        <time>2025-06-21T08:37:34Z</time>
      </trkpt>
      <trkpt lat="44.9263" lon="5.71934">
        <ele>1069.6</ele>
        <time>2025-06-21T08:37:39Z</time>
      </trkpt>
      <trkpt lat="44.9264" lon="5.71921">
        <ele>1070.9</ele>
        <time>2025-06-21T08:37:48Z</time>
      </trkpt>
      <trkpt lat="44.92644" lon="5.71911">
        <ele>1073.3</ele>
        <time>2025-06-21T08:37:55Z</time>
      </trkpt>
      <trkpt lat="44.92649" lon="5.71902">
        <ele>1075.7</ele>
        <time>2025-06-21T08:38:03Z</time>
      </trkpt>
      <trkpt lat="44.92655" lon="5.71894">
        <ele>1077.5</ele>
        <time>2025-06-21T08:38:10Z</time>
      </trkpt>
      <trkpt lat="44.92657" lon="5.71893">
        <ele>1077.9</ele>
        <time>2025-06-21T08:38:12Z</time>
      </trkpt>
      <trkpt lat="44.92666" lon="5.7189">
        <ele>1077.8</ele>
        <time>2025-06-21T08:38:20Z</time>
      </trkpt>
      <trkpt lat="44.92675" lon="5.71891">
        <ele>1077.1</ele>
        <time>2025-06-21T08:38:28Z</time>
      </trkpt>
      <trkpt lat="44.92683" lon="5.7189">
        <ele>1077</ele>
        <time>2025-06-21T08:38:35Z</time>
      </trkpt>
      <trkpt lat="44.92691" lon="5.71889">
        <ele>1077.2</ele>
        <time>2025-06-21T08:38:43Z</time>
      </trkpt>
      <trkpt lat="44.92694" lon="5.71888">
        <ele>1077.3</ele>
        <time>2025-06-21T08:38:45Z</time>
      </trkpt>
      <trkpt lat="44.92702" lon="5.71888">
        <ele>1076.5</ele>
        <time>2025-06-21T08:38:53Z</time>
      </trkpt>
      <trkpt lat="44.9271" lon="5.71889">
        <ele>1075.4</ele>
        <time>2025-06-21T08:39:00Z</time>
      </trkpt>
      <trkpt lat="44.92718" lon="5.71885">
        <ele>1075.6</ele>
        <time>2025-06-21T08:39:07Z</time>
      </trkpt>
      <trkpt lat="44.92725" lon="5.71883">
        <ele>1075</ele>
        <time>2025-06-21T08:39:14Z</time>
      </trkpt>
      <trkpt lat="44.92727" lon="5.71884">
        <ele>1074.6</ele>
        <time>2025-06-21T08:39:15Z</time>
      </trkpt>
      <trkpt lat="44.92738" lon="5.7188">
        <ele>1073.2</ele>
        <time>2025-06-21T08:39:23Z</time>
      </trkpt>
      <trkpt lat="44.92743" lon="5.71879">
        <ele>1072</ele>
        <time>2025-06-21T08:39:30Z</time>
      </trkpt>
      <trkpt lat="44.92746" lon="5.71877">
        <ele>1071.8</ele>
        <time>2025-06-21T08:39:36Z</time>
      </trkpt>
      <trkpt lat="44.9275" lon="5.71869">
        <ele>1072.9</ele>
        <time>2025-06-21T08:39:43Z</time>
      </trkpt>
      <trkpt lat="44.92754" lon="5.71855">
        <ele>1074.8</ele>
        <time>2025-06-21T08:39:50Z</time>
      </trkpt>
      <trkpt lat="44.92757" lon="5.71839">
        <ele>1077.1</ele>
        <time>2025-06-21T08:39:57Z</time>
      </trkpt>
      <trkpt lat="44.92758" lon="5.7183">
        <ele>1078.5</ele>
        <time>2025-06-21T08:40:04Z</time>
      </trkpt>
      <trkpt lat="44.9276" lon="5.71822">
        <ele>1078.9</ele>
        <time>2025-06-21T08:40:10Z</time>
      </trkpt>
      <trkpt lat="44.92759" lon="5.71814">
        <ele>1080.4</ele>
        <time>2025-06-21T08:40:17Z</time>
      </trkpt>
      <trkpt lat="44.92758" lon="5.71804">
        <ele>1082.1</ele>
        <time>2025-06-21T08:40:23Z</time>
      </trkpt>
      <trkpt lat="44.92757" lon="5.71794">
        <ele>1084</ele>
        <time>2025-06-21T08:40:29Z</time>
      </trkpt>
      <trkpt lat="44.9276" lon="5.71785">
        <ele>1084.4</ele>
        <time>2025-06-21T08:40:36Z</time>
      </trkpt>
      <trkpt lat="44.92767" lon="5.71768">
        <ele>1085</ele>
        <time>2025-06-21T08:40:43Z</time>
      </trkpt>
      <trkpt lat="44.92769" lon="5.71756">
        <ele>1086.9</ele>
        <time>2025-06-21T08:40:48Z</time>
      </trkpt>
      <trkpt lat="44.92765" lon="5.71756">
        <ele>1088.2</ele>
        <time>2025-06-21T08:40:57Z</time>
      </trkpt>
      <trkpt lat="44.92763" lon="5.71755">
        <ele>1089.2</ele>
        <time>2025-06-21T08:41:03Z</time>
      </trkpt>
      <trkpt lat="44.92763" lon="5.71753">
        <ele>1089.6</ele>
        <time>2025-06-21T08:41:15Z</time>
      </trkpt>
      <trkpt lat="44.92764" lon="5.71753">
        <ele>1089.5</ele>
        <time>2025-06-21T08:41:28Z</time>
      </trkpt>
      <trkpt lat="44.92763" lon="5.71754">
        <ele>1089.7</ele>
        <time>2025-06-21T08:41:36Z</time>
      </trkpt>
      <trkpt lat="44.92758" lon="5.71758">
        <ele>1090.3</ele>
        <time>2025-06-21T08:41:44Z</time>
      </trkpt>
      <trkpt lat="44.92758" lon="5.71759">
        <ele>1090.1</ele>
        <time>2025-06-21T08:41:45Z</time>
      </trkpt>
      <trkpt lat="44.92757" lon="5.71767">
        <ele>1089</ele>
        <time>2025-06-21T08:41:53Z</time>
      </trkpt>
      <trkpt lat="44.92753" lon="5.71776">
        <ele>1088.1</ele>
        <time>2025-06-21T08:42:01Z</time>
      </trkpt>
      <trkpt lat="44.92752" lon="5.71782">
        <ele>1087.7</ele>
        <time>2025-06-21T08:42:08Z</time>
      </trkpt>
      <trkpt lat="44.92752" lon="5.71791">
        <ele>1086.2</ele>
        <time>2025-06-21T08:42:15Z</time>
      </trkpt>
      <trkpt lat="44.9275" lon="5.71802">
        <ele>1085.4</ele>
        <time>2025-06-21T08:42:19Z</time>
      </trkpt>
      <trkpt lat="44.92751" lon="5.71812">
        <ele>1083.8</ele>
        <time>2025-06-21T08:42:26Z</time>
      </trkpt>
      <trkpt lat="44.92752" lon="5.71822">
        <ele>1082</ele>
        <time>2025-06-21T08:42:33Z</time>
      </trkpt>
      <trkpt lat="44.92749" lon="5.71827">
        <ele>1082.2</ele>
        <time>2025-06-21T08:42:38Z</time>
      </trkpt>
      <trkpt lat="44.92742" lon="5.71834">
        <ele>1082.9</ele>
        <time>2025-06-21T08:42:45Z</time>
      </trkpt>
      <trkpt lat="44.92737" lon="5.7184">
        <ele>1083</ele>
        <time>2025-06-21T08:42:51Z</time>
      </trkpt>
      <trkpt lat="44.92732" lon="5.71843">
        <ele>1083.5</ele>
        <time>2025-06-21T08:42:55Z</time>
      </trkpt>
      <trkpt lat="44.92723" lon="5.71848">
        <ele>1084.8</ele>
        <time>2025-06-21T08:43:02Z</time>
      </trkpt>
      <trkpt lat="44.92713" lon="5.71848">
        <ele>1086.1</ele>
        <time>2025-06-21T08:43:11Z</time>
      </trkpt>
      <trkpt lat="44.92706" lon="5.71849">
        <ele>1086.9</ele>
        <time>2025-06-21T08:43:15Z</time>
      </trkpt>
      <trkpt lat="44.92698" lon="5.71848">
        <ele>1088.2</ele>
        <time>2025-06-21T08:43:22Z</time>
      </trkpt>
      <trkpt lat="44.92688" lon="5.71844">
        <ele>1090.4</ele>
        <time>2025-06-21T08:43:29Z</time>
      </trkpt>
      <trkpt lat="44.92681" lon="5.71839">
        <ele>1092.7</ele>
        <time>2025-06-21T08:43:37Z</time>
      </trkpt>
      <trkpt lat="44.92674" lon="5.71835">
        <ele>1094.6</ele>
        <time>2025-06-21T08:43:44Z</time>
      </trkpt>
      <trkpt lat="44.92666" lon="5.71831">
        <ele>1096.7</ele>
        <time>2025-06-21T08:43:51Z</time>
      </trkpt>
      <trkpt lat="44.92661" lon="5.71827">
        <ele>1098.2</ele>
        <time>2025-06-21T08:43:56Z</time>
      </trkpt>
      <trkpt lat="44.92658" lon="5.71824">
        <ele>1099.5</ele>
        <time>2025-06-21T08:43:59Z</time>
      </trkpt>
      <trkpt lat="44.92653" lon="5.71819">
        <ele>1101.3</ele>
        <time>2025-06-21T08:44:06Z</time>
      </trkpt>
      <trkpt lat="44.92647" lon="5.71815">
        <ele>1103.1</ele>
        <time>2025-06-21T08:44:12Z</time>
      </trkpt>
      <trkpt lat="44.9264" lon="5.71813">
        <ele>1104.6</ele>
        <time>2025-06-21T08:44:19Z</time>
      </trkpt>
      <trkpt lat="44.92632" lon="5.71807">
        <ele>1107</ele>
        <time>2025-06-21T08:44:27Z</time>
      </trkpt>
      <trkpt lat="44.92625" lon="5.71803">
        <ele>1108.6</ele>
        <time>2025-06-21T08:44:35Z</time>
      </trkpt>
      <trkpt lat="44.92619" lon="5.71803">
        <ele>1109.1</ele>
        <time>2025-06-21T08:44:41Z</time>
      </trkpt>
      <trkpt lat="44.92613" lon="5.71802">
        <ele>1110</ele>
        <time>2025-06-21T08:44:48Z</time>
      </trkpt>
      <trkpt lat="44.92606" lon="5.71802">
        <ele>1110.4</ele>
        <time>2025-06-21T08:44:54Z</time>
      </trkpt>
      <trkpt lat="44.92598" lon="5.718">
        <ele>1111.4</ele>
        <time>2025-06-21T08:45:02Z</time>
      </trkpt>
      <trkpt lat="44.92591" lon="5.71798">
        <ele>1112.4</ele>
        <time>2025-06-21T08:45:08Z</time>
      </trkpt>
      <trkpt lat="44.92584" lon="5.71798">
        <ele>1112.9</ele>
        <time>2025-06-21T08:45:14Z</time>
      </trkpt>
      <trkpt lat="44.9258" lon="5.71802">
        <ele>1112.4</ele>
        <time>2025-06-21T08:45:19Z</time>
      </trkpt>
      <trkpt lat="44.92572" lon="5.71808">
        <ele>1112.2</ele>
        <time>2025-06-21T08:45:27Z</time>
      </trkpt>
      <trkpt lat="44.92569" lon="5.71811">
        <ele>1111.9</ele>
        <time>2025-06-21T08:45:33Z</time>
      </trkpt>
      <trkpt lat="44.92564" lon="5.71816">
        <ele>1111.9</ele>
        <time>2025-06-21T08:45:38Z</time>
      </trkpt>
      <trkpt lat="44.9256" lon="5.71821">
        <ele>1111.8</ele>
        <time>2025-06-21T08:45:44Z</time>
      </trkpt>
      <trkpt lat="44.92554" lon="5.71831">
        <ele>1111.6</ele>
        <time>2025-06-21T08:45:53Z</time>
      </trkpt>
      <trkpt lat="44.92551" lon="5.71838">
        <ele>1111.3</ele>
        <time>2025-06-21T08:46:00Z</time>
      </trkpt>
      <trkpt lat="44.92543" lon="5.71849">
        <ele>1112</ele>
        <time>2025-06-21T08:46:08Z</time>
      </trkpt>
      <trkpt lat="44.92539" lon="5.71856">
        <ele>1111.7</ele>
        <time>2025-06-21T08:46:15Z</time>
      </trkpt>
      <trkpt lat="44.92532" lon="5.71865">
        <ele>1111.9</ele>
        <time>2025-06-21T08:46:23Z</time>
      </trkpt>
      <trkpt lat="44.92523" lon="5.71873">
        <ele>1113</ele>
        <time>2025-06-21T08:46:32Z</time>
      </trkpt>
      <trkpt lat="44.92513" lon="5.71882">
        <ele>1114.2</ele>
        <time>2025-06-21T08:46:41Z</time>
      </trkpt>
      <trkpt lat="44.9251" lon="5.71887">
        <ele>1114</ele>
        <time>2025-06-21T08:46:48Z</time>
      </trkpt>
      <trkpt lat="44.92509" lon="5.7189">
        <ele>1113.8</ele>
        <time>2025-06-21T08:46:50Z</time>
      </trkpt>
      <trkpt lat="44.92501" lon="5.71897">
        <ele>1114.8</ele>
        <time>2025-06-21T08:46:58Z</time>
      </trkpt>
      <trkpt lat="44.92497" lon="5.71898">
        <ele>1115.3</ele>
        <time>2025-06-21T08:47:01Z</time>
      </trkpt>
      <trkpt lat="44.92486" lon="5.71897">
        <ele>1118.3</ele>
        <time>2025-06-21T08:47:10Z</time>
      </trkpt>
      <trkpt lat="44.92475" lon="5.71893">
        <ele>1121.4</ele>
        <time>2025-06-21T08:47:18Z</time>
      </trkpt>
      <trkpt lat="44.92467" lon="5.71891">
        <ele>1123.4</ele>
        <time>2025-06-21T08:47:25Z</time>
      </trkpt>
      <trkpt lat="44.92465" lon="5.71888">
        <ele>1124.6</ele>
        <time>2025-06-21T08:47:30Z</time>
      </trkpt>
      <trkpt lat="44.92457" lon="5.71887">
        <ele>1126.3</ele>
        <time>2025-06-21T08:47:39Z</time>
      </trkpt>
      <trkpt lat="44.92449" lon="5.71884">
        <ele>1128.2</ele>
        <time>2025-06-21T08:47:47Z</time>
      </trkpt>
      <trkpt lat="44.9244" lon="5.71877">
        <ele>1131.4</ele>
        <time>2025-06-21T08:47:56Z</time>
      </trkpt>
      <trkpt lat="44.92434" lon="5.71872">
        <ele>1133.4</ele>
        <time>2025-06-21T08:48:03Z</time>
      </trkpt>
      <trkpt lat="44.92431" lon="5.71872">
        <ele>1134.1</ele>
        <time>2025-06-21T08:48:05Z</time>
      </trkpt>
      <trkpt lat="44.92424" lon="5.71872">
        <ele>1135.4</ele>
        <time>2025-06-21T08:48:12Z</time>
      </trkpt>
      <trkpt lat="44.92419" lon="5.71867">
        <ele>1137.2</ele>
        <time>2025-06-21T08:48:17Z</time>
      </trkpt>
      <trkpt lat="44.92412" lon="5.71864">
        <ele>1139.4</ele>
        <time>2025-06-21T08:48:24Z</time>
      </trkpt>
      <trkpt lat="44.92409" lon="5.71862">
        <ele>1140.5</ele>
        <time>2025-06-21T08:48:30Z</time>
      </trkpt>
      <trkpt lat="44.924" lon="5.71859">
        <ele>1142.9</ele>
        <time>2025-06-21T08:48:40Z</time>
      </trkpt>
      <trkpt lat="44.92393" lon="5.71858">
        <ele>1144.7</ele>
        <time>2025-06-21T08:48:48Z</time>
      </trkpt>
      <trkpt lat="44.92388" lon="5.7186">
        <ele>1145.4</ele>
        <time>2025-06-21T08:48:55Z</time>
      </trkpt>
      <trkpt lat="44.92386" lon="5.7186">
        <ele>1146.1</ele>
        <time>2025-06-21T08:49:00Z</time>
      </trkpt>
      <trkpt lat="44.9238" lon="5.71862">
        <ele>1147.3</ele>
        <time>2025-06-21T08:49:08Z</time>
      </trkpt>
      <trkpt lat="44.92379" lon="5.71863">
        <ele>1147.4</ele>
        <time>2025-06-21T08:49:09Z</time>
      </trkpt>
      <trkpt lat="44.92373" lon="5.71868">
        <ele>1148.2</ele>
        <time>2025-06-21T08:49:16Z</time>
      </trkpt>
      <trkpt lat="44.9237" lon="5.71869">
        <ele>1148.8</ele>
        <time>2025-06-21T08:49:21Z</time>
      </trkpt>
      <trkpt lat="44.92369" lon="5.71871">
        <ele>1148.5</ele>
        <time>2025-06-21T08:49:27Z</time>
      </trkpt>
      <trkpt lat="44.92363" lon="5.71877">
        <ele>1149.1</ele>
        <time>2025-06-21T08:49:33Z</time>
      </trkpt>
      <trkpt lat="44.92358" lon="5.71883">
        <ele>1149.3</ele>
        <time>2025-06-21T08:49:38Z</time>
      </trkpt>
      <trkpt lat="44.92356" lon="5.71887">
        <ele>1149.5</ele>
        <time>2025-06-21T08:49:41Z</time>
      </trkpt>
      <trkpt lat="44.92353" lon="5.71893">
        <ele>1149.2</ele>
        <time>2025-06-21T08:49:46Z</time>
      </trkpt>
      <trkpt lat="44.92349" lon="5.71901">
        <ele>1148.9</ele>
        <time>2025-06-21T08:49:53Z</time>
      </trkpt>
      <trkpt lat="44.92348" lon="5.71907">
        <ele>1148.5</ele>
        <time>2025-06-21T08:49:57Z</time>
      </trkpt>
      <trkpt lat="44.92346" lon="5.71908">
        <ele>1148.8</ele>
        <time>2025-06-21T08:49:59Z</time>
      </trkpt>
      <trkpt lat="44.92343" lon="5.71918">
        <ele>1147.9</ele>
        <time>2025-06-21T08:50:07Z</time>
      </trkpt>
      <trkpt lat="44.92338" lon="5.71925">
        <ele>1148</ele>
        <time>2025-06-21T08:50:14Z</time>
      </trkpt>
      <trkpt lat="44.9233" lon="5.71935">
        <ele>1148.7</ele>
        <time>2025-06-21T08:50:23Z</time>
      </trkpt>
      <trkpt lat="44.9233" lon="5.71937">
        <ele>1148.6</ele>
        <time>2025-06-21T08:50:25Z</time>
      </trkpt>
      <trkpt lat="44.92324" lon="5.71943">
        <ele>1149.3</ele>
        <time>2025-06-21T08:50:32Z</time>
      </trkpt>
      <trkpt lat="44.92319" lon="5.71949">
        <ele>1150</ele>
        <time>2025-06-21T08:50:40Z</time>
      </trkpt>
      <trkpt lat="44.92313" lon="5.71956">
        <ele>1151.2</ele>
        <time>2025-06-21T08:50:46Z</time>
      </trkpt>
      <trkpt lat="44.92308" lon="5.71964">
        <ele>1151.7</ele>
        <time>2025-06-21T08:50:53Z</time>
      </trkpt>
      <trkpt lat="44.92308" lon="5.71965">
        <ele>1151.7</ele>
        <time>2025-06-21T08:50:54Z</time>
      </trkpt>
      <trkpt lat="44.92304" lon="5.71971">
        <ele>1151.8</ele>
        <time>2025-06-21T08:51:00Z</time>
      </trkpt>
      <trkpt lat="44.92301" lon="5.71975">
        <ele>1152.4</ele>
        <time>2025-06-21T08:51:06Z</time>
      </trkpt>
      <trkpt lat="44.92294" lon="5.7198">
        <ele>1154.6</ele>
        <time>2025-06-21T08:51:13Z</time>
      </trkpt>
      <trkpt lat="44.9229" lon="5.71984">
        <ele>1155.3</ele>
        <time>2025-06-21T08:51:19Z</time>
      </trkpt>
      <trkpt lat="44.92287" lon="5.71988">
        <ele>1156.1</ele>
        <time>2025-06-21T08:51:26Z</time>
      </trkpt>
      <trkpt lat="44.92279" lon="5.71996">
        <ele>1158.3</ele>
        <time>2025-06-21T08:51:33Z</time>
      </trkpt>
      <trkpt lat="44.92276" lon="5.71998">
        <ele>1158.8</ele>
        <time>2025-06-21T08:51:35Z</time>
      </trkpt>
      <trkpt lat="44.92268" lon="5.72007">
        <ele>1161.6</ele>
        <time>2025-06-21T08:51:43Z</time>
      </trkpt>
      <trkpt lat="44.92263" lon="5.72011">
        <ele>1163.8</ele>
        <time>2025-06-21T08:51:50Z</time>
      </trkpt>
      <trkpt lat="44.92258" lon="5.72019">
        <ele>1165.5</ele>
        <time>2025-06-21T08:51:59Z</time>
      </trkpt>
      <trkpt lat="44.92258" lon="5.72027">
        <ele>1165.1</ele>
        <time>2025-06-21T08:52:06Z</time>
      </trkpt>
      <trkpt lat="44.92261" lon="5.72038">
        <ele>1164</ele>
        <time>2025-06-21T08:52:14Z</time>
      </trkpt>
      <trkpt lat="44.92263" lon="5.72048">
        <ele>1163.7</ele>
        <time>2025-06-21T08:52:22Z</time>
      </trkpt>
      <trkpt lat="44.92262" lon="5.72052">
        <ele>1164</ele>
        <time>2025-06-21T08:52:25Z</time>
      </trkpt>
      <trkpt lat="44.92262" lon="5.72061">
        <ele>1163.9</ele>
        <time>2025-06-21T08:52:31Z</time>
      </trkpt>
      <trkpt lat="44.9226" lon="5.72064">
        <ele>1164.2</ele>
        <time>2025-06-21T08:52:35Z</time>
      </trkpt>
      <trkpt lat="44.92255" lon="5.72072">
        <ele>1165.2</ele>
        <time>2025-06-21T08:52:43Z</time>
      </trkpt>
      <trkpt lat="44.9225" lon="5.72071">
        <ele>1166.5</ele>
        <time>2025-06-21T08:52:48Z</time>
      </trkpt>
      <trkpt lat="44.92241" lon="5.72071">
        <ele>1168.7</ele>
        <time>2025-06-21T08:52:56Z</time>
      </trkpt>
      <trkpt lat="44.9224" lon="5.72071">
        <ele>1169</ele>
        <time>2025-06-21T08:52:57Z</time>
      </trkpt>
      <trkpt lat="44.92236" lon="5.72073">
        <ele>1169.9</ele>
        <time>2025-06-21T08:53:05Z</time>
      </trkpt>
      <trkpt lat="44.9223" lon="5.7207">
        <ele>1171.5</ele>
        <time>2025-06-21T08:53:12Z</time>
      </trkpt>
      <trkpt lat="44.92223" lon="5.72068">
        <ele>1173.6</ele>
        <time>2025-06-21T08:53:19Z</time>
      </trkpt>
      <trkpt lat="44.92213" lon="5.72063">
        <ele>1176.2</ele>
        <time>2025-06-21T08:53:27Z</time>
      </trkpt>
      <trkpt lat="44.92213" lon="5.72064">
        <ele>1176.3</ele>
        <time>2025-06-21T08:53:28Z</time>
      </trkpt>
      <trkpt lat="44.92208" lon="5.72063">
        <ele>1177.4</ele>
        <time>2025-06-21T08:53:36Z</time>
      </trkpt>
      <trkpt lat="44.92208" lon="5.72063">
        <ele>1177.6</ele>
        <time>2025-06-21T08:53:49Z</time>
      </trkpt>
      <trkpt lat="44.92208" lon="5.72063">
        <ele>1177.6</ele>
        <time>2025-06-21T08:54:05Z</time>
      </trkpt>
      <trkpt lat="44.92207" lon="5.72062">
        <ele>1177.8</ele>
        <time>2025-06-21T08:54:17Z</time>
      </trkpt>
      <trkpt lat="44.92207" lon="5.72061">
        <ele>1178</ele>
        <time>2025-06-21T08:54:34Z</time>
      </trkpt>
      <trkpt lat="44.92206" lon="5.72061">
        <ele>1178.2</ele>
        <time>2025-06-21T08:54:49Z</time>
      </trkpt>
      <trkpt lat="44.92206" lon="5.72062">
        <ele>1178</ele>
        <time>2025-06-21T08:55:04Z</time>
      </trkpt>
      <trkpt lat="44.92206" lon="5.72063">
        <ele>1177.9</ele>
        <time>2025-06-21T08:55:13Z</time>
      </trkpt>
      <trkpt lat="44.92206" lon="5.72063">
        <ele>1178</ele>
        <time>2025-06-21T08:55:23Z</time>
      </trkpt>
      <trkpt lat="44.92206" lon="5.72063">
        <ele>1177.9</ele>
        <time>2025-06-21T08:55:35Z</time>
      </trkpt>
      <trkpt lat="44.92206" lon="5.72063">
        <ele>1178</ele>
        <time>2025-06-21T08:55:45Z</time>
      </trkpt>
      <trkpt lat="44.92206" lon="5.72063">
        <ele>1178.1</ele>
        <time>2025-06-21T08:55:58Z</time>
      </trkpt>
      <trkpt lat="44.92206" lon="5.72062">
        <ele>1178.1</ele>
        <time>2025-06-21T08:56:10Z</time>
      </trkpt>
      <trkpt lat="44.92206" lon="5.72062">
        <ele>1178.1</ele>
        <time>2025-06-21T08:56:21Z</time>
      </trkpt>
      <trkpt lat="44.92206" lon="5.72062">
        <ele>1178.1</ele>
        <time>2025-06-21T08:56:32Z</time>
      </trkpt>
      <trkpt lat="44.92206" lon="5.72062">
        <ele>1178.2</ele>
        <time>2025-06-21T08:56:46Z</time>
      </trkpt>
      <trkpt lat="44.92206" lon="5.72062">
        <ele>1178.2</ele>
        <time>2025-06-21T08:56:57Z</time>
      </trkpt>
      <trkpt lat="44.92206" lon="5.72062">
        <ele>1178.2</ele>
        <time>2025-06-21T08:57:06Z</time>
      </trkpt>
      <trkpt lat="44.92205" lon="5.72062">
        <ele>1178.4</ele>
        <time>2025-06-21T08:57:17Z</time>
      </trkpt>
      <trkpt lat="44.92204" lon="5.72061">
        <ele>1178.6</ele>
        <time>2025-06-21T08:57:31Z</time>
      </trkpt>
      <trkpt lat="44.92204" lon="5.72062">
        <ele>1178.6</ele>
        <time>2025-06-21T08:57:42Z</time>
      </trkpt>
      <trkpt lat="44.92204" lon="5.72062">
        <ele>1178.6</ele>
        <time>2025-06-21T08:57:56Z</time>
      </trkpt>
      <trkpt lat="44.92204" lon="5.72061">
        <ele>1178.7</ele>
        <time>2025-06-21T08:58:10Z</time>
      </trkpt>
      <trkpt lat="44.92205" lon="5.72061">
        <ele>1178.7</ele>
        <time>2025-06-21T08:58:24Z</time>
      </trkpt>
      <trkpt lat="44.92205" lon="5.7206">
        <ele>1178.6</ele>
        <time>2025-06-21T08:58:37Z</time>
      </trkpt>
      <trkpt lat="44.92205" lon="5.72061">
        <ele>1178.5</ele>
        <time>2025-06-21T08:58:48Z</time>
      </trkpt>
      <trkpt lat="44.92205" lon="5.72061">
        <ele>1178.5</ele>
        <time>2025-06-21T08:59:04Z</time>
      </trkpt>
      <trkpt lat="44.92204" lon="5.72063">
        <ele>1178.4</ele>
        <time>2025-06-21T08:59:16Z</time>
      </trkpt>
      <trkpt lat="44.92204" lon="5.72063">
        <ele>1178.4</ele>
        <time>2025-06-21T08:59:26Z</time>
      </trkpt>
      <trkpt lat="44.92204" lon="5.72063">
        <ele>1178.5</ele>
        <time>2025-06-21T08:59:38Z</time>
      </trkpt>
      <trkpt lat="44.92204" lon="5.72063">
        <ele>1178.6</ele>
        <time>2025-06-21T08:59:51Z</time>
      </trkpt>
      <trkpt lat="44.92204" lon="5.72063">
        <ele>1178.6</ele>
        <time>2025-06-21T09:00:03Z</time>
      </trkpt>
      <trkpt lat="44.92204" lon="5.72062">
        <ele>1178.6</ele>
        <time>2025-06-21T09:00:13Z</time>
      </trkpt>
      <trkpt lat="44.92204" lon="5.72062">
        <ele>1178.7</ele>
        <time>2025-06-21T09:00:24Z</time>
      </trkpt>
      <trkpt lat="44.92203" lon="5.72062">
        <ele>1178.7</ele>
        <time>2025-06-21T09:00:34Z</time>
      </trkpt>
      <trkpt lat="44.92201" lon="5.72064">
        <ele>1179</ele>
        <time>2025-06-21T09:00:41Z</time>
      </trkpt>
      <trkpt lat="44.92198" lon="5.72069">
        <ele>1178.8</ele>
        <time>2025-06-21T09:00:48Z</time>
      </trkpt>
      <trkpt lat="44.92192" lon="5.72074">
        <ele>1179.1</ele>
        <time>2025-06-21T09:00:56Z</time>
      </trkpt>
      <trkpt lat="44.92185" lon="5.7208">
        <ele>1179.5</ele>
        <time>2025-06-21T09:01:03Z</time>
      </trkpt>
      <trkpt lat="44.92183" lon="5.7208">
        <ele>1179.7</ele>
        <time>2025-06-21T09:01:05Z</time>
      </trkpt>
      <trkpt lat="44.92176" lon="5.72084">
        <ele>1180.1</ele>
        <time>2025-06-21T09:01:12Z</time>
      </trkpt>
      <trkpt lat="44.92174" lon="5.72087">
        <ele>1179.7</ele>
        <time>2025-06-21T09:01:16Z</time>
      </trkpt>
      <trkpt lat="44.92168" lon="5.72091">
        <ele>1179.6</ele>
        <time>2025-06-21T09:01:22Z</time>
      </trkpt>
      <trkpt lat="44.92167" lon="5.72091">
        <ele>1179.7</ele>
        <time>2025-06-21T09:01:23Z</time>
      </trkpt>
      <trkpt lat="44.92163" lon="5.72096">
        <ele>1179.1</ele>
        <time>2025-06-21T09:01:26Z</time>
      </trkpt>
      <trkpt lat="44.9216" lon="5.72102">
        <ele>1177.7</ele>
        <time>2025-06-21T09:01:33Z</time>
      </trkpt>
      <trkpt lat="44.92155" lon="5.72108">
        <ele>1177</ele>
        <time>2025-06-21T09:01:38Z</time>
      </trkpt>
      <trkpt lat="44.92152" lon="5.72111">
        <ele>1176.6</ele>
        <time>2025-06-21T09:01:41Z</time>
      </trkpt>
      <trkpt lat="44.92148" lon="5.72116">
        <ele>1175.9</ele>
        <time>2025-06-21T09:01:45Z</time>
      </trkpt>
      <trkpt lat="44.92136" lon="5.72122">
        <ele>1176.3</ele>
        <time>2025-06-21T09:01:53Z</time>
      </trkpt>
      <trkpt lat="44.92127" lon="5.7212">
        <ele>1178.6</ele>
        <time>2025-06-21T09:01:59Z</time>
      </trkpt>
      <trkpt lat="44.92116" lon="5.72121">
        <ele>1180.2</ele>
        <time>2025-06-21T09:02:07Z</time>
      </trkpt>
      <trkpt lat="44.92107" lon="5.72119">
        <ele>1182.7</ele>
        <time>2025-06-21T09:02:13Z</time>
      </trkpt>
      <trkpt lat="44.92102" lon="5.72119">
        <ele>1183.5</ele>
        <time>2025-06-21T09:02:18Z</time>
      </trkpt>
      <trkpt lat="44.92091" lon="5.7212">
        <ele>1185.3</ele>
        <time>2025-06-21T09:02:27Z</time>
      </trkpt>
      <trkpt lat="44.9209" lon="5.7212">
        <ele>1185.4</ele>
        <time>2025-06-21T09:02:28Z</time>
      </trkpt>
      <trkpt lat="44.92088" lon="5.72121">
        <ele>1185.8</ele>
        <time>2025-06-21T09:02:30Z</time>
      </trkpt>
      <trkpt lat="44.92081" lon="5.72122">
        <ele>1186.9</ele>
        <time>2025-06-21T09:02:37Z</time>
      </trkpt>
      <trkpt lat="44.92076" lon="5.72123">
        <ele>1187.7</ele>
        <time>2025-06-21T09:02:42Z</time>
      </trkpt>
      <trkpt lat="44.92071" lon="5.72125">
        <ele>1188</ele>
        <time>2025-06-21T09:02:49Z</time>
      </trkpt>
      <trkpt lat="44.92067" lon="5.72127">
        <ele>1188.5</ele>
        <time>2025-06-21T09:02:57Z</time>
      </trkpt>
      <trkpt lat="44.92063" lon="5.72131">
        <ele>1188.5</ele>
        <time>2025-06-21T09:03:03Z</time>
      </trkpt>
      <trkpt lat="44.92059" lon="5.72136">
        <ele>1187.8</ele>
        <time>2025-06-21T09:03:11Z</time>
      </trkpt>
      <trkpt lat="44.92057" lon="5.7214">
        <ele>1187.4</ele>
        <time>2025-06-21T09:03:15Z</time>
      </trkpt>
      <trkpt lat="44.92053" lon="5.72143">
        <ele>1187.7</ele>
        <time>2025-06-21T09:03:18Z</time>
      </trkpt>
      <trkpt lat="44.92045" lon="5.7215">
        <ele>1188</ele>
        <time>2025-06-21T09:03:25Z</time>
      </trkpt>
      <trkpt lat="44.92041" lon="5.72155">
        <ele>1187.8</ele>
        <time>2025-06-21T09:03:29Z</time>
      </trkpt>
      <trkpt lat="44.92036" lon="5.72159">
        <ele>1187.9</ele>
        <time>2025-06-21T09:03:34Z</time>
      </trkpt>
      <trkpt lat="44.92026" lon="5.72165">
        <ele>1188.7</ele>
        <time>2025-06-21T09:03:43Z</time>
      </trkpt>
      <trkpt lat="44.92018" lon="5.72167">
        <ele>1189.7</ele>
        <time>2025-06-21T09:03:50Z</time>
      </trkpt>
      <trkpt lat="44.92011" lon="5.72168">
        <ele>1191</ele>
        <time>2025-06-21T09:03:58Z</time>
      </trkpt>
      <trkpt lat="44.92006" lon="5.72167">
        <ele>1191.9</ele>
        <time>2025-06-21T09:04:04Z</time>
      </trkpt>
      <trkpt lat="44.91999" lon="5.72165">
        <ele>1193.4</ele>
        <time>2025-06-21T09:04:10Z</time>
      </trkpt>
      <trkpt lat="44.91991" lon="5.72161">
        <ele>1195.7</ele>
        <time>2025-06-21T09:04:19Z</time>
      </trkpt>
      <trkpt lat="44.91987" lon="5.7216">
        <ele>1196.5</ele>
        <time>2025-06-21T09:04:24Z</time>
      </trkpt>
      <trkpt lat="44.91982" lon="5.7216">
        <ele>1197.3</ele>
        <time>2025-06-21T09:04:31Z</time>
      </trkpt>
      <trkpt lat="44.91981" lon="5.72161">
        <ele>1197.3</ele>
        <time>2025-06-21T09:04:32Z</time>
      </trkpt>
      <trkpt lat="44.91977" lon="5.72162">
        <ele>1197.9</ele>
        <time>2025-06-21T09:04:39Z</time>
      </trkpt>
      <trkpt lat="44.9197" lon="5.72166">
        <ele>1198.7</ele>
        <time>2025-06-21T09:04:46Z</time>
      </trkpt>
      <trkpt lat="44.91965" lon="5.72169">
        <ele>1199.6</ele>
        <time>2025-06-21T09:04:52Z</time>
      </trkpt>
      <trkpt lat="44.91962" lon="5.72172">
        <ele>1200</ele>
        <time>2025-06-21T09:04:56Z</time>
      </trkpt>
      <trkpt lat="44.91956" lon="5.72178">
        <ele>1200.9</ele>
        <time>2025-06-21T09:05:04Z</time>
      </trkpt>
      <trkpt lat="44.91951" lon="5.72185">
        <ele>1201.3</ele>
        <time>2025-06-21T09:05:12Z</time>
      </trkpt>
      <trkpt lat="44.91946" lon="5.72194">
        <ele>1201.6</ele>
        <time>2025-06-21T09:05:18Z</time>
      </trkpt>
      <trkpt lat="44.91945" lon="5.72195">
        <ele>1201.8</ele>
        <time>2025-06-21T09:05:19Z</time>
      </trkpt>
      <trkpt lat="44.91939" lon="5.72203">
        <ele>1203.2</ele>
        <time>2025-06-21T09:05:26Z</time>
      </trkpt>
      <trkpt lat="44.91935" lon="5.72209">
        <ele>1204.1</ele>
        <time>2025-06-21T09:05:30Z</time>
      </trkpt>
      <trkpt lat="44.91933" lon="5.72219">
        <ele>1204.4</ele>
        <time>2025-06-21T09:05:37Z</time>
      </trkpt>
      <trkpt lat="44.91929" lon="5.72225">
        <ele>1205.4</ele>
        <time>2025-06-21T09:05:44Z</time>
      </trkpt>
      <trkpt lat="44.91929" lon="5.72226">
        <ele>1205.4</ele>
        <time>2025-06-21T09:05:45Z</time>
      </trkpt>
      <trkpt lat="44.9193" lon="5.72233">
        <ele>1205.3</ele>
        <time>2025-06-21T09:05:51Z</time>
      </trkpt>
      <trkpt lat="44.91925" lon="5.72242">
        <ele>1206.9</ele>
        <time>2025-06-21T09:05:59Z</time>
      </trkpt>
      <trkpt lat="44.91923" lon="5.7225">
        <ele>1207.9</ele>
        <time>2025-06-21T09:06:07Z</time>
      </trkpt>
      <trkpt lat="44.91918" lon="5.72259">
        <ele>1209.5</ele>
        <time>2025-06-21T09:06:14Z</time>
      </trkpt>
      <trkpt lat="44.91914" lon="5.72269">
        <ele>1211.3</ele>
        <time>2025-06-21T09:06:23Z</time>
      </trkpt>
      <trkpt lat="44.91913" lon="5.72275">
        <ele>1211.5</ele>
        <time>2025-06-21T09:06:29Z</time>
      </trkpt>
      <trkpt lat="44.91908" lon="5.72283">
        <ele>1214</ele>
        <time>2025-06-21T09:06:36Z</time>
      </trkpt>
      <trkpt lat="44.91905" lon="5.72292">
        <ele>1215.6</ele>
        <time>2025-06-21T09:06:42Z</time>
      </trkpt>
      <trkpt lat="44.91899" lon="5.72298">
        <ele>1217.7</ele>
        <time>2025-06-21T09:06:47Z</time>
      </trkpt>
      <trkpt lat="44.91895" lon="5.72302">
        <ele>1219.2</ele>
        <time>2025-06-21T09:06:54Z</time>
      </trkpt>
      <trkpt lat="44.91892" lon="5.72305">
        <ele>1219.9</ele>
        <time>2025-06-21T09:07:00Z</time>
      </trkpt>
      <trkpt lat="44.91887" lon="5.7231">
        <ele>1221.3</ele>
        <time>2025-06-21T09:07:06Z</time>
      </trkpt>
      <trkpt lat="44.91884" lon="5.72318">
        <ele>1222.1</ele>
        <time>2025-06-21T09:07:13Z</time>
      </trkpt>
      <trkpt lat="44.91878" lon="5.72325">
        <ele>1223.4</ele>
        <time>2025-06-21T09:07:18Z</time>
      </trkpt>
      <trkpt lat="44.91872" lon="5.72332">
        <ele>1224.5</ele>
        <time>2025-06-21T09:07:24Z</time>
      </trkpt>
      <trkpt lat="44.91867" lon="5.72346">
        <ele>1225.1</ele>
        <time>2025-06-21T09:07:32Z</time>
      </trkpt>
      <trkpt lat="44.91862" lon="5.72353">
        <ele>1226.2</ele>
        <time>2025-06-21T09:07:38Z</time>
      </trkpt>
      <trkpt lat="44.91856" lon="5.72351">
        <ele>1227.7</ele>
        <time>2025-06-21T09:07:45Z</time>
      </trkpt>
      <trkpt lat="44.91853" lon="5.72341">
        <ele>1228.9</ele>
        <time>2025-06-21T09:07:52Z</time>
      </trkpt>
      <trkpt lat="44.91853" lon="5.72333">
        <ele>1229.4</ele>
        <time>2025-06-21T09:07:58Z</time>
      </trkpt>
      <trkpt lat="44.91856" lon="5.72327">
        <ele>1229.3</ele>
        <time>2025-06-21T09:08:03Z</time>
      </trkpt>
      <trkpt lat="44.91857" lon="5.72324">
        <ele>1229.2</ele>
        <time>2025-06-21T09:08:05Z</time>
      </trkpt>
      <trkpt lat="44.91858" lon="5.72321">
        <ele>1229.5</ele>
        <time>2025-06-21T09:08:07Z</time>
      </trkpt>
      <trkpt lat="44.91861" lon="5.72312">
        <ele>1229.4</ele>
        <time>2025-06-21T09:08:14Z</time>
      </trkpt>
      <trkpt lat="44.91863" lon="5.72306">
        <ele>1229.3</ele>
        <time>2025-06-21T09:08:18Z</time>
      </trkpt>
      <trkpt lat="44.91867" lon="5.72295">
        <ele>1229.3</ele>
        <time>2025-06-21T09:08:26Z</time>
      </trkpt>
      <trkpt lat="44.91869" lon="5.72291">
        <ele>1229.1</ele>
        <time>2025-06-21T09:08:29Z</time>
      </trkpt>
      <trkpt lat="44.91872" lon="5.72284">
        <ele>1228.5</ele>
        <time>2025-06-21T09:08:35Z</time>
      </trkpt>
      <trkpt lat="44.91872" lon="5.72281">
        <ele>1229</ele>
        <time>2025-06-21T09:08:37Z</time>
      </trkpt>
      <trkpt lat="44.91873" lon="5.72275">
        <ele>1229.2</ele>
        <time>2025-06-21T09:08:40Z</time>
      </trkpt>
      <trkpt lat="44.91873" lon="5.72263">
        <ele>1229.9</ele>
        <time>2025-06-21T09:08:48Z</time>
      </trkpt>
      <trkpt lat="44.91873" lon="5.72259">
        <ele>1230.3</ele>
        <time>2025-06-21T09:08:54Z</time>
      </trkpt>
      <trkpt lat="44.91873" lon="5.72256">
        <ele>1230.8</ele>
        <time>2025-06-21T09:08:58Z</time>
      </trkpt>
      <trkpt lat="44.91872" lon="5.72252">
        <ele>1231.2</ele>
        <time>2025-06-21T09:09:00Z</time>
      </trkpt>
      <trkpt lat="44.91871" lon="5.72243">
        <ele>1232.1</ele>
        <time>2025-06-21T09:09:06Z</time>
      </trkpt>
      <trkpt lat="44.91871" lon="5.72232">
        <ele>1232.7</ele>
        <time>2025-06-21T09:09:11Z</time>
      </trkpt>
      <trkpt lat="44.9187" lon="5.72219">
        <ele>1233.7</ele>
        <time>2025-06-21T09:09:18Z</time>
      </trkpt>
      <trkpt lat="44.9187" lon="5.72204">
        <ele>1233.1</ele>
        <time>2025-06-21T09:09:25Z</time>
      </trkpt>
      <trkpt lat="44.9187" lon="5.72201">
        <ele>1233</ele>
        <time>2025-06-21T09:09:27Z</time>
      </trkpt>
      <trkpt lat="44.9187" lon="5.72188">
        <ele>1232.7</ele>
        <time>2025-06-21T09:09:34Z</time>
      </trkpt>
      <trkpt lat="44.9187" lon="5.72176">
        <ele>1233.1</ele>
        <time>2025-06-21T09:09:39Z</time>
      </trkpt>
      <trkpt lat="44.91867" lon="5.72168">
        <ele>1234.5</ele>
        <time>2025-06-21T09:09:44Z</time>
      </trkpt>
      <trkpt lat="44.91865" lon="5.72153">
        <ele>1235.6</ele>
        <time>2025-06-21T09:09:51Z</time>
      </trkpt>
      <trkpt lat="44.91864" lon="5.72147">
        <ele>1236</ele>
        <time>2025-06-21T09:09:56Z</time>
      </trkpt>
      <trkpt lat="44.91863" lon="5.72144">
        <ele>1236.2</ele>
        <time>2025-06-21T09:09:58Z</time>
      </trkpt>
      <trkpt lat="44.9186" lon="5.72135">
        <ele>1237.5</ele>
        <time>2025-06-21T09:10:05Z</time>
      </trkpt>
      <trkpt lat="44.91859" lon="5.72132">
        <ele>1238.5</ele>
        <time>2025-06-21T09:10:09Z</time>
      </trkpt>
      <trkpt lat="44.91859" lon="5.72119">
        <ele>1239.2</ele>
        <time>2025-06-21T09:10:16Z</time>
      </trkpt>
      <trkpt lat="44.9186" lon="5.72116">
        <ele>1239</ele>
        <time>2025-06-21T09:10:18Z</time>
      </trkpt>
      <trkpt lat="44.91862" lon="5.72107">
        <ele>1239.2</ele>
        <time>2025-06-21T09:10:23Z</time>
      </trkpt>
      <trkpt lat="44.91864" lon="5.72102">
        <ele>1239.5</ele>
        <time>2025-06-21T09:10:26Z</time>
      </trkpt>
      <trkpt lat="44.91866" lon="5.72098">
        <ele>1239.6</ele>
        <time>2025-06-21T09:10:28Z</time>
      </trkpt>
      <trkpt lat="44.91873" lon="5.72088">
        <ele>1239.3</ele>
        <time>2025-06-21T09:10:35Z</time>
      </trkpt>
      <trkpt lat="44.91875" lon="5.72085">
        <ele>1239.2</ele>
        <time>2025-06-21T09:10:40Z</time>
      </trkpt>
      <trkpt lat="44.91876" lon="5.72085">
        <ele>1239</ele>
        <time>2025-06-21T09:10:42Z</time>
      </trkpt>
      <trkpt lat="44.91884" lon="5.72079">
        <ele>1238.4</ele>
        <time>2025-06-21T09:10:48Z</time>
      </trkpt>
      <trkpt lat="44.91888" lon="5.72071">
        <ele>1240</ele>
        <time>2025-06-21T09:10:56Z</time>
      </trkpt>
      <trkpt lat="44.9189" lon="5.72064">
        <ele>1241.4</ele>
        <time>2025-06-21T09:11:06Z</time>
      </trkpt>
      <trkpt lat="44.91895" lon="5.72062">
        <ele>1240.9</ele>
        <time>2025-06-21T09:11:12Z</time>
      </trkpt>
      <trkpt lat="44.91899" lon="5.72058">
        <ele>1241.1</ele>
        <time>2025-06-21T09:11:17Z</time>
      </trkpt>
      <trkpt lat="44.91903" lon="5.72053">
        <ele>1241.6</ele>
        <time>2025-06-21T09:11:21Z</time>
      </trkpt>
      <trkpt lat="44.91907" lon="5.72046">
        <ele>1243.1</ele>
        <time>2025-06-21T09:11:26Z</time>
      </trkpt>
      <trkpt lat="44.91912" lon="5.72039">
        <ele>1243.9</ele>
        <time>2025-06-21T09:11:31Z</time>
      </trkpt>
      <trkpt lat="44.91915" lon="5.72029">
        <ele>1246.2</ele>
        <time>2025-06-21T09:11:39Z</time>
      </trkpt>
      <trkpt lat="44.91915" lon="5.72026">
        <ele>1247.1</ele>
        <time>2025-06-21T09:11:41Z</time>
      </trkpt>
      <trkpt lat="44.91916" lon="5.72018">
        <ele>1249</ele>
        <time>2025-06-21T09:11:46Z</time>
      </trkpt>
      <trkpt lat="44.91917" lon="5.72007">
        <ele>1252.1</ele>
        <time>2025-06-21T09:11:53Z</time>
      </trkpt>
      <trkpt lat="44.91917" lon="5.71997">
        <ele>1254.7</ele>
        <time>2025-06-21T09:11:58Z</time>
      </trkpt>
      <trkpt lat="44.91918" lon="5.71993">
        <ele>1255.4</ele>
        <time>2025-06-21T09:12:01Z</time>
      </trkpt>
      <trkpt lat="44.9192" lon="5.71989">
        <ele>1256</ele>
        <time>2025-06-21T09:12:03Z</time>
      </trkpt>
      <trkpt lat="44.91922" lon="5.71983">
        <ele>1256.9</ele>
        <time>2025-06-21T09:12:07Z</time>
      </trkpt>
      <trkpt lat="44.91926" lon="5.71978">
        <ele>1257.3</ele>
        <time>2025-06-21T09:12:11Z</time>
      </trkpt>
      <trkpt lat="44.91927" lon="5.71969">
        <ele>1259.2</ele>
        <time>2025-06-21T09:12:17Z</time>
      </trkpt>
      <trkpt lat="44.91929" lon="5.71965">
        <ele>1259.8</ele>
        <time>2025-06-21T09:12:19Z</time>
      </trkpt>
      <trkpt lat="44.91935" lon="5.71959">
        <ele>1259.7</ele>
        <time>2025-06-21T09:12:26Z</time>
      </trkpt>
      <trkpt lat="44.91936" lon="5.71956">
        <ele>1260.2</ele>
        <time>2025-06-21T09:12:29Z</time>
      </trkpt>
      <trkpt lat="44.91938" lon="5.71957">
        <ele>1259.5</ele>
        <time>2025-06-21T09:12:34Z</time>
      </trkpt>
      <trkpt lat="44.91943" lon="5.71951">
        <ele>1259.6</ele>
        <time>2025-06-21T09:12:40Z</time>
      </trkpt>
      <trkpt lat="44.91947" lon="5.71945">
        <ele>1260.3</ele>
        <time>2025-06-21T09:12:45Z</time>
      </trkpt>
      <trkpt lat="44.91948" lon="5.71944">
        <ele>1260.4</ele>
        <time>2025-06-21T09:12:46Z</time>
      </trkpt>
      <trkpt lat="44.91953" lon="5.71939">
        <ele>1260.8</ele>
        <time>2025-06-21T09:12:50Z</time>
      </trkpt>
      <trkpt lat="44.91954" lon="5.71935">
        <ele>1261.5</ele>
        <time>2025-06-21T09:12:52Z</time>
      </trkpt>
      <trkpt lat="44.91959" lon="5.71926">
        <ele>1262.9</ele>
        <time>2025-06-21T09:12:59Z</time>
      </trkpt>
      <trkpt lat="44.91961" lon="5.71925">
        <ele>1262.9</ele>
        <time>2025-06-21T09:13:00Z</time>
      </trkpt>
      <trkpt lat="44.91966" lon="5.7192">
        <ele>1263.4</ele>
        <time>2025-06-21T09:13:06Z</time>
      </trkpt>
      <trkpt lat="44.91969" lon="5.71918">
        <ele>1263.3</ele>
        <time>2025-06-21T09:13:10Z</time>
      </trkpt>
      <trkpt lat="44.91971" lon="5.71915">
        <ele>1263.6</ele>
        <time>2025-06-21T09:13:13Z</time>
      </trkpt>
      <trkpt lat="44.91972" lon="5.71913">
        <ele>1264.1</ele>
        <time>2025-06-21T09:13:15Z</time>
      </trkpt>
      <trkpt lat="44.91976" lon="5.71909">
        <ele>1264.7</ele>
        <time>2025-06-21T09:13:18Z</time>
      </trkpt>
      <trkpt lat="44.91978" lon="5.71906">
        <ele>1265.4</ele>
        <time>2025-06-21T09:13:21Z</time>
      </trkpt>
      <trkpt lat="44.91981" lon="5.719">
        <ele>1266.6</ele>
        <time>2025-06-21T09:13:28Z</time>
      </trkpt>
      <trkpt lat="44.91991" lon="5.71899">
        <ele>1265.6</ele>
        <time>2025-06-21T09:13:35Z</time>
      </trkpt>
      <trkpt lat="44.91995" lon="5.71899">
        <ele>1265.1</ele>
        <time>2025-06-21T09:13:38Z</time>
      </trkpt>
      <trkpt lat="44.92006" lon="5.71896">
        <ele>1264.8</ele>
        <time>2025-06-21T09:13:44Z</time>
      </trkpt>
      <trkpt lat="44.92007" lon="5.71896">
        <ele>1264.7</ele>
        <time>2025-06-21T09:13:45Z</time>
      </trkpt>
      <trkpt lat="44.92013" lon="5.71894">
        <ele>1264.9</ele>
        <time>2025-06-21T09:13:51Z</time>
      </trkpt>
      <trkpt lat="44.9202" lon="5.71887">
        <ele>1266</ele>
        <time>2025-06-21T09:13:57Z</time>
      </trkpt>
      <trkpt lat="44.92025" lon="5.71879">
        <ele>1268.5</ele>
        <time>2025-06-21T09:14:04Z</time>
      </trkpt>
      <trkpt lat="44.92032" lon="5.71872">
        <ele>1270.2</ele>
        <time>2025-06-21T09:14:09Z</time>
      </trkpt>
      <trkpt lat="44.92032" lon="5.71871">
        <ele>1270.5</ele>
        <time>2025-06-21T09:14:14Z</time>
      </trkpt>
      <trkpt lat="44.9204" lon="5.71871">
        <ele>1270.3</ele>
        <time>2025-06-21T09:14:23Z</time>
      </trkpt>
      <trkpt lat="44.92046" lon="5.71871">
        <ele>1270.2</ele>
        <time>2025-06-21T09:14:29Z</time>
      </trkpt>
      <trkpt lat="44.92048" lon="5.7187">
        <ele>1270.3</ele>
        <time>2025-06-21T09:14:34Z</time>
      </trkpt>
      <trkpt lat="44.92051" lon="5.71868">
        <ele>1271</ele>
        <time>2025-06-21T09:14:39Z</time>
      </trkpt>
      <trkpt lat="44.92061" lon="5.71858">
        <ele>1273.6</ele>
        <time>2025-06-21T09:14:46Z</time>
      </trkpt>
      <trkpt lat="44.92071" lon="5.71856">
        <ele>1273.2</ele>
        <time>2025-06-21T09:14:53Z</time>
      </trkpt>
      <trkpt lat="44.92073" lon="5.71855">
        <ele>1273.3</ele>
        <time>2025-06-21T09:14:55Z</time>
      </trkpt>
      <trkpt lat="44.92089" lon="5.71863">
        <ele>1268.2</ele>
        <time>2025-06-21T09:15:03Z</time>
      </trkpt>
      <trkpt lat="44.92101" lon="5.71859">
        <ele>1267</ele>
        <time>2025-06-21T09:15:10Z</time>
      </trkpt>
      <trkpt lat="44.92112" lon="5.71854">
        <ele>1265.9</ele>
        <time>2025-06-21T09:15:17Z</time>
      </trkpt>
      <trkpt lat="44.92121" lon="5.71849">
        <ele>1265</ele>
        <time>2025-06-21T09:15:23Z</time>
      </trkpt>
      <trkpt lat="44.92127" lon="5.71842">
        <ele>1265.1</ele>
        <time>2025-06-21T09:15:29Z</time>
      </trkpt>
      <trkpt lat="44.92128" lon="5.71841">
        <ele>1265</ele>
        <time>2025-06-21T09:15:30Z</time>
      </trkpt>
      <trkpt lat="44.92136" lon="5.71831">
        <ele>1265.7</ele>
        <time>2025-06-21T09:15:38Z</time>
      </trkpt>
      <trkpt lat="44.92143" lon="5.71821">
        <ele>1265.1</ele>
        <time>2025-06-21T09:15:46Z</time>
      </trkpt>
      <trkpt lat="44.92145" lon="5.7182">
        <ele>1264.6</ele>
        <time>2025-06-21T09:15:47Z</time>
      </trkpt>
      <trkpt lat="44.92151" lon="5.71809">
        <ele>1264.4</ele>
        <time>2025-06-21T09:15:54Z</time>
      </trkpt>
      <trkpt lat="44.92152" lon="5.71804">
        <ele>1265.3</ele>
        <time>2025-06-21T09:15:57Z</time>
      </trkpt>
      <trkpt lat="44.92157" lon="5.71795">
        <ele>1265</ele>
        <time>2025-06-21T09:16:03Z</time>
      </trkpt>
      <trkpt lat="44.92158" lon="5.71794">
        <ele>1265</ele>
        <time>2025-06-21T09:16:04Z</time>
      </trkpt>
      <trkpt lat="44.92161" lon="5.71787">
        <ele>1265.4</ele>
        <time>2025-06-21T09:16:08Z</time>
      </trkpt>
      <trkpt lat="44.92162" lon="5.71782">
        <ele>1266.4</ele>
        <time>2025-06-21T09:16:11Z</time>
      </trkpt>
      <trkpt lat="44.92166" lon="5.71779">
        <ele>1265.3</ele>
        <time>2025-06-21T09:16:13Z</time>
      </trkpt>
      <trkpt lat="44.92168" lon="5.71774">
        <ele>1265.2</ele>
        <time>2025-06-21T09:16:17Z</time>
      </trkpt>
      <trkpt lat="44.9217" lon="5.71771">
        <ele>1265.1</ele>
        <time>2025-06-21T09:16:19Z</time>
      </trkpt>
      <trkpt lat="44.9217" lon="5.71769">
        <ele>1265.4</ele>
        <time>2025-06-21T09:16:20Z</time>
      </trkpt>
      <trkpt lat="44.92172" lon="5.71765">
        <ele>1265.9</ele>
        <time>2025-06-21T09:16:23Z</time>
      </trkpt>
      <trkpt lat="44.92176" lon="5.71752">
        <ele>1266.9</ele>
        <time>2025-06-21T09:16:31Z</time>
      </trkpt>
      <trkpt lat="44.92177" lon="5.71748">
        <ele>1267.7</ele>
        <time>2025-06-21T09:16:35Z</time>
      </trkpt>
      <trkpt lat="44.92179" lon="5.71744">
        <ele>1267.8</ele>
        <time>2025-06-21T09:16:37Z</time>
      </trkpt>
      <trkpt lat="44.92186" lon="5.71729">
        <ele>1269.4</ele>
        <time>2025-06-21T09:16:45Z</time>
      </trkpt>
      <trkpt lat="44.9219" lon="5.71718">
        <ele>1270.5</ele>
        <time>2025-06-21T09:16:51Z</time>
      </trkpt>
      <trkpt lat="44.9219" lon="5.71717">
        <ele>1270.6</ele>
        <time>2025-06-21T09:16:52Z</time>
      </trkpt>
      <trkpt lat="44.92192" lon="5.71716">
        <ele>1269.8</ele>
        <time>2025-06-21T09:16:53Z</time>
      </trkpt>
      <trkpt lat="44.92193" lon="5.71713">
        <ele>1270.4</ele>
        <time>2025-06-21T09:16:56Z</time>
      </trkpt>
      <trkpt lat="44.92191" lon="5.71705">
        <ele>1273.8</ele>
        <time>2025-06-21T09:17:00Z</time>
      </trkpt>
      <trkpt lat="44.92191" lon="5.71697">
        <ele>1276</ele>
        <time>2025-06-21T09:17:05Z</time>
      </trkpt>
      <trkpt lat="44.92194" lon="5.71689">
        <ele>1277.1</ele>
        <time>2025-06-21T09:17:09Z</time>
      </trkpt>
      <trkpt lat="44.92197" lon="5.71682">
        <ele>1277.9</ele>
        <time>2025-06-21T09:17:15Z</time>
      </trkpt>
      <trkpt lat="44.92202" lon="5.71672">
        <ele>1278.8</ele>
        <time>2025-06-21T09:17:22Z</time>
      </trkpt>
      <trkpt lat="44.92205" lon="5.71663">
        <ele>1280.5</ele>
        <time>2025-06-21T09:17:29Z</time>
      </trkpt>
      <trkpt lat="44.92207" lon="5.71657">
        <ele>1280.9</ele>
        <time>2025-06-21T09:17:32Z</time>
      </trkpt>
      <trkpt lat="44.92208" lon="5.71655">
        <ele>1281.5</ele>
        <time>2025-06-21T09:17:33Z</time>
      </trkpt>
      <trkpt lat="44.92209" lon="5.71653">
        <ele>1281.5</ele>
        <time>2025-06-21T09:17:34Z</time>
      </trkpt>
      <trkpt lat="44.92212" lon="5.71649">
        <ele>1281.4</ele>
        <time>2025-06-21T09:17:37Z</time>
      </trkpt>
      <trkpt lat="44.92219" lon="5.71646">
        <ele>1279.2</ele>
        <time>2025-06-21T09:17:41Z</time>
      </trkpt>
      <trkpt lat="44.9223" lon="5.71639">
        <ele>1276.2</ele>
        <time>2025-06-21T09:17:48Z</time>
      </trkpt>
      <trkpt lat="44.92231" lon="5.71636">
        <ele>1276.2</ele>
        <time>2025-06-21T09:17:50Z</time>
      </trkpt>
      <trkpt lat="44.92233" lon="5.71633">
        <ele>1276.4</ele>
        <time>2025-06-21T09:17:52Z</time>
      </trkpt>
      <trkpt lat="44.92238" lon="5.71622">
        <ele>1277.8</ele>
        <time>2025-06-21T09:18:00Z</time>
      </trkpt>
      <trkpt lat="44.92246" lon="5.71613">
        <ele>1277</ele>
        <time>2025-06-21T09:18:08Z</time>
      </trkpt>
      <trkpt lat="44.92249" lon="5.71609">
        <ele>1277.4</ele>
        <time>2025-06-21T09:18:11Z</time>
      </trkpt>
      <trkpt lat="44.92259" lon="5.71597">
        <ele>1276</ele>
        <time>2025-06-21T09:18:19Z</time>
      </trkpt>
      <trkpt lat="44.92268" lon="5.71591">
        <ele>1273.6</ele>
        <time>2025-06-21T09:18:25Z</time>
      </trkpt>
      <trkpt lat="44.9227" lon="5.71589">
        <ele>1273</ele>
        <time>2025-06-21T09:18:27Z</time>
      </trkpt>
      <trkpt lat="44.92277" lon="5.71581">
        <ele>1272.4</ele>
        <time>2025-06-21T09:18:34Z</time>
      </trkpt>
      <trkpt lat="44.92281" lon="5.71575">
        <ele>1272.2</ele>
        <time>2025-06-21T09:18:40Z</time>
      </trkpt>
      <trkpt lat="44.92283" lon="5.71575">
        <ele>1271.5</ele>
        <time>2025-06-21T09:18:41Z</time>
      </trkpt>
      <trkpt lat="44.9229" lon="5.71568">
        <ele>1270.7</ele>
        <time>2025-06-21T09:18:47Z</time>
      </trkpt>
      <trkpt lat="44.92291" lon="5.71567">
        <ele>1270.9</ele>
        <time>2025-06-21T09:18:48Z</time>
      </trkpt>
      <trkpt lat="44.92293" lon="5.71564">
        <ele>1271.5</ele>
        <time>2025-06-21T09:18:50Z</time>
      </trkpt>
      <trkpt lat="44.92303" lon="5.71555">
        <ele>1270.6</ele>
        <time>2025-06-21T09:18:57Z</time>
      </trkpt>
      <trkpt lat="44.92303" lon="5.71553">
        <ele>1271.2</ele>
        <time>2025-06-21T09:18:58Z</time>
      </trkpt>
      <trkpt lat="44.92308" lon="5.71548">
        <ele>1271.6</ele>
        <time>2025-06-21T09:19:02Z</time>
      </trkpt>
      <trkpt lat="44.9231" lon="5.71546">
        <ele>1272</ele>
        <time>2025-06-21T09:19:04Z</time>
      </trkpt>
      <trkpt lat="44.92319" lon="5.71536">
        <ele>1273.4</ele>
        <time>2025-06-21T09:19:13Z</time>
      </trkpt>
      <trkpt lat="44.92321" lon="5.71527">
        <ele>1276.7</ele>
        <time>2025-06-21T09:19:22Z</time>
      </trkpt>
      <trkpt lat="44.92325" lon="5.71528">
        <ele>1275.1</ele>
        <time>2025-06-21T09:19:27Z</time>
      </trkpt>
      <trkpt lat="44.92332" lon="5.71529">
        <ele>1271.8</ele>
        <time>2025-06-21T09:19:34Z</time>
      </trkpt>
      <trkpt lat="44.92344" lon="5.71522">
        <ele>1271.5</ele>
        <time>2025-06-21T09:19:41Z</time>
      </trkpt>
      <trkpt lat="44.92354" lon="5.71514">
        <ele>1272.8</ele>
        <time>2025-06-21T09:19:49Z</time>
      </trkpt>
      <trkpt lat="44.9236" lon="5.7151">
        <ele>1272.6</ele>
        <time>2025-06-21T09:19:56Z</time>
      </trkpt>
      <trkpt lat="44.92362" lon="5.71507">
        <ele>1273.4</ele>
        <time>2025-06-21T09:19:58Z</time>
      </trkpt>
      <trkpt lat="44.92366" lon="5.71501">
        <ele>1275.1</ele>
        <time>2025-06-21T09:20:01Z</time>
      </trkpt>
      <trkpt lat="44.92369" lon="5.71499">
        <ele>1275.3</ele>
        <time>2025-06-21T09:20:03Z</time>
      </trkpt>
      <trkpt lat="44.92371" lon="5.71497">
        <ele>1275.9</ele>
        <time>2025-06-21T09:20:06Z</time>
      </trkpt>
      <trkpt lat="44.92373" lon="5.71493">
        <ele>1276.9</ele>
        <time>2025-06-21T09:20:09Z</time>
      </trkpt>
      <trkpt lat="44.92378" lon="5.71491">
        <ele>1276.5</ele>
        <time>2025-06-21T09:20:12Z</time>
      </trkpt>
      <trkpt lat="44.92386" lon="5.71488">
        <ele>1275.9</ele>
        <time>2025-06-21T09:20:18Z</time>
      </trkpt>
      <trkpt lat="44.92395" lon="5.7148">
        <ele>1276.8</ele>
        <time>2025-06-21T09:20:26Z</time>
      </trkpt>
      <trkpt lat="44.924" lon="5.71477">
        <ele>1277.1</ele>
        <time>2025-06-21T09:20:31Z</time>
      </trkpt>
      <trkpt lat="44.92402" lon="5.71475">
        <ele>1277.4</ele>
        <time>2025-06-21T09:20:33Z</time>
      </trkpt>
      <trkpt lat="44.92405" lon="5.71473">
        <ele>1277.7</ele>
        <time>2025-06-21T09:20:36Z</time>
      </trkpt>
      <trkpt lat="44.92408" lon="5.7147">
        <ele>1278.1</ele>
        <time>2025-06-21T09:20:38Z</time>
      </trkpt>
      <trkpt lat="44.92416" lon="5.71465">
        <ele>1278.1</ele>
        <time>2025-06-21T09:20:45Z</time>
      </trkpt>
      <trkpt lat="44.92418" lon="5.71463">
        <ele>1278.9</ele>
        <time>2025-06-21T09:20:47Z</time>
      </trkpt>
      <trkpt lat="44.92424" lon="5.71459">
        <ele>1279.4</ele>
        <time>2025-06-21T09:20:52Z</time>
      </trkpt>
      <trkpt lat="44.92433" lon="5.71453">
        <ele>1279.9</ele>
        <time>2025-06-21T09:20:59Z</time>
      </trkpt>
      <trkpt lat="44.9244" lon="5.71447">
        <ele>1280.8</ele>
        <time>2025-06-21T09:21:04Z</time>
      </trkpt>
      <trkpt lat="44.92441" lon="5.71446">
        <ele>1281.1</ele>
        <time>2025-06-21T09:21:06Z</time>
      </trkpt>
      <trkpt lat="44.92448" lon="5.71443">
        <ele>1281</ele>
        <time>2025-06-21T09:21:11Z</time>
      </trkpt>
      <trkpt lat="44.92449" lon="5.71443">
        <ele>1281.1</ele>
        <time>2025-06-21T09:21:13Z</time>
      </trkpt>
      <trkpt lat="44.92453" lon="5.7144">
        <ele>1281.5</ele>
        <time>2025-06-21T09:21:18Z</time>
      </trkpt>
      <trkpt lat="44.92456" lon="5.71437">
        <ele>1282.2</ele>
        <time>2025-06-21T09:21:21Z</time>
      </trkpt>
      <trkpt lat="44.92462" lon="5.71435">
        <ele>1282.5</ele>
        <time>2025-06-21T09:21:29Z</time>
      </trkpt>
      <trkpt lat="44.92462" lon="5.71434">
        <ele>1282.5</ele>
        <time>2025-06-21T09:21:30Z</time>
      </trkpt>
      <trkpt lat="44.92468" lon="5.71433">
        <ele>1282.1</ele>
        <time>2025-06-21T09:21:35Z</time>
      </trkpt>
      <trkpt lat="44.92469" lon="5.71431">
        <ele>1282.7</ele>
        <time>2025-06-21T09:21:41Z</time>
      </trkpt>
      <trkpt lat="44.92471" lon="5.71429">
        <ele>1283.3</ele>
        <time>2025-06-21T09:21:46Z</time>
      </trkpt>
      <trkpt lat="44.92478" lon="5.71426">
        <ele>1283.5</ele>
        <time>2025-06-21T09:21:51Z</time>
      </trkpt>
      <trkpt lat="44.92484" lon="5.71421">
        <ele>1284.6</ele>
        <time>2025-06-21T09:21:54Z</time>
      </trkpt>
      <trkpt lat="44.92493" lon="5.71413">
        <ele>1286.7</ele>
        <time>2025-06-21T09:22:01Z</time>
      </trkpt>
      <trkpt lat="44.92497" lon="5.71408">
        <ele>1288.4</ele>
        <time>2025-06-21T09:22:07Z</time>
      </trkpt>
      <trkpt lat="44.92503" lon="5.71406">
        <ele>1288.3</ele>
        <time>2025-06-21T09:22:13Z</time>
      </trkpt>
      <trkpt lat="44.92507" lon="5.71404">
        <ele>1288.4</ele>
        <time>2025-06-21T09:22:16Z</time>
      </trkpt>
      <trkpt lat="44.92512" lon="5.71401">
        <ele>1288.3</ele>
        <time>2025-06-21T09:22:19Z</time>
      </trkpt>
      <trkpt lat="44.92516" lon="5.71403">
        <ele>1286.8</ele>
        <time>2025-06-21T09:22:22Z</time>
      </trkpt>
      <trkpt lat="44.9252" lon="5.71398">
        <ele>1288</ele>
        <time>2025-06-21T09:22:28Z</time>
      </trkpt>
      <trkpt lat="44.92529" lon="5.71395">
        <ele>1286.9</ele>
        <time>2025-06-21T09:22:35Z</time>
      </trkpt>
      <trkpt lat="44.92535" lon="5.71393">
        <ele>1285.6</ele>
        <time>2025-06-21T09:22:41Z</time>
      </trkpt>
      <trkpt lat="44.92539" lon="5.71391">
        <ele>1285.1</ele>
        <time>2025-06-21T09:22:44Z</time>
      </trkpt>
      <trkpt lat="44.92544" lon="5.71388">
        <ele>1284.8</ele>
        <time>2025-06-21T09:22:48Z</time>
      </trkpt>
      <trkpt lat="44.9255" lon="5.7138">
        <ele>1286</ele>
        <time>2025-06-21T09:22:56Z</time>
      </trkpt>
      <trkpt lat="44.92551" lon="5.71379">
        <ele>1286.1</ele>
        <time>2025-06-21T09:22:57Z</time>
      </trkpt>
      <trkpt lat="44.92557" lon="5.71375">
        <ele>1286.2</ele>
        <time>2025-06-21T09:23:01Z</time>
      </trkpt>
      <trkpt lat="44.92559" lon="5.71369">
        <ele>1287.5</ele>
        <time>2025-06-21T09:23:05Z</time>
      </trkpt>
      <trkpt lat="44.92562" lon="5.71364">
        <ele>1288.7</ele>
        <time>2025-06-21T09:23:09Z</time>
      </trkpt>
      <trkpt lat="44.92568" lon="5.71353">
        <ele>1291.6</ele>
        <time>2025-06-21T09:23:16Z</time>
      </trkpt>
      <trkpt lat="44.92569" lon="5.71345">
        <ele>1295.1</ele>
        <time>2025-06-21T09:23:21Z</time>
      </trkpt>
      <trkpt lat="44.9257" lon="5.71339">
        <ele>1297.8</ele>
        <time>2025-06-21T09:23:27Z</time>
      </trkpt>
      <trkpt lat="44.92572" lon="5.71332">
        <ele>1300.6</ele>
        <time>2025-06-21T09:23:32Z</time>
      </trkpt>
      <trkpt lat="44.92573" lon="5.71331">
        <ele>1300.6</ele>
        <time>2025-06-21T09:23:33Z</time>
      </trkpt>
      <trkpt lat="44.92577" lon="5.71325">
        <ele>1302.3</ele>
        <time>2025-06-21T09:23:37Z</time>
      </trkpt>
      <trkpt lat="44.92578" lon="5.71317">
        <ele>1306</ele>
        <time>2025-06-21T09:23:41Z</time>
      </trkpt>
      <trkpt lat="44.92582" lon="5.71312">
        <ele>1307.1</ele>
        <time>2025-06-21T09:23:45Z</time>
      </trkpt>
      <trkpt lat="44.92583" lon="5.71308">
        <ele>1308.8</ele>
        <time>2025-06-21T09:23:50Z</time>
      </trkpt>
      <trkpt lat="44.92587" lon="5.71304">
        <ele>1309.6</ele>
        <time>2025-06-21T09:23:58Z</time>
      </trkpt>
      <trkpt lat="44.92588" lon="5.71304">
        <ele>1309.5</ele>
        <time>2025-06-21T09:23:59Z</time>
      </trkpt>
      <trkpt lat="44.92593" lon="5.71301">
        <ele>1309.9</ele>
        <time>2025-06-21T09:24:04Z</time>
      </trkpt>
      <trkpt lat="44.92598" lon="5.71299">
        <ele>1309.5</ele>
        <time>2025-06-21T09:24:09Z</time>
      </trkpt>
      <trkpt lat="44.92608" lon="5.71296">
        <ele>1308.7</ele>
        <time>2025-06-21T09:24:15Z</time>
      </trkpt>
      <trkpt lat="44.9262" lon="5.71295">
        <ele>1306.5</ele>
        <time>2025-06-21T09:24:24Z</time>
      </trkpt>
      <trkpt lat="44.92621" lon="5.71295">
        <ele>1306.6</ele>
        <time>2025-06-21T09:24:25Z</time>
      </trkpt>
      <trkpt lat="44.92624" lon="5.71293">
        <ele>1307.3</ele>
        <time>2025-06-21T09:24:28Z</time>
      </trkpt>
      <trkpt lat="44.92629" lon="5.7129">
        <ele>1307.7</ele>
        <time>2025-06-21T09:24:36Z</time>
      </trkpt>
      <trkpt lat="44.92631" lon="5.71289">
        <ele>1308.1</ele>
        <time>2025-06-21T09:24:38Z</time>
      </trkpt>
      <trkpt lat="44.92639" lon="5.71292">
        <ele>1304.7</ele>
        <time>2025-06-21T09:24:45Z</time>
      </trkpt>
      <trkpt lat="44.92642" lon="5.7129">
        <ele>1305.3</ele>
        <time>2025-06-21T09:24:48Z</time>
      </trkpt>
      <trkpt lat="44.92651" lon="5.71287">
        <ele>1305.9</ele>
        <time>2025-06-21T09:24:55Z</time>
      </trkpt>
      <trkpt lat="44.92656" lon="5.71283">
        <ele>1307.3</ele>
        <time>2025-06-21T09:25:01Z</time>
      </trkpt>
      <trkpt lat="44.92657" lon="5.71282">
        <ele>1307.9</ele>
        <time>2025-06-21T09:25:02Z</time>
      </trkpt>
      <trkpt lat="44.92663" lon="5.71279">
        <ele>1309</ele>
        <time>2025-06-21T09:25:08Z</time>
      </trkpt>
      <trkpt lat="44.92672" lon="5.71271">
        <ele>1311.1</ele>
        <time>2025-06-21T09:25:15Z</time>
      </trkpt>
      <trkpt lat="44.92682" lon="5.71264">
        <ele>1312.4</ele>
        <time>2025-06-21T09:25:23Z</time>
      </trkpt>
      <trkpt lat="44.92691" lon="5.71258">
        <ele>1313.5</ele>
        <time>2025-06-21T09:25:30Z</time>
      </trkpt>
      <trkpt lat="44.92694" lon="5.71254">
        <ele>1315</ele>
        <time>2025-06-21T09:25:34Z</time>
      </trkpt>
      <trkpt lat="44.92699" lon="5.7125">
        <ele>1315.9</ele>
        <time>2025-06-21T09:25:39Z</time>
      </trkpt>
      <trkpt lat="44.92706" lon="5.71248">
        <ele>1315.6</ele>
        <time>2025-06-21T09:25:43Z</time>
      </trkpt>
      <trkpt lat="44.92708" lon="5.71245">
        <ele>1316.2</ele>
        <time>2025-06-21T09:25:46Z</time>
      </trkpt>
      <trkpt lat="44.92712" lon="5.71244">
        <ele>1315.8</ele>
        <time>2025-06-21T09:25:49Z</time>
      </trkpt>
      <trkpt lat="44.92722" lon="5.71237">
        <ele>1316.5</ele>
        <time>2025-06-21T09:25:57Z</time>
      </trkpt>
      <trkpt lat="44.92728" lon="5.71233">
        <ele>1317</ele>
        <time>2025-06-21T09:26:02Z</time>
      </trkpt>
      <trkpt lat="44.92734" lon="5.7123">
        <ele>1316.7</ele>
        <time>2025-06-21T09:26:08Z</time>
      </trkpt>
      <trkpt lat="44.92742" lon="5.71227">
        <ele>1315.9</ele>
        <time>2025-06-21T09:26:14Z</time>
      </trkpt>
      <trkpt lat="44.92742" lon="5.71227">
        <ele>1316</ele>
        <time>2025-06-21T09:26:15Z</time>
      </trkpt>
      <trkpt lat="44.92751" lon="5.71224">
        <ele>1314.9</ele>
        <time>2025-06-21T09:26:22Z</time>
      </trkpt>
      <trkpt lat="44.92753" lon="5.71223">
        <ele>1315.2</ele>
        <time>2025-06-21T09:26:24Z</time>
      </trkpt>
      <trkpt lat="44.92755" lon="5.71222">
        <ele>1315</ele>
        <time>2025-06-21T09:26:27Z</time>
      </trkpt>
      <trkpt lat="44.92762" lon="5.71216">
        <ele>1316</ele>
        <time>2025-06-21T09:26:33Z</time>
      </trkpt>
      <trkpt lat="44.92764" lon="5.71212">
        <ele>1317.5</ele>
        <time>2025-06-21T09:26:37Z</time>
      </trkpt>
      <trkpt lat="44.9277" lon="5.71209">
        <ele>1317.8</ele>
        <time>2025-06-21T09:26:43Z</time>
      </trkpt>
      <trkpt lat="44.92772" lon="5.71208">
        <ele>1317.6</ele>
        <time>2025-06-21T09:26:44Z</time>
      </trkpt>
      <trkpt lat="44.92781" lon="5.71207">
        <ele>1316.6</ele>
        <time>2025-06-21T09:26:52Z</time>
      </trkpt>
      <trkpt lat="44.92784" lon="5.71207">
        <ele>1316.2</ele>
        <time>2025-06-21T09:26:55Z</time>
      </trkpt>
      <trkpt lat="44.92794" lon="5.71203">
        <ele>1316.7</ele>
        <time>2025-06-21T09:27:02Z</time>
      </trkpt>
      <trkpt lat="44.92797" lon="5.71202">
        <ele>1316.6</ele>
        <time>2025-06-21T09:27:07Z</time>
      </trkpt>
      <trkpt lat="44.92805" lon="5.71199">
        <ele>1316.9</ele>
        <time>2025-06-21T09:27:12Z</time>
      </trkpt>
      <trkpt lat="44.92811" lon="5.71201">
        <ele>1315.5</ele>
        <time>2025-06-21T09:27:19Z</time>
      </trkpt>
      <trkpt lat="44.92816" lon="5.712">
        <ele>1315.6</ele>
        <time>2025-06-21T09:27:26Z</time>
      </trkpt>
      <trkpt lat="44.9282" lon="5.71199">
        <ele>1315.9</ele>
        <time>2025-06-21T09:27:28Z</time>
      </trkpt>
      <trkpt lat="44.92831" lon="5.71194">
        <ele>1317.5</ele>
        <time>2025-06-21T09:27:37Z</time>
      </trkpt>
      <trkpt lat="44.92841" lon="5.71195">
        <ele>1316.3</ele>
        <time>2025-06-21T09:27:43Z</time>
      </trkpt>
      <trkpt lat="44.92841" lon="5.71195">
        <ele>1316.3</ele>
        <time>2025-06-21T09:27:44Z</time>
      </trkpt>
      <trkpt lat="44.92847" lon="5.71194">
        <ele>1316.4</ele>
        <time>2025-06-21T09:27:47Z</time>
      </trkpt>
      <trkpt lat="44.92854" lon="5.7119">
        <ele>1318.1</ele>
        <time>2025-06-21T09:27:53Z</time>
      </trkpt>
      <trkpt lat="44.92855" lon="5.7119">
        <ele>1318.2</ele>
        <time>2025-06-21T09:27:54Z</time>
      </trkpt>
      <trkpt lat="44.92864" lon="5.71195">
        <ele>1314.6</ele>
        <time>2025-06-21T09:28:02Z</time>
      </trkpt>
      <trkpt lat="44.92872" lon="5.7119">
        <ele>1317</ele>
        <time>2025-06-21T09:28:08Z</time>
      </trkpt>
      <trkpt lat="44.92875" lon="5.71189">
        <ele>1317.7</ele>
        <time>2025-06-21T09:28:11Z</time>
      </trkpt>
      <trkpt lat="44.92883" lon="5.71186">
        <ele>1319.1</ele>
        <time>2025-06-21T09:28:17Z</time>
      </trkpt>
      <trkpt lat="44.92888" lon="5.71184">
        <ele>1320.2</ele>
        <time>2025-06-21T09:28:23Z</time>
      </trkpt>
      <trkpt lat="44.92897" lon="5.71181">
        <ele>1321.1</ele>
        <time>2025-06-21T09:28:30Z</time>
      </trkpt>
      <trkpt lat="44.92904" lon="5.71181">
        <ele>1320.7</ele>
        <time>2025-06-21T09:28:38Z</time>
      </trkpt>
      <trkpt lat="44.92912" lon="5.71179">
        <ele>1321</ele>
        <time>2025-06-21T09:28:43Z</time>
      </trkpt>
      <trkpt lat="44.92923" lon="5.71176">
        <ele>1322.1</ele>
        <time>2025-06-21T09:28:50Z</time>
      </trkpt>
      <trkpt lat="44.92925" lon="5.71175">
        <ele>1322.7</ele>
        <time>2025-06-21T09:28:51Z</time>
      </trkpt>
      <trkpt lat="44.92935" lon="5.71169">
        <ele>1325.3</ele>
        <time>2025-06-21T09:29:00Z</time>
      </trkpt>
      <trkpt lat="44.92936" lon="5.71168">
        <ele>1325.8</ele>
        <time>2025-06-21T09:29:01Z</time>
      </trkpt>
      <trkpt lat="44.92944" lon="5.71158">
        <ele>1330.8</ele>
        <time>2025-06-21T09:29:08Z</time>
      </trkpt>
      <trkpt lat="44.92945" lon="5.71157">
        <ele>1331.1</ele>
        <time>2025-06-21T09:29:09Z</time>
      </trkpt>
      <trkpt lat="44.92955" lon="5.71157">
        <ele>1330.6</ele>
        <time>2025-06-21T09:29:16Z</time>
      </trkpt>
      <trkpt lat="44.92956" lon="5.71156">
        <ele>1330.6</ele>
        <time>2025-06-21T09:29:17Z</time>
      </trkpt>
      <trkpt lat="44.92963" lon="5.71157">
        <ele>1329.8</ele>
        <time>2025-06-21T09:29:25Z</time>
      </trkpt>
      <trkpt lat="44.92964" lon="5.71161">
        <ele>1327.2</ele>
        <time>2025-06-21T09:29:31Z</time>
      </trkpt>
      <trkpt lat="44.92971" lon="5.7116">
        <ele>1327.5</ele>
        <time>2025-06-21T09:29:38Z</time>
      </trkpt>
      <trkpt lat="44.92974" lon="5.71161">
        <ele>1326.5</ele>
        <time>2025-06-21T09:29:43Z</time>
      </trkpt>
      <trkpt lat="44.92977" lon="5.71165">
        <ele>1324.4</ele>
        <time>2025-06-21T09:29:46Z</time>
      </trkpt>
      <trkpt lat="44.92982" lon="5.71168">
        <ele>1322</ele>
        <time>2025-06-21T09:29:52Z</time>
      </trkpt>
      <trkpt lat="44.92987" lon="5.71168">
        <ele>1320.8</ele>
        <time>2025-06-21T09:29:56Z</time>
      </trkpt>
      <trkpt lat="44.92997" lon="5.71162">
        <ele>1322.6</ele>
        <time>2025-06-21T09:30:03Z</time>
      </trkpt>
      <trkpt lat="44.92998" lon="5.71161">
        <ele>1322.9</ele>
        <time>2025-06-21T09:30:04Z</time>
      </trkpt>
      <trkpt lat="44.93002" lon="5.71158">
        <ele>1323.6</ele>
        <time>2025-06-21T09:30:09Z</time>
      </trkpt>
      <trkpt lat="44.93005" lon="5.71157">
        <ele>1323.7</ele>
        <time>2025-06-21T09:30:11Z</time>
      </trkpt>
      <trkpt lat="44.93014" lon="5.71149">
        <ele>1325.8</ele>
        <time>2025-06-21T09:30:17Z</time>
      </trkpt>
      <trkpt lat="44.93022" lon="5.71147">
        <ele>1325.3</ele>
        <time>2025-06-21T09:30:23Z</time>
      </trkpt>
      <trkpt lat="44.93032" lon="5.71145">
        <ele>1324.9</ele>
        <time>2025-06-21T09:30:29Z</time>
      </trkpt>
      <trkpt lat="44.93037" lon="5.71145">
        <ele>1323.8</ele>
        <time>2025-06-21T09:30:34Z</time>
      </trkpt>
      <trkpt lat="44.93039" lon="5.71144">
        <ele>1323.9</ele>
        <time>2025-06-21T09:30:35Z</time>
      </trkpt>
      <trkpt lat="44.93042" lon="5.71143">
        <ele>1324.2</ele>
        <time>2025-06-21T09:30:37Z</time>
      </trkpt>
      <trkpt lat="44.93046" lon="5.71138">
        <ele>1326.2</ele>
        <time>2025-06-21T09:30:40Z</time>
      </trkpt>
      <trkpt lat="44.93058" lon="5.71127">
        <ele>1329.9</ele>
        <time>2025-06-21T09:30:49Z</time>
      </trkpt>
      <trkpt lat="44.93059" lon="5.71124">
        <ele>1331.6</ele>
        <time>2025-06-21T09:30:51Z</time>
      </trkpt>
      <trkpt lat="44.93065" lon="5.71118">
        <ele>1333.6</ele>
        <time>2025-06-21T09:30:57Z</time>
      </trkpt>
      <trkpt lat="44.93066" lon="5.71114">
        <ele>1335.3</ele>
        <time>2025-06-21T09:30:59Z</time>
      </trkpt>
      <trkpt lat="44.93068" lon="5.71111">
        <ele>1336.6</ele>
        <time>2025-06-21T09:31:02Z</time>
      </trkpt>
      <trkpt lat="44.93069" lon="5.71105">
        <ele>1339.7</ele>
        <time>2025-06-21T09:31:05Z</time>
      </trkpt>
      <trkpt lat="44.93071" lon="5.71102">
        <ele>1340.9</ele>
        <time>2025-06-21T09:31:07Z</time>
      </trkpt>
      <trkpt lat="44.93072" lon="5.71099">
        <ele>1342.3</ele>
        <time>2025-06-21T09:31:09Z</time>
      </trkpt>
      <trkpt lat="44.93076" lon="5.71089">
        <ele>1346.6</ele>
        <time>2025-06-21T09:31:16Z</time>
      </trkpt>
      <trkpt lat="44.93085" lon="5.71083">
        <ele>1347.5</ele>
        <time>2025-06-21T09:31:22Z</time>
      </trkpt>
      <trkpt lat="44.93088" lon="5.71083">
        <ele>1347.4</ele>
        <time>2025-06-21T09:31:24Z</time>
      </trkpt>
      <trkpt lat="44.93092" lon="5.71084">
        <ele>1346</ele>
        <time>2025-06-21T09:31:29Z</time>
      </trkpt>
      <trkpt lat="44.93097" lon="5.71087">
        <ele>1343.9</ele>
        <time>2025-06-21T09:31:36Z</time>
      </trkpt>
      <trkpt lat="44.93099" lon="5.71086">
        <ele>1343.8</ele>
        <time>2025-06-21T09:31:39Z</time>
      </trkpt>
      <trkpt lat="44.93103" lon="5.71084">
        <ele>1344.3</ele>
        <time>2025-06-21T09:31:41Z</time>
      </trkpt>
      <trkpt lat="44.93113" lon="5.71076">
        <ele>1345.8</ele>
        <time>2025-06-21T09:31:48Z</time>
      </trkpt>
      <trkpt lat="44.93114" lon="5.71075">
        <ele>1346</ele>
        <time>2025-06-21T09:31:54Z</time>
      </trkpt>
      <trkpt lat="44.93123" lon="5.71081">
        <ele>1342.4</ele>
        <time>2025-06-21T09:32:01Z</time>
      </trkpt>
      <trkpt lat="44.9313" lon="5.71076">
        <ele>1343</ele>
        <time>2025-06-21T09:32:07Z</time>
      </trkpt>
      <trkpt lat="44.93137" lon="5.71075">
        <ele>1342.3</ele>
        <time>2025-06-21T09:32:10Z</time>
      </trkpt>
      <trkpt lat="44.93146" lon="5.71072">
        <ele>1342.1</ele>
        <time>2025-06-21T09:32:16Z</time>
      </trkpt>
      <trkpt lat="44.93157" lon="5.71068">
        <ele>1342.2</ele>
        <time>2025-06-21T09:32:25Z</time>
      </trkpt>
      <trkpt lat="44.93159" lon="5.71065">
        <ele>1343</ele>
        <time>2025-06-21T09:32:28Z</time>
      </trkpt>
      <trkpt lat="44.93163" lon="5.71064">
        <ele>1342.9</ele>
        <time>2025-06-21T09:32:32Z</time>
      </trkpt>
      <trkpt lat="44.93168" lon="5.71061">
        <ele>1343.2</ele>
        <time>2025-06-21T09:32:37Z</time>
      </trkpt>
      <trkpt lat="44.93172" lon="5.71055">
        <ele>1343.8</ele>
        <time>2025-06-21T09:32:42Z</time>
      </trkpt>
      <trkpt lat="44.93176" lon="5.71049">
        <ele>1344.8</ele>
        <time>2025-06-21T09:32:47Z</time>
      </trkpt>
      <trkpt lat="44.9318" lon="5.71045">
        <ele>1345.2</ele>
        <time>2025-06-21T09:32:50Z</time>
      </trkpt>
      <trkpt lat="44.93182" lon="5.71035">
        <ele>1347.1</ele>
        <time>2025-06-21T09:32:55Z</time>
      </trkpt>
      <trkpt lat="44.93184" lon="5.7103">
        <ele>1348</ele>
        <time>2025-06-21T09:32:59Z</time>
      </trkpt>
      <trkpt lat="44.93186" lon="5.71025">
        <ele>1349</ele>
        <time>2025-06-21T09:33:02Z</time>
      </trkpt>
      <trkpt lat="44.93187" lon="5.71021">
        <ele>1349.5</ele>
        <time>2025-06-21T09:33:04Z</time>
      </trkpt>
      <trkpt lat="44.93194" lon="5.71011">
        <ele>1350.6</ele>
        <time>2025-06-21T09:33:12Z</time>
      </trkpt>
      <trkpt lat="44.93197" lon="5.71001">
        <ele>1352.1</ele>
        <time>2025-06-21T09:33:19Z</time>
      </trkpt>
      <trkpt lat="44.93202" lon="5.70988">
        <ele>1353.6</ele>
        <time>2025-06-21T09:33:26Z</time>
      </trkpt>
      <trkpt lat="44.93207" lon="5.70979">
        <ele>1354.6</ele>
        <time>2025-06-21T09:33:33Z</time>
      </trkpt>
      <trkpt lat="44.93209" lon="5.70975">
        <ele>1354.7</ele>
        <time>2025-06-21T09:33:36Z</time>
      </trkpt>
      <trkpt lat="44.93215" lon="5.70966">
        <ele>1355.3</ele>
        <time>2025-06-21T09:33:43Z</time>
      </trkpt>
      <trkpt lat="44.93219" lon="5.70956">
        <ele>1356.2</ele>
        <time>2025-06-21T09:33:50Z</time>
      </trkpt>
      <trkpt lat="44.93221" lon="5.70949">
        <ele>1357.4</ele>
        <time>2025-06-21T09:33:55Z</time>
      </trkpt>
      <trkpt lat="44.93221" lon="5.70947">
        <ele>1357.8</ele>
        <time>2025-06-21T09:33:57Z</time>
      </trkpt>
      <trkpt lat="44.9323" lon="5.7094">
        <ele>1356.9</ele>
        <time>2025-06-21T09:34:03Z</time>
      </trkpt>
      <trkpt lat="44.93237" lon="5.70934">
        <ele>1356.4</ele>
        <time>2025-06-21T09:34:08Z</time>
      </trkpt>
      <trkpt lat="44.93238" lon="5.70933">
        <ele>1356.3</ele>
        <time>2025-06-21T09:34:09Z</time>
      </trkpt>
      <trkpt lat="44.93247" lon="5.70928">
        <ele>1355.4</ele>
        <time>2025-06-21T09:34:15Z</time>
      </trkpt>
      <trkpt lat="44.93248" lon="5.70926">
        <ele>1355.4</ele>
        <time>2025-06-21T09:34:17Z</time>
      </trkpt>
      <trkpt lat="44.93249" lon="5.70925">
        <ele>1355.5</ele>
        <time>2025-06-21T09:34:19Z</time>
      </trkpt>
      <trkpt lat="44.93257" lon="5.70918">
        <ele>1355.2</ele>
        <time>2025-06-21T09:34:26Z</time>
      </trkpt>
      <trkpt lat="44.93266" lon="5.70911">
        <ele>1354.6</ele>
        <time>2025-06-21T09:34:34Z</time>
      </trkpt>
      <trkpt lat="44.93275" lon="5.70907">
        <ele>1353.6</ele>
        <time>2025-06-21T09:34:40Z</time>
      </trkpt>
      <trkpt lat="44.9328" lon="5.70905">
        <ele>1353.3</ele>
        <time>2025-06-21T09:34:45Z</time>
      </trkpt>
      <trkpt lat="44.93283" lon="5.70901">
        <ele>1353.6</ele>
        <time>2025-06-21T09:34:50Z</time>
      </trkpt>
      <trkpt lat="44.93285" lon="5.709">
        <ele>1353.5</ele>
        <time>2025-06-21T09:34:57Z</time>
      </trkpt>
      <trkpt lat="44.93286" lon="5.70899">
        <ele>1353.6</ele>
        <time>2025-06-21T09:35:13Z</time>
      </trkpt>
      <trkpt lat="44.93286" lon="5.70898">
        <ele>1353.9</ele>
        <time>2025-06-21T09:35:19Z</time>
      </trkpt>
      <trkpt lat="44.93287" lon="5.70898">
        <ele>1353.7</ele>
        <time>2025-06-21T09:35:26Z</time>
      </trkpt>
      <trkpt lat="44.93289" lon="5.70898">
        <ele>1353.5</ele>
        <time>2025-06-21T09:35:36Z</time>
      </trkpt>
      <trkpt lat="44.9329" lon="5.70898">
        <ele>1353.3</ele>
        <time>2025-06-21T09:35:49Z</time>
      </trkpt>
      <trkpt lat="44.93291" lon="5.70897">
        <ele>1353.4</ele>
        <time>2025-06-21T09:36:04Z</time>
      </trkpt>
      <trkpt lat="44.93291" lon="5.70895">
        <ele>1353.8</ele>
        <time>2025-06-21T09:36:21Z</time>
      </trkpt>
      <trkpt lat="44.93291" lon="5.70895">
        <ele>1353.6</ele>
        <time>2025-06-21T09:36:29Z</time>
      </trkpt>
      <trkpt lat="44.93292" lon="5.70895">
        <ele>1353.6</ele>
        <time>2025-06-21T09:36:39Z</time>
      </trkpt>
      <trkpt lat="44.93292" lon="5.70895">
        <ele>1353.5</ele>
        <time>2025-06-21T09:36:50Z</time>
      </trkpt>
      <trkpt lat="44.93293" lon="5.70895">
        <ele>1353.6</ele>
        <time>2025-06-21T09:37:04Z</time>
      </trkpt>
      <trkpt lat="44.93293" lon="5.70895">
        <ele>1353.5</ele>
        <time>2025-06-21T09:37:15Z</time>
      </trkpt>
      <trkpt lat="44.93294" lon="5.70895">
        <ele>1353.4</ele>
        <time>2025-06-21T09:37:28Z</time>
      </trkpt>
      <trkpt lat="44.93296" lon="5.70895">
        <ele>1353.2</ele>
        <time>2025-06-21T09:37:44Z</time>
      </trkpt>
      <trkpt lat="44.93296" lon="5.70895">
        <ele>1353.1</ele>
        <time>2025-06-21T09:37:52Z</time>
      </trkpt>
      <trkpt lat="44.93297" lon="5.70895">
        <ele>1353</ele>
        <time>2025-06-21T09:38:05Z</time>
      </trkpt>
      <trkpt lat="44.93296" lon="5.70894">
        <ele>1353.2</ele>
        <time>2025-06-21T09:38:17Z</time>
      </trkpt>
      <trkpt lat="44.93296" lon="5.70895">
        <ele>1353.1</ele>
        <time>2025-06-21T09:38:25Z</time>
      </trkpt>
      <trkpt lat="44.93294" lon="5.70894">
        <ele>1353.6</ele>
        <time>2025-06-21T09:38:37Z</time>
      </trkpt>
      <trkpt lat="44.93293" lon="5.70894">
        <ele>1353.6</ele>
        <time>2025-06-21T09:38:52Z</time>
      </trkpt>
      <trkpt lat="44.93293" lon="5.70894">
        <ele>1353.7</ele>
        <time>2025-06-21T09:39:07Z</time>
      </trkpt>
      <trkpt lat="44.93293" lon="5.70895">
        <ele>1353.6</ele>
        <time>2025-06-21T09:39:17Z</time>
      </trkpt>
      <trkpt lat="44.93293" lon="5.70895">
        <ele>1353.6</ele>
        <time>2025-06-21T09:39:28Z</time>
      </trkpt>
      <trkpt lat="44.93293" lon="5.70894">
        <ele>1353.7</ele>
        <time>2025-06-21T09:39:40Z</time>
      </trkpt>
      <trkpt lat="44.93293" lon="5.70894">
        <ele>1353.8</ele>
        <time>2025-06-21T09:39:50Z</time>
      </trkpt>
      <trkpt lat="44.93293" lon="5.70894">
        <ele>1353.6</ele>
        <time>2025-06-21T09:40:01Z</time>
      </trkpt>
      <trkpt lat="44.93293" lon="5.70896">
        <ele>1353.2</ele>
        <time>2025-06-21T09:40:10Z</time>
      </trkpt>
      <trkpt lat="44.93293" lon="5.70896">
        <ele>1353.2</ele>
        <time>2025-06-21T09:40:21Z</time>
      </trkpt>
      <trkpt lat="44.93292" lon="5.70895">
        <ele>1353.5</ele>
        <time>2025-06-21T09:40:33Z</time>
      </trkpt>
      <trkpt lat="44.93292" lon="5.70895">
        <ele>1353.6</ele>
        <time>2025-06-21T09:40:45Z</time>
      </trkpt>
      <trkpt lat="44.93292" lon="5.70894">
        <ele>1353.7</ele>
        <time>2025-06-21T09:40:54Z</time>
      </trkpt>
      <trkpt lat="44.93292" lon="5.70895">
        <ele>1353.6</ele>
        <time>2025-06-21T09:41:02Z</time>
      </trkpt>
      <trkpt lat="44.93292" lon="5.70895">
        <ele>1353.6</ele>
        <time>2025-06-21T09:41:14Z</time>
      </trkpt>
      <trkpt lat="44.93292" lon="5.70895">
        <ele>1353.6</ele>
        <time>2025-06-21T09:41:26Z</time>
      </trkpt>
      <trkpt lat="44.93292" lon="5.70896">
        <ele>1353.4</ele>
        <time>2025-06-21T09:41:37Z</time>
      </trkpt>
      <trkpt lat="44.93293" lon="5.70896">
        <ele>1353.2</ele>
        <time>2025-06-21T09:41:49Z</time>
      </trkpt>
      <trkpt lat="44.93292" lon="5.70894">
        <ele>1353.9</ele>
        <time>2025-06-21T09:42:01Z</time>
      </trkpt>
      <trkpt lat="44.93293" lon="5.70893">
        <ele>1353.9</ele>
        <time>2025-06-21T09:42:12Z</time>
      </trkpt>
      <trkpt lat="44.93293" lon="5.70894">
        <ele>1353.7</ele>
        <time>2025-06-21T09:42:22Z</time>
      </trkpt>
      <trkpt lat="44.93293" lon="5.70895">
        <ele>1353.6</ele>
        <time>2025-06-21T09:42:30Z</time>
      </trkpt>
      <trkpt lat="44.93294" lon="5.70895">
        <ele>1353.4</ele>
        <time>2025-06-21T09:42:42Z</time>
      </trkpt>
      <trkpt lat="44.93295" lon="5.70895">
        <ele>1353.4</ele>
        <time>2025-06-21T09:42:54Z</time>
      </trkpt>
      <trkpt lat="44.93295" lon="5.70893">
        <ele>1353.7</ele>
        <time>2025-06-21T09:43:05Z</time>
      </trkpt>
      <trkpt lat="44.93294" lon="5.70892">
        <ele>1353.9</ele>
        <time>2025-06-21T09:43:17Z</time>
      </trkpt>
      <trkpt lat="44.93294" lon="5.70892">
        <ele>1353.9</ele>
        <time>2025-06-21T09:43:24Z</time>
      </trkpt>
      <trkpt lat="44.93294" lon="5.70892">
        <ele>1354</ele>
        <time>2025-06-21T09:43:38Z</time>
      </trkpt>
      <trkpt lat="44.93293" lon="5.70893">
        <ele>1354</ele>
        <time>2025-06-21T09:43:48Z</time>
      </trkpt>
      <trkpt lat="44.93293" lon="5.70893">
        <ele>1354</ele>
        <time>2025-06-21T09:43:59Z</time>
      </trkpt>
      <trkpt lat="44.93293" lon="5.70892">
        <ele>1354.1</ele>
        <time>2025-06-21T09:44:09Z</time>
      </trkpt>
      <trkpt lat="44.93294" lon="5.70893">
        <ele>1353.8</ele>
        <time>2025-06-21T09:44:20Z</time>
      </trkpt>
      <trkpt lat="44.93294" lon="5.70894">
        <ele>1353.5</ele>
        <time>2025-06-21T09:44:32Z</time>
      </trkpt>
      <trkpt lat="44.93294" lon="5.70895">
        <ele>1353.3</ele>
        <time>2025-06-21T09:44:49Z</time>
      </trkpt>
      <trkpt lat="44.93294" lon="5.70895">
        <ele>1353.3</ele>
        <time>2025-06-21T09:45:01Z</time>
      </trkpt>
      <trkpt lat="44.93293" lon="5.70895">
        <ele>1353.4</ele>
        <time>2025-06-21T09:45:14Z</time>
      </trkpt>
      <trkpt lat="44.93293" lon="5.70895">
        <ele>1353.4</ele>
        <time>2025-06-21T09:45:24Z</time>
      </trkpt>
      <trkpt lat="44.93293" lon="5.70896">
        <ele>1353.4</ele>
        <time>2025-06-21T09:45:37Z</time>
      </trkpt>
      <trkpt lat="44.93293" lon="5.70895">
        <ele>1353.6</ele>
        <time>2025-06-21T09:45:54Z</time>
      </trkpt>
      <trkpt lat="44.93293" lon="5.70894">
        <ele>1353.8</ele>
        <time>2025-06-21T09:46:08Z</time>
      </trkpt>
      <trkpt lat="44.93293" lon="5.70893">
        <ele>1353.9</ele>
        <time>2025-06-21T09:46:20Z</time>
      </trkpt>
      <trkpt lat="44.93293" lon="5.70893">
        <ele>1353.9</ele>
        <time>2025-06-21T09:46:32Z</time>
      </trkpt>
      <trkpt lat="44.93294" lon="5.70893">
        <ele>1353.8</ele>
        <time>2025-06-21T09:46:45Z</time>
      </trkpt>
      <trkpt lat="44.93295" lon="5.70893">
        <ele>1353.8</ele>
        <time>2025-06-21T09:47:00Z</time>
      </trkpt>
      <trkpt lat="44.93295" lon="5.70893">
        <ele>1353.7</ele>
        <time>2025-06-21T09:47:09Z</time>
      </trkpt>
      <trkpt lat="44.93295" lon="5.70893">
        <ele>1353.7</ele>
        <time>2025-06-21T09:47:23Z</time>
      </trkpt>
      <trkpt lat="44.93295" lon="5.70892">
        <ele>1353.8</ele>
        <time>2025-06-21T09:47:36Z</time>
      </trkpt>
      <trkpt lat="44.93295" lon="5.70892">
        <ele>1353.9</ele>
        <time>2025-06-21T09:47:47Z</time>
      </trkpt>
      <trkpt lat="44.93296" lon="5.70892">
        <ele>1353.8</ele>
        <time>2025-06-21T09:47:55Z</time>
      </trkpt>
      <trkpt lat="44.93295" lon="5.70891">
        <ele>1353.9</ele>
        <time>2025-06-21T09:48:10Z</time>
      </trkpt>
      <trkpt lat="44.93295" lon="5.70891">
        <ele>1354.1</ele>
        <time>2025-06-21T09:48:23Z</time>
      </trkpt>
      <trkpt lat="44.93294" lon="5.70891">
        <ele>1354.3</ele>
        <time>2025-06-21T09:48:35Z</time>
      </trkpt>
      <trkpt lat="44.93293" lon="5.70889">
        <ele>1354.8</ele>
        <time>2025-06-21T09:48:49Z</time>
      </trkpt>
      <trkpt lat="44.93293" lon="5.70889">
        <ele>1354.9</ele>
        <time>2025-06-21T09:49:01Z</time>
      </trkpt>
      <trkpt lat="44.93293" lon="5.70889">
        <ele>1354.8</ele>
        <time>2025-06-21T09:49:14Z</time>
      </trkpt>
      <trkpt lat="44.93293" lon="5.70889">
        <ele>1354.8</ele>
        <time>2025-06-21T09:49:26Z</time>
      </trkpt>
      <trkpt lat="44.93292" lon="5.7089">
        <ele>1354.6</ele>
        <time>2025-06-21T09:49:41Z</time>
      </trkpt>
      <trkpt lat="44.93293" lon="5.7089">
        <ele>1354.7</ele>
        <time>2025-06-21T09:49:53Z</time>
      </trkpt>
      <trkpt lat="44.93293" lon="5.7089">
        <ele>1354.6</ele>
        <time>2025-06-21T09:50:07Z</time>
      </trkpt>
      <trkpt lat="44.93292" lon="5.70889">
        <ele>1354.9</ele>
        <time>2025-06-21T09:50:20Z</time>
      </trkpt>
      <trkpt lat="44.93292" lon="5.70889">
        <ele>1354.9</ele>
        <time>2025-06-21T09:50:33Z</time>
      </trkpt>
      <trkpt lat="44.93292" lon="5.70889">
        <ele>1355</ele>
        <time>2025-06-21T09:50:49Z</time>
      </trkpt>
      <trkpt lat="44.93292" lon="5.70889">
        <ele>1355</ele>
        <time>2025-06-21T09:50:59Z</time>
      </trkpt>
      <trkpt lat="44.93292" lon="5.70889">
        <ele>1354.9</ele>
        <time>2025-06-21T09:51:13Z</time>
      </trkpt>
      <trkpt lat="44.93293" lon="5.7089">
        <ele>1354.6</ele>
        <time>2025-06-21T09:51:27Z</time>
      </trkpt>
      <trkpt lat="44.93293" lon="5.70891">
        <ele>1354.5</ele>
        <time>2025-06-21T09:51:38Z</time>
      </trkpt>
      <trkpt lat="44.93293" lon="5.70891">
        <ele>1354.5</ele>
        <time>2025-06-21T09:51:53Z</time>
      </trkpt>
      <trkpt lat="44.93293" lon="5.7089">
        <ele>1354.5</ele>
        <time>2025-06-21T09:52:00Z</time>
      </trkpt>
      <trkpt lat="44.93296" lon="5.70886">
        <ele>1354.8</ele>
        <time>2025-06-21T09:52:05Z</time>
      </trkpt>
      <trkpt lat="44.93303" lon="5.70879">
        <ele>1355.2</ele>
        <time>2025-06-21T09:52:13Z</time>
      </trkpt>
      <trkpt lat="44.93307" lon="5.70872">
        <ele>1356</ele>
        <time>2025-06-21T09:52:20Z</time>
      </trkpt>
      <trkpt lat="44.93312" lon="5.70868">
        <ele>1356.3</ele>
        <time>2025-06-21T09:52:27Z</time>
      </trkpt>
      <trkpt lat="44.93316" lon="5.70865">
        <ele>1356.6</ele>
        <time>2025-06-21T09:52:31Z</time>
      </trkpt>
      <trkpt lat="44.93321" lon="5.70863">
        <ele>1356.5</ele>
        <time>2025-06-21T09:52:36Z</time>
      </trkpt>
      <trkpt lat="44.93328" lon="5.7086">
        <ele>1356.6</ele>
        <time>2025-06-21T09:52:43Z</time>
      </trkpt>
      <trkpt lat="44.93334" lon="5.70856">
        <ele>1356.6</ele>
        <time>2025-06-21T09:52:50Z</time>
      </trkpt>
      <trkpt lat="44.93335" lon="5.70855">
        <ele>1356.6</ele>
        <time>2025-06-21T09:52:51Z</time>
      </trkpt>
      <trkpt lat="44.93342" lon="5.70851">
        <ele>1356.4</ele>
        <time>2025-06-21T09:52:57Z</time>
      </trkpt>
      <trkpt lat="44.93345" lon="5.70847">
        <ele>1356.5</ele>
        <time>2025-06-21T09:53:00Z</time>
      </trkpt>
      <trkpt lat="44.93352" lon="5.7084">
        <ele>1356.8</ele>
        <time>2025-06-21T09:53:07Z</time>
      </trkpt>
      <trkpt lat="44.93359" lon="5.70828">
        <ele>1358</ele>
        <time>2025-06-21T09:53:16Z</time>
      </trkpt>
      <trkpt lat="44.93364" lon="5.70821">
        <ele>1358.4</ele>
        <time>2025-06-21T09:53:23Z</time>
      </trkpt>
      <trkpt lat="44.93366" lon="5.70819">
        <ele>1358.6</ele>
        <time>2025-06-21T09:53:27Z</time>
      </trkpt>
      <trkpt lat="44.93372" lon="5.70812">
        <ele>1359.3</ele>
        <time>2025-06-21T09:53:34Z</time>
      </trkpt>
      <trkpt lat="44.93374" lon="5.70808">
        <ele>1359.6</ele>
        <time>2025-06-21T09:53:37Z</time>
      </trkpt>
      <trkpt lat="44.93377" lon="5.70806">
        <ele>1359.8</ele>
        <time>2025-06-21T09:53:40Z</time>
      </trkpt>
      <trkpt lat="44.93382" lon="5.708">
        <ele>1360.1</ele>
        <time>2025-06-21T09:53:46Z</time>
      </trkpt>
      <trkpt lat="44.93383" lon="5.70797">
        <ele>1360.4</ele>
        <time>2025-06-21T09:53:48Z</time>
      </trkpt>
      <trkpt lat="44.93388" lon="5.70788">
        <ele>1360.9</ele>
        <time>2025-06-21T09:53:55Z</time>
      </trkpt>
      <trkpt lat="44.93389" lon="5.70788">
        <ele>1360.9</ele>
        <time>2025-06-21T09:53:56Z</time>
      </trkpt>
      <trkpt lat="44.93398" lon="5.70783">
        <ele>1360.5</ele>
        <time>2025-06-21T09:54:03Z</time>
      </trkpt>
      <trkpt lat="44.93402" lon="5.70779">
        <ele>1360.5</ele>
        <time>2025-06-21T09:54:09Z</time>
      </trkpt>
      <trkpt lat="44.93407" lon="5.70778">
        <ele>1360.1</ele>
        <time>2025-06-21T09:54:16Z</time>
      </trkpt>
      <trkpt lat="44.93409" lon="5.70777">
        <ele>1360</ele>
        <time>2025-06-21T09:54:30Z</time>
      </trkpt>
      <trkpt lat="44.93411" lon="5.70778">
        <ele>1359.6</ele>
        <time>2025-06-21T09:54:37Z</time>
      </trkpt>
      <trkpt lat="44.93414" lon="5.70777">
        <ele>1359.4</ele>
        <time>2025-06-21T09:54:39Z</time>
      </trkpt>
      <trkpt lat="44.93419" lon="5.70776">
        <ele>1359</ele>
        <time>2025-06-21T09:54:43Z</time>
      </trkpt>
      <trkpt lat="44.93424" lon="5.70773">
        <ele>1359</ele>
        <time>2025-06-21T09:54:49Z</time>
      </trkpt>
      <trkpt lat="44.93428" lon="5.70773">
        <ele>1358.5</ele>
        <time>2025-06-21T09:54:53Z</time>
      </trkpt>
      <trkpt lat="44.93436" lon="5.70766">
        <ele>1358.5</ele>
        <time>2025-06-21T09:55:00Z</time>
      </trkpt>
      <trkpt lat="44.93444" lon="5.7076">
        <ele>1358.7</ele>
        <time>2025-06-21T09:55:07Z</time>
      </trkpt>
      <trkpt lat="44.93445" lon="5.70757">
        <ele>1359</ele>
        <time>2025-06-21T09:55:09Z</time>
      </trkpt>
      <trkpt lat="44.93449" lon="5.70746">
        <ele>1359.8</ele>
        <time>2025-06-21T09:55:15Z</time>
      </trkpt>
      <trkpt lat="44.9345" lon="5.70733">
        <ele>1361.3</ele>
        <time>2025-06-21T09:55:24Z</time>
      </trkpt>
      <trkpt lat="44.93448" lon="5.70725">
        <ele>1362.3</ele>
        <time>2025-06-21T09:55:30Z</time>
      </trkpt>
      <trkpt lat="44.93448" lon="5.70724">
        <ele>1362.5</ele>
        <time>2025-06-21T09:55:31Z</time>
      </trkpt>
      <trkpt lat="44.93443" lon="5.7072">
        <ele>1363.4</ele>
        <time>2025-06-21T09:55:38Z</time>
      </trkpt>
      <trkpt lat="44.93437" lon="5.7072">
        <ele>1364</ele>
        <time>2025-06-21T09:55:44Z</time>
      </trkpt>
      <trkpt lat="44.93435" lon="5.7072">
        <ele>1364.2</ele>
        <time>2025-06-21T09:55:45Z</time>
      </trkpt>
      <trkpt lat="44.93421" lon="5.7072">
        <ele>1365.7</ele>
        <time>2025-06-21T09:55:54Z</time>
      </trkpt>
      <trkpt lat="44.9342" lon="5.7072">
        <ele>1365.8</ele>
        <time>2025-06-21T09:55:55Z</time>
      </trkpt>
      <trkpt lat="44.9341" lon="5.70722">
        <ele>1366.5</ele>
        <time>2025-06-21T09:56:03Z</time>
      </trkpt>
      <trkpt lat="44.93404" lon="5.70726">
        <ele>1366.6</ele>
        <time>2025-06-21T09:56:09Z</time>
      </trkpt>
      <trkpt lat="44.934" lon="5.70728">
        <ele>1366.5</ele>
        <time>2025-06-21T09:56:13Z</time>
      </trkpt>
      <trkpt lat="44.93397" lon="5.70729">
        <ele>1366.7</ele>
        <time>2025-06-21T09:56:15Z</time>
      </trkpt>
      <trkpt lat="44.93391" lon="5.7073">
        <ele>1367</ele>
        <time>2025-06-21T09:56:21Z</time>
      </trkpt>
      <trkpt lat="44.93386" lon="5.70732">
        <ele>1367</ele>
        <time>2025-06-21T09:56:27Z</time>
      </trkpt>
      <trkpt lat="44.93384" lon="5.70732">
        <ele>1367</ele>
        <time>2025-06-21T09:56:31Z</time>
      </trkpt>
      <trkpt lat="44.9338" lon="5.70735">
        <ele>1366.9</ele>
        <time>2025-06-21T09:56:35Z</time>
      </trkpt>
      <trkpt lat="44.93371" lon="5.7074">
        <ele>1366.9</ele>
        <time>2025-06-21T09:56:40Z</time>
      </trkpt>
      <trkpt lat="44.93361" lon="5.70746">
        <ele>1367.1</ele>
        <time>2025-06-21T09:56:48Z</time>
      </trkpt>
      <trkpt lat="44.93353" lon="5.7075">
        <ele>1367</ele>
        <time>2025-06-21T09:56:54Z</time>
      </trkpt>
      <trkpt lat="44.93349" lon="5.70751">
        <ele>1366.9</ele>
        <time>2025-06-21T09:56:57Z</time>
      </trkpt>
      <trkpt lat="44.93347" lon="5.70753">
        <ele>1366.8</ele>
        <time>2025-06-21T09:56:59Z</time>
      </trkpt>
      <trkpt lat="44.93337" lon="5.70761">
        <ele>1366.5</ele>
        <time>2025-06-21T09:57:07Z</time>
      </trkpt>
      <trkpt lat="44.9333" lon="5.70765">
        <ele>1366.4</ele>
        <time>2025-06-21T09:57:12Z</time>
      </trkpt>
      <trkpt lat="44.93329" lon="5.70766">
        <ele>1366.3</ele>
        <time>2025-06-21T09:57:14Z</time>
      </trkpt>
      <trkpt lat="44.93325" lon="5.70768">
        <ele>1366.2</ele>
        <time>2025-06-21T09:57:18Z</time>
      </trkpt>
      <trkpt lat="44.93316" lon="5.70771">
        <ele>1366.1</ele>
        <time>2025-06-21T09:57:24Z</time>
      </trkpt>
      <trkpt lat="44.9331" lon="5.70773">
        <ele>1366</ele>
        <time>2025-06-21T09:57:30Z</time>
      </trkpt>
      <trkpt lat="44.93306" lon="5.70774">
        <ele>1366</ele>
        <time>2025-06-21T09:57:35Z</time>
      </trkpt>
      <trkpt lat="44.93293" lon="5.70779">
        <ele>1366</ele>
        <time>2025-06-21T09:57:43Z</time>
      </trkpt>
      <trkpt lat="44.93292" lon="5.7078">
        <ele>1366</ele>
        <time>2025-06-21T09:57:44Z</time>
      </trkpt>
      <trkpt lat="44.93289" lon="5.70781">
        <ele>1366</ele>
        <time>2025-06-21T09:57:46Z</time>
      </trkpt>
      <trkpt lat="44.93279" lon="5.70784">
        <ele>1366</ele>
        <time>2025-06-21T09:57:53Z</time>
      </trkpt>
      <trkpt lat="44.9327" lon="5.70787">
        <ele>1366.1</ele>
        <time>2025-06-21T09:58:00Z</time>
      </trkpt>
      <trkpt lat="44.93267" lon="5.70786">
        <ele>1366.1</ele>
        <time>2025-06-21T09:58:06Z</time>
      </trkpt>
      <trkpt lat="44.93259" lon="5.70791">
        <ele>1366.3</ele>
        <time>2025-06-21T09:58:10Z</time>
      </trkpt>
      <trkpt lat="44.93255" lon="5.70791">
        <ele>1366.4</ele>
        <time>2025-06-21T09:58:12Z</time>
      </trkpt>
      <trkpt lat="44.93252" lon="5.70792">
        <ele>1366.5</ele>
        <time>2025-06-21T09:58:14Z</time>
      </trkpt>
      <trkpt lat="44.93245" lon="5.70791">
        <ele>1366.8</ele>
        <time>2025-06-21T09:58:21Z</time>
      </trkpt>
      <trkpt lat="44.93237" lon="5.7079">
        <ele>1367.2</ele>
        <time>2025-06-21T09:58:27Z</time>
      </trkpt>
      <trkpt lat="44.93228" lon="5.70791">
        <ele>1367.7</ele>
        <time>2025-06-21T09:58:34Z</time>
      </trkpt>
      <trkpt lat="44.93226" lon="5.70791">
        <ele>1367.8</ele>
        <time>2025-06-21T09:58:35Z</time>
      </trkpt>
      <trkpt lat="44.93219" lon="5.70792">
        <ele>1368.2</ele>
        <time>2025-06-21T09:58:42Z</time>
      </trkpt>
      <trkpt lat="44.93216" lon="5.70793">
        <ele>1368.4</ele>
        <time>2025-06-21T09:58:44Z</time>
      </trkpt>
      <trkpt lat="44.93205" lon="5.70798">
        <ele>1369.2</ele>
        <time>2025-06-21T09:58:52Z</time>
      </trkpt>
      <trkpt lat="44.93202" lon="5.708">
        <ele>1369.5</ele>
        <time>2025-06-21T09:58:56Z</time>
      </trkpt>
      <trkpt lat="44.93194" lon="5.70805">
        <ele>1370.1</ele>
        <time>2025-06-21T09:59:01Z</time>
      </trkpt>
      <trkpt lat="44.93189" lon="5.70807">
        <ele>1370.7</ele>
        <time>2025-06-21T09:59:06Z</time>
      </trkpt>
      <trkpt lat="44.93184" lon="5.7081">
        <ele>1371.3</ele>
        <time>2025-06-21T09:59:10Z</time>
      </trkpt>
      <trkpt lat="44.93175" lon="5.70812">
        <ele>1372.3</ele>
        <time>2025-06-21T09:59:17Z</time>
      </trkpt>
      <trkpt lat="44.93165" lon="5.70814">
        <ele>1373.5</ele>
        <time>2025-06-21T09:59:23Z</time>
      </trkpt>
      <trkpt lat="44.93162" lon="5.70815">
        <ele>1373.8</ele>
        <time>2025-06-21T09:59:25Z</time>
      </trkpt>
      <trkpt lat="44.93155" lon="5.70809">
        <ele>1374.4</ele>
        <time>2025-06-21T09:59:31Z</time>
      </trkpt>
      <trkpt lat="44.93154" lon="5.70806">
        <ele>1374.4</ele>
        <time>2025-06-21T09:59:33Z</time>
      </trkpt>
      <trkpt lat="44.93153" lon="5.70803">
        <ele>1374.3</ele>
        <time>2025-06-21T09:59:36Z</time>
      </trkpt>
      <trkpt lat="44.93149" lon="5.70797">
        <ele>1374.4</ele>
        <time>2025-06-21T09:59:44Z</time>
      </trkpt>
      <trkpt lat="44.93145" lon="5.70791">
        <ele>1374.4</ele>
        <time>2025-06-21T09:59:48Z</time>
      </trkpt>
      <trkpt lat="44.9314" lon="5.70785">
        <ele>1374.4</ele>
        <time>2025-06-21T09:59:54Z</time>
      </trkpt>
      <trkpt lat="44.93137" lon="5.7078">
        <ele>1374.4</ele>
        <time>2025-06-21T10:00:00Z</time>
      </trkpt>
      <trkpt lat="44.93136" lon="5.70778">
        <ele>1374.3</ele>
        <time>2025-06-21T10:00:03Z</time>
      </trkpt>
      <trkpt lat="44.93134" lon="5.70773">
        <ele>1374.2</ele>
        <time>2025-06-21T10:00:07Z</time>
      </trkpt>
      <trkpt lat="44.93127" lon="5.70764">
        <ele>1374.3</ele>
        <time>2025-06-21T10:00:15Z</time>
      </trkpt>
      <trkpt lat="44.93123" lon="5.70758">
        <ele>1374.3</ele>
        <time>2025-06-21T10:00:19Z</time>
      </trkpt>
      <trkpt lat="44.93122" lon="5.70754">
        <ele>1374.1</ele>
        <time>2025-06-21T10:00:22Z</time>
      </trkpt>
      <trkpt lat="44.93121" lon="5.70751">
        <ele>1374</ele>
        <time>2025-06-21T10:00:24Z</time>
      </trkpt>
      <trkpt lat="44.93117" lon="5.70748">
        <ele>1374.2</ele>
        <time>2025-06-21T10:00:27Z</time>
      </trkpt>
      <trkpt lat="44.93107" lon="5.70739">
        <ele>1374.2</ele>
        <time>2025-06-21T10:00:36Z</time>
      </trkpt>
      <trkpt lat="44.93101" lon="5.7073">
        <ele>1373.7</ele>
        <time>2025-06-21T10:00:43Z</time>
      </trkpt>
      <trkpt lat="44.93098" lon="5.70728">
        <ele>1373.6</ele>
        <time>2025-06-21T10:00:45Z</time>
      </trkpt>
      <trkpt lat="44.93082" lon="5.70724">
        <ele>1374.5</ele>
        <time>2025-06-21T10:00:55Z</time>
      </trkpt>
      <trkpt lat="44.93074" lon="5.70721">
        <ele>1375.2</ele>
        <time>2025-06-21T10:01:03Z</time>
      </trkpt>
      <trkpt lat="44.93068" lon="5.7072">
        <ele>1375.9</ele>
        <time>2025-06-21T10:01:09Z</time>
      </trkpt>
      <trkpt lat="44.93061" lon="5.70717">
        <ele>1376.3</ele>
        <time>2025-06-21T10:01:16Z</time>
      </trkpt>
      <trkpt lat="44.93054" lon="5.70717">
        <ele>1377.2</ele>
        <time>2025-06-21T10:01:22Z</time>
      </trkpt>
      <trkpt lat="44.9304" lon="5.70717">
        <ele>1378.3</ele>
        <time>2025-06-21T10:01:29Z</time>
      </trkpt>
      <trkpt lat="44.93034" lon="5.70717">
        <ele>1378.8</ele>
        <time>2025-06-21T10:01:32Z</time>
      </trkpt>
      <trkpt lat="44.93018" lon="5.70718">
        <ele>1380.7</ele>
        <time>2025-06-21T10:01:40Z</time>
      </trkpt>
      <trkpt lat="44.93007" lon="5.70716">
        <ele>1381.9</ele>
        <time>2025-06-21T10:01:48Z</time>
      </trkpt>
      <trkpt lat="44.93002" lon="5.70717">
        <ele>1382.8</ele>
        <time>2025-06-21T10:01:56Z</time>
      </trkpt>
      <trkpt lat="44.92998" lon="5.70719">
        <ele>1383.5</ele>
        <time>2025-06-21T10:02:02Z</time>
      </trkpt>
      <trkpt lat="44.92997" lon="5.70719">
        <ele>1383.7</ele>
        <time>2025-06-21T10:02:03Z</time>
      </trkpt>
      <trkpt lat="44.92988" lon="5.70721">
        <ele>1385.1</ele>
        <time>2025-06-21T10:02:11Z</time>
      </trkpt>
      <trkpt lat="44.92984" lon="5.70722">
        <ele>1385.7</ele>
        <time>2025-06-21T10:02:17Z</time>
      </trkpt>
      <trkpt lat="44.92979" lon="5.70723">
        <ele>1386.5</ele>
        <time>2025-06-21T10:02:22Z</time>
      </trkpt>
      <trkpt lat="44.92968" lon="5.70725">
        <ele>1388.1</ele>
        <time>2025-06-21T10:02:29Z</time>
      </trkpt>
      <trkpt lat="44.92954" lon="5.70724">
        <ele>1390</ele>
        <time>2025-06-21T10:02:36Z</time>
      </trkpt>
      <trkpt lat="44.92944" lon="5.70724">
        <ele>1391.4</ele>
        <time>2025-06-21T10:02:42Z</time>
      </trkpt>
      <trkpt lat="44.92939" lon="5.70722">
        <ele>1391.5</ele>
        <time>2025-06-21T10:02:53Z</time>
      </trkpt>
      <trkpt lat="44.9294" lon="5.70718">
        <ele>1390.6</ele>
        <time>2025-06-21T10:02:59Z</time>
      </trkpt>
      <trkpt lat="44.92946" lon="5.70718">
        <ele>1389.8</ele>
        <time>2025-06-21T10:03:06Z</time>
      </trkpt>
      <trkpt lat="44.92948" lon="5.70718">
        <ele>1389.6</ele>
        <time>2025-06-21T10:03:07Z</time>
      </trkpt>
      <trkpt lat="44.92951" lon="5.70718">
        <ele>1389.1</ele>
        <time>2025-06-21T10:03:09Z</time>
      </trkpt>
      <trkpt lat="44.9296" lon="5.70717">
        <ele>1387.8</ele>
        <time>2025-06-21T10:03:16Z</time>
      </trkpt>
      <trkpt lat="44.92962" lon="5.70718">
        <ele>1387.7</ele>
        <time>2025-06-21T10:03:24Z</time>
      </trkpt>
      <trkpt lat="44.92964" lon="5.70718">
        <ele>1387.4</ele>
        <time>2025-06-21T10:03:33Z</time>
      </trkpt>
      <trkpt lat="44.92969" lon="5.70718">
        <ele>1386.8</ele>
        <time>2025-06-21T10:03:38Z</time>
      </trkpt>
      <trkpt lat="44.92982" lon="5.7072">
        <ele>1385.5</ele>
        <time>2025-06-21T10:03:46Z</time>
      </trkpt>
      <trkpt lat="44.92983" lon="5.70719">
        <ele>1385.3</ele>
        <time>2025-06-21T10:03:47Z</time>
      </trkpt>
      <trkpt lat="44.92986" lon="5.70715">
        <ele>1384.3</ele>
        <time>2025-06-21T10:03:53Z</time>
      </trkpt>
      <trkpt lat="44.9299" lon="5.70711">
        <ele>1383.1</ele>
        <time>2025-06-21T10:03:59Z</time>
      </trkpt>
      <trkpt lat="44.92994" lon="5.70708">
        <ele>1382.1</ele>
        <time>2025-06-21T10:04:07Z</time>
      </trkpt>
      <trkpt lat="44.93" lon="5.70704">
        <ele>1380.8</ele>
        <time>2025-06-21T10:04:14Z</time>
      </trkpt>
      <trkpt lat="44.93007" lon="5.70707">
        <ele>1380.4</ele>
        <time>2025-06-21T10:04:21Z</time>
      </trkpt>
      <trkpt lat="44.93011" lon="5.70709">
        <ele>1380.3</ele>
        <time>2025-06-21T10:04:28Z</time>
      </trkpt>
      <trkpt lat="44.93013" lon="5.70711">
        <ele>1380.2</ele>
        <time>2025-06-21T10:04:36Z</time>
      </trkpt>
      <trkpt lat="44.93012" lon="5.70711">
        <ele>1380.4</ele>
        <time>2025-06-21T10:04:39Z</time>
      </trkpt>
      <trkpt lat="44.93016" lon="5.70716">
        <ele>1380.8</ele>
        <time>2025-06-21T10:04:46Z</time>
      </trkpt>
      <trkpt lat="44.93014" lon="5.70719">
        <ele>1381.5</ele>
        <time>2025-06-21T10:04:53Z</time>
      </trkpt>
      <trkpt lat="44.93012" lon="5.70727">
        <ele>1382.9</ele>
        <time>2025-06-21T10:05:00Z</time>
      </trkpt>
      <trkpt lat="44.93003" lon="5.70732">
        <ele>1385.1</ele>
        <time>2025-06-21T10:05:06Z</time>
      </trkpt>
      <trkpt lat="44.92999" lon="5.7074">
        <ele>1386.7</ele>
        <time>2025-06-21T10:05:14Z</time>
      </trkpt>
      <trkpt lat="44.92993" lon="5.70742">
        <ele>1387.8</ele>
        <time>2025-06-21T10:05:21Z</time>
      </trkpt>
      <trkpt lat="44.92992" lon="5.70742">
        <ele>1388</ele>
        <time>2025-06-21T10:05:22Z</time>
      </trkpt>
      <trkpt lat="44.92982" lon="5.70746">
        <ele>1390</ele>
        <time>2025-06-21T10:05:31Z</time>
      </trkpt>
      <trkpt lat="44.92974" lon="5.70749">
        <ele>1391.6</ele>
        <time>2025-06-21T10:05:38Z</time>
      </trkpt>
      <trkpt lat="44.92972" lon="5.70751">
        <ele>1392.2</ele>
        <time>2025-06-21T10:05:45Z</time>
      </trkpt>
      <trkpt lat="44.92968" lon="5.70756">
        <ele>1393.7</ele>
        <time>2025-06-21T10:05:51Z</time>
      </trkpt>
      <trkpt lat="44.92964" lon="5.70758">
        <ele>1394.6</ele>
        <time>2025-06-21T10:05:53Z</time>
      </trkpt>
      <trkpt lat="44.92957" lon="5.70761">
        <ele>1396.1</ele>
        <time>2025-06-21T10:05:58Z</time>
      </trkpt>
      <trkpt lat="44.92946" lon="5.70764">
        <ele>1398.3</ele>
        <time>2025-06-21T10:06:08Z</time>
      </trkpt>
      <trkpt lat="44.92943" lon="5.70764">
        <ele>1398.8</ele>
        <time>2025-06-21T10:06:16Z</time>
      </trkpt>
      <trkpt lat="44.92939" lon="5.70764">
        <ele>1399.5</ele>
        <time>2025-06-21T10:06:24Z</time>
      </trkpt>
      <trkpt lat="44.92937" lon="5.70765">
        <ele>1400</ele>
        <time>2025-06-21T10:06:32Z</time>
      </trkpt>
      <trkpt lat="44.92931" lon="5.70765">
        <ele>1401</ele>
        <time>2025-06-21T10:06:40Z</time>
      </trkpt>
      <trkpt lat="44.92922" lon="5.70767">
        <ele>1402.7</ele>
        <time>2025-06-21T10:06:48Z</time>
      </trkpt>
      <trkpt lat="44.9292" lon="5.70767">
        <ele>1403.2</ele>
        <time>2025-06-21T10:06:55Z</time>
      </trkpt>
      <trkpt lat="44.92918" lon="5.70767">
        <ele>1403.5</ele>
        <time>2025-06-21T10:06:58Z</time>
      </trkpt>
      <trkpt lat="44.92908" lon="5.70775">
        <ele>1406.8</ele>
        <time>2025-06-21T10:07:06Z</time>
      </trkpt>
      <trkpt lat="44.92903" lon="5.70776">
        <ele>1407.9</ele>
        <time>2025-06-21T10:07:12Z</time>
      </trkpt>
      <trkpt lat="44.929" lon="5.70776">
        <ele>1408.5</ele>
        <time>2025-06-21T10:07:19Z</time>
      </trkpt>
      <trkpt lat="44.92898" lon="5.70776">
        <ele>1409.1</ele>
        <time>2025-06-21T10:07:28Z</time>
      </trkpt>
      <trkpt lat="44.92894" lon="5.70778">
        <ele>1410.2</ele>
        <time>2025-06-21T10:07:35Z</time>
      </trkpt>
      <trkpt lat="44.92891" lon="5.7078">
        <ele>1411.1</ele>
        <time>2025-06-21T10:07:42Z</time>
      </trkpt>
      <trkpt lat="44.9289" lon="5.70782">
        <ele>1411.9</ele>
        <time>2025-06-21T10:07:51Z</time>
      </trkpt>
      <trkpt lat="44.92882" lon="5.70783">
        <ele>1413.9</ele>
        <time>2025-06-21T10:07:59Z</time>
      </trkpt>
      <trkpt lat="44.92881" lon="5.70783">
        <ele>1414</ele>
        <time>2025-06-21T10:08:01Z</time>
      </trkpt>
      <trkpt lat="44.92877" lon="5.70783">
        <ele>1414.8</ele>
        <time>2025-06-21T10:08:08Z</time>
      </trkpt>
      <trkpt lat="44.92875" lon="5.7078">
        <ele>1414.5</ele>
        <time>2025-06-21T10:08:16Z</time>
      </trkpt>
      <trkpt lat="44.92872" lon="5.7078">
        <ele>1415</ele>
        <time>2025-06-21T10:08:24Z</time>
      </trkpt>
      <trkpt lat="44.9287" lon="5.70781">
        <ele>1415.8</ele>
        <time>2025-06-21T10:08:31Z</time>
      </trkpt>
      <trkpt lat="44.92864" lon="5.70783">
        <ele>1417.7</ele>
        <time>2025-06-21T10:08:38Z</time>
      </trkpt>
      <trkpt lat="44.92858" lon="5.70785">
        <ele>1419.5</ele>
        <time>2025-06-21T10:08:47Z</time>
      </trkpt>
      <trkpt lat="44.92853" lon="5.70785">
        <ele>1420.7</ele>
        <time>2025-06-21T10:08:54Z</time>
      </trkpt>
      <trkpt lat="44.92846" lon="5.70785">
        <ele>1422.2</ele>
        <time>2025-06-21T10:09:03Z</time>
      </trkpt>
      <trkpt lat="44.92839" lon="5.70784">
        <ele>1423.4</ele>
        <time>2025-06-21T10:09:11Z</time>
      </trkpt>
      <trkpt lat="44.92836" lon="5.70786">
        <ele>1424.4</ele>
        <time>2025-06-21T10:09:16Z</time>
      </trkpt>
      <trkpt lat="44.92832" lon="5.70785">
        <ele>1425.2</ele>
        <time>2025-06-21T10:09:22Z</time>
      </trkpt>
      <trkpt lat="44.92825" lon="5.70786">
        <ele>1427</ele>
        <time>2025-06-21T10:09:29Z</time>
      </trkpt>
      <trkpt lat="44.92822" lon="5.70785">
        <ele>1427.6</ele>
        <time>2025-06-21T10:09:35Z</time>
      </trkpt>
      <trkpt lat="44.92818" lon="5.70785">
        <ele>1428.5</ele>
        <time>2025-06-21T10:09:42Z</time>
      </trkpt>
      <trkpt lat="44.92813" lon="5.7079">
        <ele>1430.7</ele>
        <time>2025-06-21T10:09:49Z</time>
      </trkpt>
      <trkpt lat="44.92807" lon="5.70792">
        <ele>1432.7</ele>
        <time>2025-06-21T10:09:57Z</time>
      </trkpt>
      <trkpt lat="44.92804" lon="5.70793">
        <ele>1433.6</ele>
        <time>2025-06-21T10:10:04Z</time>
      </trkpt>
      <trkpt lat="44.92799" lon="5.70794">
        <ele>1435</ele>
        <time>2025-06-21T10:10:11Z</time>
      </trkpt>
      <trkpt lat="44.92794" lon="5.70798">
        <ele>1437.1</ele>
        <time>2025-06-21T10:10:18Z</time>
      </trkpt>
      <trkpt lat="44.9279" lon="5.70802">
        <ele>1439.2</ele>
        <time>2025-06-21T10:10:27Z</time>
      </trkpt>
      <trkpt lat="44.92784" lon="5.70809">
        <ele>1442.6</ele>
        <time>2025-06-21T10:10:36Z</time>
      </trkpt>
      <trkpt lat="44.92778" lon="5.70812">
        <ele>1444.4</ele>
        <time>2025-06-21T10:10:41Z</time>
      </trkpt>
      <trkpt lat="44.9277" lon="5.70818">
        <ele>1447.1</ele>
        <time>2025-06-21T10:10:49Z</time>
      </trkpt>
      <trkpt lat="44.92763" lon="5.70826">
        <ele>1450.4</ele>
        <time>2025-06-21T10:10:57Z</time>
      </trkpt>
      <trkpt lat="44.9276" lon="5.70828">
        <ele>1451.6</ele>
        <time>2025-06-21T10:11:07Z</time>
      </trkpt>
      <trkpt lat="44.92758" lon="5.70831">
        <ele>1452.7</ele>
        <time>2025-06-21T10:11:17Z</time>
      </trkpt>
      <trkpt lat="44.92757" lon="5.70837">
        <ele>1454.1</ele>
        <time>2025-06-21T10:11:25Z</time>
      </trkpt>
      <trkpt lat="44.92757" lon="5.70835">
        <ele>1453.9</ele>
        <time>2025-06-21T10:11:33Z</time>
      </trkpt>
      <trkpt lat="44.92751" lon="5.70836">
        <ele>1455.3</ele>
        <time>2025-06-21T10:11:42Z</time>
      </trkpt>
      <trkpt lat="44.92744" lon="5.70841">
        <ele>1458.1</ele>
        <time>2025-06-21T10:11:51Z</time>
      </trkpt>
      <trkpt lat="44.92737" lon="5.70845">
        <ele>1460.3</ele>
        <time>2025-06-21T10:11:58Z</time>
      </trkpt>
      <trkpt lat="44.92732" lon="5.70846">
        <ele>1461.7</ele>
        <time>2025-06-21T10:12:03Z</time>
      </trkpt>
      <trkpt lat="44.92728" lon="5.70849">
        <ele>1463.2</ele>
        <time>2025-06-21T10:12:13Z</time>
      </trkpt>
      <trkpt lat="44.92724" lon="5.70848">
        <ele>1463.8</ele>
        <time>2025-06-21T10:12:21Z</time>
      </trkpt>
      <trkpt lat="44.92717" lon="5.7085">
        <ele>1465.7</ele>
        <time>2025-06-21T10:12:29Z</time>
      </trkpt>
      <trkpt lat="44.9271" lon="5.70852">
        <ele>1467.6</ele>
        <time>2025-06-21T10:12:37Z</time>
      </trkpt>
      <trkpt lat="44.92708" lon="5.70853">
        <ele>1468.3</ele>
        <time>2025-06-21T10:12:45Z</time>
      </trkpt>
      <trkpt lat="44.92708" lon="5.70854">
        <ele>1468.5</ele>
        <time>2025-06-21T10:12:49Z</time>
      </trkpt>
      <trkpt lat="44.92706" lon="5.70857">
        <ele>1469.7</ele>
        <time>2025-06-21T10:12:58Z</time>
      </trkpt>
      <trkpt lat="44.92701" lon="5.70864">
        <ele>1472</ele>
        <time>2025-06-21T10:13:08Z</time>
      </trkpt>
      <trkpt lat="44.92695" lon="5.70869">
        <ele>1473.6</ele>
        <time>2025-06-21T10:13:16Z</time>
      </trkpt>
      <trkpt lat="44.9269" lon="5.70869">
        <ele>1474.8</ele>
        <time>2025-06-21T10:13:25Z</time>
      </trkpt>
      <trkpt lat="44.92685" lon="5.70871">
        <ele>1476.2</ele>
        <time>2025-06-21T10:13:33Z</time>
      </trkpt>
      <trkpt lat="44.92679" lon="5.7087">
        <ele>1477.4</ele>
        <time>2025-06-21T10:13:41Z</time>
      </trkpt>
      <trkpt lat="44.92677" lon="5.70869">
        <ele>1477.8</ele>
        <time>2025-06-21T10:13:50Z</time>
      </trkpt>
      <trkpt lat="44.92672" lon="5.70871">
        <ele>1479.2</ele>
        <time>2025-06-21T10:13:59Z</time>
      </trkpt>
      <trkpt lat="44.9267" lon="5.70873">
        <ele>1480</ele>
        <time>2025-06-21T10:14:06Z</time>
      </trkpt>
      <trkpt lat="44.92662" lon="5.70873">
        <ele>1481.7</ele>
        <time>2025-06-21T10:14:15Z</time>
      </trkpt>
      <trkpt lat="44.9266" lon="5.70869">
        <ele>1481.7</ele>
        <time>2025-06-21T10:14:18Z</time>
      </trkpt>
      <trkpt lat="44.92651" lon="5.70866">
        <ele>1483.6</ele>
        <time>2025-06-21T10:14:26Z</time>
      </trkpt>
      <trkpt lat="44.92648" lon="5.70865">
        <ele>1484.1</ele>
        <time>2025-06-21T10:14:33Z</time>
      </trkpt>
      <trkpt lat="44.92644" lon="5.70865">
        <ele>1485.1</ele>
        <time>2025-06-21T10:14:42Z</time>
      </trkpt>
      <trkpt lat="44.92639" lon="5.70866">
        <ele>1486.4</ele>
        <time>2025-06-21T10:14:51Z</time>
      </trkpt>
      <trkpt lat="44.92632" lon="5.70864">
        <ele>1487.9</ele>
        <time>2025-06-21T10:15:00Z</time>
      </trkpt>
      <trkpt lat="44.9263" lon="5.70865">
        <ele>1488.4</ele>
        <time>2025-06-21T10:15:07Z</time>
      </trkpt>
      <trkpt lat="44.92628" lon="5.70865">
        <ele>1488.8</ele>
        <time>2025-06-21T10:15:16Z</time>
      </trkpt>
      <trkpt lat="44.92622" lon="5.70866">
        <ele>1490</ele>
        <time>2025-06-21T10:15:24Z</time>
      </trkpt>
      <trkpt lat="44.9262" lon="5.70869">
        <ele>1490.7</ele>
        <time>2025-06-21T10:15:33Z</time>
      </trkpt>
      <trkpt lat="44.92618" lon="5.70866">
        <ele>1490.8</ele>
        <time>2025-06-21T10:15:39Z</time>
      </trkpt>
      <trkpt lat="44.92616" lon="5.70866">
        <ele>1491.4</ele>
        <time>2025-06-21T10:15:47Z</time>
      </trkpt>
      <trkpt lat="44.92613" lon="5.70867">
        <ele>1492.1</ele>
        <time>2025-06-21T10:15:54Z</time>
      </trkpt>
      <trkpt lat="44.92608" lon="5.70869">
        <ele>1493.2</ele>
        <time>2025-06-21T10:16:02Z</time>
      </trkpt>
      <trkpt lat="44.92606" lon="5.70872">
        <ele>1493.8</ele>
        <time>2025-06-21T10:16:10Z</time>
      </trkpt>
      <trkpt lat="44.92601" lon="5.70873">
        <ele>1494.8</ele>
        <time>2025-06-21T10:16:14Z</time>
      </trkpt>
      <trkpt lat="44.92595" lon="5.70875">
        <ele>1495.9</ele>
        <time>2025-06-21T10:16:21Z</time>
      </trkpt>
      <trkpt lat="44.92592" lon="5.70879">
        <ele>1496.7</ele>
        <time>2025-06-21T10:16:27Z</time>
      </trkpt>
      <trkpt lat="44.92585" lon="5.70882">
        <ele>1498.2</ele>
        <time>2025-06-21T10:16:33Z</time>
      </trkpt>
      <trkpt lat="44.92581" lon="5.70887">
        <ele>1499.1</ele>
        <time>2025-06-21T10:16:40Z</time>
      </trkpt>
      <trkpt lat="44.92577" lon="5.70892">
        <ele>1499.8</ele>
        <time>2025-06-21T10:16:47Z</time>
      </trkpt>
      <trkpt lat="44.92576" lon="5.70893">
        <ele>1499.8</ele>
        <time>2025-06-21T10:16:52Z</time>
      </trkpt>
      <trkpt lat="44.92572" lon="5.70896">
        <ele>1500.4</ele>
        <time>2025-06-21T10:16:59Z</time>
      </trkpt>
      <trkpt lat="44.92571" lon="5.70898">
        <ele>1500.5</ele>
        <time>2025-06-21T10:17:05Z</time>
      </trkpt>
      <trkpt lat="44.92567" lon="5.70903">
        <ele>1500.8</ele>
        <time>2025-06-21T10:17:12Z</time>
      </trkpt>
      <trkpt lat="44.92564" lon="5.70907">
        <ele>1501.1</ele>
        <time>2025-06-21T10:17:19Z</time>
      </trkpt>
      <trkpt lat="44.9256" lon="5.7091">
        <ele>1501.5</ele>
        <time>2025-06-21T10:17:26Z</time>
      </trkpt>
      <trkpt lat="44.92553" lon="5.70914">
        <ele>1502.4</ele>
        <time>2025-06-21T10:17:33Z</time>
      </trkpt>
      <trkpt lat="44.92548" lon="5.70916">
        <ele>1503.1</ele>
        <time>2025-06-21T10:17:39Z</time>
      </trkpt>
      <trkpt lat="44.92544" lon="5.7092">
        <ele>1503.2</ele>
        <time>2025-06-21T10:17:46Z</time>
      </trkpt>
      <trkpt lat="44.92541" lon="5.7092">
        <ele>1503.7</ele>
        <time>2025-06-21T10:17:51Z</time>
      </trkpt>
      <trkpt lat="44.92532" lon="5.70924">
        <ele>1504.2</ele>
        <time>2025-06-21T10:17:59Z</time>
      </trkpt>
      <trkpt lat="44.92526" lon="5.70922">
        <ele>1505.5</ele>
        <time>2025-06-21T10:18:07Z</time>
      </trkpt>
      <trkpt lat="44.92519" lon="5.70923">
        <ele>1506.6</ele>
        <time>2025-06-21T10:18:15Z</time>
      </trkpt>
      <trkpt lat="44.92512" lon="5.70925">
        <ele>1507.6</ele>
        <time>2025-06-21T10:18:22Z</time>
      </trkpt>
      <trkpt lat="44.92507" lon="5.70927">
        <ele>1508.2</ele>
        <time>2025-06-21T10:18:29Z</time>
      </trkpt>
      <trkpt lat="44.92496" lon="5.70931">
        <ele>1509.5</ele>
        <time>2025-06-21T10:18:37Z</time>
      </trkpt>
      <trkpt lat="44.92488" lon="5.70934">
        <ele>1510.7</ele>
        <time>2025-06-21T10:18:45Z</time>
      </trkpt>
      <trkpt lat="44.92486" lon="5.70936">
        <ele>1510.9</ele>
        <time>2025-06-21T10:18:52Z</time>
      </trkpt>
      <trkpt lat="44.92482" lon="5.70938">
        <ele>1511.6</ele>
        <time>2025-06-21T10:18:58Z</time>
      </trkpt>
      <trkpt lat="44.92478" lon="5.70941">
        <ele>1512.1</ele>
        <time>2025-06-21T10:19:08Z</time>
      </trkpt>
      <trkpt lat="44.92472" lon="5.70944">
        <ele>1513</ele>
        <time>2025-06-21T10:19:15Z</time>
      </trkpt>
      <trkpt lat="44.92469" lon="5.70948">
        <ele>1512.8</ele>
        <time>2025-06-21T10:19:21Z</time>
      </trkpt>
      <trkpt lat="44.92464" lon="5.70951">
        <ele>1513.1</ele>
        <time>2025-06-21T10:19:26Z</time>
      </trkpt>
      <trkpt lat="44.92462" lon="5.70949">
        <ele>1513.6</ele>
        <time>2025-06-21T10:19:35Z</time>
      </trkpt>
      <trkpt lat="44.92462" lon="5.70948">
        <ele>1514.1</ele>
        <time>2025-06-21T10:19:50Z</time>
      </trkpt>
      <trkpt lat="44.92461" lon="5.70947">
        <ele>1514.4</ele>
        <time>2025-06-21T10:20:03Z</time>
      </trkpt>
      <trkpt lat="44.92455" lon="5.7095">
        <ele>1514.8</ele>
        <time>2025-06-21T10:20:14Z</time>
      </trkpt>
      <trkpt lat="44.92452" lon="5.70951">
        <ele>1515.4</ele>
        <time>2025-06-21T10:20:24Z</time>
      </trkpt>
      <trkpt lat="44.9245" lon="5.70952">
        <ele>1515.7</ele>
        <time>2025-06-21T10:20:36Z</time>
      </trkpt>
      <trkpt lat="44.9245" lon="5.70951">
        <ele>1515.8</ele>
        <time>2025-06-21T10:20:46Z</time>
      </trkpt>
      <trkpt lat="44.9245" lon="5.70951">
        <ele>1515.7</ele>
        <time>2025-06-21T10:20:59Z</time>
      </trkpt>
      <trkpt lat="44.92451" lon="5.70952">
        <ele>1515.2</ele>
        <time>2025-06-21T10:21:09Z</time>
      </trkpt>
      <trkpt lat="44.92451" lon="5.70949">
        <ele>1515.9</ele>
        <time>2025-06-21T10:21:19Z</time>
      </trkpt>
      <trkpt lat="44.92449" lon="5.70945">
        <ele>1517.2</ele>
        <time>2025-06-21T10:21:29Z</time>
      </trkpt>
      <trkpt lat="44.92449" lon="5.70942">
        <ele>1517.3</ele>
        <time>2025-06-21T10:21:41Z</time>
      </trkpt>
      <trkpt lat="44.92449" lon="5.70939">
        <ele>1517.5</ele>
        <time>2025-06-21T10:21:58Z</time>
      </trkpt>
      <trkpt lat="44.92448" lon="5.70939">
        <ele>1517.5</ele>
        <time>2025-06-21T10:22:10Z</time>
      </trkpt>
      <trkpt lat="44.92448" lon="5.70939">
        <ele>1517.5</ele>
        <time>2025-06-21T10:22:22Z</time>
      </trkpt>
      <trkpt lat="44.92449" lon="5.7094">
        <ele>1517.4</ele>
        <time>2025-06-21T10:22:38Z</time>
      </trkpt>
      <trkpt lat="44.92449" lon="5.7094">
        <ele>1517.3</ele>
        <time>2025-06-21T10:22:49Z</time>
      </trkpt>
      <trkpt lat="44.9245" lon="5.70941">
        <ele>1517.2</ele>
        <time>2025-06-21T10:23:03Z</time>
      </trkpt>
      <trkpt lat="44.92449" lon="5.70941">
        <ele>1517.3</ele>
        <time>2025-06-21T10:23:12Z</time>
      </trkpt>
      <trkpt lat="44.92449" lon="5.7094">
        <ele>1517.4</ele>
        <time>2025-06-21T10:23:28Z</time>
      </trkpt>
      <trkpt lat="44.92447" lon="5.70938">
        <ele>1517.7</ele>
        <time>2025-06-21T10:23:45Z</time>
      </trkpt>
      <trkpt lat="44.92447" lon="5.70938">
        <ele>1517.8</ele>
        <time>2025-06-21T10:24:01Z</time>
      </trkpt>
      <trkpt lat="44.92447" lon="5.70937">
        <ele>1517.9</ele>
        <time>2025-06-21T10:24:12Z</time>
      </trkpt>
      <trkpt lat="44.92447" lon="5.70938">
        <ele>1517.7</ele>
        <time>2025-06-21T10:24:26Z</time>
      </trkpt>
      <trkpt lat="44.92448" lon="5.70938">
        <ele>1517.6</ele>
        <time>2025-06-21T10:24:43Z</time>
      </trkpt>
      <trkpt lat="44.92449" lon="5.70938">
        <ele>1517.5</ele>
        <time>2025-06-21T10:24:57Z</time>
      </trkpt>
      <trkpt lat="44.92448" lon="5.7094">
        <ele>1517.5</ele>
        <time>2025-06-21T10:25:08Z</time>
      </trkpt>
      <trkpt lat="44.92443" lon="5.70943">
        <ele>1518.3</ele>
        <time>2025-06-21T10:25:16Z</time>
      </trkpt>
      <trkpt lat="44.9244" lon="5.70946">
        <ele>1518.6</ele>
        <time>2025-06-21T10:25:21Z</time>
      </trkpt>
      <trkpt lat="44.92435" lon="5.70948">
        <ele>1519.3</ele>
        <time>2025-06-21T10:25:27Z</time>
      </trkpt>
      <trkpt lat="44.92431" lon="5.70949">
        <ele>1519.7</ele>
        <time>2025-06-21T10:25:30Z</time>
      </trkpt>
      <trkpt lat="44.92425" lon="5.7095">
        <ele>1520.8</ele>
        <time>2025-06-21T10:25:38Z</time>
      </trkpt>
      <trkpt lat="44.92422" lon="5.70953">
        <ele>1520.9</ele>
        <time>2025-06-21T10:25:46Z</time>
      </trkpt>
      <trkpt lat="44.92418" lon="5.70956">
        <ele>1521.6</ele>
        <time>2025-06-21T10:25:52Z</time>
      </trkpt>
      <trkpt lat="44.92412" lon="5.70957">
        <ele>1522.4</ele>
        <time>2025-06-21T10:26:00Z</time>
      </trkpt>
      <trkpt lat="44.92411" lon="5.70956">
        <ele>1522.7</ele>
        <time>2025-06-21T10:26:06Z</time>
      </trkpt>
      <trkpt lat="44.92407" lon="5.70954">
        <ele>1523.5</ele>
        <time>2025-06-21T10:26:14Z</time>
      </trkpt>
      <trkpt lat="44.92403" lon="5.70953">
        <ele>1524.3</ele>
        <time>2025-06-21T10:26:18Z</time>
      </trkpt>
      <trkpt lat="44.92396" lon="5.70953">
        <ele>1525.5</ele>
        <time>2025-06-21T10:26:24Z</time>
      </trkpt>
      <trkpt lat="44.92388" lon="5.70948">
        <ele>1527.1</ele>
        <time>2025-06-21T10:26:31Z</time>
      </trkpt>
      <trkpt lat="44.92376" lon="5.70942">
        <ele>1528.6</ele>
        <time>2025-06-21T10:26:40Z</time>
      </trkpt>
      <trkpt lat="44.92372" lon="5.70941">
        <ele>1528.9</ele>
        <time>2025-06-21T10:26:47Z</time>
      </trkpt>
      <trkpt lat="44.92366" lon="5.70938">
        <ele>1529.4</ele>
        <time>2025-06-21T10:26:57Z</time>
      </trkpt>
      <trkpt lat="44.92363" lon="5.70938">
        <ele>1529.6</ele>
        <time>2025-06-21T10:27:02Z</time>
      </trkpt>
      <trkpt lat="44.92355" lon="5.70933">
        <ele>1529.3</ele>
        <time>2025-06-21T10:27:10Z</time>
      </trkpt>
      <trkpt lat="44.9234" lon="5.7093">
        <ele>1529.5</ele>
        <time>2025-06-21T10:27:21Z</time>
      </trkpt>
      <trkpt lat="44.9233" lon="5.70929">
        <ele>1529.8</ele>
        <time>2025-06-21T10:27:28Z</time>
      </trkpt>
      <trkpt lat="44.92327" lon="5.70931">
        <ele>1530.2</ele>
        <time>2025-06-21T10:27:32Z</time>
      </trkpt>
      <trkpt lat="44.92329" lon="5.70937">
        <ele>1531.5</ele>
        <time>2025-06-21T10:27:39Z</time>
      </trkpt>
      <trkpt lat="44.92332" lon="5.7094">
        <ele>1532</ele>
        <time>2025-06-21T10:27:46Z</time>
      </trkpt>
      <trkpt lat="44.92334" lon="5.70952">
        <ele>1533.5</ele>
        <time>2025-06-21T10:27:55Z</time>
      </trkpt>
      <trkpt lat="44.92333" lon="5.70953">
        <ele>1533.6</ele>
        <time>2025-06-21T10:27:56Z</time>
      </trkpt>
      <trkpt lat="44.92333" lon="5.7096">
        <ele>1534.2</ele>
        <time>2025-06-21T10:28:00Z</time>
      </trkpt>
      <trkpt lat="44.92327" lon="5.70968">
        <ele>1535.4</ele>
        <time>2025-06-21T10:28:07Z</time>
      </trkpt>
      <trkpt lat="44.92321" lon="5.70975">
        <ele>1536.7</ele>
        <time>2025-06-21T10:28:15Z</time>
      </trkpt>
      <trkpt lat="44.92312" lon="5.7098">
        <ele>1538.2</ele>
        <time>2025-06-21T10:28:24Z</time>
      </trkpt>
      <trkpt lat="44.9231" lon="5.70981">
        <ele>1538.6</ele>
        <time>2025-06-21T10:28:26Z</time>
      </trkpt>
      <trkpt lat="44.92307" lon="5.70983">
        <ele>1539.1</ele>
        <time>2025-06-21T10:28:29Z</time>
      </trkpt>
      <trkpt lat="44.92305" lon="5.70986">
        <ele>1539.7</ele>
        <time>2025-06-21T10:28:35Z</time>
      </trkpt>
      <trkpt lat="44.92301" lon="5.70989">
        <ele>1540.4</ele>
        <time>2025-06-21T10:28:39Z</time>
      </trkpt>
      <trkpt lat="44.92299" lon="5.70992">
        <ele>1540.9</ele>
        <time>2025-06-21T10:28:42Z</time>
      </trkpt>
      <trkpt lat="44.92295" lon="5.70996">
        <ele>1541.9</ele>
        <time>2025-06-21T10:28:46Z</time>
      </trkpt>
      <trkpt lat="44.92292" lon="5.71001">
        <ele>1542.9</ele>
        <time>2025-06-21T10:28:52Z</time>
      </trkpt>
      <trkpt lat="44.9229" lon="5.71001">
        <ele>1543.3</ele>
        <time>2025-06-21T10:28:54Z</time>
      </trkpt>
      <trkpt lat="44.92282" lon="5.71006">
        <ele>1545</ele>
        <time>2025-06-21T10:29:03Z</time>
      </trkpt>
      <trkpt lat="44.92275" lon="5.7101">
        <ele>1546.7</ele>
        <time>2025-06-21T10:29:11Z</time>
      </trkpt>
      <trkpt lat="44.92274" lon="5.71011">
        <ele>1546.9</ele>
        <time>2025-06-21T10:29:12Z</time>
      </trkpt>
      <trkpt lat="44.92262" lon="5.71012">
        <ele>1549.9</ele>
        <time>2025-06-21T10:29:23Z</time>
      </trkpt>
      <trkpt lat="44.92261" lon="5.71012">
        <ele>1550.1</ele>
        <time>2025-06-21T10:29:24Z</time>
      </trkpt>
      <trkpt lat="44.92259" lon="5.71012">
        <ele>1550.6</ele>
        <time>2025-06-21T10:29:26Z</time>
      </trkpt>
      <trkpt lat="44.92255" lon="5.71014">
        <ele>1551.7</ele>
        <time>2025-06-21T10:29:31Z</time>
      </trkpt>
      <trkpt lat="44.92249" lon="5.71015">
        <ele>1553.2</ele>
        <time>2025-06-21T10:29:38Z</time>
      </trkpt>
      <trkpt lat="44.92247" lon="5.71016">
        <ele>1553.7</ele>
        <time>2025-06-21T10:29:40Z</time>
      </trkpt>
      <trkpt lat="44.92239" lon="5.71017">
        <ele>1555.4</ele>
        <time>2025-06-21T10:29:48Z</time>
      </trkpt>
      <trkpt lat="44.92238" lon="5.71017">
        <ele>1555.6</ele>
        <time>2025-06-21T10:29:49Z</time>
      </trkpt>
      <trkpt lat="44.9223" lon="5.71017">
        <ele>1557.1</ele>
        <time>2025-06-21T10:29:57Z</time>
      </trkpt>
      <trkpt lat="44.92224" lon="5.71019">
        <ele>1558.7</ele>
        <time>2025-06-21T10:30:05Z</time>
      </trkpt>
      <trkpt lat="44.92219" lon="5.71019">
        <ele>1559.6</ele>
        <time>2025-06-21T10:30:12Z</time>
      </trkpt>
      <trkpt lat="44.92214" lon="5.71018">
        <ele>1559.7</ele>
        <time>2025-06-21T10:30:19Z</time>
      </trkpt>
      <trkpt lat="44.92208" lon="5.71016">
        <ele>1560</ele>
        <time>2025-06-21T10:30:24Z</time>
      </trkpt>
      <trkpt lat="44.92204" lon="5.71015">
        <ele>1560.2</ele>
        <time>2025-06-21T10:30:29Z</time>
      </trkpt>
      <trkpt lat="44.92199" lon="5.71016">
        <ele>1560.9</ele>
        <time>2025-06-21T10:30:35Z</time>
      </trkpt>
      <trkpt lat="44.92194" lon="5.71017">
        <ele>1561.8</ele>
        <time>2025-06-21T10:30:39Z</time>
      </trkpt>
      <trkpt lat="44.92188" lon="5.7102">
        <ele>1563</ele>
        <time>2025-06-21T10:30:46Z</time>
      </trkpt>
      <trkpt lat="44.9218" lon="5.71022">
        <ele>1564.2</ele>
        <time>2025-06-21T10:30:54Z</time>
      </trkpt>
      <trkpt lat="44.92172" lon="5.71025">
        <ele>1565.8</ele>
        <time>2025-06-21T10:31:02Z</time>
      </trkpt>
      <trkpt lat="44.92167" lon="5.71028">
        <ele>1566.9</ele>
        <time>2025-06-21T10:31:09Z</time>
      </trkpt>
      <trkpt lat="44.9216" lon="5.71028">
        <ele>1567.5</ele>
        <time>2025-06-21T10:31:17Z</time>
      </trkpt>
      <trkpt lat="44.92153" lon="5.71029">
        <ele>1568.2</ele>
        <time>2025-06-21T10:31:25Z</time>
      </trkpt>
      <trkpt lat="44.92146" lon="5.71032">
        <ele>1569.2</ele>
        <time>2025-06-21T10:31:33Z</time>
      </trkpt>
      <trkpt lat="44.92144" lon="5.71033">
        <ele>1569.6</ele>
        <time>2025-06-21T10:31:35Z</time>
      </trkpt>
      <trkpt lat="44.92138" lon="5.71035">
        <ele>1570.4</ele>
        <time>2025-06-21T10:31:41Z</time>
      </trkpt>
      <trkpt lat="44.92137" lon="5.71036">
        <ele>1570.7</ele>
        <time>2025-06-21T10:31:43Z</time>
      </trkpt>
      <trkpt lat="44.92128" lon="5.71037">
        <ele>1571.5</ele>
        <time>2025-06-21T10:31:50Z</time>
      </trkpt>
      <trkpt lat="44.92122" lon="5.7104">
        <ele>1572.8</ele>
        <time>2025-06-21T10:31:57Z</time>
      </trkpt>
      <trkpt lat="44.92114" lon="5.71044">
        <ele>1574.1</ele>
        <time>2025-06-21T10:32:04Z</time>
      </trkpt>
      <trkpt lat="44.92109" lon="5.71043">
        <ele>1574.5</ele>
        <time>2025-06-21T10:32:10Z</time>
      </trkpt>
      <trkpt lat="44.92105" lon="5.71045">
        <ele>1575.5</ele>
        <time>2025-06-21T10:32:14Z</time>
      </trkpt>
      <trkpt lat="44.92099" lon="5.71046">
        <ele>1576.7</ele>
        <time>2025-06-21T10:32:20Z</time>
      </trkpt>
      <trkpt lat="44.92095" lon="5.71046">
        <ele>1577</ele>
        <time>2025-06-21T10:32:23Z</time>
      </trkpt>
      <trkpt lat="44.92088" lon="5.71048">
        <ele>1578.6</ele>
        <time>2025-06-21T10:32:31Z</time>
      </trkpt>
      <trkpt lat="44.92083" lon="5.71049">
        <ele>1579.5</ele>
        <time>2025-06-21T10:32:38Z</time>
      </trkpt>
      <trkpt lat="44.92078" lon="5.7105">
        <ele>1580.2</ele>
        <time>2025-06-21T10:32:44Z</time>
      </trkpt>
      <trkpt lat="44.92066" lon="5.71048">
        <ele>1581.1</ele>
        <time>2025-06-21T10:32:53Z</time>
      </trkpt>
      <trkpt lat="44.92061" lon="5.71048">
        <ele>1581.7</ele>
        <time>2025-06-21T10:33:00Z</time>
      </trkpt>
      <trkpt lat="44.92056" lon="5.71047">
        <ele>1581.9</ele>
        <time>2025-06-21T10:33:06Z</time>
      </trkpt>
      <trkpt lat="44.92048" lon="5.71046">
        <ele>1582.1</ele>
        <time>2025-06-21T10:33:13Z</time>
      </trkpt>
      <trkpt lat="44.92047" lon="5.71046">
        <ele>1582.1</ele>
        <time>2025-06-21T10:33:14Z</time>
      </trkpt>
      <trkpt lat="44.92037" lon="5.71044">
        <ele>1582.5</ele>
        <time>2025-06-21T10:33:22Z</time>
      </trkpt>
      <trkpt lat="44.9203" lon="5.71044">
        <ele>1583</ele>
        <time>2025-06-21T10:33:29Z</time>
      </trkpt>
      <trkpt lat="44.92029" lon="5.71045">
        <ele>1583.3</ele>
        <time>2025-06-21T10:33:32Z</time>
      </trkpt>
      <trkpt lat="44.92019" lon="5.71052">
        <ele>1586.4</ele>
        <time>2025-06-21T10:33:41Z</time>
      </trkpt>
      <trkpt lat="44.92011" lon="5.71054">
        <ele>1587.1</ele>
        <time>2025-06-21T10:33:46Z</time>
      </trkpt>
      <trkpt lat="44.92003" lon="5.71055">
        <ele>1587.5</ele>
        <time>2025-06-21T10:33:55Z</time>
      </trkpt>
      <trkpt lat="44.91994" lon="5.71059">
        <ele>1588.7</ele>
        <time>2025-06-21T10:34:03Z</time>
      </trkpt>
      <trkpt lat="44.91985" lon="5.7106">
        <ele>1588</ele>
        <time>2025-06-21T10:34:09Z</time>
      </trkpt>
      <trkpt lat="44.91982" lon="5.71063">
        <ele>1588.8</ele>
        <time>2025-06-21T10:34:11Z</time>
      </trkpt>
      <trkpt lat="44.91976" lon="5.71073">
        <ele>1591.8</ele>
        <time>2025-06-21T10:34:18Z</time>
      </trkpt>
      <trkpt lat="44.91969" lon="5.71077">
        <ele>1592</ele>
        <time>2025-06-21T10:34:25Z</time>
      </trkpt>
      <trkpt lat="44.91962" lon="5.71081">
        <ele>1592.2</ele>
        <time>2025-06-21T10:34:31Z</time>
      </trkpt>
      <trkpt lat="44.91958" lon="5.71085">
        <ele>1592.3</ele>
        <time>2025-06-21T10:34:36Z</time>
      </trkpt>
      <trkpt lat="44.91953" lon="5.7109">
        <ele>1592.5</ele>
        <time>2025-06-21T10:34:41Z</time>
      </trkpt>
      <trkpt lat="44.91948" lon="5.71095">
        <ele>1592.8</ele>
        <time>2025-06-21T10:34:47Z</time>
      </trkpt>
      <trkpt lat="44.91941" lon="5.71104">
        <ele>1593.2</ele>
        <time>2025-06-21T10:34:55Z</time>
      </trkpt>
      <trkpt lat="44.91935" lon="5.71113">
        <ele>1594</ele>
        <time>2025-06-21T10:35:02Z</time>
      </trkpt>
      <trkpt lat="44.91928" lon="5.71121">
        <ele>1593.8</ele>
        <time>2025-06-21T10:35:10Z</time>
      </trkpt>
      <trkpt lat="44.91924" lon="5.71126">
        <ele>1593.7</ele>
        <time>2025-06-21T10:35:17Z</time>
      </trkpt>
      <trkpt lat="44.91924" lon="5.71125">
        <ele>1593.7</ele>
        <time>2025-06-21T10:35:24Z</time>
      </trkpt>
      <trkpt lat="44.91924" lon="5.71126">
        <ele>1593.6</ele>
        <time>2025-06-21T10:35:37Z</time>
      </trkpt>
      <trkpt lat="44.91923" lon="5.71126">
        <ele>1593.6</ele>
        <time>2025-06-21T10:35:56Z</time>
      </trkpt>
      <trkpt lat="44.91923" lon="5.71126">
        <ele>1593.6</ele>
        <time>2025-06-21T10:36:10Z</time>
      </trkpt>
      <trkpt lat="44.91923" lon="5.71126">
        <ele>1593.6</ele>
        <time>2025-06-21T10:36:25Z</time>
      </trkpt>
      <trkpt lat="44.91923" lon="5.71126">
        <ele>1593.6</ele>
        <time>2025-06-21T10:36:36Z</time>
      </trkpt>
      <trkpt lat="44.91923" lon="5.71125">
        <ele>1593.5</ele>
        <time>2025-06-21T10:36:52Z</time>
      </trkpt>
      <trkpt lat="44.91923" lon="5.71125">
        <ele>1593.5</ele>
        <time>2025-06-21T10:37:06Z</time>
      </trkpt>
      <trkpt lat="44.91923" lon="5.71125">
        <ele>1593.5</ele>
        <time>2025-06-21T10:37:25Z</time>
      </trkpt>
      <trkpt lat="44.91924" lon="5.71125">
        <ele>1593.5</ele>
        <time>2025-06-21T10:37:41Z</time>
      </trkpt>
      <trkpt lat="44.91924" lon="5.71125">
        <ele>1593.5</ele>
        <time>2025-06-21T10:38:02Z</time>
      </trkpt>
      <trkpt lat="44.91924" lon="5.71124">
        <ele>1593.4</ele>
        <time>2025-06-21T10:38:21Z</time>
      </trkpt>
      <trkpt lat="44.91924" lon="5.71124">
        <ele>1593.5</ele>
        <time>2025-06-21T10:38:37Z</time>
      </trkpt>
      <trkpt lat="44.91924" lon="5.71125">
        <ele>1593.5</ele>
        <time>2025-06-21T10:38:46Z</time>
      </trkpt>
      <trkpt lat="44.91922" lon="5.71126">
        <ele>1593.4</ele>
        <time>2025-06-21T10:38:54Z</time>
      </trkpt>
      <trkpt lat="44.91921" lon="5.71128">
        <ele>1593.5</ele>
        <time>2025-06-21T10:38:57Z</time>
      </trkpt>
      <trkpt lat="44.91918" lon="5.71135">
        <ele>1594.3</ele>
        <time>2025-06-21T10:39:05Z</time>
      </trkpt>
      <trkpt lat="44.91919" lon="5.71138">
        <ele>1595.1</ele>
        <time>2025-06-21T10:39:14Z</time>
      </trkpt>
      <trkpt lat="44.91921" lon="5.71148">
        <ele>1596.1</ele>
        <time>2025-06-21T10:39:23Z</time>
      </trkpt>
      <trkpt lat="44.91921" lon="5.71154">
        <ele>1596.3</ele>
        <time>2025-06-21T10:39:31Z</time>
      </trkpt>
      <trkpt lat="44.91917" lon="5.71158">
        <ele>1596.4</ele>
        <time>2025-06-21T10:39:39Z</time>
      </trkpt>
      <trkpt lat="44.91912" lon="5.71163">
        <ele>1596.8</ele>
        <time>2025-06-21T10:39:45Z</time>
      </trkpt>
      <trkpt lat="44.91907" lon="5.71165">
        <ele>1597.1</ele>
        <time>2025-06-21T10:39:50Z</time>
      </trkpt>
      <trkpt lat="44.91898" lon="5.71173">
        <ele>1598.2</ele>
        <time>2025-06-21T10:40:02Z</time>
      </trkpt>
      <trkpt lat="44.91892" lon="5.71179">
        <ele>1599.4</ele>
        <time>2025-06-21T10:40:10Z</time>
      </trkpt>
      <trkpt lat="44.91887" lon="5.71185">
        <ele>1600.8</ele>
        <time>2025-06-21T10:40:18Z</time>
      </trkpt>
      <trkpt lat="44.91882" lon="5.71191">
        <ele>1602.3</ele>
        <time>2025-06-21T10:40:26Z</time>
      </trkpt>
      <trkpt lat="44.91876" lon="5.71195">
        <ele>1604</ele>
        <time>2025-06-21T10:40:36Z</time>
      </trkpt>
      <trkpt lat="44.91871" lon="5.712">
        <ele>1605.2</ele>
        <time>2025-06-21T10:40:43Z</time>
      </trkpt>
      <trkpt lat="44.91866" lon="5.71205">
        <ele>1606.9</ele>
        <time>2025-06-21T10:40:51Z</time>
      </trkpt>
      <trkpt lat="44.91862" lon="5.71211">
        <ele>1608.8</ele>
        <time>2025-06-21T10:40:58Z</time>
      </trkpt>
      <trkpt lat="44.91859" lon="5.71216">
        <ele>1610.1</ele>
        <time>2025-06-21T10:41:05Z</time>
      </trkpt>
      <trkpt lat="44.91855" lon="5.7122">
        <ele>1611.4</ele>
        <time>2025-06-21T10:41:13Z</time>
      </trkpt>
      <trkpt lat="44.9185" lon="5.71224">
        <ele>1612.7</ele>
        <time>2025-06-21T10:41:23Z</time>
      </trkpt>
      <trkpt lat="44.91844" lon="5.71227">
        <ele>1613.9</ele>
        <time>2025-06-21T10:41:32Z</time>
      </trkpt>
      <trkpt lat="44.91838" lon="5.7123">
        <ele>1615.2</ele>
        <time>2025-06-21T10:41:40Z</time>
      </trkpt>
      <trkpt lat="44.91833" lon="5.71232">
        <ele>1616.7</ele>
        <time>2025-06-21T10:41:47Z</time>
      </trkpt>
      <trkpt lat="44.91828" lon="5.71235">
        <ele>1617.7</ele>
        <time>2025-06-21T10:41:55Z</time>
      </trkpt>
      <trkpt lat="44.91823" lon="5.71237">
        <ele>1618.7</ele>
        <time>2025-06-21T10:42:02Z</time>
      </trkpt>
      <trkpt lat="44.91817" lon="5.7124">
        <ele>1620.2</ele>
        <time>2025-06-21T10:42:10Z</time>
      </trkpt>
      <trkpt lat="44.91816" lon="5.71241">
        <ele>1620.5</ele>
        <time>2025-06-21T10:42:12Z</time>
      </trkpt>
      <trkpt lat="44.91811" lon="5.71244">
        <ele>1622.1</ele>
        <time>2025-06-21T10:42:19Z</time>
      </trkpt>
      <trkpt lat="44.91805" lon="5.71247">
        <ele>1623.9</ele>
        <time>2025-06-21T10:42:27Z</time>
      </trkpt>
      <trkpt lat="44.918" lon="5.71248">
        <ele>1625.1</ele>
        <time>2025-06-21T10:42:34Z</time>
      </trkpt>
      <trkpt lat="44.91796" lon="5.71251">
        <ele>1626.6</ele>
        <time>2025-06-21T10:42:41Z</time>
      </trkpt>
      <trkpt lat="44.9179" lon="5.71252">
        <ele>1627.8</ele>
        <time>2025-06-21T10:42:49Z</time>
      </trkpt>
      <trkpt lat="44.91786" lon="5.71253">
        <ele>1628.7</ele>
        <time>2025-06-21T10:42:55Z</time>
      </trkpt>
      <trkpt lat="44.91782" lon="5.71253">
        <ele>1629.2</ele>
        <time>2025-06-21T10:43:01Z</time>
      </trkpt>
      <trkpt lat="44.91776" lon="5.71253">
        <ele>1630.3</ele>
        <time>2025-06-21T10:43:08Z</time>
      </trkpt>
      <trkpt lat="44.91771" lon="5.71255">
        <ele>1631.7</ele>
        <time>2025-06-21T10:43:16Z</time>
      </trkpt>
      <trkpt lat="44.91768" lon="5.71257">
        <ele>1632.9</ele>
        <time>2025-06-21T10:43:23Z</time>
      </trkpt>
      <trkpt lat="44.91764" lon="5.71258">
        <ele>1633.8</ele>
        <time>2025-06-21T10:43:29Z</time>
      </trkpt>
      <trkpt lat="44.91761" lon="5.71258">
        <ele>1634.2</ele>
        <time>2025-06-21T10:43:34Z</time>
      </trkpt>
      <trkpt lat="44.91757" lon="5.71259">
        <ele>1635.6</ele>
        <time>2025-06-21T10:43:42Z</time>
      </trkpt>
      <trkpt lat="44.91753" lon="5.71261">
        <ele>1636.8</ele>
        <time>2025-06-21T10:43:48Z</time>
      </trkpt>
      <trkpt lat="44.91749" lon="5.71262">
        <ele>1638</ele>
        <time>2025-06-21T10:43:55Z</time>
      </trkpt>
      <trkpt lat="44.91743" lon="5.71262">
        <ele>1638.7</ele>
        <time>2025-06-21T10:44:03Z</time>
      </trkpt>
      <trkpt lat="44.91739" lon="5.71262">
        <ele>1639.3</ele>
        <time>2025-06-21T10:44:09Z</time>
      </trkpt>
      <trkpt lat="44.91734" lon="5.71265">
        <ele>1640.8</ele>
        <time>2025-06-21T10:44:17Z</time>
      </trkpt>
      <trkpt lat="44.9173" lon="5.71266">
        <ele>1641.6</ele>
        <time>2025-06-21T10:44:24Z</time>
      </trkpt>
      <trkpt lat="44.91726" lon="5.71268">
        <ele>1643.1</ele>
        <time>2025-06-21T10:44:31Z</time>
      </trkpt>
      <trkpt lat="44.91722" lon="5.7127">
        <ele>1644.4</ele>
        <time>2025-06-21T10:44:38Z</time>
      </trkpt>
      <trkpt lat="44.91716" lon="5.71273">
        <ele>1645.4</ele>
        <time>2025-06-21T10:44:46Z</time>
      </trkpt>
      <trkpt lat="44.91711" lon="5.71275">
        <ele>1646.2</ele>
        <time>2025-06-21T10:44:54Z</time>
      </trkpt>
      <trkpt lat="44.91706" lon="5.71277">
        <ele>1647.3</ele>
        <time>2025-06-21T10:45:01Z</time>
      </trkpt>
      <trkpt lat="44.917" lon="5.7128">
        <ele>1648.5</ele>
        <time>2025-06-21T10:45:09Z</time>
      </trkpt>
      <trkpt lat="44.91693" lon="5.71283">
        <ele>1649.7</ele>
        <time>2025-06-21T10:45:17Z</time>
      </trkpt>
      <trkpt lat="44.9169" lon="5.71284">
        <ele>1650</ele>
        <time>2025-06-21T10:45:20Z</time>
      </trkpt>
      <trkpt lat="44.91687" lon="5.71285">
        <ele>1650.3</ele>
        <time>2025-06-21T10:45:23Z</time>
      </trkpt>
      <trkpt lat="44.91681" lon="5.7129">
        <ele>1651.6</ele>
        <time>2025-06-21T10:45:31Z</time>
      </trkpt>
      <trkpt lat="44.9168" lon="5.7129">
        <ele>1651.8</ele>
        <time>2025-06-21T10:45:33Z</time>
      </trkpt>
      <trkpt lat="44.91674" lon="5.71295">
        <ele>1653.1</ele>
        <time>2025-06-21T10:45:40Z</time>
      </trkpt>
      <trkpt lat="44.91668" lon="5.71298">
        <ele>1654.1</ele>
        <time>2025-06-21T10:45:48Z</time>
      </trkpt>
      <trkpt lat="44.91662" lon="5.71303">
        <ele>1655.7</ele>
        <time>2025-06-21T10:45:55Z</time>
      </trkpt>
      <trkpt lat="44.91656" lon="5.71308">
        <ele>1656.7</ele>
        <time>2025-06-21T10:46:03Z</time>
      </trkpt>
      <trkpt lat="44.91651" lon="5.71312">
        <ele>1657.8</ele>
        <time>2025-06-21T10:46:11Z</time>
      </trkpt>
      <trkpt lat="44.9165" lon="5.71313">
        <ele>1658.1</ele>
        <time>2025-06-21T10:46:12Z</time>
      </trkpt>
      <trkpt lat="44.91643" lon="5.71317">
        <ele>1659.4</ele>
        <time>2025-06-21T10:46:21Z</time>
      </trkpt>
      <trkpt lat="44.91637" lon="5.71321">
        <ele>1660.5</ele>
        <time>2025-06-21T10:46:29Z</time>
      </trkpt>
      <trkpt lat="44.91632" lon="5.71326">
        <ele>1661.7</ele>
        <time>2025-06-21T10:46:36Z</time>
      </trkpt>
      <trkpt lat="44.91627" lon="5.71332">
        <ele>1663.1</ele>
        <time>2025-06-21T10:46:44Z</time>
      </trkpt>
      <trkpt lat="44.91621" lon="5.71337">
        <ele>1663.7</ele>
        <time>2025-06-21T10:46:52Z</time>
      </trkpt>
      <trkpt lat="44.91616" lon="5.71341">
        <ele>1664.5</ele>
        <time>2025-06-21T10:46:59Z</time>
      </trkpt>
      <trkpt lat="44.91611" lon="5.71346">
        <ele>1665.6</ele>
        <time>2025-06-21T10:47:07Z</time>
      </trkpt>
      <trkpt lat="44.91605" lon="5.71352">
        <ele>1667.2</ele>
        <time>2025-06-21T10:47:15Z</time>
      </trkpt>
      <trkpt lat="44.91601" lon="5.71357">
        <ele>1668.8</ele>
        <time>2025-06-21T10:47:23Z</time>
      </trkpt>
      <trkpt lat="44.91598" lon="5.71361">
        <ele>1670</ele>
        <time>2025-06-21T10:47:28Z</time>
      </trkpt>
      <trkpt lat="44.91593" lon="5.71366">
        <ele>1670.6</ele>
        <time>2025-06-21T10:47:36Z</time>
      </trkpt>
      <trkpt lat="44.9159" lon="5.7137">
        <ele>1671.5</ele>
        <time>2025-06-21T10:47:42Z</time>
      </trkpt>
      <trkpt lat="44.91586" lon="5.71375">
        <ele>1672.7</ele>
        <time>2025-06-21T10:47:49Z</time>
      </trkpt>
      <trkpt lat="44.91586" lon="5.71375">
        <ele>1672.8</ele>
        <time>2025-06-21T10:47:50Z</time>
      </trkpt>
      <trkpt lat="44.91583" lon="5.7138">
        <ele>1674.4</ele>
        <time>2025-06-21T10:47:58Z</time>
      </trkpt>
      <trkpt lat="44.91579" lon="5.71385">
        <ele>1676.1</ele>
        <time>2025-06-21T10:48:06Z</time>
      </trkpt>
      <trkpt lat="44.91575" lon="5.71388">
        <ele>1677.4</ele>
        <time>2025-06-21T10:48:14Z</time>
      </trkpt>
      <trkpt lat="44.91569" lon="5.7139">
        <ele>1678</ele>
        <time>2025-06-21T10:48:23Z</time>
      </trkpt>
      <trkpt lat="44.91565" lon="5.71391">
        <ele>1678.3</ele>
        <time>2025-06-21T10:48:28Z</time>
      </trkpt>
      <trkpt lat="44.91561" lon="5.71392">
        <ele>1678.8</ele>
        <time>2025-06-21T10:48:35Z</time>
      </trkpt>
      <trkpt lat="44.91556" lon="5.71395">
        <ele>1679.5</ele>
        <time>2025-06-21T10:48:41Z</time>
      </trkpt>
      <trkpt lat="44.9155" lon="5.71396">
        <ele>1680.3</ele>
        <time>2025-06-21T10:48:49Z</time>
      </trkpt>
      <trkpt lat="44.91548" lon="5.71396">
        <ele>1680.5</ele>
        <time>2025-06-21T10:48:51Z</time>
      </trkpt>
      <trkpt lat="44.91542" lon="5.71397">
        <ele>1681.3</ele>
        <time>2025-06-21T10:48:58Z</time>
      </trkpt>
      <trkpt lat="44.91535" lon="5.71398">
        <ele>1682.3</ele>
        <time>2025-06-21T10:49:05Z</time>
      </trkpt>
      <trkpt lat="44.91529" lon="5.714">
        <ele>1683.6</ele>
        <time>2025-06-21T10:49:12Z</time>
      </trkpt>
      <trkpt lat="44.91523" lon="5.71403">
        <ele>1684.7</ele>
        <time>2025-06-21T10:49:19Z</time>
      </trkpt>
      <trkpt lat="44.9152" lon="5.71405">
        <ele>1685.6</ele>
        <time>2025-06-21T10:49:23Z</time>
      </trkpt>
      <trkpt lat="44.91516" lon="5.7141">
        <ele>1687.5</ele>
        <time>2025-06-21T10:49:31Z</time>
      </trkpt>
      <trkpt lat="44.9151" lon="5.71414">
        <ele>1689.2</ele>
        <time>2025-06-21T10:49:39Z</time>
      </trkpt>
      <trkpt lat="44.91506" lon="5.71416">
        <ele>1690.5</ele>
        <time>2025-06-21T10:49:46Z</time>
      </trkpt>
      <trkpt lat="44.91501" lon="5.71419">
        <ele>1691.3</ele>
        <time>2025-06-21T10:49:53Z</time>
      </trkpt>
      <trkpt lat="44.91495" lon="5.71422">
        <ele>1692</ele>
        <time>2025-06-21T10:50:01Z</time>
      </trkpt>
      <trkpt lat="44.9149" lon="5.71424">
        <ele>1692.7</ele>
        <time>2025-06-21T10:50:09Z</time>
      </trkpt>
      <trkpt lat="44.91484" lon="5.71427">
        <ele>1693.7</ele>
        <time>2025-06-21T10:50:17Z</time>
      </trkpt>
      <trkpt lat="44.91479" lon="5.7143">
        <ele>1694.9</ele>
        <time>2025-06-21T10:50:23Z</time>
      </trkpt>
      <trkpt lat="44.91474" lon="5.71434">
        <ele>1696.5</ele>
        <time>2025-06-21T10:50:31Z</time>
      </trkpt>
      <trkpt lat="44.91473" lon="5.71435">
        <ele>1696.7</ele>
        <time>2025-06-21T10:50:32Z</time>
      </trkpt>
      <trkpt lat="44.91469" lon="5.7144">
        <ele>1698.1</ele>
        <time>2025-06-21T10:50:40Z</time>
      </trkpt>
      <trkpt lat="44.91467" lon="5.71445">
        <ele>1699.4</ele>
        <time>2025-06-21T10:50:46Z</time>
      </trkpt>
      <trkpt lat="44.91464" lon="5.71451">
        <ele>1699.4</ele>
        <time>2025-06-21T10:50:53Z</time>
      </trkpt>
      <trkpt lat="44.91461" lon="5.71458">
        <ele>1699.9</ele>
        <time>2025-06-21T10:51:00Z</time>
      </trkpt>
      <trkpt lat="44.91458" lon="5.71466">
        <ele>1700.9</ele>
        <time>2025-06-21T10:51:09Z</time>
      </trkpt>
      <trkpt lat="44.91455" lon="5.71468">
        <ele>1701.6</ele>
        <time>2025-06-21T10:51:14Z</time>
      </trkpt>
      <trkpt lat="44.91449" lon="5.71475">
        <ele>1702.9</ele>
        <time>2025-06-21T10:51:23Z</time>
      </trkpt>
      <trkpt lat="44.91443" lon="5.71479">
        <ele>1703.5</ele>
        <time>2025-06-21T10:51:31Z</time>
      </trkpt>
      <trkpt lat="44.91436" lon="5.71484">
        <ele>1703.3</ele>
        <time>2025-06-21T10:51:40Z</time>
      </trkpt>
      <trkpt lat="44.9143" lon="5.7149">
        <ele>1703.8</ele>
        <time>2025-06-21T10:51:48Z</time>
      </trkpt>
      <trkpt lat="44.91425" lon="5.71496">
        <ele>1705</ele>
        <time>2025-06-21T10:51:56Z</time>
      </trkpt>
      <trkpt lat="44.9142" lon="5.71502">
        <ele>1706</ele>
        <time>2025-06-21T10:52:03Z</time>
      </trkpt>
      <trkpt lat="44.91415" lon="5.71507">
        <ele>1706.3</ele>
        <time>2025-06-21T10:52:11Z</time>
      </trkpt>
      <trkpt lat="44.9141" lon="5.71513">
        <ele>1706.4</ele>
        <time>2025-06-21T10:52:18Z</time>
      </trkpt>
      <trkpt lat="44.91404" lon="5.71519">
        <ele>1707.4</ele>
        <time>2025-06-21T10:52:26Z</time>
      </trkpt>
      <trkpt lat="44.91399" lon="5.71525">
        <ele>1708.9</ele>
        <time>2025-06-21T10:52:33Z</time>
      </trkpt>
      <trkpt lat="44.91393" lon="5.7153">
        <ele>1710.5</ele>
        <time>2025-06-21T10:52:40Z</time>
      </trkpt>
      <trkpt lat="44.91386" lon="5.71535">
        <ele>1711.3</ele>
        <time>2025-06-21T10:52:48Z</time>
      </trkpt>
      <trkpt lat="44.91385" lon="5.71536">
        <ele>1711.3</ele>
        <time>2025-06-21T10:52:49Z</time>
      </trkpt>
      <trkpt lat="44.91377" lon="5.71544">
        <ele>1711.9</ele>
        <time>2025-06-21T10:52:59Z</time>
      </trkpt>
      <trkpt lat="44.91373" lon="5.71548">
        <ele>1712.8</ele>
        <time>2025-06-21T10:53:05Z</time>
      </trkpt>
      <trkpt lat="44.91367" lon="5.71556">
        <ele>1715.2</ele>
        <time>2025-06-21T10:53:14Z</time>
      </trkpt>
      <trkpt lat="44.91362" lon="5.71563">
        <ele>1715.9</ele>
        <time>2025-06-21T10:53:22Z</time>
      </trkpt>
      <trkpt lat="44.91359" lon="5.71567">
        <ele>1716</ele>
        <time>2025-06-21T10:53:26Z</time>
      </trkpt>
      <trkpt lat="44.91354" lon="5.71572">
        <ele>1716.3</ele>
        <time>2025-06-21T10:53:34Z</time>
      </trkpt>
      <trkpt lat="44.91348" lon="5.71576">
        <ele>1717.2</ele>
        <time>2025-06-21T10:53:41Z</time>
      </trkpt>
      <trkpt lat="44.9134" lon="5.71579">
        <ele>1719</ele>
        <time>2025-06-21T10:53:50Z</time>
      </trkpt>
      <trkpt lat="44.91337" lon="5.71581">
        <ele>1719.8</ele>
        <time>2025-06-21T10:53:53Z</time>
      </trkpt>
      <trkpt lat="44.91334" lon="5.71582">
        <ele>1720.5</ele>
        <time>2025-06-21T10:53:56Z</time>
      </trkpt>
      <trkpt lat="44.91329" lon="5.71584">
        <ele>1721.1</ele>
        <time>2025-06-21T10:54:02Z</time>
      </trkpt>
      <trkpt lat="44.9132" lon="5.71585">
        <ele>1721.6</ele>
        <time>2025-06-21T10:54:10Z</time>
      </trkpt>
      <trkpt lat="44.91319" lon="5.71586">
        <ele>1721.6</ele>
        <time>2025-06-21T10:54:11Z</time>
      </trkpt>
      <trkpt lat="44.91316" lon="5.71586">
        <ele>1721.7</ele>
        <time>2025-06-21T10:54:13Z</time>
      </trkpt>
      <trkpt lat="44.91311" lon="5.71589">
        <ele>1721.8</ele>
        <time>2025-06-21T10:54:18Z</time>
      </trkpt>
      <trkpt lat="44.91304" lon="5.71593">
        <ele>1722</ele>
        <time>2025-06-21T10:54:26Z</time>
      </trkpt>
      <trkpt lat="44.91296" lon="5.71598">
        <ele>1722</ele>
        <time>2025-06-21T10:54:34Z</time>
      </trkpt>
      <trkpt lat="44.91287" lon="5.71604">
        <ele>1722.9</ele>
        <time>2025-06-21T10:54:43Z</time>
      </trkpt>
      <trkpt lat="44.9128" lon="5.71609">
        <ele>1724.4</ele>
        <time>2025-06-21T10:54:51Z</time>
      </trkpt>
      <trkpt lat="44.91272" lon="5.71614">
        <ele>1724</ele>
        <time>2025-06-21T10:54:59Z</time>
      </trkpt>
      <trkpt lat="44.91261" lon="5.71622">
        <ele>1723</ele>
        <time>2025-06-21T10:55:09Z</time>
      </trkpt>
      <trkpt lat="44.91253" lon="5.71629">
        <ele>1723.5</ele>
        <time>2025-06-21T10:55:17Z</time>
      </trkpt>
      <trkpt lat="44.91252" lon="5.71631">
        <ele>1723.6</ele>
        <time>2025-06-21T10:55:18Z</time>
      </trkpt>
      <trkpt lat="44.91241" lon="5.7164">
        <ele>1724.1</ele>
        <time>2025-06-21T10:55:29Z</time>
      </trkpt>
      <trkpt lat="44.91233" lon="5.71646">
        <ele>1723.7</ele>
        <time>2025-06-21T10:55:37Z</time>
      </trkpt>
      <trkpt lat="44.91223" lon="5.71655">
        <ele>1724.3</ele>
        <time>2025-06-21T10:55:47Z</time>
      </trkpt>
      <trkpt lat="44.91219" lon="5.71658">
        <ele>1724.3</ele>
        <time>2025-06-21T10:55:51Z</time>
      </trkpt>
      <trkpt lat="44.91213" lon="5.71662">
        <ele>1724.4</ele>
        <time>2025-06-21T10:55:56Z</time>
      </trkpt>
      <trkpt lat="44.91204" lon="5.7167">
        <ele>1725</ele>
        <time>2025-06-21T10:56:05Z</time>
      </trkpt>
      <trkpt lat="44.91197" lon="5.71678">
        <ele>1726</ele>
        <time>2025-06-21T10:56:14Z</time>
      </trkpt>
      <trkpt lat="44.91191" lon="5.71684">
        <ele>1726.8</ele>
        <time>2025-06-21T10:56:21Z</time>
      </trkpt>
      <trkpt lat="44.91185" lon="5.71689">
        <ele>1727.6</ele>
        <time>2025-06-21T10:56:27Z</time>
      </trkpt>
      <trkpt lat="44.9118" lon="5.71694">
        <ele>1729</ele>
        <time>2025-06-21T10:56:34Z</time>
      </trkpt>
      <trkpt lat="44.91173" lon="5.71702">
        <ele>1729.7</ele>
        <time>2025-06-21T10:56:43Z</time>
      </trkpt>
      <trkpt lat="44.91172" lon="5.71703">
        <ele>1729.7</ele>
        <time>2025-06-21T10:56:44Z</time>
      </trkpt>
      <trkpt lat="44.91169" lon="5.71706">
        <ele>1730.4</ele>
        <time>2025-06-21T10:56:48Z</time>
      </trkpt>
      <trkpt lat="44.91165" lon="5.71709">
        <ele>1731.1</ele>
        <time>2025-06-21T10:56:52Z</time>
      </trkpt>
      <trkpt lat="44.91159" lon="5.71714">
        <ele>1731.9</ele>
        <time>2025-06-21T10:57:00Z</time>
      </trkpt>
      <trkpt lat="44.91155" lon="5.71717">
        <ele>1732.6</ele>
        <time>2025-06-21T10:57:04Z</time>
      </trkpt>
      <trkpt lat="44.91153" lon="5.71718">
        <ele>1732.9</ele>
        <time>2025-06-21T10:57:06Z</time>
      </trkpt>
      <trkpt lat="44.91146" lon="5.71726">
        <ele>1734.3</ele>
        <time>2025-06-21T10:57:15Z</time>
      </trkpt>
      <trkpt lat="44.91142" lon="5.7173">
        <ele>1734.8</ele>
        <time>2025-06-21T10:57:20Z</time>
      </trkpt>
      <trkpt lat="44.9114" lon="5.71731">
        <ele>1735.2</ele>
        <time>2025-06-21T10:57:22Z</time>
      </trkpt>
      <trkpt lat="44.91131" lon="5.71738">
        <ele>1736.2</ele>
        <time>2025-06-21T10:57:32Z</time>
      </trkpt>
      <trkpt lat="44.91125" lon="5.71741">
        <ele>1737.4</ele>
        <time>2025-06-21T10:57:39Z</time>
      </trkpt>
      <trkpt lat="44.9112" lon="5.71744">
        <ele>1738.8</ele>
        <time>2025-06-21T10:57:45Z</time>
      </trkpt>
      <trkpt lat="44.91116" lon="5.71746">
        <ele>1740</ele>
        <time>2025-06-21T10:57:50Z</time>
      </trkpt>
      <trkpt lat="44.91109" lon="5.71752">
        <ele>1741.9</ele>
        <time>2025-06-21T10:57:59Z</time>
      </trkpt>
      <trkpt lat="44.91107" lon="5.71753">
        <ele>1741.9</ele>
        <time>2025-06-21T10:58:02Z</time>
      </trkpt>
      <trkpt lat="44.911" lon="5.71759">
        <ele>1742.1</ele>
        <time>2025-06-21T10:58:10Z</time>
      </trkpt>
      <trkpt lat="44.91095" lon="5.71763">
        <ele>1742.8</ele>
        <time>2025-06-21T10:58:17Z</time>
      </trkpt>
      <trkpt lat="44.91093" lon="5.71766">
        <ele>1743.4</ele>
        <time>2025-06-21T10:58:21Z</time>
      </trkpt>
      <trkpt lat="44.91091" lon="5.71767">
        <ele>1743.8</ele>
        <time>2025-06-21T10:58:23Z</time>
      </trkpt>
      <trkpt lat="44.91085" lon="5.71771">
        <ele>1745.8</ele>
        <time>2025-06-21T10:58:31Z</time>
      </trkpt>
      <trkpt lat="44.91077" lon="5.71775">
        <ele>1747.4</ele>
        <time>2025-06-21T10:58:40Z</time>
      </trkpt>
      <trkpt lat="44.9107" lon="5.7178">
        <ele>1748.7</ele>
        <time>2025-06-21T10:58:48Z</time>
      </trkpt>
      <trkpt lat="44.91063" lon="5.71783">
        <ele>1749.7</ele>
        <time>2025-06-21T10:58:56Z</time>
      </trkpt>
      <trkpt lat="44.91056" lon="5.71789">
        <ele>1751.2</ele>
        <time>2025-06-21T10:59:04Z</time>
      </trkpt>
      <trkpt lat="44.91056" lon="5.71789">
        <ele>1751.3</ele>
        <time>2025-06-21T10:59:05Z</time>
      </trkpt>
      <trkpt lat="44.91049" lon="5.71798">
        <ele>1751.9</ele>
        <time>2025-06-21T10:59:14Z</time>
      </trkpt>
      <trkpt lat="44.91049" lon="5.71798">
        <ele>1752</ele>
        <time>2025-06-21T10:59:15Z</time>
      </trkpt>
      <trkpt lat="44.91045" lon="5.718">
        <ele>1752.3</ele>
        <time>2025-06-21T10:59:19Z</time>
      </trkpt>
      <trkpt lat="44.91039" lon="5.71806">
        <ele>1753.1</ele>
        <time>2025-06-21T10:59:26Z</time>
      </trkpt>
      <trkpt lat="44.91033" lon="5.71811">
        <ele>1753.3</ele>
        <time>2025-06-21T10:59:32Z</time>
      </trkpt>
      <trkpt lat="44.91027" lon="5.71816">
        <ele>1754</ele>
        <time>2025-06-21T10:59:38Z</time>
      </trkpt>
      <trkpt lat="44.91018" lon="5.71828">
        <ele>1753.9</ele>
        <time>2025-06-21T10:59:49Z</time>
      </trkpt>
      <trkpt lat="44.91009" lon="5.71838">
        <ele>1753.8</ele>
        <time>2025-06-21T10:59:59Z</time>
      </trkpt>
      <trkpt lat="44.91002" lon="5.71848">
        <ele>1754.3</ele>
        <time>2025-06-21T11:00:08Z</time>
      </trkpt>
      <trkpt lat="44.90994" lon="5.71862">
        <ele>1754.5</ele>
        <time>2025-06-21T11:00:18Z</time>
      </trkpt>
      <trkpt lat="44.90986" lon="5.7187">
        <ele>1753.4</ele>
        <time>2025-06-21T11:00:26Z</time>
      </trkpt>
      <trkpt lat="44.90978" lon="5.71879">
        <ele>1752.9</ele>
        <time>2025-06-21T11:00:34Z</time>
      </trkpt>
      <trkpt lat="44.90969" lon="5.71888">
        <ele>1752.9</ele>
        <time>2025-06-21T11:00:43Z</time>
      </trkpt>
      <trkpt lat="44.90962" lon="5.71897">
        <ele>1752.4</ele>
        <time>2025-06-21T11:00:51Z</time>
      </trkpt>
      <trkpt lat="44.9095" lon="5.71909">
        <ele>1752.5</ele>
        <time>2025-06-21T11:01:02Z</time>
      </trkpt>
      <trkpt lat="44.90942" lon="5.71918">
        <ele>1752.8</ele>
        <time>2025-06-21T11:01:11Z</time>
      </trkpt>
      <trkpt lat="44.90938" lon="5.71923">
        <ele>1752.6</ele>
        <time>2025-06-21T11:01:15Z</time>
      </trkpt>
      <trkpt lat="44.90928" lon="5.71937">
        <ele>1752.5</ele>
        <time>2025-06-21T11:01:26Z</time>
      </trkpt>
      <trkpt lat="44.9092" lon="5.71947">
        <ele>1753</ele>
        <time>2025-06-21T11:01:35Z</time>
      </trkpt>
      <trkpt lat="44.90913" lon="5.71956">
        <ele>1753.8</ele>
        <time>2025-06-21T11:01:43Z</time>
      </trkpt>
      <trkpt lat="44.90907" lon="5.71966">
        <ele>1754.6</ele>
        <time>2025-06-21T11:01:51Z</time>
      </trkpt>
      <trkpt lat="44.90902" lon="5.71972">
        <ele>1755</ele>
        <time>2025-06-21T11:01:56Z</time>
      </trkpt>
      <trkpt lat="44.90893" lon="5.71983">
        <ele>1756.1</ele>
        <time>2025-06-21T11:02:06Z</time>
      </trkpt>
      <trkpt lat="44.90885" lon="5.71992">
        <ele>1757.4</ele>
        <time>2025-06-21T11:02:15Z</time>
      </trkpt>
      <trkpt lat="44.90884" lon="5.71993">
        <ele>1757.5</ele>
        <time>2025-06-21T11:02:16Z</time>
      </trkpt>
      <trkpt lat="44.9088" lon="5.71996">
        <ele>1758.2</ele>
        <time>2025-06-21T11:02:20Z</time>
      </trkpt>
      <trkpt lat="44.90876" lon="5.71999">
        <ele>1758.7</ele>
        <time>2025-06-21T11:02:24Z</time>
      </trkpt>
      <trkpt lat="44.9087" lon="5.72007">
        <ele>1760.2</ele>
        <time>2025-06-21T11:02:33Z</time>
      </trkpt>
      <trkpt lat="44.90867" lon="5.72011">
        <ele>1760.7</ele>
        <time>2025-06-21T11:02:36Z</time>
      </trkpt>
      <trkpt lat="44.90861" lon="5.72019">
        <ele>1762</ele>
        <time>2025-06-21T11:02:44Z</time>
      </trkpt>
      <trkpt lat="44.90861" lon="5.7202">
        <ele>1762.2</ele>
        <time>2025-06-21T11:02:45Z</time>
      </trkpt>
      <trkpt lat="44.90858" lon="5.72025">
        <ele>1762.7</ele>
        <time>2025-06-21T11:02:49Z</time>
      </trkpt>
      <trkpt lat="44.90853" lon="5.72028">
        <ele>1763</ele>
        <time>2025-06-21T11:02:54Z</time>
      </trkpt>
      <trkpt lat="44.90845" lon="5.72036">
        <ele>1763.6</ele>
        <time>2025-06-21T11:03:02Z</time>
      </trkpt>
      <trkpt lat="44.90844" lon="5.72037">
        <ele>1763.7</ele>
        <time>2025-06-21T11:03:03Z</time>
      </trkpt>
      <trkpt lat="44.90837" lon="5.72046">
        <ele>1764.3</ele>
        <time>2025-06-21T11:03:11Z</time>
      </trkpt>
      <trkpt lat="44.90834" lon="5.72057">
        <ele>1765.1</ele>
        <time>2025-06-21T11:03:19Z</time>
      </trkpt>
      <trkpt lat="44.90831" lon="5.72065">
        <ele>1765.8</ele>
        <time>2025-06-21T11:03:25Z</time>
      </trkpt>
      <trkpt lat="44.90831" lon="5.72077">
        <ele>1766.7</ele>
        <time>2025-06-21T11:03:33Z</time>
      </trkpt>
      <trkpt lat="44.9083" lon="5.72079">
        <ele>1766.8</ele>
        <time>2025-06-21T11:03:34Z</time>
      </trkpt>
      <trkpt lat="44.90827" lon="5.7209">
        <ele>1767.5</ele>
        <time>2025-06-21T11:03:42Z</time>
      </trkpt>
      <trkpt lat="44.90823" lon="5.72103">
        <ele>1768.1</ele>
        <time>2025-06-21T11:03:51Z</time>
      </trkpt>
      <trkpt lat="44.9082" lon="5.72112">
        <ele>1768.4</ele>
        <time>2025-06-21T11:03:58Z</time>
      </trkpt>
      <trkpt lat="44.90816" lon="5.72122">
        <ele>1768.2</ele>
        <time>2025-06-21T11:04:08Z</time>
      </trkpt>
      <trkpt lat="44.90816" lon="5.72122">
        <ele>1768.2</ele>
        <time>2025-06-21T11:04:15Z</time>
      </trkpt>
      <trkpt lat="44.90817" lon="5.72122">
        <ele>1768.2</ele>
        <time>2025-06-21T11:04:29Z</time>
      </trkpt>
      <trkpt lat="44.90817" lon="5.72122">
        <ele>1768.2</ele>
        <time>2025-06-21T11:04:34Z</time>
      </trkpt>
      <trkpt lat="44.90816" lon="5.7212">
        <ele>1768.3</ele>
        <time>2025-06-21T11:04:41Z</time>
      </trkpt>
      <trkpt lat="44.90815" lon="5.7212">
        <ele>1768.3</ele>
        <time>2025-06-21T11:04:50Z</time>
      </trkpt>
      <trkpt lat="44.90815" lon="5.7212">
        <ele>1768.3</ele>
        <time>2025-06-21T11:05:05Z</time>
      </trkpt>
      <trkpt lat="44.90815" lon="5.7212">
        <ele>1768.3</ele>
        <time>2025-06-21T11:05:25Z</time>
      </trkpt>
      <trkpt lat="44.90815" lon="5.7212">
        <ele>1768.3</ele>
        <time>2025-06-21T11:05:45Z</time>
      </trkpt>
      <trkpt lat="44.90815" lon="5.72119">
        <ele>1768.4</ele>
        <time>2025-06-21T11:06:05Z</time>
      </trkpt>
      <trkpt lat="44.90815" lon="5.72119">
        <ele>1768.4</ele>
        <time>2025-06-21T11:06:25Z</time>
      </trkpt>
      <trkpt lat="44.90815" lon="5.72119">
        <ele>1768.4</ele>
        <time>2025-06-21T11:06:46Z</time>
      </trkpt>
      <trkpt lat="44.90815" lon="5.72119">
        <ele>1768.4</ele>
        <time>2025-06-21T11:07:06Z</time>
      </trkpt>
      <trkpt lat="44.90815" lon="5.72119">
        <ele>1768.4</ele>
        <time>2025-06-21T11:07:26Z</time>
      </trkpt>
      <trkpt lat="44.90815" lon="5.72119">
        <ele>1768.4</ele>
        <time>2025-06-21T11:07:45Z</time>
      </trkpt>
      <trkpt lat="44.90815" lon="5.72119">
        <ele>1768.4</ele>
        <time>2025-06-21T11:08:03Z</time>
      </trkpt>
      <trkpt lat="44.90816" lon="5.72119">
        <ele>1768.3</ele>
        <time>2025-06-21T11:08:25Z</time>
      </trkpt>
      <trkpt lat="44.90816" lon="5.72119">
        <ele>1768.3</ele>
        <time>2025-06-21T11:08:48Z</time>
      </trkpt>
      <trkpt lat="44.90816" lon="5.72119">
        <ele>1768.3</ele>
        <time>2025-06-21T11:09:12Z</time>
      </trkpt>
      <trkpt lat="44.90816" lon="5.72119">
        <ele>1768.3</ele>
        <time>2025-06-21T11:09:33Z</time>
      </trkpt>
      <trkpt lat="44.90816" lon="5.72119">
        <ele>1768.3</ele>
        <time>2025-06-21T11:09:53Z</time>
      </trkpt>
      <trkpt lat="44.90816" lon="5.72119">
        <ele>1768.3</ele>
        <time>2025-06-21T11:10:13Z</time>
      </trkpt>
      <trkpt lat="44.90816" lon="5.72119">
        <ele>1768.3</ele>
        <time>2025-06-21T11:10:33Z</time>
      </trkpt>
      <trkpt lat="44.90815" lon="5.72119">
        <ele>1768.4</ele>
        <time>2025-06-21T11:10:52Z</time>
      </trkpt>
      <trkpt lat="44.90815" lon="5.72119">
        <ele>1768.4</ele>
        <time>2025-06-21T11:11:11Z</time>
      </trkpt>
      <trkpt lat="44.90815" lon="5.72119">
        <ele>1768.4</ele>
        <time>2025-06-21T11:11:31Z</time>
      </trkpt>
      <trkpt lat="44.90816" lon="5.72119">
        <ele>1768.4</ele>
        <time>2025-06-21T11:11:50Z</time>
      </trkpt>
      <trkpt lat="44.90815" lon="5.72119">
        <ele>1768.4</ele>
        <time>2025-06-21T11:12:11Z</time>
      </trkpt>
      <trkpt lat="44.90815" lon="5.72119">
        <ele>1768.4</ele>
        <time>2025-06-21T11:12:29Z</time>
      </trkpt>
      <trkpt lat="44.90815" lon="5.72119">
        <ele>1768.4</ele>
        <time>2025-06-21T11:12:50Z</time>
      </trkpt>
      <trkpt lat="44.90815" lon="5.72119">
        <ele>1768.3</ele>
        <time>2025-06-21T11:13:07Z</time>
      </trkpt>
      <trkpt lat="44.90815" lon="5.72119">
        <ele>1768.3</ele>
        <time>2025-06-21T11:13:25Z</time>
      </trkpt>
      <trkpt lat="44.90815" lon="5.72119">
        <ele>1768.4</ele>
        <time>2025-06-21T11:13:43Z</time>
      </trkpt>
      <trkpt lat="44.90815" lon="5.72119">
        <ele>1768.4</ele>
        <time>2025-06-21T11:14:01Z</time>
      </trkpt>
      <trkpt lat="44.90815" lon="5.72119">
        <ele>1768.4</ele>
        <time>2025-06-21T11:14:16Z</time>
      </trkpt>
      <trkpt lat="44.90815" lon="5.72119">
        <ele>1768.4</ele>
        <time>2025-06-21T11:14:33Z</time>
      </trkpt>
      <trkpt lat="44.90815" lon="5.72119">
        <ele>1768.4</ele>
        <time>2025-06-21T11:14:52Z</time>
      </trkpt>
      <trkpt lat="44.90815" lon="5.72119">
        <ele>1768.4</ele>
        <time>2025-06-21T11:15:08Z</time>
      </trkpt>
      <trkpt lat="44.90815" lon="5.72119">
        <ele>1768.3</ele>
        <time>2025-06-21T11:15:27Z</time>
      </trkpt>
      <trkpt lat="44.90815" lon="5.72119">
        <ele>1768.4</ele>
        <time>2025-06-21T11:15:42Z</time>
      </trkpt>
      <trkpt lat="44.90815" lon="5.72119">
        <ele>1768.4</ele>
        <time>2025-06-21T11:15:58Z</time>
      </trkpt>
      <trkpt lat="44.90816" lon="5.7212">
        <ele>1768.3</ele>
        <time>2025-06-21T11:16:03Z</time>
      </trkpt>
      <trkpt lat="44.90816" lon="5.7212">
        <ele>1768.3</ele>
        <time>2025-06-21T11:16:13Z</time>
      </trkpt>
      <trkpt lat="44.90811" lon="5.72121">
        <ele>1768.5</ele>
        <time>2025-06-21T11:16:19Z</time>
      </trkpt>
      <trkpt lat="44.90804" lon="5.72118">
        <ele>1768.7</ele>
        <time>2025-06-21T11:16:26Z</time>
      </trkpt>
      <trkpt lat="44.908" lon="5.72115">
        <ele>1768.6</ele>
        <time>2025-06-21T11:16:30Z</time>
      </trkpt>
      <trkpt lat="44.90799" lon="5.72114">
        <ele>1768.6</ele>
        <time>2025-06-21T11:16:32Z</time>
      </trkpt>
      <trkpt lat="44.90791" lon="5.72111">
        <ele>1768.5</ele>
        <time>2025-06-21T11:16:41Z</time>
      </trkpt>
      <trkpt lat="44.90789" lon="5.7211">
        <ele>1768.4</ele>
        <time>2025-06-21T11:16:43Z</time>
      </trkpt>
      <trkpt lat="44.9078" lon="5.72101">
        <ele>1768</ele>
        <time>2025-06-21T11:16:54Z</time>
      </trkpt>
      <trkpt lat="44.90774" lon="5.72097">
        <ele>1767.7</ele>
        <time>2025-06-21T11:17:01Z</time>
      </trkpt>
      <trkpt lat="44.90765" lon="5.72092">
        <ele>1767.3</ele>
        <time>2025-06-21T11:17:10Z</time>
      </trkpt>
      <trkpt lat="44.90759" lon="5.7209">
        <ele>1767</ele>
        <time>2025-06-21T11:17:17Z</time>
      </trkpt>
      <trkpt lat="44.90759" lon="5.72093">
        <ele>1766.8</ele>
        <time>2025-06-21T11:17:20Z</time>
      </trkpt>
      <trkpt lat="44.9076" lon="5.72106">
        <ele>1766.3</ele>
        <time>2025-06-21T11:17:28Z</time>
      </trkpt>
      <trkpt lat="44.9076" lon="5.72114">
        <ele>1765.8</ele>
        <time>2025-06-21T11:17:35Z</time>
      </trkpt>
      <trkpt lat="44.90758" lon="5.72118">
        <ele>1765.3</ele>
        <time>2025-06-21T11:17:39Z</time>
      </trkpt>
      <trkpt lat="44.90755" lon="5.72127">
        <ele>1764.4</ele>
        <time>2025-06-21T11:17:46Z</time>
      </trkpt>
      <trkpt lat="44.90758" lon="5.72128">
        <ele>1764.6</ele>
        <time>2025-06-21T11:17:50Z</time>
      </trkpt>
      <trkpt lat="44.90762" lon="5.72126">
        <ele>1765.2</ele>
        <time>2025-06-21T11:17:57Z</time>
      </trkpt>
      <trkpt lat="44.90762" lon="5.72124">
        <ele>1765.4</ele>
        <time>2025-06-21T11:18:04Z</time>
      </trkpt>
      <trkpt lat="44.90761" lon="5.72126">
        <ele>1765.1</ele>
        <time>2025-06-21T11:18:10Z</time>
      </trkpt>
      <trkpt lat="44.90759" lon="5.72127">
        <ele>1764.8</ele>
        <time>2025-06-21T11:18:17Z</time>
      </trkpt>
      <trkpt lat="44.90759" lon="5.72128">
        <ele>1764.7</ele>
        <time>2025-06-21T11:18:23Z</time>
      </trkpt>
      <trkpt lat="44.90758" lon="5.72129">
        <ele>1764.5</ele>
        <time>2025-06-21T11:18:30Z</time>
      </trkpt>
      <trkpt lat="44.90754" lon="5.72129">
        <ele>1764.2</ele>
        <time>2025-06-21T11:18:35Z</time>
      </trkpt>
      <trkpt lat="44.90757" lon="5.72131">
        <ele>1764.3</ele>
        <time>2025-06-21T11:18:41Z</time>
      </trkpt>
      <trkpt lat="44.90758" lon="5.72131">
        <ele>1764.4</ele>
        <time>2025-06-21T11:18:46Z</time>
      </trkpt>
      <trkpt lat="44.90757" lon="5.72129">
        <ele>1764.5</ele>
        <time>2025-06-21T11:18:52Z</time>
      </trkpt>
      <trkpt lat="44.90757" lon="5.7213">
        <ele>1764.4</ele>
        <time>2025-06-21T11:18:57Z</time>
      </trkpt>
      <trkpt lat="44.90757" lon="5.72131">
        <ele>1764.4</ele>
        <time>2025-06-21T11:19:09Z</time>
      </trkpt>
      <trkpt lat="44.90758" lon="5.7213">
        <ele>1764.4</ele>
        <time>2025-06-21T11:19:22Z</time>
      </trkpt>
      <trkpt lat="44.90757" lon="5.7213">
        <ele>1764.4</ele>
        <time>2025-06-21T11:19:35Z</time>
      </trkpt>
      <trkpt lat="44.90757" lon="5.7213">
        <ele>1764.4</ele>
        <time>2025-06-21T11:19:48Z</time>
      </trkpt>
      <trkpt lat="44.90758" lon="5.7213">
        <ele>1764.5</ele>
        <time>2025-06-21T11:19:55Z</time>
      </trkpt>
      <trkpt lat="44.90758" lon="5.7213">
        <ele>1764.5</ele>
        <time>2025-06-21T11:20:09Z</time>
      </trkpt>
      <trkpt lat="44.90758" lon="5.7213">
        <ele>1764.5</ele>
        <time>2025-06-21T11:20:20Z</time>
      </trkpt>
      <trkpt lat="44.90758" lon="5.7213">
        <ele>1764.5</ele>
        <time>2025-06-21T11:20:33Z</time>
      </trkpt>
      <trkpt lat="44.90758" lon="5.7213">
        <ele>1764.5</ele>
        <time>2025-06-21T11:20:48Z</time>
      </trkpt>
      <trkpt lat="44.90758" lon="5.7213">
        <ele>1764.5</ele>
        <time>2025-06-21T11:21:01Z</time>
      </trkpt>
      <trkpt lat="44.90758" lon="5.7213">
        <ele>1764.5</ele>
        <time>2025-06-21T11:21:16Z</time>
      </trkpt>
      <trkpt lat="44.90758" lon="5.7213">
        <ele>1764.5</ele>
        <time>2025-06-21T11:21:33Z</time>
      </trkpt>
      <trkpt lat="44.90757" lon="5.7213">
        <ele>1764.4</ele>
        <time>2025-06-21T11:21:44Z</time>
      </trkpt>
      <trkpt lat="44.90757" lon="5.7213">
        <ele>1764.4</ele>
        <time>2025-06-21T11:21:59Z</time>
      </trkpt>
      <trkpt lat="44.90758" lon="5.7213">
        <ele>1764.5</ele>
        <time>2025-06-21T11:22:14Z</time>
      </trkpt>
      <trkpt lat="44.90758" lon="5.7213">
        <ele>1764.5</ele>
        <time>2025-06-21T11:22:25Z</time>
      </trkpt>
      <trkpt lat="44.90758" lon="5.7213">
        <ele>1764.5</ele>
        <time>2025-06-21T11:22:38Z</time>
      </trkpt>
      <trkpt lat="44.90758" lon="5.72129">
        <ele>1764.5</ele>
        <time>2025-06-21T11:22:51Z</time>
      </trkpt>
      <trkpt lat="44.90756" lon="5.72129">
        <ele>1764.4</ele>
        <time>2025-06-21T11:23:03Z</time>
      </trkpt>
      <trkpt lat="44.90759" lon="5.72128">
        <ele>1764.8</ele>
        <time>2025-06-21T11:23:17Z</time>
      </trkpt>
      <trkpt lat="44.90763" lon="5.72127">
        <ele>1765.2</ele>
        <time>2025-06-21T11:23:30Z</time>
      </trkpt>
      <trkpt lat="44.9076" lon="5.72128">
        <ele>1765</ele>
        <time>2025-06-21T11:23:44Z</time>
      </trkpt>
      <trkpt lat="44.90759" lon="5.72128">
        <ele>1764.8</ele>
        <time>2025-06-21T11:23:57Z</time>
      </trkpt>
      <trkpt lat="44.90759" lon="5.72128">
        <ele>1764.8</ele>
        <time>2025-06-21T11:24:12Z</time>
      </trkpt>
      <trkpt lat="44.90759" lon="5.72128">
        <ele>1764.7</ele>
        <time>2025-06-21T11:24:28Z</time>
      </trkpt>
      <trkpt lat="44.90759" lon="5.72128">
        <ele>1764.7</ele>
        <time>2025-06-21T11:24:43Z</time>
      </trkpt>
      <trkpt lat="44.90759" lon="5.72128">
        <ele>1764.7</ele>
        <time>2025-06-21T11:24:59Z</time>
      </trkpt>
      <trkpt lat="44.90759" lon="5.72128">
        <ele>1764.7</ele>
        <time>2025-06-21T11:25:13Z</time>
      </trkpt>
      <trkpt lat="44.90758" lon="5.72127">
        <ele>1764.7</ele>
        <time>2025-06-21T11:25:29Z</time>
      </trkpt>
      <trkpt lat="44.90758" lon="5.72127">
        <ele>1764.7</ele>
        <time>2025-06-21T11:25:45Z</time>
      </trkpt>
      <trkpt lat="44.90758" lon="5.72127">
        <ele>1764.7</ele>
        <time>2025-06-21T11:26:01Z</time>
      </trkpt>
      <trkpt lat="44.90758" lon="5.72127">
        <ele>1764.7</ele>
        <time>2025-06-21T11:26:20Z</time>
      </trkpt>
      <trkpt lat="44.90758" lon="5.72127">
        <ele>1764.7</ele>
        <time>2025-06-21T11:26:37Z</time>
      </trkpt>
      <trkpt lat="44.90758" lon="5.72127">
        <ele>1764.8</ele>
        <time>2025-06-21T11:26:53Z</time>
      </trkpt>
      <trkpt lat="44.90758" lon="5.72127">
        <ele>1764.8</ele>
        <time>2025-06-21T11:27:09Z</time>
      </trkpt>
      <trkpt lat="44.90758" lon="5.72127">
        <ele>1764.7</ele>
        <time>2025-06-21T11:27:26Z</time>
      </trkpt>
      <trkpt lat="44.90758" lon="5.72127">
        <ele>1764.8</ele>
        <time>2025-06-21T11:27:43Z</time>
      </trkpt>
      <trkpt lat="44.90758" lon="5.72127">
        <ele>1764.7</ele>
        <time>2025-06-21T11:27:55Z</time>
      </trkpt>
      <trkpt lat="44.90758" lon="5.72127">
        <ele>1764.7</ele>
        <time>2025-06-21T11:28:11Z</time>
      </trkpt>
      <trkpt lat="44.90758" lon="5.72127">
        <ele>1764.7</ele>
        <time>2025-06-21T11:28:25Z</time>
      </trkpt>
      <trkpt lat="44.90758" lon="5.72127">
        <ele>1764.8</ele>
        <time>2025-06-21T11:28:38Z</time>
      </trkpt>
      <trkpt lat="44.90758" lon="5.72127">
        <ele>1764.8</ele>
        <time>2025-06-21T11:28:54Z</time>
      </trkpt>
      <trkpt lat="44.90758" lon="5.72127">
        <ele>1764.7</ele>
        <time>2025-06-21T11:29:07Z</time>
      </trkpt>
      <trkpt lat="44.90758" lon="5.72127">
        <ele>1764.7</ele>
        <time>2025-06-21T11:29:18Z</time>
      </trkpt>
      <trkpt lat="44.90758" lon="5.72127">
        <ele>1764.7</ele>
        <time>2025-06-21T11:29:33Z</time>
      </trkpt>
      <trkpt lat="44.90758" lon="5.72127">
        <ele>1764.7</ele>
        <time>2025-06-21T11:29:49Z</time>
      </trkpt>
      <trkpt lat="44.90758" lon="5.72127">
        <ele>1764.7</ele>
        <time>2025-06-21T11:30:04Z</time>
      </trkpt>
      <trkpt lat="44.90758" lon="5.72127">
        <ele>1764.7</ele>
        <time>2025-06-21T11:30:23Z</time>
      </trkpt>
      <trkpt lat="44.90758" lon="5.72127">
        <ele>1764.7</ele>
        <time>2025-06-21T11:30:42Z</time>
      </trkpt>
      <trkpt lat="44.90758" lon="5.72127">
        <ele>1764.7</ele>
        <time>2025-06-21T11:30:59Z</time>
      </trkpt>
      <trkpt lat="44.90758" lon="5.72127">
        <ele>1764.7</ele>
        <time>2025-06-21T11:31:21Z</time>
      </trkpt>
      <trkpt lat="44.90758" lon="5.72127">
        <ele>1764.7</ele>
        <time>2025-06-21T11:31:39Z</time>
      </trkpt>
      <trkpt lat="44.90758" lon="5.72127">
        <ele>1764.7</ele>
        <time>2025-06-21T11:32:00Z</time>
      </trkpt>
      <trkpt lat="44.90758" lon="5.72127">
        <ele>1764.7</ele>
        <time>2025-06-21T11:32:21Z</time>
      </trkpt>
      <trkpt lat="44.90758" lon="5.72127">
        <ele>1764.7</ele>
        <time>2025-06-21T11:32:37Z</time>
      </trkpt>
      <trkpt lat="44.90758" lon="5.72127">
        <ele>1764.7</ele>
        <time>2025-06-21T11:32:54Z</time>
      </trkpt>
      <trkpt lat="44.90758" lon="5.72127">
        <ele>1764.7</ele>
        <time>2025-06-21T11:33:08Z</time>
      </trkpt>
      <trkpt lat="44.90758" lon="5.72127">
        <ele>1764.7</ele>
        <time>2025-06-21T11:33:27Z</time>
      </trkpt>
      <trkpt lat="44.90758" lon="5.72127">
        <ele>1764.7</ele>
        <time>2025-06-21T11:33:44Z</time>
      </trkpt>
      <trkpt lat="44.90758" lon="5.72127">
        <ele>1764.7</ele>
        <time>2025-06-21T11:34:01Z</time>
      </trkpt>
      <trkpt lat="44.90758" lon="5.72127">
        <ele>1764.7</ele>
        <time>2025-06-21T11:34:20Z</time>
      </trkpt>
      <trkpt lat="44.90758" lon="5.72127">
        <ele>1764.8</ele>
        <time>2025-06-21T11:34:34Z</time>
      </trkpt>
      <trkpt lat="44.90758" lon="5.72126">
        <ele>1764.8</ele>
        <time>2025-06-21T11:34:41Z</time>
      </trkpt>
      <trkpt lat="44.90757" lon="5.72127">
        <ele>1764.6</ele>
        <time>2025-06-21T11:34:45Z</time>
      </trkpt>
      <trkpt lat="44.90758" lon="5.72127">
        <ele>1764.7</ele>
        <time>2025-06-21T11:34:50Z</time>
      </trkpt>
      <trkpt lat="44.90759" lon="5.72129">
        <ele>1764.7</ele>
        <time>2025-06-21T11:34:53Z</time>
      </trkpt>
      <trkpt lat="44.90763" lon="5.72129">
        <ele>1765.1</ele>
        <time>2025-06-21T11:34:59Z</time>
      </trkpt>
      <trkpt lat="44.90768" lon="5.72128">
        <ele>1765.7</ele>
        <time>2025-06-21T11:35:05Z</time>
      </trkpt>
      <trkpt lat="44.90773" lon="5.7213">
        <ele>1766.2</ele>
        <time>2025-06-21T11:35:12Z</time>
      </trkpt>
      <trkpt lat="44.90778" lon="5.7213">
        <ele>1766.6</ele>
        <time>2025-06-21T11:35:19Z</time>
      </trkpt>
      <trkpt lat="44.90784" lon="5.72129">
        <ele>1767.1</ele>
        <time>2025-06-21T11:35:27Z</time>
      </trkpt>
      <trkpt lat="44.90789" lon="5.72128">
        <ele>1767.5</ele>
        <time>2025-06-21T11:35:36Z</time>
      </trkpt>
      <trkpt lat="44.90793" lon="5.72127">
        <ele>1767.7</ele>
        <time>2025-06-21T11:35:44Z</time>
      </trkpt>
      <trkpt lat="44.90801" lon="5.72127">
        <ele>1768.1</ele>
        <time>2025-06-21T11:35:53Z</time>
      </trkpt>
      <trkpt lat="44.90807" lon="5.72127">
        <ele>1768.4</ele>
        <time>2025-06-21T11:36:02Z</time>
      </trkpt>
      <trkpt lat="44.90812" lon="5.72128">
        <ele>1768.2</ele>
        <time>2025-06-21T11:36:10Z</time>
      </trkpt>
      <trkpt lat="44.90814" lon="5.72128">
        <ele>1768.1</ele>
        <time>2025-06-21T11:36:16Z</time>
      </trkpt>
      <trkpt lat="44.90816" lon="5.72126">
        <ele>1768.1</ele>
        <time>2025-06-21T11:36:22Z</time>
      </trkpt>
      <trkpt lat="44.90817" lon="5.72125">
        <ele>1768.1</ele>
        <time>2025-06-21T11:36:29Z</time>
      </trkpt>
      <trkpt lat="44.90816" lon="5.72125">
        <ele>1768.1</ele>
        <time>2025-06-21T11:36:39Z</time>
      </trkpt>
      <trkpt lat="44.90816" lon="5.72125">
        <ele>1768.1</ele>
        <time>2025-06-21T11:36:52Z</time>
      </trkpt>
      <trkpt lat="44.90816" lon="5.72125">
        <ele>1768.1</ele>
        <time>2025-06-21T11:37:04Z</time>
      </trkpt>
      <trkpt lat="44.90816" lon="5.72125">
        <ele>1768.1</ele>
        <time>2025-06-21T11:37:15Z</time>
      </trkpt>
      <trkpt lat="44.90816" lon="5.72124">
        <ele>1768.2</ele>
        <time>2025-06-21T11:37:22Z</time>
      </trkpt>
      <trkpt lat="44.90816" lon="5.72124">
        <ele>1768.2</ele>
        <time>2025-06-21T11:37:30Z</time>
      </trkpt>
      <trkpt lat="44.90816" lon="5.72124">
        <ele>1768.2</ele>
        <time>2025-06-21T11:37:47Z</time>
      </trkpt>
      <trkpt lat="44.90816" lon="5.72124">
        <ele>1768.2</ele>
        <time>2025-06-21T11:38:04Z</time>
      </trkpt>
      <trkpt lat="44.90815" lon="5.72123">
        <ele>1768.2</ele>
        <time>2025-06-21T11:38:17Z</time>
      </trkpt>
      <trkpt lat="44.90815" lon="5.72123">
        <ele>1768.2</ele>
        <time>2025-06-21T11:38:32Z</time>
      </trkpt>
      <trkpt lat="44.90815" lon="5.72123">
        <ele>1768.2</ele>
        <time>2025-06-21T11:38:53Z</time>
      </trkpt>
      <trkpt lat="44.90815" lon="5.72124">
        <ele>1768.2</ele>
        <time>2025-06-21T11:39:14Z</time>
      </trkpt>
      <trkpt lat="44.90815" lon="5.72124">
        <ele>1768.2</ele>
        <time>2025-06-21T11:39:30Z</time>
      </trkpt>
      <trkpt lat="44.90815" lon="5.72123">
        <ele>1768.2</ele>
        <time>2025-06-21T11:39:45Z</time>
      </trkpt>
      <trkpt lat="44.90815" lon="5.72124">
        <ele>1768.2</ele>
        <time>2025-06-21T11:40:03Z</time>
      </trkpt>
      <trkpt lat="44.90815" lon="5.72124">
        <ele>1768.2</ele>
        <time>2025-06-21T11:40:22Z</time>
      </trkpt>
      <trkpt lat="44.90814" lon="5.72123">
        <ele>1768.2</ele>
        <time>2025-06-21T11:40:46Z</time>
      </trkpt>
      <trkpt lat="44.90814" lon="5.72124">
        <ele>1768.2</ele>
        <time>2025-06-21T11:41:06Z</time>
      </trkpt>
      <trkpt lat="44.90814" lon="5.72123">
        <ele>1768.2</ele>
        <time>2025-06-21T11:41:23Z</time>
      </trkpt>
      <trkpt lat="44.90814" lon="5.72123">
        <ele>1768.3</ele>
        <time>2025-06-21T11:41:43Z</time>
      </trkpt>
      <trkpt lat="44.90814" lon="5.72123">
        <ele>1768.3</ele>
        <time>2025-06-21T11:42:05Z</time>
      </trkpt>
      <trkpt lat="44.90814" lon="5.72123">
        <ele>1768.3</ele>
        <time>2025-06-21T11:42:29Z</time>
      </trkpt>
      <trkpt lat="44.90814" lon="5.72123">
        <ele>1768.3</ele>
        <time>2025-06-21T11:42:52Z</time>
      </trkpt>
      <trkpt lat="44.90814" lon="5.72123">
        <ele>1768.3</ele>
        <time>2025-06-21T11:43:14Z</time>
      </trkpt>
      <trkpt lat="44.90814" lon="5.72123">
        <ele>1768.3</ele>
        <time>2025-06-21T11:43:37Z</time>
      </trkpt>
      <trkpt lat="44.90814" lon="5.72123">
        <ele>1768.3</ele>
        <time>2025-06-21T11:43:58Z</time>
      </trkpt>
      <trkpt lat="44.90814" lon="5.72123">
        <ele>1768.3</ele>
        <time>2025-06-21T11:44:18Z</time>
      </trkpt>
      <trkpt lat="44.90814" lon="5.72123">
        <ele>1768.3</ele>
        <time>2025-06-21T11:44:41Z</time>
      </trkpt>
      <trkpt lat="44.90814" lon="5.72123">
        <ele>1768.3</ele>
        <time>2025-06-21T11:45:03Z</time>
      </trkpt>
      <trkpt lat="44.90814" lon="5.72123">
        <ele>1768.3</ele>
        <time>2025-06-21T11:45:26Z</time>
      </trkpt>
      <trkpt lat="44.90814" lon="5.72123">
        <ele>1768.3</ele>
        <time>2025-06-21T11:45:46Z</time>
      </trkpt>
      <trkpt lat="44.90814" lon="5.72123">
        <ele>1768.3</ele>
        <time>2025-06-21T11:46:07Z</time>
      </trkpt>
      <trkpt lat="44.90813" lon="5.72123">
        <ele>1768.3</ele>
        <time>2025-06-21T11:46:29Z</time>
      </trkpt>
      <trkpt lat="44.90813" lon="5.72123">
        <ele>1768.3</ele>
        <time>2025-06-21T11:46:46Z</time>
      </trkpt>
      <trkpt lat="44.90813" lon="5.72123">
        <ele>1768.3</ele>
        <time>2025-06-21T11:47:07Z</time>
      </trkpt>
      <trkpt lat="44.90813" lon="5.72123">
        <ele>1768.3</ele>
        <time>2025-06-21T11:47:29Z</time>
      </trkpt>
      <trkpt lat="44.90813" lon="5.72123">
        <ele>1768.3</ele>
        <time>2025-06-21T11:47:51Z</time>
      </trkpt>
      <trkpt lat="44.90813" lon="5.72124">
        <ele>1768.3</ele>
        <time>2025-06-21T11:48:12Z</time>
      </trkpt>
      <trkpt lat="44.90813" lon="5.72124">
        <ele>1768.3</ele>
        <time>2025-06-21T11:48:32Z</time>
      </trkpt>
      <trkpt lat="44.90814" lon="5.72123">
        <ele>1768.3</ele>
        <time>2025-06-21T11:48:46Z</time>
      </trkpt>
      <trkpt lat="44.90814" lon="5.72123">
        <ele>1768.2</ele>
        <time>2025-06-21T11:49:03Z</time>
      </trkpt>
      <trkpt lat="44.90815" lon="5.72123">
        <ele>1768.2</ele>
        <time>2025-06-21T11:49:26Z</time>
      </trkpt>
      <trkpt lat="44.90815" lon="5.72123">
        <ele>1768.2</ele>
        <time>2025-06-21T11:49:47Z</time>
      </trkpt>
      <trkpt lat="44.90815" lon="5.72123">
        <ele>1768.2</ele>
        <time>2025-06-21T11:50:08Z</time>
      </trkpt>
      <trkpt lat="44.90815" lon="5.72123">
        <ele>1768.2</ele>
        <time>2025-06-21T11:50:25Z</time>
      </trkpt>
      <trkpt lat="44.90815" lon="5.72123">
        <ele>1768.2</ele>
        <time>2025-06-21T11:50:40Z</time>
      </trkpt>
      <trkpt lat="44.90815" lon="5.72123">
        <ele>1768.3</ele>
        <time>2025-06-21T11:50:58Z</time>
      </trkpt>
      <trkpt lat="44.90815" lon="5.72122">
        <ele>1768.3</ele>
        <time>2025-06-21T11:51:16Z</time>
      </trkpt>
      <trkpt lat="44.90815" lon="5.72122">
        <ele>1768.3</ele>
        <time>2025-06-21T11:51:34Z</time>
      </trkpt>
      <trkpt lat="44.90815" lon="5.72122">
        <ele>1768.3</ele>
        <time>2025-06-21T11:51:52Z</time>
      </trkpt>
      <trkpt lat="44.90815" lon="5.72122">
        <ele>1768.3</ele>
        <time>2025-06-21T11:52:08Z</time>
      </trkpt>
      <trkpt lat="44.90815" lon="5.72122">
        <ele>1768.3</ele>
        <time>2025-06-21T11:52:25Z</time>
      </trkpt>
      <trkpt lat="44.90816" lon="5.72122">
        <ele>1768.2</ele>
        <time>2025-06-21T11:52:30Z</time>
      </trkpt>
      <trkpt lat="44.90815" lon="5.72123">
        <ele>1768.2</ele>
        <time>2025-06-21T11:52:34Z</time>
      </trkpt>
      <trkpt lat="44.90815" lon="5.72122">
        <ele>1768.3</ele>
        <time>2025-06-21T11:52:41Z</time>
      </trkpt>
      <trkpt lat="44.90815" lon="5.72122">
        <ele>1768.3</ele>
        <time>2025-06-21T11:52:52Z</time>
      </trkpt>
      <trkpt lat="44.90816" lon="5.72127">
        <ele>1768.1</ele>
        <time>2025-06-21T11:52:57Z</time>
      </trkpt>
      <trkpt lat="44.90815" lon="5.72133">
        <ele>1767.9</ele>
        <time>2025-06-21T11:53:04Z</time>
      </trkpt>
      <trkpt lat="44.90816" lon="5.72131">
        <ele>1767.9</ele>
        <time>2025-06-21T11:53:14Z</time>
      </trkpt>
      <trkpt lat="44.90816" lon="5.72126">
        <ele>1768.1</ele>
        <time>2025-06-21T11:53:21Z</time>
      </trkpt>
      <trkpt lat="44.90816" lon="5.72122">
        <ele>1768.2</ele>
        <time>2025-06-21T11:53:28Z</time>
      </trkpt>
      <trkpt lat="44.90816" lon="5.72122">
        <ele>1768.3</ele>
        <time>2025-06-21T11:53:33Z</time>
      </trkpt>
      <trkpt lat="44.90816" lon="5.72122">
        <ele>1768.3</ele>
        <time>2025-06-21T11:53:46Z</time>
      </trkpt>
      <trkpt lat="44.90815" lon="5.72122">
        <ele>1768.3</ele>
        <time>2025-06-21T11:54:03Z</time>
      </trkpt>
      <trkpt lat="44.90815" lon="5.72121">
        <ele>1768.3</ele>
        <time>2025-06-21T11:54:14Z</time>
      </trkpt>
      <trkpt lat="44.90816" lon="5.72121">
        <ele>1768.3</ele>
        <time>2025-06-21T11:54:32Z</time>
      </trkpt>
      <trkpt lat="44.90816" lon="5.72121">
        <ele>1768.3</ele>
        <time>2025-06-21T11:54:40Z</time>
      </trkpt>
      <trkpt lat="44.90816" lon="5.72121">
        <ele>1768.3</ele>
        <time>2025-06-21T11:54:53Z</time>
      </trkpt>
      <trkpt lat="44.90816" lon="5.72121">
        <ele>1768.3</ele>
        <time>2025-06-21T11:55:01Z</time>
      </trkpt>
      <trkpt lat="44.90815" lon="5.72121">
        <ele>1768.3</ele>
        <time>2025-06-21T11:55:10Z</time>
      </trkpt>
      <trkpt lat="44.90815" lon="5.7212">
        <ele>1768.3</ele>
        <time>2025-06-21T11:55:16Z</time>
      </trkpt>
      <trkpt lat="44.90815" lon="5.7212">
        <ele>1768.3</ele>
        <time>2025-06-21T11:55:28Z</time>
      </trkpt>
      <trkpt lat="44.90815" lon="5.7212">
        <ele>1768.3</ele>
        <time>2025-06-21T11:55:43Z</time>
      </trkpt>
      <trkpt lat="44.90815" lon="5.7212">
        <ele>1768.3</ele>
        <time>2025-06-21T11:55:54Z</time>
      </trkpt>
      <trkpt lat="44.90815" lon="5.7212">
        <ele>1768.3</ele>
        <time>2025-06-21T11:56:04Z</time>
      </trkpt>
      <trkpt lat="44.90815" lon="5.7212">
        <ele>1768.3</ele>
        <time>2025-06-21T11:56:12Z</time>
      </trkpt>
      <trkpt lat="44.90815" lon="5.7212">
        <ele>1768.3</ele>
        <time>2025-06-21T11:56:25Z</time>
      </trkpt>
      <trkpt lat="44.90815" lon="5.7212">
        <ele>1768.3</ele>
        <time>2025-06-21T11:56:43Z</time>
      </trkpt>
      <trkpt lat="44.90815" lon="5.7212">
        <ele>1768.3</ele>
        <time>2025-06-21T11:56:55Z</time>
      </trkpt>
      <trkpt lat="44.90815" lon="5.7212">
        <ele>1768.3</ele>
        <time>2025-06-21T11:57:09Z</time>
      </trkpt>
      <trkpt lat="44.90815" lon="5.7212">
        <ele>1768.3</ele>
        <time>2025-06-21T11:57:19Z</time>
      </trkpt>
      <trkpt lat="44.90815" lon="5.72119">
        <ele>1768.4</ele>
        <time>2025-06-21T11:57:33Z</time>
      </trkpt>
      <trkpt lat="44.90815" lon="5.72119">
        <ele>1768.4</ele>
        <time>2025-06-21T11:57:45Z</time>
      </trkpt>
      <trkpt lat="44.90815" lon="5.72119">
        <ele>1768.4</ele>
        <time>2025-06-21T11:58:00Z</time>
      </trkpt>
      <trkpt lat="44.90815" lon="5.72119">
        <ele>1768.3</ele>
        <time>2025-06-21T11:58:12Z</time>
      </trkpt>
      <trkpt lat="44.90816" lon="5.72119">
        <ele>1768.3</ele>
        <time>2025-06-21T11:58:31Z</time>
      </trkpt>
      <trkpt lat="44.90816" lon="5.72119">
        <ele>1768.3</ele>
        <time>2025-06-21T11:58:42Z</time>
      </trkpt>
      <trkpt lat="44.90816" lon="5.7212">
        <ele>1768.3</ele>
        <time>2025-06-21T11:58:51Z</time>
      </trkpt>
      <trkpt lat="44.90814" lon="5.72121">
        <ele>1768.3</ele>
        <time>2025-06-21T11:59:01Z</time>
      </trkpt>
      <trkpt lat="44.90813" lon="5.7212">
        <ele>1768.4</ele>
        <time>2025-06-21T11:59:07Z</time>
      </trkpt>
      <trkpt lat="44.90812" lon="5.7212">
        <ele>1768.4</ele>
        <time>2025-06-21T11:59:16Z</time>
      </trkpt>
      <trkpt lat="44.90809" lon="5.7212">
        <ele>1768.6</ele>
        <time>2025-06-21T11:59:23Z</time>
      </trkpt>
      <trkpt lat="44.90804" lon="5.72118">
        <ele>1768.7</ele>
        <time>2025-06-21T11:59:31Z</time>
      </trkpt>
      <trkpt lat="44.90802" lon="5.72116">
        <ele>1768.6</ele>
        <time>2025-06-21T11:59:34Z</time>
      </trkpt>
      <trkpt lat="44.90797" lon="5.72113">
        <ele>1768.6</ele>
        <time>2025-06-21T11:59:42Z</time>
      </trkpt>
      <trkpt lat="44.90796" lon="5.72113">
        <ele>1768.6</ele>
        <time>2025-06-21T11:59:43Z</time>
      </trkpt>
      <trkpt lat="44.90788" lon="5.72108">
        <ele>1768.3</ele>
        <time>2025-06-21T11:59:53Z</time>
      </trkpt>
      <trkpt lat="44.90782" lon="5.72103">
        <ele>1768.1</ele>
        <time>2025-06-21T12:00:02Z</time>
      </trkpt>
      <trkpt lat="44.90776" lon="5.72098">
        <ele>1767.8</ele>
        <time>2025-06-21T12:00:12Z</time>
      </trkpt>
      <trkpt lat="44.90769" lon="5.72093">
        <ele>1767.4</ele>
        <time>2025-06-21T12:00:20Z</time>
      </trkpt>
      <trkpt lat="44.90761" lon="5.7209">
        <ele>1767.1</ele>
        <time>2025-06-21T12:00:29Z</time>
      </trkpt>
      <trkpt lat="44.90759" lon="5.72091">
        <ele>1767</ele>
        <time>2025-06-21T12:00:31Z</time>
      </trkpt>
      <trkpt lat="44.9075" lon="5.72096">
        <ele>1766.1</ele>
        <time>2025-06-21T12:00:41Z</time>
      </trkpt>
      <trkpt lat="44.90744" lon="5.72097">
        <ele>1765.6</ele>
        <time>2025-06-21T12:00:46Z</time>
      </trkpt>
      <trkpt lat="44.90741" lon="5.72095">
        <ele>1765.5</ele>
        <time>2025-06-21T12:00:49Z</time>
      </trkpt>
      <trkpt lat="44.90732" lon="5.72092">
        <ele>1765.1</ele>
        <time>2025-06-21T12:00:58Z</time>
      </trkpt>
      <trkpt lat="44.90723" lon="5.72087">
        <ele>1764.8</ele>
        <time>2025-06-21T12:01:06Z</time>
      </trkpt>
      <trkpt lat="44.90713" lon="5.72082">
        <ele>1764.8</ele>
        <time>2025-06-21T12:01:15Z</time>
      </trkpt>
      <trkpt lat="44.90705" lon="5.72077">
        <ele>1764.7</ele>
        <time>2025-06-21T12:01:23Z</time>
      </trkpt>
      <trkpt lat="44.90699" lon="5.72073">
        <ele>1764.6</ele>
        <time>2025-06-21T12:01:29Z</time>
      </trkpt>
      <trkpt lat="44.90697" lon="5.72072">
        <ele>1764.5</ele>
        <time>2025-06-21T12:01:31Z</time>
      </trkpt>
      <trkpt lat="44.90688" lon="5.72072">
        <ele>1764.3</ele>
        <time>2025-06-21T12:01:40Z</time>
      </trkpt>
      <trkpt lat="44.90678" lon="5.72073">
        <ele>1764.1</ele>
        <time>2025-06-21T12:01:49Z</time>
      </trkpt>
      <trkpt lat="44.90668" lon="5.72074">
        <ele>1764</ele>
        <time>2025-06-21T12:01:58Z</time>
      </trkpt>
      <trkpt lat="44.9066" lon="5.72075">
        <ele>1763.8</ele>
        <time>2025-06-21T12:02:06Z</time>
      </trkpt>
      <trkpt lat="44.90652" lon="5.72077">
        <ele>1763.5</ele>
        <time>2025-06-21T12:02:14Z</time>
      </trkpt>
      <trkpt lat="44.90642" lon="5.7208">
        <ele>1763.1</ele>
        <time>2025-06-21T12:02:24Z</time>
      </trkpt>
      <trkpt lat="44.90634" lon="5.72083">
        <ele>1762.5</ele>
        <time>2025-06-21T12:02:32Z</time>
      </trkpt>
      <trkpt lat="44.90627" lon="5.72087">
        <ele>1761.6</ele>
        <time>2025-06-21T12:02:40Z</time>
      </trkpt>
      <trkpt lat="44.90619" lon="5.72091">
        <ele>1760.8</ele>
        <time>2025-06-21T12:02:48Z</time>
      </trkpt>
      <trkpt lat="44.90612" lon="5.72094">
        <ele>1760.1</ele>
        <time>2025-06-21T12:02:55Z</time>
      </trkpt>
      <trkpt lat="44.90604" lon="5.72095">
        <ele>1759.3</ele>
        <time>2025-06-21T12:03:03Z</time>
      </trkpt>
      <trkpt lat="44.90596" lon="5.72095">
        <ele>1758.6</ele>
        <time>2025-06-21T12:03:11Z</time>
      </trkpt>
      <trkpt lat="44.90588" lon="5.72098">
        <ele>1757.9</ele>
        <time>2025-06-21T12:03:18Z</time>
      </trkpt>
      <trkpt lat="44.90578" lon="5.72095">
        <ele>1756.8</ele>
        <time>2025-06-21T12:03:27Z</time>
      </trkpt>
      <trkpt lat="44.90571" lon="5.72097">
        <ele>1756.2</ele>
        <time>2025-06-21T12:03:33Z</time>
      </trkpt>
      <trkpt lat="44.9056" lon="5.72099">
        <ele>1755</ele>
        <time>2025-06-21T12:03:42Z</time>
      </trkpt>
      <trkpt lat="44.90554" lon="5.72098">
        <ele>1754.4</ele>
        <time>2025-06-21T12:03:48Z</time>
      </trkpt>
      <trkpt lat="44.90546" lon="5.72101">
        <ele>1753.9</ele>
        <time>2025-06-21T12:03:56Z</time>
      </trkpt>
      <trkpt lat="44.90539" lon="5.72103">
        <ele>1753.5</ele>
        <time>2025-06-21T12:04:03Z</time>
      </trkpt>
      <trkpt lat="44.90531" lon="5.72109">
        <ele>1753.2</ele>
        <time>2025-06-21T12:04:11Z</time>
      </trkpt>
      <trkpt lat="44.90527" lon="5.72114">
        <ele>1752.8</ele>
        <time>2025-06-21T12:04:16Z</time>
      </trkpt>
      <trkpt lat="44.90523" lon="5.72126">
        <ele>1752.1</ele>
        <time>2025-06-21T12:04:24Z</time>
      </trkpt>
      <trkpt lat="44.90524" lon="5.7214">
        <ele>1751.7</ele>
        <time>2025-06-21T12:04:33Z</time>
      </trkpt>
      <trkpt lat="44.90526" lon="5.72153">
        <ele>1750.9</ele>
        <time>2025-06-21T12:04:41Z</time>
      </trkpt>
      <trkpt lat="44.90529" lon="5.72167">
        <ele>1750</ele>
        <time>2025-06-21T12:04:51Z</time>
      </trkpt>
      <trkpt lat="44.90532" lon="5.72182">
        <ele>1749.5</ele>
        <time>2025-06-21T12:05:01Z</time>
      </trkpt>
      <trkpt lat="44.90535" lon="5.72199">
        <ele>1748.9</ele>
        <time>2025-06-21T12:05:12Z</time>
      </trkpt>
      <trkpt lat="44.90537" lon="5.72209">
        <ele>1748.6</ele>
        <time>2025-06-21T12:05:20Z</time>
      </trkpt>
      <trkpt lat="44.90539" lon="5.72222">
        <ele>1748.4</ele>
        <time>2025-06-21T12:05:28Z</time>
      </trkpt>
      <trkpt lat="44.90542" lon="5.72237">
        <ele>1748.3</ele>
        <time>2025-06-21T12:05:38Z</time>
      </trkpt>
      <trkpt lat="44.90543" lon="5.72243">
        <ele>1748.2</ele>
        <time>2025-06-21T12:05:43Z</time>
      </trkpt>
      <trkpt lat="44.90544" lon="5.72253">
        <ele>1747.7</ele>
        <time>2025-06-21T12:05:51Z</time>
      </trkpt>
      <trkpt lat="44.90542" lon="5.72257">
        <ele>1746.7</ele>
        <time>2025-06-21T12:05:58Z</time>
      </trkpt>
      <trkpt lat="44.90541" lon="5.72259">
        <ele>1746.3</ele>
        <time>2025-06-21T12:06:07Z</time>
      </trkpt>
      <trkpt lat="44.90541" lon="5.72259">
        <ele>1746.3</ele>
        <time>2025-06-21T12:06:15Z</time>
      </trkpt>
      <trkpt lat="44.90541" lon="5.72259">
        <ele>1746.3</ele>
        <time>2025-06-21T12:06:23Z</time>
      </trkpt>
      <trkpt lat="44.90541" lon="5.72259">
        <ele>1746.2</ele>
        <time>2025-06-21T12:06:28Z</time>
      </trkpt>
      <trkpt lat="44.90541" lon="5.7226">
        <ele>1746.1</ele>
        <time>2025-06-21T12:06:44Z</time>
      </trkpt>
      <trkpt lat="44.90541" lon="5.7226">
        <ele>1746.1</ele>
        <time>2025-06-21T12:07:01Z</time>
      </trkpt>
      <trkpt lat="44.90541" lon="5.7226">
        <ele>1746.1</ele>
        <time>2025-06-21T12:07:19Z</time>
      </trkpt>
      <trkpt lat="44.90541" lon="5.72261">
        <ele>1746</ele>
        <time>2025-06-21T12:07:36Z</time>
      </trkpt>
      <trkpt lat="44.90541" lon="5.72261">
        <ele>1746</ele>
        <time>2025-06-21T12:07:51Z</time>
      </trkpt>
      <trkpt lat="44.90541" lon="5.72261">
        <ele>1746</ele>
        <time>2025-06-21T12:08:12Z</time>
      </trkpt>
      <trkpt lat="44.90542" lon="5.72261">
        <ele>1746</ele>
        <time>2025-06-21T12:08:32Z</time>
      </trkpt>
      <trkpt lat="44.90542" lon="5.72261">
        <ele>1746</ele>
        <time>2025-06-21T12:08:46Z</time>
      </trkpt>
      <trkpt lat="44.90542" lon="5.72262">
        <ele>1745.8</ele>
        <time>2025-06-21T12:08:51Z</time>
      </trkpt>
      <trkpt lat="44.9054" lon="5.72262">
        <ele>1745.7</ele>
        <time>2025-06-21T12:08:57Z</time>
      </trkpt>
      <trkpt lat="44.90539" lon="5.7226">
        <ele>1745.8</ele>
        <time>2025-06-21T12:09:12Z</time>
      </trkpt>
      <trkpt lat="44.90539" lon="5.72259">
        <ele>1746.1</ele>
        <time>2025-06-21T12:09:23Z</time>
      </trkpt>
      <trkpt lat="44.90542" lon="5.7226">
        <ele>1746.2</ele>
        <time>2025-06-21T12:09:27Z</time>
      </trkpt>
      <trkpt lat="44.90546" lon="5.72264">
        <ele>1746.1</ele>
        <time>2025-06-21T12:09:33Z</time>
      </trkpt>
      <trkpt lat="44.90549" lon="5.72273">
        <ele>1745.3</ele>
        <time>2025-06-21T12:09:39Z</time>
      </trkpt>
      <trkpt lat="44.90551" lon="5.72276">
        <ele>1745.3</ele>
        <time>2025-06-21T12:09:42Z</time>
      </trkpt>
      <trkpt lat="44.90554" lon="5.72278">
        <ele>1745.5</ele>
        <time>2025-06-21T12:09:45Z</time>
      </trkpt>
      <trkpt lat="44.90559" lon="5.72288">
        <ele>1743.8</ele>
        <time>2025-06-21T12:09:53Z</time>
      </trkpt>
      <trkpt lat="44.90563" lon="5.72291">
        <ele>1743.4</ele>
        <time>2025-06-21T12:09:57Z</time>
      </trkpt>
      <trkpt lat="44.90569" lon="5.72298">
        <ele>1742.8</ele>
        <time>2025-06-21T12:10:04Z</time>
      </trkpt>
      <trkpt lat="44.90575" lon="5.72308">
        <ele>1741</ele>
        <time>2025-06-21T12:10:11Z</time>
      </trkpt>
      <trkpt lat="44.90584" lon="5.72317">
        <ele>1739.5</ele>
        <time>2025-06-21T12:10:19Z</time>
      </trkpt>
      <trkpt lat="44.90591" lon="5.72323">
        <ele>1738.3</ele>
        <time>2025-06-21T12:10:25Z</time>
      </trkpt>
      <trkpt lat="44.90599" lon="5.72329">
        <ele>1737.5</ele>
        <time>2025-06-21T12:10:32Z</time>
      </trkpt>
      <trkpt lat="44.90607" lon="5.72336">
        <ele>1736</ele>
        <time>2025-06-21T12:10:40Z</time>
      </trkpt>
      <trkpt lat="44.90617" lon="5.72344">
        <ele>1733.7</ele>
        <time>2025-06-21T12:10:49Z</time>
      </trkpt>
      <trkpt lat="44.90618" lon="5.72345">
        <ele>1733.3</ele>
        <time>2025-06-21T12:10:50Z</time>
      </trkpt>
      <trkpt lat="44.90622" lon="5.72347">
        <ele>1732.8</ele>
        <time>2025-06-21T12:10:54Z</time>
      </trkpt>
      <trkpt lat="44.9063" lon="5.72352">
        <ele>1732.2</ele>
        <time>2025-06-21T12:11:02Z</time>
      </trkpt>
      <trkpt lat="44.90637" lon="5.72355">
        <ele>1731.8</ele>
        <time>2025-06-21T12:11:07Z</time>
      </trkpt>
      <trkpt lat="44.90639" lon="5.72356">
        <ele>1731.8</ele>
        <time>2025-06-21T12:11:09Z</time>
      </trkpt>
      <trkpt lat="44.90645" lon="5.72359">
        <ele>1730.6</ele>
        <time>2025-06-21T12:11:15Z</time>
      </trkpt>
      <trkpt lat="44.90656" lon="5.72364">
        <ele>1728.7</ele>
        <time>2025-06-21T12:11:25Z</time>
      </trkpt>
      <trkpt lat="44.90667" lon="5.72367">
        <ele>1728</ele>
        <time>2025-06-21T12:11:34Z</time>
      </trkpt>
      <trkpt lat="44.90676" lon="5.7237">
        <ele>1726.5</ele>
        <time>2025-06-21T12:11:42Z</time>
      </trkpt>
      <trkpt lat="44.90685" lon="5.72373">
        <ele>1725.2</ele>
        <time>2025-06-21T12:11:50Z</time>
      </trkpt>
      <trkpt lat="44.90695" lon="5.72377">
        <ele>1723.8</ele>
        <time>2025-06-21T12:11:58Z</time>
      </trkpt>
      <trkpt lat="44.90698" lon="5.72378">
        <ele>1723.1</ele>
        <time>2025-06-21T12:12:01Z</time>
      </trkpt>
      <trkpt lat="44.90702" lon="5.7238">
        <ele>1722.1</ele>
        <time>2025-06-21T12:12:04Z</time>
      </trkpt>
      <trkpt lat="44.90707" lon="5.72381">
        <ele>1721.4</ele>
        <time>2025-06-21T12:12:08Z</time>
      </trkpt>
      <trkpt lat="44.90718" lon="5.72382">
        <ele>1719.8</ele>
        <time>2025-06-21T12:12:17Z</time>
      </trkpt>
      <trkpt lat="44.90727" lon="5.72381">
        <ele>1718.9</ele>
        <time>2025-06-21T12:12:24Z</time>
      </trkpt>
      <trkpt lat="44.90739" lon="5.7238">
        <ele>1717.3</ele>
        <time>2025-06-21T12:12:33Z</time>
      </trkpt>
      <trkpt lat="44.90751" lon="5.72378">
        <ele>1715.9</ele>
        <time>2025-06-21T12:12:42Z</time>
      </trkpt>
      <trkpt lat="44.9076" lon="5.72373">
        <ele>1715.7</ele>
        <time>2025-06-21T12:12:50Z</time>
      </trkpt>
      <trkpt lat="44.9077" lon="5.7237">
        <ele>1714.9</ele>
        <time>2025-06-21T12:12:58Z</time>
      </trkpt>
      <trkpt lat="44.90772" lon="5.7237">
        <ele>1714.5</ele>
        <time>2025-06-21T12:13:00Z</time>
      </trkpt>
      <trkpt lat="44.90781" lon="5.72369">
        <ele>1713.3</ele>
        <time>2025-06-21T12:13:08Z</time>
      </trkpt>
      <trkpt lat="44.90791" lon="5.72371">
        <ele>1711.6</ele>
        <time>2025-06-21T12:13:16Z</time>
      </trkpt>
      <trkpt lat="44.90793" lon="5.7237">
        <ele>1711.5</ele>
        <time>2025-06-21T12:13:18Z</time>
      </trkpt>
      <trkpt lat="44.90806" lon="5.72374">
        <ele>1708.8</ele>
        <time>2025-06-21T12:13:29Z</time>
      </trkpt>
      <trkpt lat="44.90816" lon="5.72376">
        <ele>1707</ele>
        <time>2025-06-21T12:13:37Z</time>
      </trkpt>
      <trkpt lat="44.90826" lon="5.72378">
        <ele>1705.4</ele>
        <time>2025-06-21T12:13:45Z</time>
      </trkpt>
      <trkpt lat="44.90837" lon="5.72378">
        <ele>1704.1</ele>
        <time>2025-06-21T12:13:54Z</time>
      </trkpt>
      <trkpt lat="44.90847" lon="5.72377">
        <ele>1702.9</ele>
        <time>2025-06-21T12:14:03Z</time>
      </trkpt>
      <trkpt lat="44.90848" lon="5.72377">
        <ele>1702.7</ele>
        <time>2025-06-21T12:14:04Z</time>
      </trkpt>
      <trkpt lat="44.90848" lon="5.72386">
        <ele>1699.8</ele>
        <time>2025-06-21T12:14:10Z</time>
      </trkpt>
      <trkpt lat="44.9084" lon="5.72392">
        <ele>1699</ele>
        <time>2025-06-21T12:14:18Z</time>
      </trkpt>
      <trkpt lat="44.9083" lon="5.72398">
        <ele>1698.2</ele>
        <time>2025-06-21T12:14:26Z</time>
      </trkpt>
      <trkpt lat="44.90821" lon="5.72402">
        <ele>1697.6</ele>
        <time>2025-06-21T12:14:34Z</time>
      </trkpt>
      <trkpt lat="44.90812" lon="5.72409">
        <ele>1696.2</ele>
        <time>2025-06-21T12:14:42Z</time>
      </trkpt>
      <trkpt lat="44.90811" lon="5.7241">
        <ele>1696</ele>
        <time>2025-06-21T12:14:43Z</time>
      </trkpt>
      <trkpt lat="44.90804" lon="5.72416">
        <ele>1694.6</ele>
        <time>2025-06-21T12:14:50Z</time>
      </trkpt>
      <trkpt lat="44.90797" lon="5.7242">
        <ele>1694.3</ele>
        <time>2025-06-21T12:14:56Z</time>
      </trkpt>
      <trkpt lat="44.90793" lon="5.72424">
        <ele>1693.7</ele>
        <time>2025-06-21T12:15:00Z</time>
      </trkpt>
      <trkpt lat="44.90787" lon="5.72429">
        <ele>1693.1</ele>
        <time>2025-06-21T12:15:07Z</time>
      </trkpt>
      <trkpt lat="44.90786" lon="5.7243">
        <ele>1693</ele>
        <time>2025-06-21T12:15:08Z</time>
      </trkpt>
      <trkpt lat="44.90783" lon="5.72434">
        <ele>1692.3</ele>
        <time>2025-06-21T12:15:16Z</time>
      </trkpt>
      <trkpt lat="44.90782" lon="5.72437">
        <ele>1691.6</ele>
        <time>2025-06-21T12:15:23Z</time>
      </trkpt>
      <trkpt lat="44.90779" lon="5.72439">
        <ele>1691.3</ele>
        <time>2025-06-21T12:15:26Z</time>
      </trkpt>
      <trkpt lat="44.90776" lon="5.72445">
        <ele>1690</ele>
        <time>2025-06-21T12:15:30Z</time>
      </trkpt>
      <trkpt lat="44.90774" lon="5.72446">
        <ele>1689.9</ele>
        <time>2025-06-21T12:15:32Z</time>
      </trkpt>
      <trkpt lat="44.90772" lon="5.72446">
        <ele>1690.3</ele>
        <time>2025-06-21T12:15:36Z</time>
      </trkpt>
      <trkpt lat="44.90764" lon="5.72453">
        <ele>1689.1</ele>
        <time>2025-06-21T12:15:44Z</time>
      </trkpt>
      <trkpt lat="44.90761" lon="5.72456">
        <ele>1688.7</ele>
        <time>2025-06-21T12:15:47Z</time>
      </trkpt>
      <trkpt lat="44.90755" lon="5.72463">
        <ele>1687.3</ele>
        <time>2025-06-21T12:15:54Z</time>
      </trkpt>
      <trkpt lat="44.90749" lon="5.72467">
        <ele>1686.6</ele>
        <time>2025-06-21T12:16:00Z</time>
      </trkpt>
      <trkpt lat="44.90743" lon="5.72472">
        <ele>1685.7</ele>
        <time>2025-06-21T12:16:05Z</time>
      </trkpt>
      <trkpt lat="44.90736" lon="5.72478">
        <ele>1684.2</ele>
        <time>2025-06-21T12:16:12Z</time>
      </trkpt>
      <trkpt lat="44.90734" lon="5.7248">
        <ele>1683.8</ele>
        <time>2025-06-21T12:16:14Z</time>
      </trkpt>
      <trkpt lat="44.90725" lon="5.72485">
        <ele>1683.1</ele>
        <time>2025-06-21T12:16:22Z</time>
      </trkpt>
      <trkpt lat="44.90718" lon="5.7249">
        <ele>1681.8</ele>
        <time>2025-06-21T12:16:29Z</time>
      </trkpt>
      <trkpt lat="44.9071" lon="5.72493">
        <ele>1680.6</ele>
        <time>2025-06-21T12:16:36Z</time>
      </trkpt>
      <trkpt lat="44.90701" lon="5.725">
        <ele>1678.3</ele>
        <time>2025-06-21T12:16:44Z</time>
      </trkpt>
      <trkpt lat="44.90694" lon="5.72502">
        <ele>1677.2</ele>
        <time>2025-06-21T12:16:51Z</time>
      </trkpt>
      <trkpt lat="44.90684" lon="5.72502">
        <ele>1676.2</ele>
        <time>2025-06-21T12:16:59Z</time>
      </trkpt>
      <trkpt lat="44.90676" lon="5.72502">
        <ele>1675.3</ele>
        <time>2025-06-21T12:17:06Z</time>
      </trkpt>
      <trkpt lat="44.90668" lon="5.72502">
        <ele>1674.5</ele>
        <time>2025-06-21T12:17:13Z</time>
      </trkpt>
      <trkpt lat="44.90661" lon="5.72503">
        <ele>1672.7</ele>
        <time>2025-06-21T12:17:19Z</time>
      </trkpt>
      <trkpt lat="44.90652" lon="5.72503">
        <ele>1671.5</ele>
        <time>2025-06-21T12:17:26Z</time>
      </trkpt>
      <trkpt lat="44.90644" lon="5.72499">
        <ele>1671.1</ele>
        <time>2025-06-21T12:17:33Z</time>
      </trkpt>
      <trkpt lat="44.90636" lon="5.72497">
        <ele>1670.3</ele>
        <time>2025-06-21T12:17:39Z</time>
      </trkpt>
      <trkpt lat="44.90628" lon="5.72493">
        <ele>1668.8</ele>
        <time>2025-06-21T12:17:45Z</time>
      </trkpt>
      <trkpt lat="44.90618" lon="5.72485">
        <ele>1668.4</ele>
        <time>2025-06-21T12:17:55Z</time>
      </trkpt>
      <trkpt lat="44.90611" lon="5.7248">
        <ele>1667.8</ele>
        <time>2025-06-21T12:18:02Z</time>
      </trkpt>
      <trkpt lat="44.90604" lon="5.72477">
        <ele>1667.2</ele>
        <time>2025-06-21T12:18:09Z</time>
      </trkpt>
      <trkpt lat="44.90602" lon="5.72483">
        <ele>1664</ele>
        <time>2025-06-21T12:18:15Z</time>
      </trkpt>
      <trkpt lat="44.90607" lon="5.7249">
        <ele>1662.6</ele>
        <time>2025-06-21T12:18:22Z</time>
      </trkpt>
      <trkpt lat="44.90614" lon="5.72498">
        <ele>1661.6</ele>
        <time>2025-06-21T12:18:30Z</time>
      </trkpt>
      <trkpt lat="44.90615" lon="5.72499">
        <ele>1661.6</ele>
        <time>2025-06-21T12:18:31Z</time>
      </trkpt>
      <trkpt lat="44.90616" lon="5.72501">
        <ele>1661.4</ele>
        <time>2025-06-21T12:18:33Z</time>
      </trkpt>
      <trkpt lat="44.90619" lon="5.72505">
        <ele>1661</ele>
        <time>2025-06-21T12:18:36Z</time>
      </trkpt>
      <trkpt lat="44.90622" lon="5.7251">
        <ele>1660.4</ele>
        <time>2025-06-21T12:18:40Z</time>
      </trkpt>
      <trkpt lat="44.90624" lon="5.72514">
        <ele>1659.7</ele>
        <time>2025-06-21T12:18:43Z</time>
      </trkpt>
      <trkpt lat="44.90629" lon="5.72526">
        <ele>1657.3</ele>
        <time>2025-06-21T12:18:51Z</time>
      </trkpt>
      <trkpt lat="44.90635" lon="5.72536">
        <ele>1655.8</ele>
        <time>2025-06-21T12:18:59Z</time>
      </trkpt>
      <trkpt lat="44.90641" lon="5.72541">
        <ele>1655.6</ele>
        <time>2025-06-21T12:19:04Z</time>
      </trkpt>
      <trkpt lat="44.9065" lon="5.7255">
        <ele>1653.6</ele>
        <time>2025-06-21T12:19:13Z</time>
      </trkpt>
      <trkpt lat="44.90653" lon="5.72552">
        <ele>1653.3</ele>
        <time>2025-06-21T12:19:15Z</time>
      </trkpt>
      <trkpt lat="44.90661" lon="5.7256">
        <ele>1651.4</ele>
        <time>2025-06-21T12:19:23Z</time>
      </trkpt>
      <trkpt lat="44.9067" lon="5.72567">
        <ele>1649.9</ele>
        <time>2025-06-21T12:19:31Z</time>
      </trkpt>
      <trkpt lat="44.9068" lon="5.72572">
        <ele>1649.1</ele>
        <time>2025-06-21T12:19:39Z</time>
      </trkpt>
      <trkpt lat="44.90688" lon="5.72577">
        <ele>1647.8</ele>
        <time>2025-06-21T12:19:46Z</time>
      </trkpt>
      <trkpt lat="44.90697" lon="5.72584">
        <ele>1645.8</ele>
        <time>2025-06-21T12:19:54Z</time>
      </trkpt>
      <trkpt lat="44.9071" lon="5.72591">
        <ele>1644</ele>
        <time>2025-06-21T12:20:05Z</time>
      </trkpt>
      <trkpt lat="44.90721" lon="5.72595">
        <ele>1642.9</ele>
        <time>2025-06-21T12:20:14Z</time>
      </trkpt>
      <trkpt lat="44.90733" lon="5.72597">
        <ele>1640.9</ele>
        <time>2025-06-21T12:20:23Z</time>
      </trkpt>
      <trkpt lat="44.90739" lon="5.72597">
        <ele>1640.2</ele>
        <time>2025-06-21T12:20:28Z</time>
      </trkpt>
      <trkpt lat="44.90752" lon="5.72596">
        <ele>1638.8</ele>
        <time>2025-06-21T12:20:38Z</time>
      </trkpt>
      <trkpt lat="44.90764" lon="5.72594">
        <ele>1637.7</ele>
        <time>2025-06-21T12:20:47Z</time>
      </trkpt>
      <trkpt lat="44.90774" lon="5.72591">
        <ele>1636.6</ele>
        <time>2025-06-21T12:20:55Z</time>
      </trkpt>
      <trkpt lat="44.90784" lon="5.72587">
        <ele>1635.3</ele>
        <time>2025-06-21T12:21:04Z</time>
      </trkpt>
      <trkpt lat="44.90786" lon="5.72588">
        <ele>1634.4</ele>
        <time>2025-06-21T12:21:06Z</time>
      </trkpt>
      <trkpt lat="44.90787" lon="5.7259">
        <ele>1633.3</ele>
        <time>2025-06-21T12:21:08Z</time>
      </trkpt>
      <trkpt lat="44.90782" lon="5.72597">
        <ele>1632.1</ele>
        <time>2025-06-21T12:21:14Z</time>
      </trkpt>
      <trkpt lat="44.9078" lon="5.72602">
        <ele>1631.2</ele>
        <time>2025-06-21T12:21:17Z</time>
      </trkpt>
      <trkpt lat="44.9077" lon="5.72609">
        <ele>1630.3</ele>
        <time>2025-06-21T12:21:27Z</time>
      </trkpt>
      <trkpt lat="44.90767" lon="5.72613">
        <ele>1629.1</ele>
        <time>2025-06-21T12:21:31Z</time>
      </trkpt>
      <trkpt lat="44.90759" lon="5.72617">
        <ele>1628.6</ele>
        <time>2025-06-21T12:21:37Z</time>
      </trkpt>
      <trkpt lat="44.90749" lon="5.72626">
        <ele>1626.3</ele>
        <time>2025-06-21T12:21:47Z</time>
      </trkpt>
      <trkpt lat="44.90739" lon="5.7263">
        <ele>1625.6</ele>
        <time>2025-06-21T12:21:55Z</time>
      </trkpt>
      <trkpt lat="44.9073" lon="5.72634">
        <ele>1624.6</ele>
        <time>2025-06-21T12:22:02Z</time>
      </trkpt>
      <trkpt lat="44.90726" lon="5.72636">
        <ele>1624.1</ele>
        <time>2025-06-21T12:22:06Z</time>
      </trkpt>
      <trkpt lat="44.90718" lon="5.72639">
        <ele>1623</ele>
        <time>2025-06-21T12:22:13Z</time>
      </trkpt>
      <trkpt lat="44.90712" lon="5.72642">
        <ele>1621.2</ele>
        <time>2025-06-21T12:22:17Z</time>
      </trkpt>
      <trkpt lat="44.90704" lon="5.72643">
        <ele>1620.2</ele>
        <time>2025-06-21T12:22:24Z</time>
      </trkpt>
      <trkpt lat="44.90694" lon="5.72641">
        <ele>1620.9</ele>
        <time>2025-06-21T12:22:31Z</time>
      </trkpt>
      <trkpt lat="44.90685" lon="5.72641">
        <ele>1619.6</ele>
        <time>2025-06-21T12:22:38Z</time>
      </trkpt>
      <trkpt lat="44.90677" lon="5.72638">
        <ele>1619.3</ele>
        <time>2025-06-21T12:22:44Z</time>
      </trkpt>
      <trkpt lat="44.90669" lon="5.72636">
        <ele>1618.5</ele>
        <time>2025-06-21T12:22:51Z</time>
      </trkpt>
      <trkpt lat="44.90659" lon="5.72637">
        <ele>1616.5</ele>
        <time>2025-06-21T12:22:59Z</time>
      </trkpt>
      <trkpt lat="44.90649" lon="5.72637">
        <ele>1614.9</ele>
        <time>2025-06-21T12:23:06Z</time>
      </trkpt>
      <trkpt lat="44.9064" lon="5.72636">
        <ele>1613.5</ele>
        <time>2025-06-21T12:23:13Z</time>
      </trkpt>
      <trkpt lat="44.90631" lon="5.72633">
        <ele>1612.9</ele>
        <time>2025-06-21T12:23:20Z</time>
      </trkpt>
      <trkpt lat="44.90623" lon="5.72631">
        <ele>1611.9</ele>
        <time>2025-06-21T12:23:26Z</time>
      </trkpt>
      <trkpt lat="44.90614" lon="5.7263">
        <ele>1610.6</ele>
        <time>2025-06-21T12:23:33Z</time>
      </trkpt>
      <trkpt lat="44.90603" lon="5.72629">
        <ele>1608.2</ele>
        <time>2025-06-21T12:23:42Z</time>
      </trkpt>
      <trkpt lat="44.90594" lon="5.72627">
        <ele>1606.8</ele>
        <time>2025-06-21T12:23:49Z</time>
      </trkpt>
      <trkpt lat="44.90586" lon="5.72621">
        <ele>1607.2</ele>
        <time>2025-06-21T12:23:56Z</time>
      </trkpt>
      <trkpt lat="44.90575" lon="5.72617">
        <ele>1605.8</ele>
        <time>2025-06-21T12:24:04Z</time>
      </trkpt>
      <trkpt lat="44.90566" lon="5.72612">
        <ele>1605</ele>
        <time>2025-06-21T12:24:11Z</time>
      </trkpt>
      <trkpt lat="44.90558" lon="5.72603">
        <ele>1606.2</ele>
        <time>2025-06-21T12:24:19Z</time>
      </trkpt>
      <trkpt lat="44.90556" lon="5.72601">
        <ele>1606.5</ele>
        <time>2025-06-21T12:24:21Z</time>
      </trkpt>
      <trkpt lat="44.90552" lon="5.72604">
        <ele>1603.5</ele>
        <time>2025-06-21T12:24:26Z</time>
      </trkpt>
      <trkpt lat="44.90553" lon="5.72606">
        <ele>1602.7</ele>
        <time>2025-06-21T12:24:28Z</time>
      </trkpt>
      <trkpt lat="44.90558" lon="5.72612">
        <ele>1602.6</ele>
        <time>2025-06-21T12:24:33Z</time>
      </trkpt>
      <trkpt lat="44.90569" lon="5.72622">
        <ele>1601.3</ele>
        <time>2025-06-21T12:24:43Z</time>
      </trkpt>
      <trkpt lat="44.90576" lon="5.7263">
        <ele>1600.1</ele>
        <time>2025-06-21T12:24:50Z</time>
      </trkpt>
      <trkpt lat="44.90584" lon="5.72637">
        <ele>1600</ele>
        <time>2025-06-21T12:24:57Z</time>
      </trkpt>
      <trkpt lat="44.90593" lon="5.72645">
        <ele>1598.7</ele>
        <time>2025-06-21T12:25:05Z</time>
      </trkpt>
      <trkpt lat="44.90601" lon="5.72654">
        <ele>1596.5</ele>
        <time>2025-06-21T12:25:13Z</time>
      </trkpt>
      <trkpt lat="44.9061" lon="5.72664">
        <ele>1594.3</ele>
        <time>2025-06-21T12:25:22Z</time>
      </trkpt>
      <trkpt lat="44.9062" lon="5.72671">
        <ele>1593</ele>
        <time>2025-06-21T12:25:30Z</time>
      </trkpt>
      <trkpt lat="44.90632" lon="5.72676">
        <ele>1593.5</ele>
        <time>2025-06-21T12:25:40Z</time>
      </trkpt>
      <trkpt lat="44.90638" lon="5.7268">
        <ele>1593</ele>
        <time>2025-06-21T12:25:46Z</time>
      </trkpt>
      <trkpt lat="44.90645" lon="5.7269">
        <ele>1590.5</ele>
        <time>2025-06-21T12:25:53Z</time>
      </trkpt>
      <trkpt lat="44.90651" lon="5.72697">
        <ele>1589.2</ele>
        <time>2025-06-21T12:25:59Z</time>
      </trkpt>
      <trkpt lat="44.9066" lon="5.72704">
        <ele>1588.2</ele>
        <time>2025-06-21T12:26:07Z</time>
      </trkpt>
      <trkpt lat="44.90668" lon="5.7271">
        <ele>1587.1</ele>
        <time>2025-06-21T12:26:14Z</time>
      </trkpt>
      <trkpt lat="44.90677" lon="5.72717">
        <ele>1584.4</ele>
        <time>2025-06-21T12:26:22Z</time>
      </trkpt>
      <trkpt lat="44.90686" lon="5.72719">
        <ele>1584</ele>
        <time>2025-06-21T12:26:30Z</time>
      </trkpt>
      <trkpt lat="44.90694" lon="5.72721">
        <ele>1583.6</ele>
        <time>2025-06-21T12:26:36Z</time>
      </trkpt>
      <trkpt lat="44.90704" lon="5.72722">
        <ele>1581.5</ele>
        <time>2025-06-21T12:26:44Z</time>
      </trkpt>
      <trkpt lat="44.90717" lon="5.72719">
        <ele>1580.3</ele>
        <time>2025-06-21T12:26:54Z</time>
      </trkpt>
      <trkpt lat="44.90729" lon="5.72715">
        <ele>1580.1</ele>
        <time>2025-06-21T12:27:03Z</time>
      </trkpt>
      <trkpt lat="44.90741" lon="5.72715">
        <ele>1578.4</ele>
        <time>2025-06-21T12:27:12Z</time>
      </trkpt>
      <trkpt lat="44.90753" lon="5.72714">
        <ele>1576.9</ele>
        <time>2025-06-21T12:27:21Z</time>
      </trkpt>
      <trkpt lat="44.90766" lon="5.72714">
        <ele>1576.6</ele>
        <time>2025-06-21T12:27:31Z</time>
      </trkpt>
      <trkpt lat="44.90768" lon="5.72715">
        <ele>1575.7</ele>
        <time>2025-06-21T12:27:33Z</time>
      </trkpt>
      <trkpt lat="44.90771" lon="5.72716">
        <ele>1575.2</ele>
        <time>2025-06-21T12:27:35Z</time>
      </trkpt>
      <trkpt lat="44.90777" lon="5.72719">
        <ele>1572.6</ele>
        <time>2025-06-21T12:27:41Z</time>
      </trkpt>
      <trkpt lat="44.90784" lon="5.72723">
        <ele>1570.7</ele>
        <time>2025-06-21T12:27:47Z</time>
      </trkpt>
      <trkpt lat="44.90786" lon="5.72724">
        <ele>1570.2</ele>
        <time>2025-06-21T12:27:49Z</time>
      </trkpt>
      <trkpt lat="44.90795" lon="5.72727">
        <ele>1568.5</ele>
        <time>2025-06-21T12:27:56Z</time>
      </trkpt>
      <trkpt lat="44.9081" lon="5.72726">
        <ele>1568.3</ele>
        <time>2025-06-21T12:28:07Z</time>
      </trkpt>
      <trkpt lat="44.90822" lon="5.72725">
        <ele>1566.8</ele>
        <time>2025-06-21T12:28:16Z</time>
      </trkpt>
      <trkpt lat="44.90832" lon="5.72722">
        <ele>1566.2</ele>
        <time>2025-06-21T12:28:24Z</time>
      </trkpt>
      <trkpt lat="44.90842" lon="5.72718">
        <ele>1565.9</ele>
        <time>2025-06-21T12:28:32Z</time>
      </trkpt>
      <trkpt lat="44.90853" lon="5.72716">
        <ele>1564.8</ele>
        <time>2025-06-21T12:28:40Z</time>
      </trkpt>
      <trkpt lat="44.90864" lon="5.72711">
        <ele>1564.5</ele>
        <time>2025-06-21T12:28:49Z</time>
      </trkpt>
      <trkpt lat="44.90873" lon="5.72706">
        <ele>1564.7</ele>
        <time>2025-06-21T12:28:56Z</time>
      </trkpt>
      <trkpt lat="44.90884" lon="5.72704">
        <ele>1563.4</ele>
        <time>2025-06-21T12:29:05Z</time>
      </trkpt>
      <trkpt lat="44.90894" lon="5.72704">
        <ele>1562.7</ele>
        <time>2025-06-21T12:29:13Z</time>
      </trkpt>
      <trkpt lat="44.90904" lon="5.72705">
        <ele>1562.2</ele>
        <time>2025-06-21T12:29:21Z</time>
      </trkpt>
      <trkpt lat="44.90914" lon="5.72708">
        <ele>1561</ele>
        <time>2025-06-21T12:29:29Z</time>
      </trkpt>
      <trkpt lat="44.90927" lon="5.72714">
        <ele>1560</ele>
        <time>2025-06-21T12:29:38Z</time>
      </trkpt>
      <trkpt lat="44.90936" lon="5.72722">
        <ele>1558.4</ele>
        <time>2025-06-21T12:29:47Z</time>
      </trkpt>
      <trkpt lat="44.90944" lon="5.72726">
        <ele>1557.7</ele>
        <time>2025-06-21T12:29:54Z</time>
      </trkpt>
      <trkpt lat="44.90954" lon="5.72734">
        <ele>1556.6</ele>
        <time>2025-06-21T12:30:02Z</time>
      </trkpt>
      <trkpt lat="44.90962" lon="5.72741">
        <ele>1555.2</ele>
        <time>2025-06-21T12:30:10Z</time>
      </trkpt>
      <trkpt lat="44.90973" lon="5.72744">
        <ele>1555.7</ele>
        <time>2025-06-21T12:30:19Z</time>
      </trkpt>
      <trkpt lat="44.90985" lon="5.72746">
        <ele>1556</ele>
        <time>2025-06-21T12:30:28Z</time>
      </trkpt>
      <trkpt lat="44.90996" lon="5.72751">
        <ele>1555.3</ele>
        <time>2025-06-21T12:30:37Z</time>
      </trkpt>
      <trkpt lat="44.91002" lon="5.72761">
        <ele>1552.3</ele>
        <time>2025-06-21T12:30:45Z</time>
      </trkpt>
      <trkpt lat="44.91011" lon="5.72774">
        <ele>1549.2</ele>
        <time>2025-06-21T12:30:55Z</time>
      </trkpt>
      <trkpt lat="44.91019" lon="5.7278">
        <ele>1548.7</ele>
        <time>2025-06-21T12:31:02Z</time>
      </trkpt>
      <trkpt lat="44.91028" lon="5.72787">
        <ele>1547.9</ele>
        <time>2025-06-21T12:31:10Z</time>
      </trkpt>
      <trkpt lat="44.91041" lon="5.72793">
        <ele>1546.5</ele>
        <time>2025-06-21T12:31:20Z</time>
      </trkpt>
      <trkpt lat="44.91051" lon="5.72798">
        <ele>1546.1</ele>
        <time>2025-06-21T12:31:28Z</time>
      </trkpt>
      <trkpt lat="44.91061" lon="5.72804">
        <ele>1545.1</ele>
        <time>2025-06-21T12:31:36Z</time>
      </trkpt>
      <trkpt lat="44.91069" lon="5.72807">
        <ele>1544.2</ele>
        <time>2025-06-21T12:31:43Z</time>
      </trkpt>
      <trkpt lat="44.9108" lon="5.7281">
        <ele>1543.4</ele>
        <time>2025-06-21T12:31:51Z</time>
      </trkpt>
      <trkpt lat="44.91089" lon="5.72814">
        <ele>1542.1</ele>
        <time>2025-06-21T12:31:59Z</time>
      </trkpt>
      <trkpt lat="44.91093" lon="5.72816">
        <ele>1541.7</ele>
        <time>2025-06-21T12:32:03Z</time>
      </trkpt>
      <trkpt lat="44.91094" lon="5.72817">
        <ele>1541.3</ele>
        <time>2025-06-21T12:32:05Z</time>
      </trkpt>
      <trkpt lat="44.91096" lon="5.72816">
        <ele>1541.3</ele>
        <time>2025-06-21T12:32:12Z</time>
      </trkpt>
      <trkpt lat="44.91095" lon="5.72814">
        <ele>1541.6</ele>
        <time>2025-06-21T12:32:27Z</time>
      </trkpt>
      <trkpt lat="44.91096" lon="5.72815">
        <ele>1541.5</ele>
        <time>2025-06-21T12:32:34Z</time>
      </trkpt>
      <trkpt lat="44.91097" lon="5.72815">
        <ele>1541.4</ele>
        <time>2025-06-21T12:32:35Z</time>
      </trkpt>
      <trkpt lat="44.91099" lon="5.72817">
        <ele>1540.8</ele>
        <time>2025-06-21T12:32:38Z</time>
      </trkpt>
      <trkpt lat="44.91103" lon="5.72821">
        <ele>1540</ele>
        <time>2025-06-21T12:32:46Z</time>
      </trkpt>
      <trkpt lat="44.91103" lon="5.72822">
        <ele>1539.9</ele>
        <time>2025-06-21T12:32:54Z</time>
      </trkpt>
      <trkpt lat="44.91105" lon="5.72825">
        <ele>1539.3</ele>
        <time>2025-06-21T12:32:58Z</time>
      </trkpt>
      <trkpt lat="44.91112" lon="5.72836">
        <ele>1537.6</ele>
        <time>2025-06-21T12:33:08Z</time>
      </trkpt>
      <trkpt lat="44.91113" lon="5.72836">
        <ele>1537.4</ele>
        <time>2025-06-21T12:33:15Z</time>
      </trkpt>
      <trkpt lat="44.91114" lon="5.72836">
        <ele>1537.2</ele>
        <time>2025-06-21T12:33:22Z</time>
      </trkpt>
      <trkpt lat="44.91114" lon="5.72836">
        <ele>1537.4</ele>
        <time>2025-06-21T12:33:33Z</time>
      </trkpt>
      <trkpt lat="44.91114" lon="5.72836">
        <ele>1537.3</ele>
        <time>2025-06-21T12:33:49Z</time>
      </trkpt>
      <trkpt lat="44.91114" lon="5.72837">
        <ele>1537.2</ele>
        <time>2025-06-21T12:33:56Z</time>
      </trkpt>
      <trkpt lat="44.91114" lon="5.72837">
        <ele>1537.2</ele>
        <time>2025-06-21T12:34:05Z</time>
      </trkpt>
      <trkpt lat="44.91114" lon="5.72836">
        <ele>1537.3</ele>
        <time>2025-06-21T12:34:19Z</time>
      </trkpt>
      <trkpt lat="44.91114" lon="5.72836">
        <ele>1537.3</ele>
        <time>2025-06-21T12:34:30Z</time>
      </trkpt>
      <trkpt lat="44.91114" lon="5.72836">
        <ele>1537.3</ele>
        <time>2025-06-21T12:34:44Z</time>
      </trkpt>
      <trkpt lat="44.91114" lon="5.72836">
        <ele>1537.3</ele>
        <time>2025-06-21T12:34:57Z</time>
      </trkpt>
      <trkpt lat="44.91116" lon="5.7284">
        <ele>1536.6</ele>
        <time>2025-06-21T12:35:01Z</time>
      </trkpt>
      <trkpt lat="44.9112" lon="5.7285">
        <ele>1535.1</ele>
        <time>2025-06-21T12:35:09Z</time>
      </trkpt>
      <trkpt lat="44.91126" lon="5.72852">
        <ele>1534.4</ele>
        <time>2025-06-21T12:35:16Z</time>
      </trkpt>
      <trkpt lat="44.91128" lon="5.72852">
        <ele>1534.3</ele>
        <time>2025-06-21T12:35:24Z</time>
      </trkpt>
      <trkpt lat="44.91128" lon="5.72851">
        <ele>1534.4</ele>
        <time>2025-06-21T12:35:29Z</time>
      </trkpt>
      <trkpt lat="44.91127" lon="5.7285">
        <ele>1534.6</ele>
        <time>2025-06-21T12:35:36Z</time>
      </trkpt>
      <trkpt lat="44.91126" lon="5.72847">
        <ele>1535</ele>
        <time>2025-06-21T12:36:03Z</time>
      </trkpt>
      <trkpt lat="44.91125" lon="5.72845">
        <ele>1535.2</ele>
        <time>2025-06-21T12:36:25Z</time>
      </trkpt>
      <trkpt lat="44.91126" lon="5.72845">
        <ele>1535.1</ele>
        <time>2025-06-21T12:36:42Z</time>
      </trkpt>
      <trkpt lat="44.91126" lon="5.72845">
        <ele>1535.1</ele>
        <time>2025-06-21T12:37:02Z</time>
      </trkpt>
      <trkpt lat="44.91126" lon="5.72846">
        <ele>1535.1</ele>
        <time>2025-06-21T12:37:16Z</time>
      </trkpt>
      <trkpt lat="44.91126" lon="5.72846">
        <ele>1535.1</ele>
        <time>2025-06-21T12:37:33Z</time>
      </trkpt>
      <trkpt lat="44.91126" lon="5.72846">
        <ele>1535</ele>
        <time>2025-06-21T12:37:51Z</time>
      </trkpt>
      <trkpt lat="44.91126" lon="5.72848">
        <ele>1534.8</ele>
        <time>2025-06-21T12:38:06Z</time>
      </trkpt>
      <trkpt lat="44.91127" lon="5.7285">
        <ele>1534.6</ele>
        <time>2025-06-21T12:38:26Z</time>
      </trkpt>
      <trkpt lat="44.91128" lon="5.7285">
        <ele>1534.5</ele>
        <time>2025-06-21T12:38:47Z</time>
      </trkpt>
      <trkpt lat="44.91128" lon="5.72851">
        <ele>1534.4</ele>
        <time>2025-06-21T12:38:58Z</time>
      </trkpt>
      <trkpt lat="44.91128" lon="5.72851">
        <ele>1534.5</ele>
        <time>2025-06-21T12:39:08Z</time>
      </trkpt>
      <trkpt lat="44.91128" lon="5.72851">
        <ele>1534.5</ele>
        <time>2025-06-21T12:39:17Z</time>
      </trkpt>
      <trkpt lat="44.91128" lon="5.72852">
        <ele>1534.3</ele>
        <time>2025-06-21T12:39:25Z</time>
      </trkpt>
      <trkpt lat="44.91129" lon="5.72853">
        <ele>1534.1</ele>
        <time>2025-06-21T12:39:34Z</time>
      </trkpt>
      <trkpt lat="44.91129" lon="5.72854">
        <ele>1534</ele>
        <time>2025-06-21T12:39:46Z</time>
      </trkpt>
      <trkpt lat="44.91129" lon="5.72854">
        <ele>1534.1</ele>
        <time>2025-06-21T12:39:54Z</time>
      </trkpt>
      <trkpt lat="44.91129" lon="5.72854">
        <ele>1534.1</ele>
        <time>2025-06-21T12:40:03Z</time>
      </trkpt>
      <trkpt lat="44.9113" lon="5.72854">
        <ele>1533.9</ele>
        <time>2025-06-21T12:40:10Z</time>
      </trkpt>
      <trkpt lat="44.91131" lon="5.72855">
        <ele>1533.9</ele>
        <time>2025-06-21T12:40:21Z</time>
      </trkpt>
      <trkpt lat="44.91136" lon="5.7285">
        <ele>1534</ele>
        <time>2025-06-21T12:40:28Z</time>
      </trkpt>
      <trkpt lat="44.91141" lon="5.72848">
        <ele>1533.6</ele>
        <time>2025-06-21T12:40:35Z</time>
      </trkpt>
      <trkpt lat="44.91148" lon="5.72848">
        <ele>1532.6</ele>
        <time>2025-06-21T12:40:43Z</time>
      </trkpt>
      <trkpt lat="44.91149" lon="5.72849">
        <ele>1532.5</ele>
        <time>2025-06-21T12:40:44Z</time>
      </trkpt>
      <trkpt lat="44.9115" lon="5.72848">
        <ele>1532.3</ele>
        <time>2025-06-21T12:40:46Z</time>
      </trkpt>
      <trkpt lat="44.91154" lon="5.72847">
        <ele>1531.9</ele>
        <time>2025-06-21T12:40:50Z</time>
      </trkpt>
      <trkpt lat="44.91159" lon="5.72846">
        <ele>1531.2</ele>
        <time>2025-06-21T12:40:56Z</time>
      </trkpt>
      <trkpt lat="44.91165" lon="5.72838">
        <ele>1530.3</ele>
        <time>2025-06-21T12:41:05Z</time>
      </trkpt>
      <trkpt lat="44.9117" lon="5.72829">
        <ele>1529.1</ele>
        <time>2025-06-21T12:41:13Z</time>
      </trkpt>
      <trkpt lat="44.91174" lon="5.72816">
        <ele>1527.2</ele>
        <time>2025-06-21T12:41:22Z</time>
      </trkpt>
      <trkpt lat="44.91175" lon="5.72811">
        <ele>1526.3</ele>
        <time>2025-06-21T12:41:25Z</time>
      </trkpt>
      <trkpt lat="44.91176" lon="5.728">
        <ele>1525.1</ele>
        <time>2025-06-21T12:41:33Z</time>
      </trkpt>
      <trkpt lat="44.91178" lon="5.72791">
        <ele>1523.8</ele>
        <time>2025-06-21T12:41:39Z</time>
      </trkpt>
      <trkpt lat="44.91177" lon="5.72777">
        <ele>1523</ele>
        <time>2025-06-21T12:41:49Z</time>
      </trkpt>
      <trkpt lat="44.91176" lon="5.72768">
        <ele>1522.8</ele>
        <time>2025-06-21T12:41:56Z</time>
      </trkpt>
      <trkpt lat="44.91176" lon="5.72764">
        <ele>1522.4</ele>
        <time>2025-06-21T12:41:59Z</time>
      </trkpt>
      <trkpt lat="44.91176" lon="5.72756">
        <ele>1522.3</ele>
        <time>2025-06-21T12:42:05Z</time>
      </trkpt>
      <trkpt lat="44.91175" lon="5.72743">
        <ele>1522</ele>
        <time>2025-06-21T12:42:14Z</time>
      </trkpt>
      <trkpt lat="44.91175" lon="5.72733">
        <ele>1522</ele>
        <time>2025-06-21T12:42:21Z</time>
      </trkpt>
      <trkpt lat="44.91175" lon="5.72722">
        <ele>1521.7</ele>
        <time>2025-06-21T12:42:28Z</time>
      </trkpt>
      <trkpt lat="44.91174" lon="5.72721">
        <ele>1521.9</ele>
        <time>2025-06-21T12:42:29Z</time>
      </trkpt>
      <trkpt lat="44.91175" lon="5.72707">
        <ele>1521.7</ele>
        <time>2025-06-21T12:42:38Z</time>
      </trkpt>
      <trkpt lat="44.91177" lon="5.72702">
        <ele>1521.1</ele>
        <time>2025-06-21T12:42:43Z</time>
      </trkpt>
      <trkpt lat="44.91179" lon="5.72694">
        <ele>1520.2</ele>
        <time>2025-06-21T12:42:50Z</time>
      </trkpt>
      <trkpt lat="44.91181" lon="5.7269">
        <ele>1519.5</ele>
        <time>2025-06-21T12:42:56Z</time>
      </trkpt>
      <trkpt lat="44.91183" lon="5.72689">
        <ele>1518.5</ele>
        <time>2025-06-21T12:43:00Z</time>
      </trkpt>
      <trkpt lat="44.91188" lon="5.72684">
        <ele>1516.3</ele>
        <time>2025-06-21T12:43:08Z</time>
      </trkpt>
      <trkpt lat="44.91192" lon="5.72678">
        <ele>1514.6</ele>
        <time>2025-06-21T12:43:14Z</time>
      </trkpt>
      <trkpt lat="44.91197" lon="5.72669">
        <ele>1512.9</ele>
        <time>2025-06-21T12:43:23Z</time>
      </trkpt>
      <trkpt lat="44.91198" lon="5.72668">
        <ele>1512.5</ele>
        <time>2025-06-21T12:43:29Z</time>
      </trkpt>
      <trkpt lat="44.912" lon="5.72662">
        <ele>1511.1</ele>
        <time>2025-06-21T12:43:34Z</time>
      </trkpt>
      <trkpt lat="44.91201" lon="5.72651">
        <ele>1510.4</ele>
        <time>2025-06-21T12:43:42Z</time>
      </trkpt>
      <trkpt lat="44.91204" lon="5.72647">
        <ele>1509</ele>
        <time>2025-06-21T12:43:45Z</time>
      </trkpt>
      <trkpt lat="44.91205" lon="5.72646">
        <ele>1508.2</ele>
        <time>2025-06-21T12:43:47Z</time>
      </trkpt>
      <trkpt lat="44.91208" lon="5.72647">
        <ele>1507</ele>
        <time>2025-06-21T12:43:52Z</time>
      </trkpt>
      <trkpt lat="44.91209" lon="5.72649">
        <ele>1506.5</ele>
        <time>2025-06-21T12:43:59Z</time>
      </trkpt>
      <trkpt lat="44.91208" lon="5.72649">
        <ele>1506.9</ele>
        <time>2025-06-21T12:44:06Z</time>
      </trkpt>
      <trkpt lat="44.91212" lon="5.72654">
        <ele>1505.5</ele>
        <time>2025-06-21T12:44:11Z</time>
      </trkpt>
      <trkpt lat="44.91215" lon="5.72659">
        <ele>1504.3</ele>
        <time>2025-06-21T12:44:17Z</time>
      </trkpt>
      <trkpt lat="44.91216" lon="5.72659">
        <ele>1503.7</ele>
        <time>2025-06-21T12:44:19Z</time>
      </trkpt>
      <trkpt lat="44.9122" lon="5.72663">
        <ele>1502</ele>
        <time>2025-06-21T12:44:23Z</time>
      </trkpt>
      <trkpt lat="44.91221" lon="5.72668">
        <ele>1501.7</ele>
        <time>2025-06-21T12:44:26Z</time>
      </trkpt>
      <trkpt lat="44.91225" lon="5.72675">
        <ele>1499.6</ele>
        <time>2025-06-21T12:44:34Z</time>
      </trkpt>
      <trkpt lat="44.91228" lon="5.72686">
        <ele>1497.9</ele>
        <time>2025-06-21T12:44:42Z</time>
      </trkpt>
      <trkpt lat="44.9123" lon="5.72695">
        <ele>1496.6</ele>
        <time>2025-06-21T12:44:50Z</time>
      </trkpt>
      <trkpt lat="44.91233" lon="5.72704">
        <ele>1494.6</ele>
        <time>2025-06-21T12:44:58Z</time>
      </trkpt>
      <trkpt lat="44.91234" lon="5.7271">
        <ele>1493.6</ele>
        <time>2025-06-21T12:45:02Z</time>
      </trkpt>
      <trkpt lat="44.91232" lon="5.72718">
        <ele>1493.6</ele>
        <time>2025-06-21T12:45:07Z</time>
      </trkpt>
      <trkpt lat="44.91232" lon="5.7272">
        <ele>1493.4</ele>
        <time>2025-06-21T12:45:09Z</time>
      </trkpt>
      <trkpt lat="44.91236" lon="5.72726">
        <ele>1490.9</ele>
        <time>2025-06-21T12:45:16Z</time>
      </trkpt>
      <trkpt lat="44.91238" lon="5.72727">
        <ele>1490.1</ele>
        <time>2025-06-21T12:45:18Z</time>
      </trkpt>
      <trkpt lat="44.91244" lon="5.72718">
        <ele>1488.2</ele>
        <time>2025-06-21T12:45:26Z</time>
      </trkpt>
      <trkpt lat="44.91249" lon="5.72711">
        <ele>1486.5</ele>
        <time>2025-06-21T12:45:32Z</time>
      </trkpt>
      <trkpt lat="44.91255" lon="5.727">
        <ele>1485.3</ele>
        <time>2025-06-21T12:45:40Z</time>
      </trkpt>
      <trkpt lat="44.91258" lon="5.72693">
        <ele>1484.6</ele>
        <time>2025-06-21T12:45:46Z</time>
      </trkpt>
      <trkpt lat="44.91262" lon="5.72685">
        <ele>1483.3</ele>
        <time>2025-06-21T12:45:53Z</time>
      </trkpt>
      <trkpt lat="44.91263" lon="5.72679">
        <ele>1482.8</ele>
        <time>2025-06-21T12:45:58Z</time>
      </trkpt>
      <trkpt lat="44.91265" lon="5.72675">
        <ele>1482.2</ele>
        <time>2025-06-21T12:46:01Z</time>
      </trkpt>
      <trkpt lat="44.91266" lon="5.72665">
        <ele>1482.1</ele>
        <time>2025-06-21T12:46:09Z</time>
      </trkpt>
      <trkpt lat="44.91267" lon="5.72662">
        <ele>1481.6</ele>
        <time>2025-06-21T12:46:13Z</time>
      </trkpt>
      <trkpt lat="44.91272" lon="5.72655">
        <ele>1479.6</ele>
        <time>2025-06-21T12:46:22Z</time>
      </trkpt>
      <trkpt lat="44.91277" lon="5.72648">
        <ele>1477.8</ele>
        <time>2025-06-21T12:46:30Z</time>
      </trkpt>
      <trkpt lat="44.9128" lon="5.72644">
        <ele>1477</ele>
        <time>2025-06-21T12:46:35Z</time>
      </trkpt>
      <trkpt lat="44.91282" lon="5.72641">
        <ele>1476.5</ele>
        <time>2025-06-21T12:46:38Z</time>
      </trkpt>
      <trkpt lat="44.91286" lon="5.72637">
        <ele>1474.9</ele>
        <time>2025-06-21T12:46:44Z</time>
      </trkpt>
      <trkpt lat="44.91291" lon="5.72632">
        <ele>1472.9</ele>
        <time>2025-06-21T12:46:52Z</time>
      </trkpt>
      <trkpt lat="44.91292" lon="5.72633">
        <ele>1472.5</ele>
        <time>2025-06-21T12:46:54Z</time>
      </trkpt>
      <trkpt lat="44.91296" lon="5.7264">
        <ele>1471.2</ele>
        <time>2025-06-21T12:47:01Z</time>
      </trkpt>
      <trkpt lat="44.913" lon="5.72644">
        <ele>1469.6</ele>
        <time>2025-06-21T12:47:07Z</time>
      </trkpt>
      <trkpt lat="44.91302" lon="5.72645">
        <ele>1468.5</ele>
        <time>2025-06-21T12:47:10Z</time>
      </trkpt>
      <trkpt lat="44.9131" lon="5.72643">
        <ele>1466</ele>
        <time>2025-06-21T12:47:19Z</time>
      </trkpt>
      <trkpt lat="44.91316" lon="5.72638">
        <ele>1464.1</ele>
        <time>2025-06-21T12:47:27Z</time>
      </trkpt>
      <trkpt lat="44.9132" lon="5.72636">
        <ele>1462.8</ele>
        <time>2025-06-21T12:47:34Z</time>
      </trkpt>
      <trkpt lat="44.91324" lon="5.72633">
        <ele>1461.4</ele>
        <time>2025-06-21T12:47:40Z</time>
      </trkpt>
      <trkpt lat="44.91328" lon="5.72631">
        <ele>1460.2</ele>
        <time>2025-06-21T12:47:44Z</time>
      </trkpt>
      <trkpt lat="44.91334" lon="5.72627">
        <ele>1458.2</ele>
        <time>2025-06-21T12:47:52Z</time>
      </trkpt>
      <trkpt lat="44.91337" lon="5.72625">
        <ele>1457.3</ele>
        <time>2025-06-21T12:47:59Z</time>
      </trkpt>
      <trkpt lat="44.9134" lon="5.72623">
        <ele>1456.5</ele>
        <time>2025-06-21T12:48:08Z</time>
      </trkpt>
      <trkpt lat="44.91342" lon="5.72622">
        <ele>1455.8</ele>
        <time>2025-06-21T12:48:11Z</time>
      </trkpt>
      <trkpt lat="44.91346" lon="5.72619">
        <ele>1454.9</ele>
        <time>2025-06-21T12:48:15Z</time>
      </trkpt>
      <trkpt lat="44.9135" lon="5.72617">
        <ele>1453.7</ele>
        <time>2025-06-21T12:48:19Z</time>
      </trkpt>
      <trkpt lat="44.91357" lon="5.72616">
        <ele>1451.8</ele>
        <time>2025-06-21T12:48:25Z</time>
      </trkpt>
      <trkpt lat="44.9136" lon="5.72614">
        <ele>1451.1</ele>
        <time>2025-06-21T12:48:28Z</time>
      </trkpt>
      <trkpt lat="44.91365" lon="5.72612">
        <ele>1449.7</ele>
        <time>2025-06-21T12:48:33Z</time>
      </trkpt>
      <trkpt lat="44.91373" lon="5.72607">
        <ele>1447.3</ele>
        <time>2025-06-21T12:48:42Z</time>
      </trkpt>
      <trkpt lat="44.91378" lon="5.72607">
        <ele>1445.6</ele>
        <time>2025-06-21T12:48:48Z</time>
      </trkpt>
      <trkpt lat="44.91381" lon="5.72618">
        <ele>1443.4</ele>
        <time>2025-06-21T12:48:56Z</time>
      </trkpt>
      <trkpt lat="44.91381" lon="5.72619">
        <ele>1443</ele>
        <time>2025-06-21T12:48:57Z</time>
      </trkpt>
      <trkpt lat="44.91381" lon="5.72633">
        <ele>1440.4</ele>
        <time>2025-06-21T12:49:06Z</time>
      </trkpt>
      <trkpt lat="44.91379" lon="5.72647">
        <ele>1438.8</ele>
        <time>2025-06-21T12:49:15Z</time>
      </trkpt>
      <trkpt lat="44.91372" lon="5.7266">
        <ele>1439.2</ele>
        <time>2025-06-21T12:49:24Z</time>
      </trkpt>
      <trkpt lat="44.91366" lon="5.72675">
        <ele>1439.4</ele>
        <time>2025-06-21T12:49:33Z</time>
      </trkpt>
      <trkpt lat="44.91364" lon="5.72686">
        <ele>1439</ele>
        <time>2025-06-21T12:49:40Z</time>
      </trkpt>
      <trkpt lat="44.91361" lon="5.72698">
        <ele>1438</ele>
        <time>2025-06-21T12:49:47Z</time>
      </trkpt>
      <trkpt lat="44.91359" lon="5.72705">
        <ele>1437.8</ele>
        <time>2025-06-21T12:49:52Z</time>
      </trkpt>
      <trkpt lat="44.91357" lon="5.72713">
        <ele>1437.2</ele>
        <time>2025-06-21T12:49:57Z</time>
      </trkpt>
      <trkpt lat="44.91353" lon="5.7272">
        <ele>1437.4</ele>
        <time>2025-06-21T12:50:02Z</time>
      </trkpt>
      <trkpt lat="44.91349" lon="5.72727">
        <ele>1437.8</ele>
        <time>2025-06-21T12:50:07Z</time>
      </trkpt>
      <trkpt lat="44.91346" lon="5.72734">
        <ele>1438.5</ele>
        <time>2025-06-21T12:50:12Z</time>
      </trkpt>
      <trkpt lat="44.91339" lon="5.72747">
        <ele>1439.4</ele>
        <time>2025-06-21T12:50:21Z</time>
      </trkpt>
      <trkpt lat="44.91338" lon="5.72749">
        <ele>1439.4</ele>
        <time>2025-06-21T12:50:22Z</time>
      </trkpt>
      <trkpt lat="44.91337" lon="5.72754">
        <ele>1439.9</ele>
        <time>2025-06-21T12:50:25Z</time>
      </trkpt>
      <trkpt lat="44.91335" lon="5.72764">
        <ele>1442.1</ele>
        <time>2025-06-21T12:50:32Z</time>
      </trkpt>
      <trkpt lat="44.91335" lon="5.72772">
        <ele>1442.8</ele>
        <time>2025-06-21T12:50:40Z</time>
      </trkpt>
      <trkpt lat="44.91336" lon="5.72774">
        <ele>1442.9</ele>
        <time>2025-06-21T12:50:41Z</time>
      </trkpt>
      <trkpt lat="44.91336" lon="5.72785">
        <ele>1445</ele>
        <time>2025-06-21T12:50:48Z</time>
      </trkpt>
      <trkpt lat="44.9134" lon="5.72789">
        <ele>1444.7</ele>
        <time>2025-06-21T12:50:53Z</time>
      </trkpt>
      <trkpt lat="44.91342" lon="5.72789">
        <ele>1444.2</ele>
        <time>2025-06-21T12:50:55Z</time>
      </trkpt>
      <trkpt lat="44.91349" lon="5.72795">
        <ele>1443</ele>
        <time>2025-06-21T12:51:03Z</time>
      </trkpt>
      <trkpt lat="44.91353" lon="5.72805">
        <ele>1443.7</ele>
        <time>2025-06-21T12:51:10Z</time>
      </trkpt>
      <trkpt lat="44.91358" lon="5.72811">
        <ele>1442.6</ele>
        <time>2025-06-21T12:51:15Z</time>
      </trkpt>
      <trkpt lat="44.9136" lon="5.72814">
        <ele>1441.8</ele>
        <time>2025-06-21T12:51:19Z</time>
      </trkpt>
      <trkpt lat="44.91363" lon="5.72821">
        <ele>1440.9</ele>
        <time>2025-06-21T12:51:27Z</time>
      </trkpt>
      <trkpt lat="44.91364" lon="5.72823">
        <ele>1440.4</ele>
        <time>2025-06-21T12:51:33Z</time>
      </trkpt>
      <trkpt lat="44.91365" lon="5.72826">
        <ele>1439.9</ele>
        <time>2025-06-21T12:51:38Z</time>
      </trkpt>
      <trkpt lat="44.91368" lon="5.72835">
        <ele>1438.7</ele>
        <time>2025-06-21T12:51:45Z</time>
      </trkpt>
      <trkpt lat="44.91369" lon="5.72837">
        <ele>1438.4</ele>
        <time>2025-06-21T12:51:46Z</time>
      </trkpt>
      <trkpt lat="44.91369" lon="5.72846">
        <ele>1438</ele>
        <time>2025-06-21T12:51:51Z</time>
      </trkpt>
      <trkpt lat="44.91371" lon="5.72854">
        <ele>1437</ele>
        <time>2025-06-21T12:51:57Z</time>
      </trkpt>
      <trkpt lat="44.91374" lon="5.72862">
        <ele>1435.1</ele>
        <time>2025-06-21T12:52:04Z</time>
      </trkpt>
      <trkpt lat="44.91378" lon="5.72873">
        <ele>1431.8</ele>
        <time>2025-06-21T12:52:11Z</time>
      </trkpt>
      <trkpt lat="44.9138" lon="5.72879">
        <ele>1430.7</ele>
        <time>2025-06-21T12:52:14Z</time>
      </trkpt>
      <trkpt lat="44.91383" lon="5.72887">
        <ele>1427.9</ele>
        <time>2025-06-21T12:52:18Z</time>
      </trkpt>
      <trkpt lat="44.91387" lon="5.72896">
        <ele>1424.7</ele>
        <time>2025-06-21T12:52:23Z</time>
      </trkpt>
      <trkpt lat="44.9139" lon="5.72911">
        <ele>1420.6</ele>
        <time>2025-06-21T12:52:30Z</time>
      </trkpt>
      <trkpt lat="44.91391" lon="5.72914">
        <ele>1419.8</ele>
        <time>2025-06-21T12:52:31Z</time>
      </trkpt>
      <trkpt lat="44.91389" lon="5.72924">
        <ele>1420.3</ele>
        <time>2025-06-21T12:52:38Z</time>
      </trkpt>
      <trkpt lat="44.91386" lon="5.72928">
        <ele>1421.7</ele>
        <time>2025-06-21T12:52:42Z</time>
      </trkpt>
      <trkpt lat="44.91386" lon="5.72937">
        <ele>1420.6</ele>
        <time>2025-06-21T12:52:50Z</time>
      </trkpt>
      <trkpt lat="44.91386" lon="5.72938">
        <ele>1420.6</ele>
        <time>2025-06-21T12:52:54Z</time>
      </trkpt>
      <trkpt lat="44.91386" lon="5.72945">
        <ele>1420</ele>
        <time>2025-06-21T12:52:59Z</time>
      </trkpt>
      <trkpt lat="44.91383" lon="5.72953">
        <ele>1421.9</ele>
        <time>2025-06-21T12:53:06Z</time>
      </trkpt>
      <trkpt lat="44.91387" lon="5.7296">
        <ele>1418.7</ele>
        <time>2025-06-21T12:53:14Z</time>
      </trkpt>
      <trkpt lat="44.91388" lon="5.72965">
        <ele>1418.3</ele>
        <time>2025-06-21T12:53:20Z</time>
      </trkpt>
      <trkpt lat="44.91389" lon="5.72974">
        <ele>1417</ele>
        <time>2025-06-21T12:53:27Z</time>
      </trkpt>
      <trkpt lat="44.91388" lon="5.72983">
        <ele>1418.7</ele>
        <time>2025-06-21T12:53:32Z</time>
      </trkpt>
      <trkpt lat="44.91388" lon="5.72989">
        <ele>1418.5</ele>
        <time>2025-06-21T12:53:35Z</time>
      </trkpt>
      <trkpt lat="44.91389" lon="5.73">
        <ele>1419.2</ele>
        <time>2025-06-21T12:53:43Z</time>
      </trkpt>
      <trkpt lat="44.91389" lon="5.73001">
        <ele>1419.2</ele>
        <time>2025-06-21T12:53:45Z</time>
      </trkpt>
      <trkpt lat="44.9139" lon="5.73002">
        <ele>1418.6</ele>
        <time>2025-06-21T12:53:47Z</time>
      </trkpt>
      <trkpt lat="44.91393" lon="5.73002">
        <ele>1416.8</ele>
        <time>2025-06-21T12:53:51Z</time>
      </trkpt>
      <trkpt lat="44.91394" lon="5.73005">
        <ele>1416.8</ele>
        <time>2025-06-21T12:53:57Z</time>
      </trkpt>
      <trkpt lat="44.91396" lon="5.73008">
        <ele>1416.5</ele>
        <time>2025-06-21T12:54:02Z</time>
      </trkpt>
      <trkpt lat="44.91396" lon="5.7301">
        <ele>1416.8</ele>
        <time>2025-06-21T12:54:04Z</time>
      </trkpt>
      <trkpt lat="44.91395" lon="5.73013">
        <ele>1418.2</ele>
        <time>2025-06-21T12:54:08Z</time>
      </trkpt>
      <trkpt lat="44.91394" lon="5.73016">
        <ele>1419.1</ele>
        <time>2025-06-21T12:54:12Z</time>
      </trkpt>
      <trkpt lat="44.91395" lon="5.73019">
        <ele>1419</ele>
        <time>2025-06-21T12:54:15Z</time>
      </trkpt>
      <trkpt lat="44.91396" lon="5.73024">
        <ele>1419.7</ele>
        <time>2025-06-21T12:54:18Z</time>
      </trkpt>
      <trkpt lat="44.91399" lon="5.73027">
        <ele>1418.9</ele>
        <time>2025-06-21T12:54:23Z</time>
      </trkpt>
      <trkpt lat="44.91401" lon="5.7303">
        <ele>1418.9</ele>
        <time>2025-06-21T12:54:26Z</time>
      </trkpt>
      <trkpt lat="44.91408" lon="5.73037">
        <ele>1418.7</ele>
        <time>2025-06-21T12:54:31Z</time>
      </trkpt>
      <trkpt lat="44.91421" lon="5.73044">
        <ele>1417.1</ele>
        <time>2025-06-21T12:54:41Z</time>
      </trkpt>
      <trkpt lat="44.91427" lon="5.73047">
        <ele>1417.7</ele>
        <time>2025-06-21T12:54:46Z</time>
      </trkpt>
      <trkpt lat="44.91432" lon="5.73049">
        <ele>1417.6</ele>
        <time>2025-06-21T12:54:50Z</time>
      </trkpt>
      <trkpt lat="44.91438" lon="5.73053">
        <ele>1418.3</ele>
        <time>2025-06-21T12:54:56Z</time>
      </trkpt>
      <trkpt lat="44.91446" lon="5.7306">
        <ele>1419.2</ele>
        <time>2025-06-21T12:55:04Z</time>
      </trkpt>
      <trkpt lat="44.91455" lon="5.73066">
        <ele>1420.2</ele>
        <time>2025-06-21T12:55:12Z</time>
      </trkpt>
      <trkpt lat="44.91464" lon="5.73074">
        <ele>1420.6</ele>
        <time>2025-06-21T12:55:20Z</time>
      </trkpt>
      <trkpt lat="44.9147" lon="5.73086">
        <ele>1421.1</ele>
        <time>2025-06-21T12:55:27Z</time>
      </trkpt>
      <trkpt lat="44.91472" lon="5.7309">
        <ele>1421.3</ele>
        <time>2025-06-21T12:55:30Z</time>
      </trkpt>
      <trkpt lat="44.91478" lon="5.73098">
        <ele>1421.4</ele>
        <time>2025-06-21T12:55:37Z</time>
      </trkpt>
      <trkpt lat="44.91483" lon="5.73102">
        <ele>1421</ele>
        <time>2025-06-21T12:55:41Z</time>
      </trkpt>
      <trkpt lat="44.91488" lon="5.7311">
        <ele>1420.4</ele>
        <time>2025-06-21T12:55:50Z</time>
      </trkpt>
      <trkpt lat="44.91492" lon="5.73115">
        <ele>1419.7</ele>
        <time>2025-06-21T12:55:55Z</time>
      </trkpt>
      <trkpt lat="44.91495" lon="5.73117">
        <ele>1419.4</ele>
        <time>2025-06-21T12:55:58Z</time>
      </trkpt>
      <trkpt lat="44.915" lon="5.73129">
        <ele>1418.9</ele>
        <time>2025-06-21T12:56:06Z</time>
      </trkpt>
      <trkpt lat="44.91506" lon="5.7314">
        <ele>1419.1</ele>
        <time>2025-06-21T12:56:13Z</time>
      </trkpt>
      <trkpt lat="44.91509" lon="5.73144">
        <ele>1419.7</ele>
        <time>2025-06-21T12:56:16Z</time>
      </trkpt>
      <trkpt lat="44.91517" lon="5.73147">
        <ele>1419.2</ele>
        <time>2025-06-21T12:56:25Z</time>
      </trkpt>
      <trkpt lat="44.91517" lon="5.73148">
        <ele>1419.5</ele>
        <time>2025-06-21T12:56:35Z</time>
      </trkpt>
      <trkpt lat="44.91521" lon="5.73149">
        <ele>1419.1</ele>
        <time>2025-06-21T12:56:42Z</time>
      </trkpt>
      <trkpt lat="44.91526" lon="5.73151">
        <ele>1418.9</ele>
        <time>2025-06-21T12:56:49Z</time>
      </trkpt>
      <trkpt lat="44.91527" lon="5.73152">
        <ele>1418.9</ele>
        <time>2025-06-21T12:56:55Z</time>
      </trkpt>
      <trkpt lat="44.91529" lon="5.73155">
        <ele>1419.4</ele>
        <time>2025-06-21T12:57:01Z</time>
      </trkpt>
      <trkpt lat="44.9153" lon="5.73156">
        <ele>1419.4</ele>
        <time>2025-06-21T12:57:16Z</time>
      </trkpt>
      <trkpt lat="44.9153" lon="5.73155">
        <ele>1419.3</ele>
        <time>2025-06-21T12:57:31Z</time>
      </trkpt>
      <trkpt lat="44.9153" lon="5.73154">
        <ele>1419.1</ele>
        <time>2025-06-21T12:57:40Z</time>
      </trkpt>
      <trkpt lat="44.9153" lon="5.73154">
        <ele>1419</ele>
        <time>2025-06-21T12:57:55Z</time>
      </trkpt>
      <trkpt lat="44.9153" lon="5.73154">
        <ele>1419.1</ele>
        <time>2025-06-21T12:58:07Z</time>
      </trkpt>
      <trkpt lat="44.9153" lon="5.73154">
        <ele>1418.8</ele>
        <time>2025-06-21T12:58:18Z</time>
      </trkpt>
      <trkpt lat="44.9153" lon="5.73154">
        <ele>1418.8</ele>
        <time>2025-06-21T12:58:37Z</time>
      </trkpt>
      <trkpt lat="44.91531" lon="5.73155">
        <ele>1418.9</ele>
        <time>2025-06-21T12:58:48Z</time>
      </trkpt>
      <trkpt lat="44.91537" lon="5.73158">
        <ele>1418.9</ele>
        <time>2025-06-21T12:58:56Z</time>
      </trkpt>
      <trkpt lat="44.91535" lon="5.73161">
        <ele>1420.1</ele>
        <time>2025-06-21T12:59:03Z</time>
      </trkpt>
      <trkpt lat="44.91536" lon="5.73163">
        <ele>1420.3</ele>
        <time>2025-06-21T12:59:06Z</time>
      </trkpt>
      <trkpt lat="44.91538" lon="5.73163">
        <ele>1420</ele>
        <time>2025-06-21T12:59:08Z</time>
      </trkpt>
      <trkpt lat="44.91544" lon="5.73169">
        <ele>1420.6</ele>
        <time>2025-06-21T12:59:14Z</time>
      </trkpt>
      <trkpt lat="44.91554" lon="5.73173">
        <ele>1419.6</ele>
        <time>2025-06-21T12:59:24Z</time>
      </trkpt>
      <trkpt lat="44.91556" lon="5.73175">
        <ele>1419.8</ele>
        <time>2025-06-21T12:59:26Z</time>
      </trkpt>
      <trkpt lat="44.9156" lon="5.73177">
        <ele>1419.5</ele>
        <time>2025-06-21T12:59:30Z</time>
      </trkpt>
      <trkpt lat="44.91563" lon="5.7318">
        <ele>1419.7</ele>
        <time>2025-06-21T12:59:33Z</time>
      </trkpt>
      <trkpt lat="44.91565" lon="5.73184">
        <ele>1420.3</ele>
        <time>2025-06-21T12:59:37Z</time>
      </trkpt>
      <trkpt lat="44.91567" lon="5.73187">
        <ele>1420.7</ele>
        <time>2025-06-21T12:59:39Z</time>
      </trkpt>
      <trkpt lat="44.9157" lon="5.73191">
        <ele>1421.1</ele>
        <time>2025-06-21T12:59:43Z</time>
      </trkpt>
      <trkpt lat="44.91575" lon="5.73202">
        <ele>1422.7</ele>
        <time>2025-06-21T12:59:51Z</time>
      </trkpt>
      <trkpt lat="44.91581" lon="5.7321">
        <ele>1423.2</ele>
        <time>2025-06-21T12:59:57Z</time>
      </trkpt>
      <trkpt lat="44.91586" lon="5.7322">
        <ele>1424.2</ele>
        <time>2025-06-21T13:00:04Z</time>
      </trkpt>
      <trkpt lat="44.91588" lon="5.73222">
        <ele>1424.5</ele>
        <time>2025-06-21T13:00:07Z</time>
      </trkpt>
      <trkpt lat="44.91591" lon="5.73226">
        <ele>1425</ele>
        <time>2025-06-21T13:00:11Z</time>
      </trkpt>
      <trkpt lat="44.91594" lon="5.73229">
        <ele>1425.4</ele>
        <time>2025-06-21T13:00:14Z</time>
      </trkpt>
      <trkpt lat="44.91596" lon="5.73231">
        <ele>1425.6</ele>
        <time>2025-06-21T13:00:18Z</time>
      </trkpt>
      <trkpt lat="44.91597" lon="5.73233">
        <ele>1425.8</ele>
        <time>2025-06-21T13:00:20Z</time>
      </trkpt>
      <trkpt lat="44.91599" lon="5.73237">
        <ele>1426.5</ele>
        <time>2025-06-21T13:00:23Z</time>
      </trkpt>
      <trkpt lat="44.91602" lon="5.73243">
        <ele>1427.3</ele>
        <time>2025-06-21T13:00:27Z</time>
      </trkpt>
      <trkpt lat="44.91609" lon="5.73254">
        <ele>1428.4</ele>
        <time>2025-06-21T13:00:35Z</time>
      </trkpt>
      <trkpt lat="44.91616" lon="5.73263">
        <ele>1429.4</ele>
        <time>2025-06-21T13:00:43Z</time>
      </trkpt>
      <trkpt lat="44.91618" lon="5.73265">
        <ele>1429.8</ele>
        <time>2025-06-21T13:00:45Z</time>
      </trkpt>
      <trkpt lat="44.91622" lon="5.73272">
        <ele>1431.3</ele>
        <time>2025-06-21T13:00:52Z</time>
      </trkpt>
      <trkpt lat="44.91623" lon="5.73272">
        <ele>1431.3</ele>
        <time>2025-06-21T13:00:53Z</time>
      </trkpt>
      <trkpt lat="44.91634" lon="5.73275">
        <ele>1431.4</ele>
        <time>2025-06-21T13:01:02Z</time>
      </trkpt>
      <trkpt lat="44.91644" lon="5.73276">
        <ele>1431.4</ele>
        <time>2025-06-21T13:01:10Z</time>
      </trkpt>
      <trkpt lat="44.91654" lon="5.73279">
        <ele>1431.8</ele>
        <time>2025-06-21T13:01:17Z</time>
      </trkpt>
      <trkpt lat="44.91656" lon="5.73281">
        <ele>1432</ele>
        <time>2025-06-21T13:01:19Z</time>
      </trkpt>
      <trkpt lat="44.91667" lon="5.73285">
        <ele>1432.6</ele>
        <time>2025-06-21T13:01:28Z</time>
      </trkpt>
      <trkpt lat="44.91678" lon="5.73287">
        <ele>1433.5</ele>
        <time>2025-06-21T13:01:37Z</time>
      </trkpt>
      <trkpt lat="44.91689" lon="5.73289">
        <ele>1434.2</ele>
        <time>2025-06-21T13:01:45Z</time>
      </trkpt>
      <trkpt lat="44.91697" lon="5.73289">
        <ele>1434.7</ele>
        <time>2025-06-21T13:01:51Z</time>
      </trkpt>
      <trkpt lat="44.91707" lon="5.73283">
        <ele>1434.5</ele>
        <time>2025-06-21T13:02:00Z</time>
      </trkpt>
      <trkpt lat="44.91717" lon="5.7328">
        <ele>1434.9</ele>
        <time>2025-06-21T13:02:08Z</time>
      </trkpt>
      <trkpt lat="44.91728" lon="5.73275">
        <ele>1434.9</ele>
        <time>2025-06-21T13:02:16Z</time>
      </trkpt>
      <trkpt lat="44.91738" lon="5.73272">
        <ele>1434.9</ele>
        <time>2025-06-21T13:02:24Z</time>
      </trkpt>
      <trkpt lat="44.91747" lon="5.73273">
        <ele>1435.6</ele>
        <time>2025-06-21T13:02:31Z</time>
      </trkpt>
      <trkpt lat="44.91756" lon="5.73275">
        <ele>1436</ele>
        <time>2025-06-21T13:02:38Z</time>
      </trkpt>
      <trkpt lat="44.91766" lon="5.73278">
        <ele>1436.4</ele>
        <time>2025-06-21T13:02:46Z</time>
      </trkpt>
      <trkpt lat="44.91778" lon="5.73282">
        <ele>1437.3</ele>
        <time>2025-06-21T13:02:55Z</time>
      </trkpt>
      <trkpt lat="44.91789" lon="5.73283">
        <ele>1436.6</ele>
        <time>2025-06-21T13:03:03Z</time>
      </trkpt>
      <trkpt lat="44.91798" lon="5.73286">
        <ele>1436.4</ele>
        <time>2025-06-21T13:03:11Z</time>
      </trkpt>
      <trkpt lat="44.91806" lon="5.73293">
        <ele>1437.3</ele>
        <time>2025-06-21T13:03:18Z</time>
      </trkpt>
      <trkpt lat="44.91815" lon="5.733">
        <ele>1437.8</ele>
        <time>2025-06-21T13:03:27Z</time>
      </trkpt>
      <trkpt lat="44.91824" lon="5.73309">
        <ele>1438.3</ele>
        <time>2025-06-21T13:03:36Z</time>
      </trkpt>
      <trkpt lat="44.91828" lon="5.73312">
        <ele>1438.3</ele>
        <time>2025-06-21T13:03:39Z</time>
      </trkpt>
      <trkpt lat="44.91833" lon="5.73317">
        <ele>1438.5</ele>
        <time>2025-06-21T13:03:45Z</time>
      </trkpt>
      <trkpt lat="44.91833" lon="5.73319">
        <ele>1439</ele>
        <time>2025-06-21T13:03:47Z</time>
      </trkpt>
      <trkpt lat="44.91833" lon="5.73325">
        <ele>1440.4</ele>
        <time>2025-06-21T13:03:55Z</time>
      </trkpt>
      <trkpt lat="44.91833" lon="5.73327">
        <ele>1440.7</ele>
        <time>2025-06-21T13:04:01Z</time>
      </trkpt>
      <trkpt lat="44.91833" lon="5.73326">
        <ele>1440.6</ele>
        <time>2025-06-21T13:04:14Z</time>
      </trkpt>
      <trkpt lat="44.91833" lon="5.73326">
        <ele>1440.6</ele>
        <time>2025-06-21T13:04:28Z</time>
      </trkpt>
      <trkpt lat="44.91833" lon="5.73327">
        <ele>1440.6</ele>
        <time>2025-06-21T13:04:37Z</time>
      </trkpt>
      <trkpt lat="44.91833" lon="5.73327">
        <ele>1440.6</ele>
        <time>2025-06-21T13:04:46Z</time>
      </trkpt>
      <trkpt lat="44.91833" lon="5.73327">
        <ele>1440.7</ele>
        <time>2025-06-21T13:05:00Z</time>
      </trkpt>
      <trkpt lat="44.91833" lon="5.73327">
        <ele>1440.6</ele>
        <time>2025-06-21T13:05:13Z</time>
      </trkpt>
      <trkpt lat="44.91833" lon="5.73327">
        <ele>1440.6</ele>
        <time>2025-06-21T13:05:27Z</time>
      </trkpt>
      <trkpt lat="44.91833" lon="5.73327">
        <ele>1440.6</ele>
        <time>2025-06-21T13:05:42Z</time>
      </trkpt>
      <trkpt lat="44.91833" lon="5.73327">
        <ele>1440.6</ele>
        <time>2025-06-21T13:05:50Z</time>
      </trkpt>
      <trkpt lat="44.91833" lon="5.73327">
        <ele>1440.7</ele>
        <time>2025-06-21T13:06:04Z</time>
      </trkpt>
      <trkpt lat="44.91833" lon="5.73327">
        <ele>1440.7</ele>
        <time>2025-06-21T13:06:16Z</time>
      </trkpt>
      <trkpt lat="44.91833" lon="5.73327">
        <ele>1440.7</ele>
        <time>2025-06-21T13:06:31Z</time>
      </trkpt>
      <trkpt lat="44.91839" lon="5.73328">
        <ele>1439.8</ele>
        <time>2025-06-21T13:06:38Z</time>
      </trkpt>
      <trkpt lat="44.9184" lon="5.73328">
        <ele>1439.7</ele>
        <time>2025-06-21T13:06:39Z</time>
      </trkpt>
      <trkpt lat="44.91843" lon="5.73327">
        <ele>1438.9</ele>
        <time>2025-06-21T13:06:42Z</time>
      </trkpt>
      <trkpt lat="44.91852" lon="5.73333">
        <ele>1438.6</ele>
        <time>2025-06-21T13:06:51Z</time>
      </trkpt>
      <trkpt lat="44.91858" lon="5.73342">
        <ele>1438.7</ele>
        <time>2025-06-21T13:06:59Z</time>
      </trkpt>
      <trkpt lat="44.91866" lon="5.7335">
        <ele>1438.4</ele>
        <time>2025-06-21T13:07:07Z</time>
      </trkpt>
      <trkpt lat="44.91872" lon="5.73356">
        <ele>1438.1</ele>
        <time>2025-06-21T13:07:14Z</time>
      </trkpt>
      <trkpt lat="44.91877" lon="5.73359">
        <ele>1437.8</ele>
        <time>2025-06-21T13:07:19Z</time>
      </trkpt>
      <trkpt lat="44.91884" lon="5.73362">
        <ele>1437.1</ele>
        <time>2025-06-21T13:07:25Z</time>
      </trkpt>
      <trkpt lat="44.91894" lon="5.73368">
        <ele>1436.3</ele>
        <time>2025-06-21T13:07:34Z</time>
      </trkpt>
      <trkpt lat="44.91895" lon="5.73369">
        <ele>1436.2</ele>
        <time>2025-06-21T13:07:35Z</time>
      </trkpt>
      <trkpt lat="44.91904" lon="5.73373">
        <ele>1435.2</ele>
        <time>2025-06-21T13:07:43Z</time>
      </trkpt>
      <trkpt lat="44.91913" lon="5.7338">
        <ele>1434.6</ele>
        <time>2025-06-21T13:07:51Z</time>
      </trkpt>
      <trkpt lat="44.91922" lon="5.73389">
        <ele>1434.2</ele>
        <time>2025-06-21T13:08:00Z</time>
      </trkpt>
      <trkpt lat="44.91926" lon="5.73391">
        <ele>1434.2</ele>
        <time>2025-06-21T13:08:03Z</time>
      </trkpt>
      <trkpt lat="44.91935" lon="5.73393">
        <ele>1433.2</ele>
        <time>2025-06-21T13:08:11Z</time>
      </trkpt>
      <trkpt lat="44.91945" lon="5.73391">
        <ele>1431.5</ele>
        <time>2025-06-21T13:08:19Z</time>
      </trkpt>
      <trkpt lat="44.91955" lon="5.73393">
        <ele>1431.2</ele>
        <time>2025-06-21T13:08:27Z</time>
      </trkpt>
      <trkpt lat="44.91965" lon="5.73394">
        <ele>1430.8</ele>
        <time>2025-06-21T13:08:35Z</time>
      </trkpt>
      <trkpt lat="44.91975" lon="5.73396">
        <ele>1430.7</ele>
        <time>2025-06-21T13:08:43Z</time>
      </trkpt>
      <trkpt lat="44.91987" lon="5.734">
        <ele>1431.2</ele>
        <time>2025-06-21T13:08:53Z</time>
      </trkpt>
      <trkpt lat="44.91989" lon="5.73401">
        <ele>1431.3</ele>
        <time>2025-06-21T13:08:54Z</time>
      </trkpt>
      <trkpt lat="44.92002" lon="5.73402">
        <ele>1431.5</ele>
        <time>2025-06-21T13:09:04Z</time>
      </trkpt>
      <trkpt lat="44.92004" lon="5.73401">
        <ele>1431.3</ele>
        <time>2025-06-21T13:09:06Z</time>
      </trkpt>
      <trkpt lat="44.92015" lon="5.73399">
        <ele>1431.1</ele>
        <time>2025-06-21T13:09:15Z</time>
      </trkpt>
      <trkpt lat="44.92025" lon="5.73394">
        <ele>1430</ele>
        <time>2025-06-21T13:09:23Z</time>
      </trkpt>
      <trkpt lat="44.92034" lon="5.73388">
        <ele>1428.2</ele>
        <time>2025-06-21T13:09:31Z</time>
      </trkpt>
      <trkpt lat="44.92044" lon="5.73381">
        <ele>1427</ele>
        <time>2025-06-21T13:09:39Z</time>
      </trkpt>
      <trkpt lat="44.92052" lon="5.73376">
        <ele>1426.8</ele>
        <time>2025-06-21T13:09:46Z</time>
      </trkpt>
      <trkpt lat="44.92062" lon="5.73374">
        <ele>1426.7</ele>
        <time>2025-06-21T13:09:53Z</time>
      </trkpt>
      <trkpt lat="44.92071" lon="5.73371">
        <ele>1426</ele>
        <time>2025-06-21T13:10:00Z</time>
      </trkpt>
      <trkpt lat="44.92077" lon="5.7337">
        <ele>1425.7</ele>
        <time>2025-06-21T13:10:05Z</time>
      </trkpt>
      <trkpt lat="44.92083" lon="5.73368">
        <ele>1425.3</ele>
        <time>2025-06-21T13:10:10Z</time>
      </trkpt>
      <trkpt lat="44.92094" lon="5.73371">
        <ele>1423.7</ele>
        <time>2025-06-21T13:10:19Z</time>
      </trkpt>
      <trkpt lat="44.92096" lon="5.73371">
        <ele>1423.6</ele>
        <time>2025-06-21T13:10:20Z</time>
      </trkpt>
      <trkpt lat="44.92098" lon="5.73372">
        <ele>1423.3</ele>
        <time>2025-06-21T13:10:22Z</time>
      </trkpt>
      <trkpt lat="44.92111" lon="5.73373">
        <ele>1421.1</ele>
        <time>2025-06-21T13:10:32Z</time>
      </trkpt>
      <trkpt lat="44.9212" lon="5.73377">
        <ele>1420.2</ele>
        <time>2025-06-21T13:10:40Z</time>
      </trkpt>
      <trkpt lat="44.92126" lon="5.73379">
        <ele>1419.6</ele>
        <time>2025-06-21T13:10:45Z</time>
      </trkpt>
      <trkpt lat="44.92135" lon="5.73379">
        <ele>1417.9</ele>
        <time>2025-06-21T13:10:52Z</time>
      </trkpt>
      <trkpt lat="44.92145" lon="5.73377">
        <ele>1415.7</ele>
        <time>2025-06-21T13:11:00Z</time>
      </trkpt>
      <trkpt lat="44.92153" lon="5.73381">
        <ele>1414.8</ele>
        <time>2025-06-21T13:11:07Z</time>
      </trkpt>
      <trkpt lat="44.92161" lon="5.73391">
        <ele>1414.5</ele>
        <time>2025-06-21T13:11:15Z</time>
      </trkpt>
      <trkpt lat="44.92163" lon="5.73392">
        <ele>1414.6</ele>
        <time>2025-06-21T13:11:17Z</time>
      </trkpt>
      <trkpt lat="44.92164" lon="5.73395">
        <ele>1414.8</ele>
        <time>2025-06-21T13:11:19Z</time>
      </trkpt>
      <trkpt lat="44.92165" lon="5.73401">
        <ele>1415.7</ele>
        <time>2025-06-21T13:11:23Z</time>
      </trkpt>
      <trkpt lat="44.9217" lon="5.73411">
        <ele>1416.2</ele>
        <time>2025-06-21T13:11:30Z</time>
      </trkpt>
      <trkpt lat="44.92175" lon="5.73414">
        <ele>1415.8</ele>
        <time>2025-06-21T13:11:35Z</time>
      </trkpt>
      <trkpt lat="44.92188" lon="5.73419">
        <ele>1415.2</ele>
        <time>2025-06-21T13:11:45Z</time>
      </trkpt>
      <trkpt lat="44.92196" lon="5.73421">
        <ele>1415</ele>
        <time>2025-06-21T13:11:51Z</time>
      </trkpt>
      <trkpt lat="44.92205" lon="5.73419">
        <ele>1414</ele>
        <time>2025-06-21T13:11:58Z</time>
      </trkpt>
      <trkpt lat="44.92214" lon="5.73417">
        <ele>1413</ele>
        <time>2025-06-21T13:12:06Z</time>
      </trkpt>
      <trkpt lat="44.92217" lon="5.73414">
        <ele>1412.3</ele>
        <time>2025-06-21T13:12:09Z</time>
      </trkpt>
      <trkpt lat="44.92229" lon="5.73405">
        <ele>1410.5</ele>
        <time>2025-06-21T13:12:20Z</time>
      </trkpt>
      <trkpt lat="44.92235" lon="5.73403">
        <ele>1410.4</ele>
        <time>2025-06-21T13:12:25Z</time>
      </trkpt>
      <trkpt lat="44.92245" lon="5.73405">
        <ele>1411.6</ele>
        <time>2025-06-21T13:12:33Z</time>
      </trkpt>
      <trkpt lat="44.92251" lon="5.73403">
        <ele>1411.6</ele>
        <time>2025-06-21T13:12:37Z</time>
      </trkpt>
      <trkpt lat="44.92255" lon="5.73403">
        <ele>1411.2</ele>
        <time>2025-06-21T13:12:40Z</time>
      </trkpt>
      <trkpt lat="44.92265" lon="5.73404">
        <ele>1410.9</ele>
        <time>2025-06-21T13:12:48Z</time>
      </trkpt>
      <trkpt lat="44.92278" lon="5.73405">
        <ele>1410.5</ele>
        <time>2025-06-21T13:12:58Z</time>
      </trkpt>
      <trkpt lat="44.9229" lon="5.73411">
        <ele>1410.8</ele>
        <time>2025-06-21T13:13:07Z</time>
      </trkpt>
      <trkpt lat="44.92296" lon="5.73413">
        <ele>1410.9</ele>
        <time>2025-06-21T13:13:12Z</time>
      </trkpt>
      <trkpt lat="44.92307" lon="5.73418">
        <ele>1411</ele>
        <time>2025-06-21T13:13:21Z</time>
      </trkpt>
      <trkpt lat="44.92318" lon="5.73421">
        <ele>1410.6</ele>
        <time>2025-06-21T13:13:29Z</time>
      </trkpt>
      <trkpt lat="44.92321" lon="5.73422">
        <ele>1410.5</ele>
        <time>2025-06-21T13:13:32Z</time>
      </trkpt>
      <trkpt lat="44.92331" lon="5.73426">
        <ele>1410.2</ele>
        <time>2025-06-21T13:13:40Z</time>
      </trkpt>
      <trkpt lat="44.92341" lon="5.7343">
        <ele>1409.8</ele>
        <time>2025-06-21T13:13:48Z</time>
      </trkpt>
      <trkpt lat="44.92352" lon="5.73437">
        <ele>1409.4</ele>
        <time>2025-06-21T13:13:57Z</time>
      </trkpt>
      <trkpt lat="44.92363" lon="5.73444">
        <ele>1408.7</ele>
        <time>2025-06-21T13:14:06Z</time>
      </trkpt>
      <trkpt lat="44.92364" lon="5.73445">
        <ele>1408.6</ele>
        <time>2025-06-21T13:14:07Z</time>
      </trkpt>
      <trkpt lat="44.92373" lon="5.7345">
        <ele>1407.6</ele>
        <time>2025-06-21T13:14:15Z</time>
      </trkpt>
      <trkpt lat="44.92384" lon="5.73459">
        <ele>1407</ele>
        <time>2025-06-21T13:14:24Z</time>
      </trkpt>
      <trkpt lat="44.92392" lon="5.73465">
        <ele>1405.7</ele>
        <time>2025-06-21T13:14:31Z</time>
      </trkpt>
      <trkpt lat="44.92398" lon="5.73471">
        <ele>1404.1</ele>
        <time>2025-06-21T13:14:37Z</time>
      </trkpt>
      <trkpt lat="44.92405" lon="5.73482">
        <ele>1403.7</ele>
        <time>2025-06-21T13:14:44Z</time>
      </trkpt>
      <trkpt lat="44.9241" lon="5.73487">
        <ele>1402.8</ele>
        <time>2025-06-21T13:14:49Z</time>
      </trkpt>
      <trkpt lat="44.92416" lon="5.73494">
        <ele>1402.1</ele>
        <time>2025-06-21T13:14:55Z</time>
      </trkpt>
      <trkpt lat="44.92425" lon="5.73501">
        <ele>1401.3</ele>
        <time>2025-06-21T13:15:03Z</time>
      </trkpt>
      <trkpt lat="44.92436" lon="5.73504">
        <ele>1399.3</ele>
        <time>2025-06-21T13:15:11Z</time>
      </trkpt>
      <trkpt lat="44.92438" lon="5.73505">
        <ele>1398.8</ele>
        <time>2025-06-21T13:15:13Z</time>
      </trkpt>
      <trkpt lat="44.9245" lon="5.73506">
        <ele>1396.7</ele>
        <time>2025-06-21T13:15:21Z</time>
      </trkpt>
      <trkpt lat="44.92452" lon="5.73508">
        <ele>1396.8</ele>
        <time>2025-06-21T13:15:23Z</time>
      </trkpt>
      <trkpt lat="44.92464" lon="5.73513">
        <ele>1396</ele>
        <time>2025-06-21T13:15:32Z</time>
      </trkpt>
      <trkpt lat="44.92476" lon="5.73518">
        <ele>1395.6</ele>
        <time>2025-06-21T13:15:41Z</time>
      </trkpt>
      <trkpt lat="44.92489" lon="5.73518">
        <ele>1394.1</ele>
        <time>2025-06-21T13:15:51Z</time>
      </trkpt>
      <trkpt lat="44.92495" lon="5.73515">
        <ele>1392.9</ele>
        <time>2025-06-21T13:15:56Z</time>
      </trkpt>
      <trkpt lat="44.92506" lon="5.7351">
        <ele>1390.5</ele>
        <time>2025-06-21T13:16:05Z</time>
      </trkpt>
      <trkpt lat="44.92514" lon="5.7351">
        <ele>1389.6</ele>
        <time>2025-06-21T13:16:11Z</time>
      </trkpt>
      <trkpt lat="44.92524" lon="5.73507">
        <ele>1387.9</ele>
        <time>2025-06-21T13:16:19Z</time>
      </trkpt>
      <trkpt lat="44.92529" lon="5.73506">
        <ele>1387.1</ele>
        <time>2025-06-21T13:16:23Z</time>
      </trkpt>
      <trkpt lat="44.92539" lon="5.73503">
        <ele>1384.9</ele>
        <time>2025-06-21T13:16:33Z</time>
      </trkpt>
      <trkpt lat="44.92543" lon="5.73502">
        <ele>1384.2</ele>
        <time>2025-06-21T13:16:36Z</time>
      </trkpt>
      <trkpt lat="44.92553" lon="5.73499">
        <ele>1382.2</ele>
        <time>2025-06-21T13:16:45Z</time>
      </trkpt>
      <trkpt lat="44.92563" lon="5.735">
        <ele>1380.3</ele>
        <time>2025-06-21T13:16:53Z</time>
      </trkpt>
      <trkpt lat="44.92574" lon="5.73503">
        <ele>1378.4</ele>
        <time>2025-06-21T13:17:01Z</time>
      </trkpt>
      <trkpt lat="44.92582" lon="5.73506">
        <ele>1377</ele>
        <time>2025-06-21T13:17:08Z</time>
      </trkpt>
      <trkpt lat="44.92589" lon="5.73508">
        <ele>1375.7</ele>
        <time>2025-06-21T13:17:14Z</time>
      </trkpt>
      <trkpt lat="44.92598" lon="5.73513">
        <ele>1373.9</ele>
        <time>2025-06-21T13:17:22Z</time>
      </trkpt>
      <trkpt lat="44.92611" lon="5.73521">
        <ele>1371.4</ele>
        <time>2025-06-21T13:17:33Z</time>
      </trkpt>
      <trkpt lat="44.9262" lon="5.73528">
        <ele>1370.3</ele>
        <time>2025-06-21T13:17:41Z</time>
      </trkpt>
      <trkpt lat="44.9263" lon="5.73537">
        <ele>1370.3</ele>
        <time>2025-06-21T13:17:50Z</time>
      </trkpt>
      <trkpt lat="44.92632" lon="5.73538">
        <ele>1370.2</ele>
        <time>2025-06-21T13:17:56Z</time>
      </trkpt>
      <trkpt lat="44.92633" lon="5.73539">
        <ele>1370.1</ele>
        <time>2025-06-21T13:18:05Z</time>
      </trkpt>
      <trkpt lat="44.92635" lon="5.73541">
        <ele>1370.1</ele>
        <time>2025-06-21T13:18:07Z</time>
      </trkpt>
      <trkpt lat="44.92644" lon="5.73541">
        <ele>1368.5</ele>
        <time>2025-06-21T13:18:14Z</time>
      </trkpt>
      <trkpt lat="44.92651" lon="5.73535">
        <ele>1366.1</ele>
        <time>2025-06-21T13:18:22Z</time>
      </trkpt>
      <trkpt lat="44.92658" lon="5.73531">
        <ele>1364.2</ele>
        <time>2025-06-21T13:18:28Z</time>
      </trkpt>
      <trkpt lat="44.92661" lon="5.7353">
        <ele>1363.4</ele>
        <time>2025-06-21T13:18:31Z</time>
      </trkpt>
      <trkpt lat="44.92668" lon="5.73521">
        <ele>1361.7</ele>
        <time>2025-06-21T13:18:39Z</time>
      </trkpt>
      <trkpt lat="44.92673" lon="5.73517">
        <ele>1360.9</ele>
        <time>2025-06-21T13:18:44Z</time>
      </trkpt>
      <trkpt lat="44.92674" lon="5.73514">
        <ele>1360.6</ele>
        <time>2025-06-21T13:18:46Z</time>
      </trkpt>
      <trkpt lat="44.92682" lon="5.73506">
        <ele>1359.3</ele>
        <time>2025-06-21T13:18:53Z</time>
      </trkpt>
      <trkpt lat="44.92684" lon="5.73502">
        <ele>1358.8</ele>
        <time>2025-06-21T13:18:56Z</time>
      </trkpt>
      <trkpt lat="44.9269" lon="5.73497">
        <ele>1358</ele>
        <time>2025-06-21T13:19:00Z</time>
      </trkpt>
      <trkpt lat="44.92697" lon="5.73488">
        <ele>1357</ele>
        <time>2025-06-21T13:19:07Z</time>
      </trkpt>
      <trkpt lat="44.92707" lon="5.73477">
        <ele>1355.6</ele>
        <time>2025-06-21T13:19:16Z</time>
      </trkpt>
      <trkpt lat="44.92713" lon="5.73471">
        <ele>1354.8</ele>
        <time>2025-06-21T13:19:21Z</time>
      </trkpt>
      <trkpt lat="44.92718" lon="5.73469">
        <ele>1354.1</ele>
        <time>2025-06-21T13:19:24Z</time>
      </trkpt>
      <trkpt lat="44.92728" lon="5.73464">
        <ele>1353.1</ele>
        <time>2025-06-21T13:19:31Z</time>
      </trkpt>
      <trkpt lat="44.92737" lon="5.73462">
        <ele>1352</ele>
        <time>2025-06-21T13:19:37Z</time>
      </trkpt>
      <trkpt lat="44.92751" lon="5.73461">
        <ele>1350.1</ele>
        <time>2025-06-21T13:19:47Z</time>
      </trkpt>
      <trkpt lat="44.9276" lon="5.73461">
        <ele>1349.3</ele>
        <time>2025-06-21T13:19:54Z</time>
      </trkpt>
      <trkpt lat="44.92761" lon="5.7346">
        <ele>1349.2</ele>
        <time>2025-06-21T13:19:55Z</time>
      </trkpt>
      <trkpt lat="44.9277" lon="5.73461">
        <ele>1348.2</ele>
        <time>2025-06-21T13:20:02Z</time>
      </trkpt>
      <trkpt lat="44.92781" lon="5.73458">
        <ele>1347</ele>
        <time>2025-06-21T13:20:10Z</time>
      </trkpt>
      <trkpt lat="44.92783" lon="5.73457">
        <ele>1346.7</ele>
        <time>2025-06-21T13:20:12Z</time>
      </trkpt>
      <trkpt lat="44.92792" lon="5.73453">
        <ele>1345.4</ele>
        <time>2025-06-21T13:20:19Z</time>
      </trkpt>
      <trkpt lat="44.92801" lon="5.73452">
        <ele>1344</ele>
        <time>2025-06-21T13:20:26Z</time>
      </trkpt>
      <trkpt lat="44.92806" lon="5.73452">
        <ele>1343.3</ele>
        <time>2025-06-21T13:20:30Z</time>
      </trkpt>
      <trkpt lat="44.92813" lon="5.73453">
        <ele>1342</ele>
        <time>2025-06-21T13:20:36Z</time>
      </trkpt>
      <trkpt lat="44.92816" lon="5.73455">
        <ele>1341.6</ele>
        <time>2025-06-21T13:20:41Z</time>
      </trkpt>
      <trkpt lat="44.92818" lon="5.73453">
        <ele>1341.2</ele>
        <time>2025-06-21T13:20:47Z</time>
      </trkpt>
      <trkpt lat="44.9282" lon="5.73453">
        <ele>1340.9</ele>
        <time>2025-06-21T13:20:49Z</time>
      </trkpt>
      <trkpt lat="44.92822" lon="5.73454">
        <ele>1340.5</ele>
        <time>2025-06-21T13:20:51Z</time>
      </trkpt>
      <trkpt lat="44.92825" lon="5.73457">
        <ele>1340.2</ele>
        <time>2025-06-21T13:20:54Z</time>
      </trkpt>
      <trkpt lat="44.92832" lon="5.73462">
        <ele>1339.6</ele>
        <time>2025-06-21T13:21:00Z</time>
      </trkpt>
      <trkpt lat="44.92834" lon="5.73467">
        <ele>1339.5</ele>
        <time>2025-06-21T13:21:03Z</time>
      </trkpt>
      <trkpt lat="44.92838" lon="5.73471">
        <ele>1339.3</ele>
        <time>2025-06-21T13:21:07Z</time>
      </trkpt>
      <trkpt lat="44.92848" lon="5.73479">
        <ele>1338.8</ele>
        <time>2025-06-21T13:21:16Z</time>
      </trkpt>
      <trkpt lat="44.92859" lon="5.73481">
        <ele>1337.5</ele>
        <time>2025-06-21T13:21:24Z</time>
      </trkpt>
      <trkpt lat="44.92868" lon="5.73483">
        <ele>1337.1</ele>
        <time>2025-06-21T13:21:32Z</time>
      </trkpt>
      <trkpt lat="44.92872" lon="5.73484">
        <ele>1337</ele>
        <time>2025-06-21T13:21:35Z</time>
      </trkpt>
      <trkpt lat="44.92882" lon="5.73481">
        <ele>1335.6</ele>
        <time>2025-06-21T13:21:43Z</time>
      </trkpt>
      <trkpt lat="44.92889" lon="5.7348">
        <ele>1335.1</ele>
        <time>2025-06-21T13:21:49Z</time>
      </trkpt>
      <trkpt lat="44.92896" lon="5.73477">
        <ele>1334.1</ele>
        <time>2025-06-21T13:21:57Z</time>
      </trkpt>
      <trkpt lat="44.92903" lon="5.73473">
        <ele>1333.2</ele>
        <time>2025-06-21T13:22:04Z</time>
      </trkpt>
      <trkpt lat="44.92911" lon="5.73469">
        <ele>1332.3</ele>
        <time>2025-06-21T13:22:12Z</time>
      </trkpt>
      <trkpt lat="44.92917" lon="5.73463">
        <ele>1330.9</ele>
        <time>2025-06-21T13:22:19Z</time>
      </trkpt>
      <trkpt lat="44.92918" lon="5.7346">
        <ele>1330.3</ele>
        <time>2025-06-21T13:22:21Z</time>
      </trkpt>
      <trkpt lat="44.9292" lon="5.73457">
        <ele>1329.6</ele>
        <time>2025-06-21T13:22:23Z</time>
      </trkpt>
      <trkpt lat="44.92932" lon="5.73451">
        <ele>1327.5</ele>
        <time>2025-06-21T13:22:31Z</time>
      </trkpt>
      <trkpt lat="44.92942" lon="5.73448">
        <ele>1326.1</ele>
        <time>2025-06-21T13:22:39Z</time>
      </trkpt>
      <trkpt lat="44.9295" lon="5.73444">
        <ele>1324.8</ele>
        <time>2025-06-21T13:22:46Z</time>
      </trkpt>
      <trkpt lat="44.92952" lon="5.73443">
        <ele>1324.5</ele>
        <time>2025-06-21T13:22:47Z</time>
      </trkpt>
      <trkpt lat="44.92954" lon="5.73443">
        <ele>1324.3</ele>
        <time>2025-06-21T13:22:49Z</time>
      </trkpt>
      <trkpt lat="44.92958" lon="5.73441">
        <ele>1323.8</ele>
        <time>2025-06-21T13:22:52Z</time>
      </trkpt>
      <trkpt lat="44.92967" lon="5.73437">
        <ele>1322.6</ele>
        <time>2025-06-21T13:22:59Z</time>
      </trkpt>
      <trkpt lat="44.92974" lon="5.73437">
        <ele>1322.2</ele>
        <time>2025-06-21T13:23:05Z</time>
      </trkpt>
      <trkpt lat="44.92984" lon="5.73435">
        <ele>1321.2</ele>
        <time>2025-06-21T13:23:12Z</time>
      </trkpt>
      <trkpt lat="44.92985" lon="5.73434">
        <ele>1321.1</ele>
        <time>2025-06-21T13:23:13Z</time>
      </trkpt>
      <trkpt lat="44.92996" lon="5.73436">
        <ele>1321.3</ele>
        <time>2025-06-21T13:23:21Z</time>
      </trkpt>
      <trkpt lat="44.93001" lon="5.73432">
        <ele>1320</ele>
        <time>2025-06-21T13:23:26Z</time>
      </trkpt>
      <trkpt lat="44.93005" lon="5.73431">
        <ele>1319.5</ele>
        <time>2025-06-21T13:23:29Z</time>
      </trkpt>
      <trkpt lat="44.93008" lon="5.7343">
        <ele>1318.9</ele>
        <time>2025-06-21T13:23:31Z</time>
      </trkpt>
      <trkpt lat="44.93015" lon="5.73427">
        <ele>1317.7</ele>
        <time>2025-06-21T13:23:37Z</time>
      </trkpt>
      <trkpt lat="44.9302" lon="5.73424">
        <ele>1316.5</ele>
        <time>2025-06-21T13:23:42Z</time>
      </trkpt>
      <trkpt lat="44.9303" lon="5.7342">
        <ele>1315</ele>
        <time>2025-06-21T13:23:49Z</time>
      </trkpt>
      <trkpt lat="44.93037" lon="5.7342">
        <ele>1314.3</ele>
        <time>2025-06-21T13:23:55Z</time>
      </trkpt>
      <trkpt lat="44.93046" lon="5.7342">
        <ele>1313.7</ele>
        <time>2025-06-21T13:24:02Z</time>
      </trkpt>
      <trkpt lat="44.93053" lon="5.73424">
        <ele>1314.6</ele>
        <time>2025-06-21T13:24:07Z</time>
      </trkpt>
      <trkpt lat="44.93055" lon="5.73423">
        <ele>1314</ele>
        <time>2025-06-21T13:24:09Z</time>
      </trkpt>
      <trkpt lat="44.93063" lon="5.73421">
        <ele>1312.4</ele>
        <time>2025-06-21T13:24:16Z</time>
      </trkpt>
      <trkpt lat="44.93068" lon="5.73417">
        <ele>1310.3</ele>
        <time>2025-06-21T13:24:21Z</time>
      </trkpt>
      <trkpt lat="44.93073" lon="5.73414">
        <ele>1308.6</ele>
        <time>2025-06-21T13:24:28Z</time>
      </trkpt>
      <trkpt lat="44.93081" lon="5.73414">
        <ele>1307.5</ele>
        <time>2025-06-21T13:24:34Z</time>
      </trkpt>
      <trkpt lat="44.93089" lon="5.73414">
        <ele>1306.3</ele>
        <time>2025-06-21T13:24:42Z</time>
      </trkpt>
      <trkpt lat="44.93094" lon="5.73411">
        <ele>1304.4</ele>
        <time>2025-06-21T13:24:49Z</time>
      </trkpt>
      <trkpt lat="44.93098" lon="5.73409">
        <ele>1303.2</ele>
        <time>2025-06-21T13:24:54Z</time>
      </trkpt>
      <trkpt lat="44.93105" lon="5.73404">
        <ele>1300.7</ele>
        <time>2025-06-21T13:25:00Z</time>
      </trkpt>
      <trkpt lat="44.93106" lon="5.73403">
        <ele>1300.2</ele>
        <time>2025-06-21T13:25:01Z</time>
      </trkpt>
      <trkpt lat="44.93115" lon="5.73401">
        <ele>1298.2</ele>
        <time>2025-06-21T13:25:07Z</time>
      </trkpt>
      <trkpt lat="44.93123" lon="5.73402">
        <ele>1296.4</ele>
        <time>2025-06-21T13:25:14Z</time>
      </trkpt>
      <trkpt lat="44.93128" lon="5.73402">
        <ele>1295</ele>
        <time>2025-06-21T13:25:22Z</time>
      </trkpt>
      <trkpt lat="44.93135" lon="5.73406">
        <ele>1294.1</ele>
        <time>2025-06-21T13:25:29Z</time>
      </trkpt>
      <trkpt lat="44.93144" lon="5.73406">
        <ele>1291.6</ele>
        <time>2025-06-21T13:25:36Z</time>
      </trkpt>
      <trkpt lat="44.93154" lon="5.7341">
        <ele>1288.9</ele>
        <time>2025-06-21T13:25:44Z</time>
      </trkpt>
      <trkpt lat="44.93155" lon="5.73411">
        <ele>1288.7</ele>
        <time>2025-06-21T13:25:45Z</time>
      </trkpt>
      <trkpt lat="44.93161" lon="5.73413">
        <ele>1286.9</ele>
        <time>2025-06-21T13:25:53Z</time>
      </trkpt>
      <trkpt lat="44.93164" lon="5.73414">
        <ele>1286</ele>
        <time>2025-06-21T13:25:56Z</time>
      </trkpt>
      <trkpt lat="44.93173" lon="5.73417">
        <ele>1282.9</ele>
        <time>2025-06-21T13:26:03Z</time>
      </trkpt>
      <trkpt lat="44.93177" lon="5.7342">
        <ele>1281.8</ele>
        <time>2025-06-21T13:26:09Z</time>
      </trkpt>
      <trkpt lat="44.9318" lon="5.73424">
        <ele>1281.4</ele>
        <time>2025-06-21T13:26:15Z</time>
      </trkpt>
      <trkpt lat="44.93184" lon="5.73429">
        <ele>1280.5</ele>
        <time>2025-06-21T13:26:20Z</time>
      </trkpt>
      <trkpt lat="44.93186" lon="5.73431">
        <ele>1280.3</ele>
        <time>2025-06-21T13:26:22Z</time>
      </trkpt>
      <trkpt lat="44.9319" lon="5.73433">
        <ele>1279</ele>
        <time>2025-06-21T13:26:25Z</time>
      </trkpt>
      <trkpt lat="44.93197" lon="5.73442">
        <ele>1278.1</ele>
        <time>2025-06-21T13:26:32Z</time>
      </trkpt>
      <trkpt lat="44.93203" lon="5.73444">
        <ele>1275.7</ele>
        <time>2025-06-21T13:26:39Z</time>
      </trkpt>
      <trkpt lat="44.93209" lon="5.73449">
        <ele>1274.6</ele>
        <time>2025-06-21T13:26:46Z</time>
      </trkpt>
      <trkpt lat="44.93209" lon="5.73449">
        <ele>1274.2</ele>
        <time>2025-06-21T13:26:47Z</time>
      </trkpt>
      <trkpt lat="44.93216" lon="5.73456">
        <ele>1273.2</ele>
        <time>2025-06-21T13:26:54Z</time>
      </trkpt>
      <trkpt lat="44.93217" lon="5.7346">
        <ele>1273.9</ele>
        <time>2025-06-21T13:27:07Z</time>
      </trkpt>
      <trkpt lat="44.93218" lon="5.73462">
        <ele>1274.3</ele>
        <time>2025-06-21T13:27:17Z</time>
      </trkpt>
      <trkpt lat="44.93218" lon="5.73463">
        <ele>1274.4</ele>
        <time>2025-06-21T13:27:27Z</time>
      </trkpt>
      <trkpt lat="44.93218" lon="5.73464">
        <ele>1274.7</ele>
        <time>2025-06-21T13:27:39Z</time>
      </trkpt>
      <trkpt lat="44.93218" lon="5.73463">
        <ele>1274.2</ele>
        <time>2025-06-21T13:27:54Z</time>
      </trkpt>
      <trkpt lat="44.93219" lon="5.73463">
        <ele>1273.9</ele>
        <time>2025-06-21T13:28:07Z</time>
      </trkpt>
      <trkpt lat="44.93219" lon="5.73463">
        <ele>1273.9</ele>
        <time>2025-06-21T13:28:22Z</time>
      </trkpt>
      <trkpt lat="44.93219" lon="5.73463">
        <ele>1274.1</ele>
        <time>2025-06-21T13:28:34Z</time>
      </trkpt>
      <trkpt lat="44.93218" lon="5.73464">
        <ele>1274.3</ele>
        <time>2025-06-21T13:28:46Z</time>
      </trkpt>
      <trkpt lat="44.93218" lon="5.73464">
        <ele>1274.7</ele>
        <time>2025-06-21T13:29:00Z</time>
      </trkpt>
      <trkpt lat="44.93218" lon="5.73464">
        <ele>1274.7</ele>
        <time>2025-06-21T13:29:15Z</time>
      </trkpt>
      <trkpt lat="44.93218" lon="5.73464">
        <ele>1274.7</ele>
        <time>2025-06-21T13:29:25Z</time>
      </trkpt>
      <trkpt lat="44.93218" lon="5.73466">
        <ele>1274.9</ele>
        <time>2025-06-21T13:29:38Z</time>
      </trkpt>
      <trkpt lat="44.93222" lon="5.73466">
        <ele>1273.3</ele>
        <time>2025-06-21T13:29:42Z</time>
      </trkpt>
      <trkpt lat="44.93225" lon="5.73468">
        <ele>1272.6</ele>
        <time>2025-06-21T13:29:45Z</time>
      </trkpt>
      <trkpt lat="44.93229" lon="5.73467">
        <ele>1271.1</ele>
        <time>2025-06-21T13:29:48Z</time>
      </trkpt>
      <trkpt lat="44.93236" lon="5.73465">
        <ele>1268.3</ele>
        <time>2025-06-21T13:29:52Z</time>
      </trkpt>
      <trkpt lat="44.93241" lon="5.73466">
        <ele>1267.1</ele>
        <time>2025-06-21T13:29:56Z</time>
      </trkpt>
      <trkpt lat="44.93249" lon="5.73465">
        <ele>1264</ele>
        <time>2025-06-21T13:30:03Z</time>
      </trkpt>
      <trkpt lat="44.93252" lon="5.73466">
        <ele>1263</ele>
        <time>2025-06-21T13:30:06Z</time>
      </trkpt>
      <trkpt lat="44.93261" lon="5.73471">
        <ele>1262.1</ele>
        <time>2025-06-21T13:30:13Z</time>
      </trkpt>
      <trkpt lat="44.93265" lon="5.73472">
        <ele>1261.5</ele>
        <time>2025-06-21T13:30:16Z</time>
      </trkpt>
      <trkpt lat="44.93268" lon="5.73473">
        <ele>1261.2</ele>
        <time>2025-06-21T13:30:18Z</time>
      </trkpt>
      <trkpt lat="44.93275" lon="5.73477">
        <ele>1260.5</ele>
        <time>2025-06-21T13:30:23Z</time>
      </trkpt>
      <trkpt lat="44.93283" lon="5.73485">
        <ele>1261.6</ele>
        <time>2025-06-21T13:30:30Z</time>
      </trkpt>
      <trkpt lat="44.93284" lon="5.73487">
        <ele>1261.9</ele>
        <time>2025-06-21T13:30:31Z</time>
      </trkpt>
      <trkpt lat="44.93291" lon="5.73495">
        <ele>1263.2</ele>
        <time>2025-06-21T13:30:39Z</time>
      </trkpt>
      <trkpt lat="44.93295" lon="5.735">
        <ele>1264.4</ele>
        <time>2025-06-21T13:30:45Z</time>
      </trkpt>
      <trkpt lat="44.93299" lon="5.73502">
        <ele>1264.2</ele>
        <time>2025-06-21T13:30:49Z</time>
      </trkpt>
      <trkpt lat="44.93303" lon="5.73503">
        <ele>1263.7</ele>
        <time>2025-06-21T13:30:52Z</time>
      </trkpt>
      <trkpt lat="44.93305" lon="5.73502">
        <ele>1262.7</ele>
        <time>2025-06-21T13:30:55Z</time>
      </trkpt>
      <trkpt lat="44.93308" lon="5.73499">
        <ele>1261.8</ele>
        <time>2025-06-21T13:30:59Z</time>
      </trkpt>
      <trkpt lat="44.93311" lon="5.73501">
        <ele>1262.3</ele>
        <time>2025-06-21T13:31:01Z</time>
      </trkpt>
      <trkpt lat="44.93315" lon="5.73501">
        <ele>1262.3</ele>
        <time>2025-06-21T13:31:03Z</time>
      </trkpt>
      <trkpt lat="44.9332" lon="5.73495">
        <ele>1260</ele>
        <time>2025-06-21T13:31:09Z</time>
      </trkpt>
      <trkpt lat="44.93326" lon="5.7349">
        <ele>1258.2</ele>
        <time>2025-06-21T13:31:14Z</time>
      </trkpt>
      <trkpt lat="44.93333" lon="5.73484">
        <ele>1255.5</ele>
        <time>2025-06-21T13:31:22Z</time>
      </trkpt>
      <trkpt lat="44.9334" lon="5.73473">
        <ele>1251.6</ele>
        <time>2025-06-21T13:31:29Z</time>
      </trkpt>
      <trkpt lat="44.93343" lon="5.73472">
        <ele>1251.2</ele>
        <time>2025-06-21T13:31:31Z</time>
      </trkpt>
      <trkpt lat="44.93351" lon="5.73467">
        <ele>1249.3</ele>
        <time>2025-06-21T13:31:39Z</time>
      </trkpt>
      <trkpt lat="44.93352" lon="5.73466">
        <ele>1249.3</ele>
        <time>2025-06-21T13:31:41Z</time>
      </trkpt>
      <trkpt lat="44.93355" lon="5.73467">
        <ele>1249.5</ele>
        <time>2025-06-21T13:31:43Z</time>
      </trkpt>
      <trkpt lat="44.9336" lon="5.73466">
        <ele>1249.5</ele>
        <time>2025-06-21T13:31:46Z</time>
      </trkpt>
      <trkpt lat="44.93371" lon="5.73464">
        <ele>1248.9</ele>
        <time>2025-06-21T13:31:53Z</time>
      </trkpt>
      <trkpt lat="44.93379" lon="5.73461">
        <ele>1248.1</ele>
        <time>2025-06-21T13:31:59Z</time>
      </trkpt>
      <trkpt lat="44.93387" lon="5.73457">
        <ele>1246.8</ele>
        <time>2025-06-21T13:32:06Z</time>
      </trkpt>
      <trkpt lat="44.93396" lon="5.73454">
        <ele>1246</ele>
        <time>2025-06-21T13:32:13Z</time>
      </trkpt>
      <trkpt lat="44.93401" lon="5.73453">
        <ele>1245.8</ele>
        <time>2025-06-21T13:32:18Z</time>
      </trkpt>
      <trkpt lat="44.9341" lon="5.7345">
        <ele>1244.9</ele>
        <time>2025-06-21T13:32:25Z</time>
      </trkpt>
      <trkpt lat="44.93413" lon="5.7345">
        <ele>1244.7</ele>
        <time>2025-06-21T13:32:27Z</time>
      </trkpt>
      <trkpt lat="44.93423" lon="5.73451">
        <ele>1245.1</ele>
        <time>2025-06-21T13:32:34Z</time>
      </trkpt>
      <trkpt lat="44.93425" lon="5.73451">
        <ele>1245.1</ele>
        <time>2025-06-21T13:32:36Z</time>
      </trkpt>
      <trkpt lat="44.93434" lon="5.73448">
        <ele>1244</ele>
        <time>2025-06-21T13:32:43Z</time>
      </trkpt>
      <trkpt lat="44.93441" lon="5.73445">
        <ele>1243.3</ele>
        <time>2025-06-21T13:32:48Z</time>
      </trkpt>
      <trkpt lat="44.93444" lon="5.73444">
        <ele>1242.8</ele>
        <time>2025-06-21T13:32:51Z</time>
      </trkpt>
      <trkpt lat="44.93447" lon="5.73442">
        <ele>1242</ele>
        <time>2025-06-21T13:32:55Z</time>
      </trkpt>
      <trkpt lat="44.93458" lon="5.73435">
        <ele>1239.8</ele>
        <time>2025-06-21T13:33:04Z</time>
      </trkpt>
      <trkpt lat="44.93469" lon="5.7343">
        <ele>1238.5</ele>
        <time>2025-06-21T13:33:11Z</time>
      </trkpt>
      <trkpt lat="44.93478" lon="5.73432">
        <ele>1237.9</ele>
        <time>2025-06-21T13:33:17Z</time>
      </trkpt>
      <trkpt lat="44.93488" lon="5.73437">
        <ele>1237.2</ele>
        <time>2025-06-21T13:33:25Z</time>
      </trkpt>
      <trkpt lat="44.93492" lon="5.73442">
        <ele>1237.2</ele>
        <time>2025-06-21T13:33:29Z</time>
      </trkpt>
      <trkpt lat="44.93499" lon="5.73455">
        <ele>1237.4</ele>
        <time>2025-06-21T13:33:38Z</time>
      </trkpt>
      <trkpt lat="44.93501" lon="5.7346">
        <ele>1237.4</ele>
        <time>2025-06-21T13:33:41Z</time>
      </trkpt>
      <trkpt lat="44.93502" lon="5.73467">
        <ele>1237.7</ele>
        <time>2025-06-21T13:33:45Z</time>
      </trkpt>
      <trkpt lat="44.93504" lon="5.73479">
        <ele>1237.9</ele>
        <time>2025-06-21T13:33:51Z</time>
      </trkpt>
      <trkpt lat="44.93507" lon="5.73496">
        <ele>1238</ele>
        <time>2025-06-21T13:34:01Z</time>
      </trkpt>
      <trkpt lat="44.93507" lon="5.735">
        <ele>1238.1</ele>
        <time>2025-06-21T13:34:04Z</time>
      </trkpt>
      <trkpt lat="44.9351" lon="5.73506">
        <ele>1237.6</ele>
        <time>2025-06-21T13:34:08Z</time>
      </trkpt>
      <trkpt lat="44.93511" lon="5.73511">
        <ele>1237.1</ele>
        <time>2025-06-21T13:34:11Z</time>
      </trkpt>
      <trkpt lat="44.93514" lon="5.73522">
        <ele>1236.4</ele>
        <time>2025-06-21T13:34:18Z</time>
      </trkpt>
      <trkpt lat="44.93515" lon="5.73525">
        <ele>1236.5</ele>
        <time>2025-06-21T13:34:20Z</time>
      </trkpt>
      <trkpt lat="44.93518" lon="5.73539">
        <ele>1235.8</ele>
        <time>2025-06-21T13:34:27Z</time>
      </trkpt>
      <trkpt lat="44.9352" lon="5.73544">
        <ele>1235.3</ele>
        <time>2025-06-21T13:34:30Z</time>
      </trkpt>
      <trkpt lat="44.93519" lon="5.73553">
        <ele>1236.1</ele>
        <time>2025-06-21T13:34:35Z</time>
      </trkpt>
      <trkpt lat="44.93521" lon="5.73563">
        <ele>1235.7</ele>
        <time>2025-06-21T13:34:41Z</time>
      </trkpt>
      <trkpt lat="44.93524" lon="5.73577">
        <ele>1234.9</ele>
        <time>2025-06-21T13:34:49Z</time>
      </trkpt>
      <trkpt lat="44.93524" lon="5.73578">
        <ele>1235</ele>
        <time>2025-06-21T13:34:50Z</time>
      </trkpt>
      <trkpt lat="44.93524" lon="5.73583">
        <ele>1235.1</ele>
        <time>2025-06-21T13:34:53Z</time>
      </trkpt>
      <trkpt lat="44.93524" lon="5.73592">
        <ele>1236.4</ele>
        <time>2025-06-21T13:34:58Z</time>
      </trkpt>
      <trkpt lat="44.93524" lon="5.73595">
        <ele>1236.6</ele>
        <time>2025-06-21T13:34:59Z</time>
      </trkpt>
      <trkpt lat="44.93524" lon="5.73605">
        <ele>1238</ele>
        <time>2025-06-21T13:35:04Z</time>
      </trkpt>
      <trkpt lat="44.93525" lon="5.73614">
        <ele>1239.1</ele>
        <time>2025-06-21T13:35:10Z</time>
      </trkpt>
      <trkpt lat="44.93527" lon="5.73619">
        <ele>1240</ele>
        <time>2025-06-21T13:35:17Z</time>
      </trkpt>
      <trkpt lat="44.9353" lon="5.7362">
        <ele>1240.6</ele>
        <time>2025-06-21T13:35:25Z</time>
      </trkpt>
      <trkpt lat="44.93534" lon="5.7362">
        <ele>1241.8</ele>
        <time>2025-06-21T13:35:32Z</time>
      </trkpt>
      <trkpt lat="44.93538" lon="5.73616">
        <ele>1242.1</ele>
        <time>2025-06-21T13:35:40Z</time>
      </trkpt>
      <trkpt lat="44.93543" lon="5.73611">
        <ele>1241.8</ele>
        <time>2025-06-21T13:35:45Z</time>
      </trkpt>
      <trkpt lat="44.93551" lon="5.73599">
        <ele>1240.7</ele>
        <time>2025-06-21T13:35:54Z</time>
      </trkpt>
      <trkpt lat="44.93558" lon="5.73593">
        <ele>1240.5</ele>
        <time>2025-06-21T13:36:00Z</time>
      </trkpt>
      <trkpt lat="44.93565" lon="5.73585">
        <ele>1240.6</ele>
        <time>2025-06-21T13:36:05Z</time>
      </trkpt>
      <trkpt lat="44.93575" lon="5.73575">
        <ele>1241</ele>
        <time>2025-06-21T13:36:14Z</time>
      </trkpt>
      <trkpt lat="44.93586" lon="5.73564">
        <ele>1241.2</ele>
        <time>2025-06-21T13:36:23Z</time>
      </trkpt>
      <trkpt lat="44.93596" lon="5.7355">
        <ele>1240.4</ele>
        <time>2025-06-21T13:36:32Z</time>
      </trkpt>
      <trkpt lat="44.93608" lon="5.73538">
        <ele>1241.5</ele>
        <time>2025-06-21T13:36:41Z</time>
      </trkpt>
      <trkpt lat="44.93613" lon="5.73531">
        <ele>1241.3</ele>
        <time>2025-06-21T13:36:46Z</time>
      </trkpt>
      <trkpt lat="44.93615" lon="5.73528">
        <ele>1241.2</ele>
        <time>2025-06-21T13:36:48Z</time>
      </trkpt>
      <trkpt lat="44.93622" lon="5.73516">
        <ele>1239.7</ele>
        <time>2025-06-21T13:36:56Z</time>
      </trkpt>
      <trkpt lat="44.93628" lon="5.73507">
        <ele>1239.2</ele>
        <time>2025-06-21T13:37:03Z</time>
      </trkpt>
      <trkpt lat="44.93631" lon="5.73501">
        <ele>1238.5</ele>
        <time>2025-06-21T13:37:07Z</time>
      </trkpt>
      <trkpt lat="44.93635" lon="5.73498">
        <ele>1238.8</ele>
        <time>2025-06-21T13:37:10Z</time>
      </trkpt>
      <trkpt lat="44.93642" lon="5.73487">
        <ele>1237.9</ele>
        <time>2025-06-21T13:37:17Z</time>
      </trkpt>
      <trkpt lat="44.93645" lon="5.73484">
        <ele>1238</ele>
        <time>2025-06-21T13:37:22Z</time>
      </trkpt>
      <trkpt lat="44.93648" lon="5.73478">
        <ele>1237.3</ele>
        <time>2025-06-21T13:37:26Z</time>
      </trkpt>
      <trkpt lat="44.93651" lon="5.73473">
        <ele>1237.1</ele>
        <time>2025-06-21T13:37:30Z</time>
      </trkpt>
      <trkpt lat="44.93652" lon="5.7347">
        <ele>1236.8</ele>
        <time>2025-06-21T13:37:32Z</time>
      </trkpt>
      <trkpt lat="44.93659" lon="5.73461">
        <ele>1236.7</ele>
        <time>2025-06-21T13:37:39Z</time>
      </trkpt>
      <trkpt lat="44.93664" lon="5.73456">
        <ele>1237</ele>
        <time>2025-06-21T13:37:43Z</time>
      </trkpt>
      <trkpt lat="44.93673" lon="5.73449">
        <ele>1237.6</ele>
        <time>2025-06-21T13:37:51Z</time>
      </trkpt>
      <trkpt lat="44.93681" lon="5.73443">
        <ele>1238.3</ele>
        <time>2025-06-21T13:37:57Z</time>
      </trkpt>
      <trkpt lat="44.93687" lon="5.73439">
        <ele>1238.7</ele>
        <time>2025-06-21T13:38:02Z</time>
      </trkpt>
      <trkpt lat="44.93695" lon="5.73434">
        <ele>1238.9</ele>
        <time>2025-06-21T13:38:08Z</time>
      </trkpt>
      <trkpt lat="44.93705" lon="5.7343">
        <ele>1239.1</ele>
        <time>2025-06-21T13:38:15Z</time>
      </trkpt>
      <trkpt lat="44.9371" lon="5.73427">
        <ele>1238.9</ele>
        <time>2025-06-21T13:38:19Z</time>
      </trkpt>
      <trkpt lat="44.93715" lon="5.73423">
        <ele>1238.6</ele>
        <time>2025-06-21T13:38:23Z</time>
      </trkpt>
      <trkpt lat="44.93728" lon="5.73418">
        <ele>1238.5</ele>
        <time>2025-06-21T13:38:32Z</time>
      </trkpt>
      <trkpt lat="44.93732" lon="5.73415">
        <ele>1237.9</ele>
        <time>2025-06-21T13:38:35Z</time>
      </trkpt>
      <trkpt lat="44.93742" lon="5.73413">
        <ele>1237.7</ele>
        <time>2025-06-21T13:38:43Z</time>
      </trkpt>
      <trkpt lat="44.93744" lon="5.73412">
        <ele>1237.6</ele>
        <time>2025-06-21T13:38:44Z</time>
      </trkpt>
      <trkpt lat="44.93754" lon="5.7341">
        <ele>1237.2</ele>
        <time>2025-06-21T13:38:52Z</time>
      </trkpt>
      <trkpt lat="44.93766" lon="5.73409">
        <ele>1236.8</ele>
        <time>2025-06-21T13:39:00Z</time>
      </trkpt>
      <trkpt lat="44.93767" lon="5.73487">
        <ele>1246.2</ele>
        <time>2025-06-21T13:41:07Z</time>
      </trkpt>
      <trkpt lat="44.93766" lon="5.73486">
        <ele>1246.2</ele>
        <time>2025-06-21T13:41:08Z</time>
      </trkpt>
      <trkpt lat="44.93769" lon="5.73491">
        <ele>1246</ele>
        <time>2025-06-21T13:41:19Z</time>
      </trkpt>
      <trkpt lat="44.9377" lon="5.73491">
        <ele>1246</ele>
        <time>2025-06-21T13:41:20Z</time>
      </trkpt>
      <trkpt lat="44.9377" lon="5.73491">
        <ele>1246</ele>
        <time>2025-06-21T13:41:21Z</time>
      </trkpt>
      <trkpt lat="44.9377" lon="5.73491">
        <ele>1245.9</ele>
        <time>2025-06-21T13:41:22Z</time>
      </trkpt>
      <trkpt lat="44.9377" lon="5.73491">
        <ele>1245.9</ele>
        <time>2025-06-21T13:41:23Z</time>
      </trkpt>
      <trkpt lat="44.9377" lon="5.73491">
        <ele>1245.9</ele>
        <time>2025-06-21T13:41:24Z</time>
      </trkpt>
    </trkseg>
  </trk>
</gpx>